<?xml version="1.0" encoding="UTF-8" standalone="no" ?>
<gpx xmlns="http://www.topografix.com/GPX/1/1" xmlns:xsi="http://www.w3.org/2001/XMLSchema-instance" xsi:schemaLocation="http://www.topografix.com/GPX/1/1 http://www.topografix.com/GPX/1/1/gpx.xsd" version="1.1" creator="VisuGPX - https://www.visugpx.com">
  <metadata>
    <name>Pte d'Areu (depuis Romme)</name>
    <desc><![CDATA[en A/R depuis Romme ; descente du couloir de la Sallettaz]]></desc>
  </metadata>
  <trk>
    <name><![CDATA[20180114204806-5QGue]]></name>
    <trkseg>
      <trkpt lat="46.02925" lon="6.57508">
        <ele>1303</ele>
        <time>2017-12-29T10:19:42Z</time>
      </trkpt>
      <trkpt lat="46.02924" lon="6.57509">
        <ele>1303</ele>
        <time>2017-12-29T10:19:44Z</time>
      </trkpt>
      <trkpt lat="46.02922" lon="6.57511">
        <ele>1303</ele>
        <time>2017-12-29T10:19:47Z</time>
      </trkpt>
      <trkpt lat="46.02921" lon="6.57513">
        <ele>1303</ele>
        <time>2017-12-29T10:19:48Z</time>
      </trkpt>
      <trkpt lat="46.02897" lon="6.57526">
        <ele>1310</ele>
        <time>2017-12-29T10:20:09Z</time>
      </trkpt>
      <trkpt lat="46.02877" lon="6.57532">
        <ele>1311</ele>
        <time>2017-12-29T10:20:24Z</time>
      </trkpt>
      <trkpt lat="46.02856" lon="6.57534">
        <ele>1313</ele>
        <time>2017-12-29T10:20:38Z</time>
      </trkpt>
      <trkpt lat="46.02841" lon="6.57537">
        <ele>1314</ele>
        <time>2017-12-29T10:20:49Z</time>
      </trkpt>
      <trkpt lat="46.02837" lon="6.57538">
        <ele>1314</ele>
        <time>2017-12-29T10:20:53Z</time>
      </trkpt>
      <trkpt lat="46.02814" lon="6.57541">
        <ele>1323</ele>
        <time>2017-12-29T10:21:08Z</time>
      </trkpt>
      <trkpt lat="46.02793" lon="6.57556">
        <ele>1324</ele>
        <time>2017-12-29T10:21:27Z</time>
      </trkpt>
      <trkpt lat="46.02781" lon="6.57562">
        <ele>1325</ele>
        <time>2017-12-29T10:21:38Z</time>
      </trkpt>
      <trkpt lat="46.02764" lon="6.57574">
        <ele>1329</ele>
        <time>2017-12-29T10:21:54Z</time>
      </trkpt>
      <trkpt lat="46.02747" lon="6.57587">
        <ele>1335</ele>
        <time>2017-12-29T10:22:08Z</time>
      </trkpt>
      <trkpt lat="46.02746" lon="6.57588">
        <ele>1335</ele>
        <time>2017-12-29T10:22:09Z</time>
      </trkpt>
      <trkpt lat="46.02745" lon="6.5759">
        <ele>1336</ele>
        <time>2017-12-29T10:22:10Z</time>
      </trkpt>
      <trkpt lat="46.02744" lon="6.57591">
        <ele>1336</ele>
        <time>2017-12-29T10:22:11Z</time>
      </trkpt>
      <trkpt lat="46.02743" lon="6.57593">
        <ele>1336</ele>
        <time>2017-12-29T10:22:12Z</time>
      </trkpt>
      <trkpt lat="46.02742" lon="6.57594">
        <ele>1337</ele>
        <time>2017-12-29T10:22:13Z</time>
      </trkpt>
      <trkpt lat="46.02743" lon="6.57594">
        <ele>1337</ele>
        <time>2017-12-29T10:22:34Z</time>
      </trkpt>
      <trkpt lat="46.02743" lon="6.57593">
        <ele>1337</ele>
        <time>2017-12-29T10:22:39Z</time>
      </trkpt>
      <trkpt lat="46.02744" lon="6.57593">
        <ele>1336</ele>
        <time>2017-12-29T10:22:44Z</time>
      </trkpt>
      <trkpt lat="46.02745" lon="6.57593">
        <ele>1336</ele>
        <time>2017-12-29T10:22:46Z</time>
      </trkpt>
      <trkpt lat="46.02744" lon="6.57593">
        <ele>1336</ele>
        <time>2017-12-29T10:22:56Z</time>
      </trkpt>
      <trkpt lat="46.02738" lon="6.576">
        <ele>1338</ele>
        <time>2017-12-29T10:23:35Z</time>
      </trkpt>
      <trkpt lat="46.02737" lon="6.57601">
        <ele>1338</ele>
        <time>2017-12-29T10:23:36Z</time>
      </trkpt>
      <trkpt lat="46.02736" lon="6.57601">
        <ele>1338</ele>
        <time>2017-12-29T10:23:37Z</time>
      </trkpt>
      <trkpt lat="46.02726" lon="6.57613">
        <ele>1340</ele>
        <time>2017-12-29T10:23:49Z</time>
      </trkpt>
      <trkpt lat="46.02718" lon="6.57623">
        <ele>1341</ele>
        <time>2017-12-29T10:24:00Z</time>
      </trkpt>
      <trkpt lat="46.02717" lon="6.57624">
        <ele>1341</ele>
        <time>2017-12-29T10:24:01Z</time>
      </trkpt>
      <trkpt lat="46.02703" lon="6.57638">
        <ele>1343</ele>
        <time>2017-12-29T10:24:14Z</time>
      </trkpt>
      <trkpt lat="46.02696" lon="6.57642">
        <ele>1344</ele>
        <time>2017-12-29T10:24:21Z</time>
      </trkpt>
      <trkpt lat="46.02688" lon="6.57647">
        <ele>1345</ele>
        <time>2017-12-29T10:24:32Z</time>
      </trkpt>
      <trkpt lat="46.02672" lon="6.57654">
        <ele>1348</ele>
        <time>2017-12-29T10:24:45Z</time>
      </trkpt>
      <trkpt lat="46.02666" lon="6.57656">
        <ele>1354</ele>
        <time>2017-12-29T10:24:50Z</time>
      </trkpt>
      <trkpt lat="46.02654" lon="6.57661">
        <ele>1355</ele>
        <time>2017-12-29T10:25:02Z</time>
      </trkpt>
      <trkpt lat="46.02641" lon="6.57664">
        <ele>1357</ele>
        <time>2017-12-29T10:25:14Z</time>
      </trkpt>
      <trkpt lat="46.02631" lon="6.57669">
        <ele>1364</ele>
        <time>2017-12-29T10:25:24Z</time>
      </trkpt>
      <trkpt lat="46.02621" lon="6.57671">
        <ele>1365</ele>
        <time>2017-12-29T10:25:36Z</time>
      </trkpt>
      <trkpt lat="46.02613" lon="6.57677">
        <ele>1367</ele>
        <time>2017-12-29T10:25:47Z</time>
      </trkpt>
      <trkpt lat="46.02602" lon="6.57681">
        <ele>1368</ele>
        <time>2017-12-29T10:25:59Z</time>
      </trkpt>
      <trkpt lat="46.02601" lon="6.57683">
        <ele>1368</ele>
        <time>2017-12-29T10:26:08Z</time>
      </trkpt>
      <trkpt lat="46.02595" lon="6.57685">
        <ele>1369</ele>
        <time>2017-12-29T10:26:16Z</time>
      </trkpt>
      <trkpt lat="46.02593" lon="6.57686">
        <ele>1369</ele>
        <time>2017-12-29T10:26:17Z</time>
      </trkpt>
      <trkpt lat="46.02591" lon="6.57686">
        <ele>1369</ele>
        <time>2017-12-29T10:26:19Z</time>
      </trkpt>
      <trkpt lat="46.02579" lon="6.57696">
        <ele>1383</ele>
        <time>2017-12-29T10:26:32Z</time>
      </trkpt>
      <trkpt lat="46.02578" lon="6.577">
        <ele>1383</ele>
        <time>2017-12-29T10:26:36Z</time>
      </trkpt>
      <trkpt lat="46.02576" lon="6.57703">
        <ele>1384</ele>
        <time>2017-12-29T10:26:39Z</time>
      </trkpt>
      <trkpt lat="46.02572" lon="6.57716">
        <ele>1385</ele>
        <time>2017-12-29T10:26:50Z</time>
      </trkpt>
      <trkpt lat="46.02571" lon="6.57722">
        <ele>1386</ele>
        <time>2017-12-29T10:26:55Z</time>
      </trkpt>
      <trkpt lat="46.02571" lon="6.57723">
        <ele>1386</ele>
        <time>2017-12-29T10:26:56Z</time>
      </trkpt>
      <trkpt lat="46.0257" lon="6.57724">
        <ele>1386</ele>
        <time>2017-12-29T10:26:57Z</time>
      </trkpt>
      <trkpt lat="46.0257" lon="6.57728">
        <ele>1386</ele>
        <time>2017-12-29T10:27:00Z</time>
      </trkpt>
      <trkpt lat="46.02569" lon="6.57731">
        <ele>1386</ele>
        <time>2017-12-29T10:27:03Z</time>
      </trkpt>
      <trkpt lat="46.02563" lon="6.57745">
        <ele>1386</ele>
        <time>2017-12-29T10:27:16Z</time>
      </trkpt>
      <trkpt lat="46.02562" lon="6.57752">
        <ele>1390</ele>
        <time>2017-12-29T10:27:23Z</time>
      </trkpt>
      <trkpt lat="46.02562" lon="6.57753">
        <ele>1391</ele>
        <time>2017-12-29T10:27:24Z</time>
      </trkpt>
      <trkpt lat="46.02559" lon="6.5776">
        <ele>1392</ele>
        <time>2017-12-29T10:27:31Z</time>
      </trkpt>
      <trkpt lat="46.02558" lon="6.57763">
        <ele>1392</ele>
        <time>2017-12-29T10:27:34Z</time>
      </trkpt>
      <trkpt lat="46.02557" lon="6.57764">
        <ele>1392</ele>
        <time>2017-12-29T10:27:35Z</time>
      </trkpt>
      <trkpt lat="46.02556" lon="6.57764">
        <ele>1393</ele>
        <time>2017-12-29T10:27:36Z</time>
      </trkpt>
      <trkpt lat="46.02555" lon="6.57763">
        <ele>1393</ele>
        <time>2017-12-29T10:27:37Z</time>
      </trkpt>
      <trkpt lat="46.02554" lon="6.57763">
        <ele>1393</ele>
        <time>2017-12-29T10:27:38Z</time>
      </trkpt>
      <trkpt lat="46.02553" lon="6.57763">
        <ele>1393</ele>
        <time>2017-12-29T10:27:39Z</time>
      </trkpt>
      <trkpt lat="46.0255" lon="6.57759">
        <ele>1394</ele>
        <time>2017-12-29T10:27:44Z</time>
      </trkpt>
      <trkpt lat="46.02545" lon="6.57755">
        <ele>1395</ele>
        <time>2017-12-29T10:27:51Z</time>
      </trkpt>
      <trkpt lat="46.02537" lon="6.57749">
        <ele>1393</ele>
        <time>2017-12-29T10:28:02Z</time>
      </trkpt>
      <trkpt lat="46.02528" lon="6.57745">
        <ele>1395</ele>
        <time>2017-12-29T10:28:13Z</time>
      </trkpt>
      <trkpt lat="46.0252" lon="6.57744">
        <ele>1398</ele>
        <time>2017-12-29T10:28:24Z</time>
      </trkpt>
      <trkpt lat="46.0251" lon="6.57745">
        <ele>1403</ele>
        <time>2017-12-29T10:28:37Z</time>
      </trkpt>
      <trkpt lat="46.02498" lon="6.57747">
        <ele>1410</ele>
        <time>2017-12-29T10:28:49Z</time>
      </trkpt>
      <trkpt lat="46.02489" lon="6.57749">
        <ele>1411</ele>
        <time>2017-12-29T10:29:02Z</time>
      </trkpt>
      <trkpt lat="46.02488" lon="6.57756">
        <ele>1419</ele>
        <time>2017-12-29T10:29:10Z</time>
      </trkpt>
      <trkpt lat="46.0249" lon="6.5777">
        <ele>1422</ele>
        <time>2017-12-29T10:29:22Z</time>
      </trkpt>
      <trkpt lat="46.02489" lon="6.57786">
        <ele>1426</ele>
        <time>2017-12-29T10:29:36Z</time>
      </trkpt>
      <trkpt lat="46.02489" lon="6.57801">
        <ele>1427</ele>
        <time>2017-12-29T10:29:49Z</time>
      </trkpt>
      <trkpt lat="46.0249" lon="6.57808">
        <ele>1427</ele>
        <time>2017-12-29T10:29:56Z</time>
      </trkpt>
      <trkpt lat="46.0249" lon="6.57811">
        <ele>1427</ele>
        <time>2017-12-29T10:29:58Z</time>
      </trkpt>
      <trkpt lat="46.02484" lon="6.57815">
        <ele>1427</ele>
        <time>2017-12-29T10:30:10Z</time>
      </trkpt>
      <trkpt lat="46.02483" lon="6.57815">
        <ele>1428</ele>
        <time>2017-12-29T10:30:11Z</time>
      </trkpt>
      <trkpt lat="46.02482" lon="6.57814">
        <ele>1428</ele>
        <time>2017-12-29T10:30:12Z</time>
      </trkpt>
      <trkpt lat="46.02474" lon="6.57811">
        <ele>1430</ele>
        <time>2017-12-29T10:30:22Z</time>
      </trkpt>
      <trkpt lat="46.02469" lon="6.57809">
        <ele>1431</ele>
        <time>2017-12-29T10:30:29Z</time>
      </trkpt>
      <trkpt lat="46.02468" lon="6.57808">
        <ele>1431</ele>
        <time>2017-12-29T10:30:30Z</time>
      </trkpt>
      <trkpt lat="46.02467" lon="6.57808">
        <ele>1431</ele>
        <time>2017-12-29T10:30:31Z</time>
      </trkpt>
      <trkpt lat="46.02466" lon="6.57808">
        <ele>1431</ele>
        <time>2017-12-29T10:30:32Z</time>
      </trkpt>
      <trkpt lat="46.02466" lon="6.57808">
        <ele>1431</ele>
        <time>2017-12-29T10:30:33Z</time>
      </trkpt>
      <trkpt lat="46.02465" lon="6.57807">
        <ele>1432</ele>
        <time>2017-12-29T10:30:34Z</time>
      </trkpt>
      <trkpt lat="46.02464" lon="6.57807">
        <ele>1432</ele>
        <time>2017-12-29T10:30:35Z</time>
      </trkpt>
      <trkpt lat="46.02463" lon="6.57807">
        <ele>1432</ele>
        <time>2017-12-29T10:30:36Z</time>
      </trkpt>
      <trkpt lat="46.02461" lon="6.57806">
        <ele>1432</ele>
        <time>2017-12-29T10:30:39Z</time>
      </trkpt>
      <trkpt lat="46.0246" lon="6.57805">
        <ele>1433</ele>
        <time>2017-12-29T10:30:41Z</time>
      </trkpt>
      <trkpt lat="46.02458" lon="6.57805">
        <ele>1433</ele>
        <time>2017-12-29T10:30:42Z</time>
      </trkpt>
      <trkpt lat="46.02457" lon="6.57804">
        <ele>1433</ele>
        <time>2017-12-29T10:30:43Z</time>
      </trkpt>
      <trkpt lat="46.02457" lon="6.57803">
        <ele>1433</ele>
        <time>2017-12-29T10:30:44Z</time>
      </trkpt>
      <trkpt lat="46.02456" lon="6.57803">
        <ele>1433</ele>
        <time>2017-12-29T10:30:45Z</time>
      </trkpt>
      <trkpt lat="46.02455" lon="6.57802">
        <ele>1433</ele>
        <time>2017-12-29T10:30:46Z</time>
      </trkpt>
      <trkpt lat="46.02454" lon="6.57801">
        <ele>1434</ele>
        <time>2017-12-29T10:30:48Z</time>
      </trkpt>
      <trkpt lat="46.02452" lon="6.578">
        <ele>1434</ele>
        <time>2017-12-29T10:30:51Z</time>
      </trkpt>
      <trkpt lat="46.02443" lon="6.57798">
        <ele>1435</ele>
        <time>2017-12-29T10:31:04Z</time>
      </trkpt>
      <trkpt lat="46.02432" lon="6.57796">
        <ele>1437</ele>
        <time>2017-12-29T10:31:17Z</time>
      </trkpt>
      <trkpt lat="46.02425" lon="6.57795">
        <ele>1438</ele>
        <time>2017-12-29T10:31:28Z</time>
      </trkpt>
      <trkpt lat="46.02417" lon="6.57796">
        <ele>1439</ele>
        <time>2017-12-29T10:31:42Z</time>
      </trkpt>
      <trkpt lat="46.02409" lon="6.57798">
        <ele>1458</ele>
        <time>2017-12-29T10:31:59Z</time>
      </trkpt>
      <trkpt lat="46.02412" lon="6.57808">
        <ele>1459</ele>
        <time>2017-12-29T10:32:09Z</time>
      </trkpt>
      <trkpt lat="46.02412" lon="6.5781">
        <ele>1459</ele>
        <time>2017-12-29T10:32:11Z</time>
      </trkpt>
      <trkpt lat="46.02416" lon="6.5782">
        <ele>1460</ele>
        <time>2017-12-29T10:32:22Z</time>
      </trkpt>
      <trkpt lat="46.02416" lon="6.57829">
        <ele>1461</ele>
        <time>2017-12-29T10:32:36Z</time>
      </trkpt>
      <trkpt lat="46.02412" lon="6.57827">
        <ele>1461</ele>
        <time>2017-12-29T10:32:41Z</time>
      </trkpt>
      <trkpt lat="46.024" lon="6.57824">
        <ele>1461</ele>
        <time>2017-12-29T10:32:57Z</time>
      </trkpt>
      <trkpt lat="46.02393" lon="6.57824">
        <ele>1462</ele>
        <time>2017-12-29T10:33:08Z</time>
      </trkpt>
      <trkpt lat="46.02382" lon="6.57825">
        <ele>1464</ele>
        <time>2017-12-29T10:33:23Z</time>
      </trkpt>
      <trkpt lat="46.02377" lon="6.57827">
        <ele>1465</ele>
        <time>2017-12-29T10:33:34Z</time>
      </trkpt>
      <trkpt lat="46.02381" lon="6.57838">
        <ele>1481</ele>
        <time>2017-12-29T10:33:47Z</time>
      </trkpt>
      <trkpt lat="46.02382" lon="6.57844">
        <ele>1482</ele>
        <time>2017-12-29T10:33:53Z</time>
      </trkpt>
      <trkpt lat="46.02387" lon="6.57855">
        <ele>1481</ele>
        <time>2017-12-29T10:34:06Z</time>
      </trkpt>
      <trkpt lat="46.02389" lon="6.57866">
        <ele>1483</ele>
        <time>2017-12-29T10:34:18Z</time>
      </trkpt>
      <trkpt lat="46.0239" lon="6.57868">
        <ele>1483</ele>
        <time>2017-12-29T10:34:20Z</time>
      </trkpt>
      <trkpt lat="46.0239" lon="6.57872">
        <ele>1483</ele>
        <time>2017-12-29T10:34:24Z</time>
      </trkpt>
      <trkpt lat="46.02391" lon="6.57874">
        <ele>1484</ele>
        <time>2017-12-29T10:34:26Z</time>
      </trkpt>
      <trkpt lat="46.02394" lon="6.57888">
        <ele>1484</ele>
        <time>2017-12-29T10:34:41Z</time>
      </trkpt>
      <trkpt lat="46.02393" lon="6.579">
        <ele>1485</ele>
        <time>2017-12-29T10:34:54Z</time>
      </trkpt>
      <trkpt lat="46.02393" lon="6.57913">
        <ele>1484</ele>
        <time>2017-12-29T10:35:07Z</time>
      </trkpt>
      <trkpt lat="46.02393" lon="6.57922">
        <ele>1495</ele>
        <time>2017-12-29T10:35:16Z</time>
      </trkpt>
      <trkpt lat="46.02389" lon="6.57929">
        <ele>1498</ele>
        <time>2017-12-29T10:35:33Z</time>
      </trkpt>
      <trkpt lat="46.02387" lon="6.57938">
        <ele>1500</ele>
        <time>2017-12-29T10:35:43Z</time>
      </trkpt>
      <trkpt lat="46.02386" lon="6.57941">
        <ele>1501</ele>
        <time>2017-12-29T10:35:46Z</time>
      </trkpt>
      <trkpt lat="46.02387" lon="6.57945">
        <ele>1501</ele>
        <time>2017-12-29T10:35:49Z</time>
      </trkpt>
      <trkpt lat="46.02386" lon="6.57948">
        <ele>1502</ele>
        <time>2017-12-29T10:35:51Z</time>
      </trkpt>
      <trkpt lat="46.02386" lon="6.57952">
        <ele>1502</ele>
        <time>2017-12-29T10:35:54Z</time>
      </trkpt>
      <trkpt lat="46.02387" lon="6.57954">
        <ele>1502</ele>
        <time>2017-12-29T10:35:55Z</time>
      </trkpt>
      <trkpt lat="46.02387" lon="6.57955">
        <ele>1502</ele>
        <time>2017-12-29T10:35:56Z</time>
      </trkpt>
      <trkpt lat="46.02387" lon="6.57957">
        <ele>1503</ele>
        <time>2017-12-29T10:35:57Z</time>
      </trkpt>
      <trkpt lat="46.02387" lon="6.57958">
        <ele>1503</ele>
        <time>2017-12-29T10:35:58Z</time>
      </trkpt>
      <trkpt lat="46.02387" lon="6.5796">
        <ele>1503</ele>
        <time>2017-12-29T10:35:59Z</time>
      </trkpt>
      <trkpt lat="46.02384" lon="6.57975">
        <ele>1505</ele>
        <time>2017-12-29T10:36:13Z</time>
      </trkpt>
      <trkpt lat="46.02382" lon="6.57984">
        <ele>1506</ele>
        <time>2017-12-29T10:36:24Z</time>
      </trkpt>
      <trkpt lat="46.02379" lon="6.57996">
        <ele>1507</ele>
        <time>2017-12-29T10:36:37Z</time>
      </trkpt>
      <trkpt lat="46.02373" lon="6.57999">
        <ele>1510</ele>
        <time>2017-12-29T10:36:55Z</time>
      </trkpt>
      <trkpt lat="46.0237" lon="6.58002">
        <ele>1520</ele>
        <time>2017-12-29T10:37:08Z</time>
      </trkpt>
      <trkpt lat="46.02368" lon="6.58018">
        <ele>1521</ele>
        <time>2017-12-29T10:37:23Z</time>
      </trkpt>
      <trkpt lat="46.02369" lon="6.58021">
        <ele>1520</ele>
        <time>2017-12-29T10:37:26Z</time>
      </trkpt>
      <trkpt lat="46.02369" lon="6.58026">
        <ele>1521</ele>
        <time>2017-12-29T10:37:32Z</time>
      </trkpt>
      <trkpt lat="46.02369" lon="6.58029">
        <ele>1521</ele>
        <time>2017-12-29T10:37:34Z</time>
      </trkpt>
      <trkpt lat="46.02369" lon="6.58046">
        <ele>1521</ele>
        <time>2017-12-29T10:37:49Z</time>
      </trkpt>
      <trkpt lat="46.02363" lon="6.58046">
        <ele>1523</ele>
        <time>2017-12-29T10:37:59Z</time>
      </trkpt>
      <trkpt lat="46.02362" lon="6.58045">
        <ele>1524</ele>
        <time>2017-12-29T10:38:00Z</time>
      </trkpt>
      <trkpt lat="46.02361" lon="6.58045">
        <ele>1524</ele>
        <time>2017-12-29T10:38:01Z</time>
      </trkpt>
      <trkpt lat="46.02352" lon="6.58038">
        <ele>1526</ele>
        <time>2017-12-29T10:38:15Z</time>
      </trkpt>
      <trkpt lat="46.02342" lon="6.58027">
        <ele>1528</ele>
        <time>2017-12-29T10:38:30Z</time>
      </trkpt>
      <trkpt lat="46.02336" lon="6.58015">
        <ele>1532</ele>
        <time>2017-12-29T10:38:46Z</time>
      </trkpt>
      <trkpt lat="46.02335" lon="6.58014">
        <ele>1533</ele>
        <time>2017-12-29T10:38:48Z</time>
      </trkpt>
      <trkpt lat="46.02333" lon="6.58012">
        <ele>1551</ele>
        <time>2017-12-29T10:38:50Z</time>
      </trkpt>
      <trkpt lat="46.02333" lon="6.58011">
        <ele>1551</ele>
        <time>2017-12-29T10:38:51Z</time>
      </trkpt>
      <trkpt lat="46.02326" lon="6.58">
        <ele>1545</ele>
        <time>2017-12-29T10:39:07Z</time>
      </trkpt>
      <trkpt lat="46.02318" lon="6.57995">
        <ele>1549</ele>
        <time>2017-12-29T10:39:20Z</time>
      </trkpt>
      <trkpt lat="46.02317" lon="6.57994">
        <ele>1549</ele>
        <time>2017-12-29T10:39:21Z</time>
      </trkpt>
      <trkpt lat="46.0231" lon="6.5799">
        <ele>1552</ele>
        <time>2017-12-29T10:39:33Z</time>
      </trkpt>
      <trkpt lat="46.02302" lon="6.57986">
        <ele>1555</ele>
        <time>2017-12-29T10:39:45Z</time>
      </trkpt>
      <trkpt lat="46.02292" lon="6.57971">
        <ele>1557</ele>
        <time>2017-12-29T10:40:02Z</time>
      </trkpt>
      <trkpt lat="46.02278" lon="6.57955">
        <ele>1559</ele>
        <time>2017-12-29T10:40:23Z</time>
      </trkpt>
      <trkpt lat="46.02274" lon="6.5795">
        <ele>1560</ele>
        <time>2017-12-29T10:40:34Z</time>
      </trkpt>
      <trkpt lat="46.02271" lon="6.57947">
        <ele>1560</ele>
        <time>2017-12-29T10:40:43Z</time>
      </trkpt>
      <trkpt lat="46.02261" lon="6.57942">
        <ele>1562</ele>
        <time>2017-12-29T10:40:58Z</time>
      </trkpt>
      <trkpt lat="46.02259" lon="6.57941">
        <ele>1562</ele>
        <time>2017-12-29T10:41:02Z</time>
      </trkpt>
      <trkpt lat="46.02258" lon="6.57935">
        <ele>1563</ele>
        <time>2017-12-29T10:41:20Z</time>
      </trkpt>
      <trkpt lat="46.02259" lon="6.57935">
        <ele>1563</ele>
        <time>2017-12-29T10:41:25Z</time>
      </trkpt>
      <trkpt lat="46.02259" lon="6.57935">
        <ele>1563</ele>
        <time>2017-12-29T10:41:27Z</time>
      </trkpt>
      <trkpt lat="46.0226" lon="6.57936">
        <ele>1563</ele>
        <time>2017-12-29T10:41:30Z</time>
      </trkpt>
      <trkpt lat="46.0226" lon="6.57936">
        <ele>1562</ele>
        <time>2017-12-29T10:41:33Z</time>
      </trkpt>
      <trkpt lat="46.0226" lon="6.57936">
        <ele>1562</ele>
        <time>2017-12-29T10:41:35Z</time>
      </trkpt>
      <trkpt lat="46.02257" lon="6.57939">
        <ele>1563</ele>
        <time>2017-12-29T10:41:48Z</time>
      </trkpt>
      <trkpt lat="46.02257" lon="6.57936">
        <ele>1563</ele>
        <time>2017-12-29T10:41:57Z</time>
      </trkpt>
      <trkpt lat="46.02257" lon="6.57936">
        <ele>1563</ele>
        <time>2017-12-29T10:41:58Z</time>
      </trkpt>
      <trkpt lat="46.02256" lon="6.57936">
        <ele>1563</ele>
        <time>2017-12-29T10:42:04Z</time>
      </trkpt>
      <trkpt lat="46.02256" lon="6.57937">
        <ele>1563</ele>
        <time>2017-12-29T10:42:20Z</time>
      </trkpt>
      <trkpt lat="46.02255" lon="6.57933">
        <ele>1564</ele>
        <time>2017-12-29T10:42:35Z</time>
      </trkpt>
      <trkpt lat="46.02244" lon="6.57927">
        <ele>1582</ele>
        <time>2017-12-29T10:42:54Z</time>
      </trkpt>
      <trkpt lat="46.02242" lon="6.57925">
        <ele>1582</ele>
        <time>2017-12-29T10:42:58Z</time>
      </trkpt>
      <trkpt lat="46.0224" lon="6.57926">
        <ele>1583</ele>
        <time>2017-12-29T10:43:00Z</time>
      </trkpt>
      <trkpt lat="46.02238" lon="6.57929">
        <ele>1586</ele>
        <time>2017-12-29T10:43:02Z</time>
      </trkpt>
      <trkpt lat="46.02239" lon="6.57932">
        <ele>1587</ele>
        <time>2017-12-29T10:43:04Z</time>
      </trkpt>
      <trkpt lat="46.0224" lon="6.57934">
        <ele>1587</ele>
        <time>2017-12-29T10:43:06Z</time>
      </trkpt>
      <trkpt lat="46.0224" lon="6.57935">
        <ele>1588</ele>
        <time>2017-12-29T10:43:07Z</time>
      </trkpt>
      <trkpt lat="46.02244" lon="6.57941">
        <ele>1589</ele>
        <time>2017-12-29T10:43:12Z</time>
      </trkpt>
      <trkpt lat="46.02249" lon="6.57946">
        <ele>1591</ele>
        <time>2017-12-29T10:43:18Z</time>
      </trkpt>
      <trkpt lat="46.02252" lon="6.57952">
        <ele>1564</ele>
        <time>2017-12-29T10:43:23Z</time>
      </trkpt>
      <trkpt lat="46.02256" lon="6.57962">
        <ele>1565</ele>
        <time>2017-12-29T10:43:31Z</time>
      </trkpt>
      <trkpt lat="46.0226" lon="6.57985">
        <ele>1573</ele>
        <time>2017-12-29T10:43:47Z</time>
      </trkpt>
      <trkpt lat="46.02264" lon="6.58007">
        <ele>1580</ele>
        <time>2017-12-29T10:44:04Z</time>
      </trkpt>
      <trkpt lat="46.02266" lon="6.58025">
        <ele>1577</ele>
        <time>2017-12-29T10:44:18Z</time>
      </trkpt>
      <trkpt lat="46.02264" lon="6.58043">
        <ele>1577</ele>
        <time>2017-12-29T10:44:32Z</time>
      </trkpt>
      <trkpt lat="46.0226" lon="6.58062">
        <ele>1580</ele>
        <time>2017-12-29T10:44:48Z</time>
      </trkpt>
      <trkpt lat="46.02253" lon="6.58083">
        <ele>1592</ele>
        <time>2017-12-29T10:45:04Z</time>
      </trkpt>
      <trkpt lat="46.02244" lon="6.58095">
        <ele>1605</ele>
        <time>2017-12-29T10:45:16Z</time>
      </trkpt>
      <trkpt lat="46.02238" lon="6.58105">
        <ele>1610</ele>
        <time>2017-12-29T10:45:26Z</time>
      </trkpt>
      <trkpt lat="46.02223" lon="6.58125">
        <ele>1615</ele>
        <time>2017-12-29T10:45:44Z</time>
      </trkpt>
      <trkpt lat="46.02221" lon="6.58126">
        <ele>1616</ele>
        <time>2017-12-29T10:45:45Z</time>
      </trkpt>
      <trkpt lat="46.0221" lon="6.58148">
        <ele>1619</ele>
        <time>2017-12-29T10:46:04Z</time>
      </trkpt>
      <trkpt lat="46.022" lon="6.58166">
        <ele>1622</ele>
        <time>2017-12-29T10:46:19Z</time>
      </trkpt>
      <trkpt lat="46.02197" lon="6.58188">
        <ele>1625</ele>
        <time>2017-12-29T10:46:35Z</time>
      </trkpt>
      <trkpt lat="46.02199" lon="6.58212">
        <ele>1625</ele>
        <time>2017-12-29T10:46:52Z</time>
      </trkpt>
      <trkpt lat="46.02216" lon="6.58228">
        <ele>1622</ele>
        <time>2017-12-29T10:47:12Z</time>
      </trkpt>
      <trkpt lat="46.02217" lon="6.58248">
        <ele>1622</ele>
        <time>2017-12-29T10:47:27Z</time>
      </trkpt>
      <trkpt lat="46.02212" lon="6.58269">
        <ele>1632</ele>
        <time>2017-12-29T10:47:42Z</time>
      </trkpt>
      <trkpt lat="46.02211" lon="6.58288">
        <ele>1634</ele>
        <time>2017-12-29T10:47:54Z</time>
      </trkpt>
      <trkpt lat="46.02213" lon="6.58312">
        <ele>1636</ele>
        <time>2017-12-29T10:48:10Z</time>
      </trkpt>
      <trkpt lat="46.02217" lon="6.58336">
        <ele>1645</ele>
        <time>2017-12-29T10:48:26Z</time>
      </trkpt>
      <trkpt lat="46.0222" lon="6.58349">
        <ele>1644</ele>
        <time>2017-12-29T10:48:37Z</time>
      </trkpt>
      <trkpt lat="46.02225" lon="6.58364">
        <ele>1645</ele>
        <time>2017-12-29T10:48:50Z</time>
      </trkpt>
      <trkpt lat="46.02226" lon="6.58367">
        <ele>1645</ele>
        <time>2017-12-29T10:48:52Z</time>
      </trkpt>
      <trkpt lat="46.02226" lon="6.58372">
        <ele>1646</ele>
        <time>2017-12-29T10:48:55Z</time>
      </trkpt>
      <trkpt lat="46.02226" lon="6.58374">
        <ele>1646</ele>
        <time>2017-12-29T10:48:56Z</time>
      </trkpt>
      <trkpt lat="46.02225" lon="6.58381">
        <ele>1647</ele>
        <time>2017-12-29T10:49:01Z</time>
      </trkpt>
      <trkpt lat="46.02225" lon="6.58382">
        <ele>1647</ele>
        <time>2017-12-29T10:49:02Z</time>
      </trkpt>
      <trkpt lat="46.02225" lon="6.58384">
        <ele>1647</ele>
        <time>2017-12-29T10:49:03Z</time>
      </trkpt>
      <trkpt lat="46.02226" lon="6.58385">
        <ele>1647</ele>
        <time>2017-12-29T10:49:04Z</time>
      </trkpt>
      <trkpt lat="46.02226" lon="6.58387">
        <ele>1647</ele>
        <time>2017-12-29T10:49:05Z</time>
      </trkpt>
      <trkpt lat="46.02226" lon="6.58388">
        <ele>1647</ele>
        <time>2017-12-29T10:49:06Z</time>
      </trkpt>
      <trkpt lat="46.02226" lon="6.58389">
        <ele>1647</ele>
        <time>2017-12-29T10:49:07Z</time>
      </trkpt>
      <trkpt lat="46.02226" lon="6.58391">
        <ele>1647</ele>
        <time>2017-12-29T10:49:08Z</time>
      </trkpt>
      <trkpt lat="46.02227" lon="6.58395">
        <ele>1647</ele>
        <time>2017-12-29T10:49:11Z</time>
      </trkpt>
      <trkpt lat="46.02232" lon="6.58413">
        <ele>1644</ele>
        <time>2017-12-29T10:49:24Z</time>
      </trkpt>
      <trkpt lat="46.02236" lon="6.5844">
        <ele>1651</ele>
        <time>2017-12-29T10:49:41Z</time>
      </trkpt>
      <trkpt lat="46.02238" lon="6.58445">
        <ele>1651</ele>
        <time>2017-12-29T10:49:44Z</time>
      </trkpt>
      <trkpt lat="46.02238" lon="6.58446">
        <ele>1652</ele>
        <time>2017-12-29T10:49:45Z</time>
      </trkpt>
      <trkpt lat="46.02238" lon="6.58448">
        <ele>1652</ele>
        <time>2017-12-29T10:49:46Z</time>
      </trkpt>
      <trkpt lat="46.02238" lon="6.5845">
        <ele>1652</ele>
        <time>2017-12-29T10:49:47Z</time>
      </trkpt>
      <trkpt lat="46.02238" lon="6.58452">
        <ele>1652</ele>
        <time>2017-12-29T10:49:48Z</time>
      </trkpt>
      <trkpt lat="46.02238" lon="6.58454">
        <ele>1652</ele>
        <time>2017-12-29T10:49:49Z</time>
      </trkpt>
      <trkpt lat="46.02238" lon="6.58456">
        <ele>1652</ele>
        <time>2017-12-29T10:49:50Z</time>
      </trkpt>
      <trkpt lat="46.02238" lon="6.58465">
        <ele>1653</ele>
        <time>2017-12-29T10:49:55Z</time>
      </trkpt>
      <trkpt lat="46.02239" lon="6.58467">
        <ele>1653</ele>
        <time>2017-12-29T10:49:56Z</time>
      </trkpt>
      <trkpt lat="46.02238" lon="6.58469">
        <ele>1652</ele>
        <time>2017-12-29T10:49:57Z</time>
      </trkpt>
      <trkpt lat="46.02239" lon="6.58471">
        <ele>1652</ele>
        <time>2017-12-29T10:49:58Z</time>
      </trkpt>
      <trkpt lat="46.02239" lon="6.58472">
        <ele>1652</ele>
        <time>2017-12-29T10:49:59Z</time>
      </trkpt>
      <trkpt lat="46.0224" lon="6.58473">
        <ele>1652</ele>
        <time>2017-12-29T10:50:00Z</time>
      </trkpt>
      <trkpt lat="46.02247" lon="6.58503">
        <ele>1644</ele>
        <time>2017-12-29T10:50:17Z</time>
      </trkpt>
      <trkpt lat="46.02247" lon="6.58505">
        <ele>1645</ele>
        <time>2017-12-29T10:50:18Z</time>
      </trkpt>
      <trkpt lat="46.02247" lon="6.58507">
        <ele>1646</ele>
        <time>2017-12-29T10:50:19Z</time>
      </trkpt>
      <trkpt lat="46.02247" lon="6.58509">
        <ele>1647</ele>
        <time>2017-12-29T10:50:20Z</time>
      </trkpt>
      <trkpt lat="46.02247" lon="6.58511">
        <ele>1648</ele>
        <time>2017-12-29T10:50:21Z</time>
      </trkpt>
      <trkpt lat="46.02247" lon="6.58512">
        <ele>1649</ele>
        <time>2017-12-29T10:50:22Z</time>
      </trkpt>
      <trkpt lat="46.02247" lon="6.58514">
        <ele>1650</ele>
        <time>2017-12-29T10:50:23Z</time>
      </trkpt>
      <trkpt lat="46.02247" lon="6.58516">
        <ele>1650</ele>
        <time>2017-12-29T10:50:24Z</time>
      </trkpt>
      <trkpt lat="46.02247" lon="6.58518">
        <ele>1651</ele>
        <time>2017-12-29T10:50:25Z</time>
      </trkpt>
      <trkpt lat="46.02246" lon="6.5852">
        <ele>1652</ele>
        <time>2017-12-29T10:50:26Z</time>
      </trkpt>
      <trkpt lat="46.02245" lon="6.58521">
        <ele>1652</ele>
        <time>2017-12-29T10:50:27Z</time>
      </trkpt>
      <trkpt lat="46.02243" lon="6.58525">
        <ele>1653</ele>
        <time>2017-12-29T10:50:30Z</time>
      </trkpt>
      <trkpt lat="46.02242" lon="6.58527">
        <ele>1654</ele>
        <time>2017-12-29T10:50:31Z</time>
      </trkpt>
      <trkpt lat="46.0224" lon="6.58532">
        <ele>1655</ele>
        <time>2017-12-29T10:50:34Z</time>
      </trkpt>
      <trkpt lat="46.0224" lon="6.58534">
        <ele>1655</ele>
        <time>2017-12-29T10:50:35Z</time>
      </trkpt>
      <trkpt lat="46.0224" lon="6.58536">
        <ele>1655</ele>
        <time>2017-12-29T10:50:36Z</time>
      </trkpt>
      <trkpt lat="46.0224" lon="6.58537">
        <ele>1655</ele>
        <time>2017-12-29T10:50:37Z</time>
      </trkpt>
      <trkpt lat="46.02239" lon="6.58539">
        <ele>1656</ele>
        <time>2017-12-29T10:50:38Z</time>
      </trkpt>
      <trkpt lat="46.02237" lon="6.58548">
        <ele>1656</ele>
        <time>2017-12-29T10:50:44Z</time>
      </trkpt>
      <trkpt lat="46.02236" lon="6.58549">
        <ele>1656</ele>
        <time>2017-12-29T10:50:45Z</time>
      </trkpt>
      <trkpt lat="46.02236" lon="6.5855">
        <ele>1656</ele>
        <time>2017-12-29T10:50:46Z</time>
      </trkpt>
      <trkpt lat="46.02236" lon="6.58552">
        <ele>1656</ele>
        <time>2017-12-29T10:50:47Z</time>
      </trkpt>
      <trkpt lat="46.02236" lon="6.58554">
        <ele>1656</ele>
        <time>2017-12-29T10:50:48Z</time>
      </trkpt>
      <trkpt lat="46.02236" lon="6.58555">
        <ele>1656</ele>
        <time>2017-12-29T10:50:49Z</time>
      </trkpt>
      <trkpt lat="46.02228" lon="6.58581">
        <ele>1656</ele>
        <time>2017-12-29T10:51:07Z</time>
      </trkpt>
      <trkpt lat="46.02215" lon="6.58593">
        <ele>1661</ele>
        <time>2017-12-29T10:51:20Z</time>
      </trkpt>
      <trkpt lat="46.02213" lon="6.58593">
        <ele>1661</ele>
        <time>2017-12-29T10:51:21Z</time>
      </trkpt>
      <trkpt lat="46.02212" lon="6.58594">
        <ele>1661</ele>
        <time>2017-12-29T10:51:22Z</time>
      </trkpt>
      <trkpt lat="46.02211" lon="6.58595">
        <ele>1661</ele>
        <time>2017-12-29T10:51:23Z</time>
      </trkpt>
      <trkpt lat="46.0221" lon="6.58597">
        <ele>1662</ele>
        <time>2017-12-29T10:51:24Z</time>
      </trkpt>
      <trkpt lat="46.02208" lon="6.58598">
        <ele>1662</ele>
        <time>2017-12-29T10:51:25Z</time>
      </trkpt>
      <trkpt lat="46.02207" lon="6.58599">
        <ele>1662</ele>
        <time>2017-12-29T10:51:26Z</time>
      </trkpt>
      <trkpt lat="46.02206" lon="6.586">
        <ele>1662</ele>
        <time>2017-12-29T10:51:27Z</time>
      </trkpt>
      <trkpt lat="46.02205" lon="6.58601">
        <ele>1662</ele>
        <time>2017-12-29T10:51:28Z</time>
      </trkpt>
      <trkpt lat="46.02204" lon="6.58602">
        <ele>1662</ele>
        <time>2017-12-29T10:51:29Z</time>
      </trkpt>
      <trkpt lat="46.02203" lon="6.58603">
        <ele>1663</ele>
        <time>2017-12-29T10:51:30Z</time>
      </trkpt>
      <trkpt lat="46.0218" lon="6.5862">
        <ele>1665</ele>
        <time>2017-12-29T10:51:51Z</time>
      </trkpt>
      <trkpt lat="46.02167" lon="6.58629">
        <ele>1676</ele>
        <time>2017-12-29T10:52:03Z</time>
      </trkpt>
      <trkpt lat="46.02165" lon="6.58629">
        <ele>1676</ele>
        <time>2017-12-29T10:52:04Z</time>
      </trkpt>
      <trkpt lat="46.02163" lon="6.5863">
        <ele>1676</ele>
        <time>2017-12-29T10:52:05Z</time>
      </trkpt>
      <trkpt lat="46.02162" lon="6.58631">
        <ele>1676</ele>
        <time>2017-12-29T10:52:06Z</time>
      </trkpt>
      <trkpt lat="46.0216" lon="6.58632">
        <ele>1676</ele>
        <time>2017-12-29T10:52:07Z</time>
      </trkpt>
      <trkpt lat="46.02159" lon="6.58632">
        <ele>1676</ele>
        <time>2017-12-29T10:52:08Z</time>
      </trkpt>
      <trkpt lat="46.02158" lon="6.58633">
        <ele>1676</ele>
        <time>2017-12-29T10:52:09Z</time>
      </trkpt>
      <trkpt lat="46.02157" lon="6.58634">
        <ele>1676</ele>
        <time>2017-12-29T10:52:10Z</time>
      </trkpt>
      <trkpt lat="46.02155" lon="6.58635">
        <ele>1676</ele>
        <time>2017-12-29T10:52:11Z</time>
      </trkpt>
      <trkpt lat="46.02154" lon="6.58635">
        <ele>1676</ele>
        <time>2017-12-29T10:52:12Z</time>
      </trkpt>
      <trkpt lat="46.02153" lon="6.58636">
        <ele>1676</ele>
        <time>2017-12-29T10:52:13Z</time>
      </trkpt>
      <trkpt lat="46.02152" lon="6.58637">
        <ele>1676</ele>
        <time>2017-12-29T10:52:14Z</time>
      </trkpt>
      <trkpt lat="46.02151" lon="6.58638">
        <ele>1676</ele>
        <time>2017-12-29T10:52:15Z</time>
      </trkpt>
      <trkpt lat="46.02149" lon="6.58638">
        <ele>1676</ele>
        <time>2017-12-29T10:52:16Z</time>
      </trkpt>
      <trkpt lat="46.02148" lon="6.58639">
        <ele>1676</ele>
        <time>2017-12-29T10:52:17Z</time>
      </trkpt>
      <trkpt lat="46.02147" lon="6.5864">
        <ele>1676</ele>
        <time>2017-12-29T10:52:18Z</time>
      </trkpt>
      <trkpt lat="46.02147" lon="6.58641">
        <ele>1676</ele>
        <time>2017-12-29T10:52:19Z</time>
      </trkpt>
      <trkpt lat="46.02144" lon="6.58641">
        <ele>1677</ele>
        <time>2017-12-29T10:52:20Z</time>
      </trkpt>
      <trkpt lat="46.02143" lon="6.58641">
        <ele>1677</ele>
        <time>2017-12-29T10:52:21Z</time>
      </trkpt>
      <trkpt lat="46.02136" lon="6.58649">
        <ele>1677</ele>
        <time>2017-12-29T10:52:29Z</time>
      </trkpt>
      <trkpt lat="46.02134" lon="6.58651">
        <ele>1677</ele>
        <time>2017-12-29T10:52:30Z</time>
      </trkpt>
      <trkpt lat="46.02134" lon="6.58652">
        <ele>1677</ele>
        <time>2017-12-29T10:52:31Z</time>
      </trkpt>
      <trkpt lat="46.02133" lon="6.58653">
        <ele>1677</ele>
        <time>2017-12-29T10:52:32Z</time>
      </trkpt>
      <trkpt lat="46.02132" lon="6.58654">
        <ele>1678</ele>
        <time>2017-12-29T10:52:33Z</time>
      </trkpt>
      <trkpt lat="46.02132" lon="6.58656">
        <ele>1678</ele>
        <time>2017-12-29T10:52:34Z</time>
      </trkpt>
      <trkpt lat="46.02129" lon="6.58657">
        <ele>1678</ele>
        <time>2017-12-29T10:52:36Z</time>
      </trkpt>
      <trkpt lat="46.02128" lon="6.58658">
        <ele>1678</ele>
        <time>2017-12-29T10:52:37Z</time>
      </trkpt>
      <trkpt lat="46.02126" lon="6.58659">
        <ele>1678</ele>
        <time>2017-12-29T10:52:38Z</time>
      </trkpt>
      <trkpt lat="46.02125" lon="6.5866">
        <ele>1678</ele>
        <time>2017-12-29T10:52:39Z</time>
      </trkpt>
      <trkpt lat="46.02124" lon="6.5866">
        <ele>1679</ele>
        <time>2017-12-29T10:52:40Z</time>
      </trkpt>
      <trkpt lat="46.02122" lon="6.58661">
        <ele>1679</ele>
        <time>2017-12-29T10:52:41Z</time>
      </trkpt>
      <trkpt lat="46.0211" lon="6.5868">
        <ele>1681</ele>
        <time>2017-12-29T10:52:57Z</time>
      </trkpt>
      <trkpt lat="46.02109" lon="6.5868">
        <ele>1681</ele>
        <time>2017-12-29T10:52:58Z</time>
      </trkpt>
      <trkpt lat="46.02102" lon="6.58683">
        <ele>1682</ele>
        <time>2017-12-29T10:53:07Z</time>
      </trkpt>
      <trkpt lat="46.02097" lon="6.58693">
        <ele>1682</ele>
        <time>2017-12-29T10:53:18Z</time>
      </trkpt>
      <trkpt lat="46.02089" lon="6.58704">
        <ele>1682</ele>
        <time>2017-12-29T10:53:30Z</time>
      </trkpt>
      <trkpt lat="46.02083" lon="6.58708">
        <ele>1697</ele>
        <time>2017-12-29T10:53:39Z</time>
      </trkpt>
      <trkpt lat="46.02082" lon="6.58707">
        <ele>1697</ele>
        <time>2017-12-29T10:53:40Z</time>
      </trkpt>
      <trkpt lat="46.02082" lon="6.58706">
        <ele>1697</ele>
        <time>2017-12-29T10:53:41Z</time>
      </trkpt>
      <trkpt lat="46.02081" lon="6.58705">
        <ele>1697</ele>
        <time>2017-12-29T10:53:42Z</time>
      </trkpt>
      <trkpt lat="46.02081" lon="6.58704">
        <ele>1697</ele>
        <time>2017-12-29T10:53:43Z</time>
      </trkpt>
      <trkpt lat="46.0208" lon="6.58703">
        <ele>1697</ele>
        <time>2017-12-29T10:53:44Z</time>
      </trkpt>
      <trkpt lat="46.02079" lon="6.58701">
        <ele>1697</ele>
        <time>2017-12-29T10:53:45Z</time>
      </trkpt>
      <trkpt lat="46.0208" lon="6.587">
        <ele>1697</ele>
        <time>2017-12-29T10:53:46Z</time>
      </trkpt>
      <trkpt lat="46.0208" lon="6.58698">
        <ele>1697</ele>
        <time>2017-12-29T10:53:47Z</time>
      </trkpt>
      <trkpt lat="46.02081" lon="6.58697">
        <ele>1696</ele>
        <time>2017-12-29T10:53:48Z</time>
      </trkpt>
      <trkpt lat="46.0208" lon="6.58695">
        <ele>1696</ele>
        <time>2017-12-29T10:53:49Z</time>
      </trkpt>
      <trkpt lat="46.0208" lon="6.58693">
        <ele>1696</ele>
        <time>2017-12-29T10:53:50Z</time>
      </trkpt>
      <trkpt lat="46.0208" lon="6.58691">
        <ele>1696</ele>
        <time>2017-12-29T10:53:51Z</time>
      </trkpt>
      <trkpt lat="46.02081" lon="6.5869">
        <ele>1695</ele>
        <time>2017-12-29T10:53:52Z</time>
      </trkpt>
      <trkpt lat="46.0208" lon="6.58689">
        <ele>1695</ele>
        <time>2017-12-29T10:53:53Z</time>
      </trkpt>
      <trkpt lat="46.0208" lon="6.58688">
        <ele>1695</ele>
        <time>2017-12-29T10:53:54Z</time>
      </trkpt>
      <trkpt lat="46.02079" lon="6.58687">
        <ele>1695</ele>
        <time>2017-12-29T10:53:55Z</time>
      </trkpt>
      <trkpt lat="46.02078" lon="6.58686">
        <ele>1694</ele>
        <time>2017-12-29T10:53:56Z</time>
      </trkpt>
      <trkpt lat="46.02064" lon="6.5867">
        <ele>1696</ele>
        <time>2017-12-29T10:54:11Z</time>
      </trkpt>
      <trkpt lat="46.02063" lon="6.58669">
        <ele>1696</ele>
        <time>2017-12-29T10:54:12Z</time>
      </trkpt>
      <trkpt lat="46.02063" lon="6.58667">
        <ele>1696</ele>
        <time>2017-12-29T10:54:13Z</time>
      </trkpt>
      <trkpt lat="46.02062" lon="6.58663">
        <ele>1698</ele>
        <time>2017-12-29T10:54:16Z</time>
      </trkpt>
      <trkpt lat="46.02063" lon="6.58655">
        <ele>1699</ele>
        <time>2017-12-29T10:54:21Z</time>
      </trkpt>
      <trkpt lat="46.02062" lon="6.58653">
        <ele>1699</ele>
        <time>2017-12-29T10:54:22Z</time>
      </trkpt>
      <trkpt lat="46.0206" lon="6.58639">
        <ele>1702</ele>
        <time>2017-12-29T10:54:30Z</time>
      </trkpt>
      <trkpt lat="46.0206" lon="6.58637">
        <ele>1702</ele>
        <time>2017-12-29T10:54:31Z</time>
      </trkpt>
      <trkpt lat="46.0206" lon="6.58636">
        <ele>1702</ele>
        <time>2017-12-29T10:54:32Z</time>
      </trkpt>
      <trkpt lat="46.0206" lon="6.58634">
        <ele>1702</ele>
        <time>2017-12-29T10:54:33Z</time>
      </trkpt>
      <trkpt lat="46.0206" lon="6.58632">
        <ele>1702</ele>
        <time>2017-12-29T10:54:34Z</time>
      </trkpt>
      <trkpt lat="46.02061" lon="6.5863">
        <ele>1703</ele>
        <time>2017-12-29T10:54:35Z</time>
      </trkpt>
      <trkpt lat="46.02061" lon="6.58628">
        <ele>1703</ele>
        <time>2017-12-29T10:54:36Z</time>
      </trkpt>
      <trkpt lat="46.02061" lon="6.58626">
        <ele>1703</ele>
        <time>2017-12-29T10:54:37Z</time>
      </trkpt>
      <trkpt lat="46.02063" lon="6.58621">
        <ele>1703</ele>
        <time>2017-12-29T10:54:40Z</time>
      </trkpt>
      <trkpt lat="46.0207" lon="6.58597">
        <ele>1700</ele>
        <time>2017-12-29T10:54:54Z</time>
      </trkpt>
      <trkpt lat="46.02073" lon="6.58592">
        <ele>1699</ele>
        <time>2017-12-29T10:54:58Z</time>
      </trkpt>
      <trkpt lat="46.02073" lon="6.58579">
        <ele>1703</ele>
        <time>2017-12-29T10:55:07Z</time>
      </trkpt>
      <trkpt lat="46.02072" lon="6.58577">
        <ele>1703</ele>
        <time>2017-12-29T10:55:08Z</time>
      </trkpt>
      <trkpt lat="46.02072" lon="6.58576">
        <ele>1704</ele>
        <time>2017-12-29T10:55:09Z</time>
      </trkpt>
      <trkpt lat="46.02071" lon="6.58574">
        <ele>1705</ele>
        <time>2017-12-29T10:55:10Z</time>
      </trkpt>
      <trkpt lat="46.02071" lon="6.58572">
        <ele>1706</ele>
        <time>2017-12-29T10:55:11Z</time>
      </trkpt>
      <trkpt lat="46.0207" lon="6.58571">
        <ele>1706</ele>
        <time>2017-12-29T10:55:12Z</time>
      </trkpt>
      <trkpt lat="46.0207" lon="6.58569">
        <ele>1707</ele>
        <time>2017-12-29T10:55:13Z</time>
      </trkpt>
      <trkpt lat="46.0207" lon="6.58568">
        <ele>1707</ele>
        <time>2017-12-29T10:55:14Z</time>
      </trkpt>
      <trkpt lat="46.0207" lon="6.58566">
        <ele>1708</ele>
        <time>2017-12-29T10:55:15Z</time>
      </trkpt>
      <trkpt lat="46.0207" lon="6.58562">
        <ele>1709</ele>
        <time>2017-12-29T10:55:18Z</time>
      </trkpt>
      <trkpt lat="46.0207" lon="6.5856">
        <ele>1709</ele>
        <time>2017-12-29T10:55:19Z</time>
      </trkpt>
      <trkpt lat="46.02071" lon="6.58558">
        <ele>1710</ele>
        <time>2017-12-29T10:55:20Z</time>
      </trkpt>
      <trkpt lat="46.02071" lon="6.58549">
        <ele>1712</ele>
        <time>2017-12-29T10:55:26Z</time>
      </trkpt>
      <trkpt lat="46.02071" lon="6.58544">
        <ele>1712</ele>
        <time>2017-12-29T10:55:29Z</time>
      </trkpt>
      <trkpt lat="46.02071" lon="6.58542">
        <ele>1713</ele>
        <time>2017-12-29T10:55:30Z</time>
      </trkpt>
      <trkpt lat="46.02072" lon="6.5854">
        <ele>1713</ele>
        <time>2017-12-29T10:55:31Z</time>
      </trkpt>
      <trkpt lat="46.02071" lon="6.58539">
        <ele>1713</ele>
        <time>2017-12-29T10:55:32Z</time>
      </trkpt>
      <trkpt lat="46.02072" lon="6.58537">
        <ele>1713</ele>
        <time>2017-12-29T10:55:33Z</time>
      </trkpt>
      <trkpt lat="46.02072" lon="6.58535">
        <ele>1713</ele>
        <time>2017-12-29T10:55:34Z</time>
      </trkpt>
      <trkpt lat="46.02072" lon="6.58533">
        <ele>1713</ele>
        <time>2017-12-29T10:55:35Z</time>
      </trkpt>
      <trkpt lat="46.02072" lon="6.58532">
        <ele>1713</ele>
        <time>2017-12-29T10:55:36Z</time>
      </trkpt>
      <trkpt lat="46.02072" lon="6.58529">
        <ele>1713</ele>
        <time>2017-12-29T10:55:37Z</time>
      </trkpt>
      <trkpt lat="46.02071" lon="6.58527">
        <ele>1713</ele>
        <time>2017-12-29T10:55:38Z</time>
      </trkpt>
      <trkpt lat="46.02071" lon="6.58526">
        <ele>1713</ele>
        <time>2017-12-29T10:55:39Z</time>
      </trkpt>
      <trkpt lat="46.02071" lon="6.58524">
        <ele>1713</ele>
        <time>2017-12-29T10:55:40Z</time>
      </trkpt>
      <trkpt lat="46.02071" lon="6.58522">
        <ele>1713</ele>
        <time>2017-12-29T10:55:41Z</time>
      </trkpt>
      <trkpt lat="46.02071" lon="6.58521">
        <ele>1713</ele>
        <time>2017-12-29T10:55:42Z</time>
      </trkpt>
      <trkpt lat="46.02071" lon="6.58519">
        <ele>1713</ele>
        <time>2017-12-29T10:55:43Z</time>
      </trkpt>
      <trkpt lat="46.02072" lon="6.58518">
        <ele>1713</ele>
        <time>2017-12-29T10:55:44Z</time>
      </trkpt>
      <trkpt lat="46.02071" lon="6.58516">
        <ele>1713</ele>
        <time>2017-12-29T10:55:45Z</time>
      </trkpt>
      <trkpt lat="46.02072" lon="6.58514">
        <ele>1712</ele>
        <time>2017-12-29T10:55:46Z</time>
      </trkpt>
      <trkpt lat="46.02075" lon="6.58502">
        <ele>1710</ele>
        <time>2017-12-29T10:55:54Z</time>
      </trkpt>
      <trkpt lat="46.02075" lon="6.585">
        <ele>1710</ele>
        <time>2017-12-29T10:55:55Z</time>
      </trkpt>
      <trkpt lat="46.02075" lon="6.58499">
        <ele>1712</ele>
        <time>2017-12-29T10:55:56Z</time>
      </trkpt>
      <trkpt lat="46.02077" lon="6.58482">
        <ele>1717</ele>
        <time>2017-12-29T10:56:06Z</time>
      </trkpt>
      <trkpt lat="46.02077" lon="6.5848">
        <ele>1717</ele>
        <time>2017-12-29T10:56:07Z</time>
      </trkpt>
      <trkpt lat="46.02077" lon="6.58479">
        <ele>1717</ele>
        <time>2017-12-29T10:56:08Z</time>
      </trkpt>
      <trkpt lat="46.02077" lon="6.58476">
        <ele>1718</ele>
        <time>2017-12-29T10:56:09Z</time>
      </trkpt>
      <trkpt lat="46.02077" lon="6.58474">
        <ele>1718</ele>
        <time>2017-12-29T10:56:10Z</time>
      </trkpt>
      <trkpt lat="46.02077" lon="6.58473">
        <ele>1718</ele>
        <time>2017-12-29T10:56:11Z</time>
      </trkpt>
      <trkpt lat="46.02078" lon="6.58471">
        <ele>1719</ele>
        <time>2017-12-29T10:56:12Z</time>
      </trkpt>
      <trkpt lat="46.02078" lon="6.58469">
        <ele>1719</ele>
        <time>2017-12-29T10:56:13Z</time>
      </trkpt>
      <trkpt lat="46.02079" lon="6.58461">
        <ele>1720</ele>
        <time>2017-12-29T10:56:18Z</time>
      </trkpt>
      <trkpt lat="46.02079" lon="6.58459">
        <ele>1720</ele>
        <time>2017-12-29T10:56:19Z</time>
      </trkpt>
      <trkpt lat="46.02079" lon="6.58457">
        <ele>1720</ele>
        <time>2017-12-29T10:56:20Z</time>
      </trkpt>
      <trkpt lat="46.02079" lon="6.58456">
        <ele>1720</ele>
        <time>2017-12-29T10:56:21Z</time>
      </trkpt>
      <trkpt lat="46.02079" lon="6.58454">
        <ele>1720</ele>
        <time>2017-12-29T10:56:22Z</time>
      </trkpt>
      <trkpt lat="46.02078" lon="6.58452">
        <ele>1720</ele>
        <time>2017-12-29T10:56:23Z</time>
      </trkpt>
      <trkpt lat="46.02078" lon="6.5845">
        <ele>1720</ele>
        <time>2017-12-29T10:56:24Z</time>
      </trkpt>
      <trkpt lat="46.02077" lon="6.58448">
        <ele>1720</ele>
        <time>2017-12-29T10:56:25Z</time>
      </trkpt>
      <trkpt lat="46.02077" lon="6.58447">
        <ele>1719</ele>
        <time>2017-12-29T10:56:26Z</time>
      </trkpt>
      <trkpt lat="46.02076" lon="6.58445">
        <ele>1719</ele>
        <time>2017-12-29T10:56:27Z</time>
      </trkpt>
      <trkpt lat="46.02076" lon="6.58444">
        <ele>1719</ele>
        <time>2017-12-29T10:56:28Z</time>
      </trkpt>
      <trkpt lat="46.02076" lon="6.58442">
        <ele>1719</ele>
        <time>2017-12-29T10:56:29Z</time>
      </trkpt>
      <trkpt lat="46.02075" lon="6.5844">
        <ele>1719</ele>
        <time>2017-12-29T10:56:30Z</time>
      </trkpt>
      <trkpt lat="46.02075" lon="6.58438">
        <ele>1718</ele>
        <time>2017-12-29T10:56:31Z</time>
      </trkpt>
      <trkpt lat="46.02075" lon="6.58437">
        <ele>1718</ele>
        <time>2017-12-29T10:56:32Z</time>
      </trkpt>
      <trkpt lat="46.02074" lon="6.58434">
        <ele>1718</ele>
        <time>2017-12-29T10:56:34Z</time>
      </trkpt>
      <trkpt lat="46.02074" lon="6.58432">
        <ele>1717</ele>
        <time>2017-12-29T10:56:35Z</time>
      </trkpt>
      <trkpt lat="46.02073" lon="6.5843">
        <ele>1717</ele>
        <time>2017-12-29T10:56:36Z</time>
      </trkpt>
      <trkpt lat="46.02073" lon="6.58429">
        <ele>1717</ele>
        <time>2017-12-29T10:56:37Z</time>
      </trkpt>
      <trkpt lat="46.02072" lon="6.58422">
        <ele>1715</ele>
        <time>2017-12-29T10:56:41Z</time>
      </trkpt>
      <trkpt lat="46.02073" lon="6.5842">
        <ele>1715</ele>
        <time>2017-12-29T10:56:42Z</time>
      </trkpt>
      <trkpt lat="46.02075" lon="6.58412">
        <ele>1713</ele>
        <time>2017-12-29T10:56:46Z</time>
      </trkpt>
      <trkpt lat="46.02075" lon="6.5841">
        <ele>1714</ele>
        <time>2017-12-29T10:56:47Z</time>
      </trkpt>
      <trkpt lat="46.02076" lon="6.58408">
        <ele>1714</ele>
        <time>2017-12-29T10:56:48Z</time>
      </trkpt>
      <trkpt lat="46.02077" lon="6.58396">
        <ele>1717</ele>
        <time>2017-12-29T10:56:54Z</time>
      </trkpt>
      <trkpt lat="46.02077" lon="6.58394">
        <ele>1717</ele>
        <time>2017-12-29T10:56:55Z</time>
      </trkpt>
      <trkpt lat="46.02077" lon="6.58393">
        <ele>1717</ele>
        <time>2017-12-29T10:56:56Z</time>
      </trkpt>
      <trkpt lat="46.02078" lon="6.58376">
        <ele>1718</ele>
        <time>2017-12-29T10:57:05Z</time>
      </trkpt>
      <trkpt lat="46.02078" lon="6.58374">
        <ele>1718</ele>
        <time>2017-12-29T10:57:06Z</time>
      </trkpt>
      <trkpt lat="46.02078" lon="6.58372">
        <ele>1718</ele>
        <time>2017-12-29T10:57:07Z</time>
      </trkpt>
      <trkpt lat="46.02078" lon="6.5837">
        <ele>1717</ele>
        <time>2017-12-29T10:57:08Z</time>
      </trkpt>
      <trkpt lat="46.02077" lon="6.58368">
        <ele>1717</ele>
        <time>2017-12-29T10:57:09Z</time>
      </trkpt>
      <trkpt lat="46.02076" lon="6.58365">
        <ele>1717</ele>
        <time>2017-12-29T10:57:10Z</time>
      </trkpt>
      <trkpt lat="46.02076" lon="6.58364">
        <ele>1717</ele>
        <time>2017-12-29T10:57:11Z</time>
      </trkpt>
      <trkpt lat="46.02076" lon="6.58362">
        <ele>1717</ele>
        <time>2017-12-29T10:57:12Z</time>
      </trkpt>
      <trkpt lat="46.02075" lon="6.5836">
        <ele>1716</ele>
        <time>2017-12-29T10:57:13Z</time>
      </trkpt>
      <trkpt lat="46.0207" lon="6.5835">
        <ele>1715</ele>
        <time>2017-12-29T10:57:21Z</time>
      </trkpt>
      <trkpt lat="46.02069" lon="6.58349">
        <ele>1715</ele>
        <time>2017-12-29T10:57:22Z</time>
      </trkpt>
      <trkpt lat="46.02068" lon="6.58347">
        <ele>1715</ele>
        <time>2017-12-29T10:57:23Z</time>
      </trkpt>
      <trkpt lat="46.02066" lon="6.58346">
        <ele>1716</ele>
        <time>2017-12-29T10:57:24Z</time>
      </trkpt>
      <trkpt lat="46.02066" lon="6.58345">
        <ele>1716</ele>
        <time>2017-12-29T10:57:25Z</time>
      </trkpt>
      <trkpt lat="46.02056" lon="6.58338">
        <ele>1718</ele>
        <time>2017-12-29T10:57:33Z</time>
      </trkpt>
      <trkpt lat="46.02056" lon="6.58337">
        <ele>1718</ele>
        <time>2017-12-29T10:57:34Z</time>
      </trkpt>
      <trkpt lat="46.02056" lon="6.58335">
        <ele>1718</ele>
        <time>2017-12-29T10:57:36Z</time>
      </trkpt>
      <trkpt lat="46.02054" lon="6.58334">
        <ele>1719</ele>
        <time>2017-12-29T10:57:37Z</time>
      </trkpt>
      <trkpt lat="46.02053" lon="6.58333">
        <ele>1715</ele>
        <time>2017-12-29T10:57:38Z</time>
      </trkpt>
      <trkpt lat="46.02053" lon="6.58332">
        <ele>1715</ele>
        <time>2017-12-29T10:57:39Z</time>
      </trkpt>
      <trkpt lat="46.02052" lon="6.58331">
        <ele>1715</ele>
        <time>2017-12-29T10:57:40Z</time>
      </trkpt>
      <trkpt lat="46.0205" lon="6.5833">
        <ele>1716</ele>
        <time>2017-12-29T10:57:41Z</time>
      </trkpt>
      <trkpt lat="46.02049" lon="6.5833">
        <ele>1716</ele>
        <time>2017-12-29T10:57:42Z</time>
      </trkpt>
      <trkpt lat="46.02048" lon="6.58329">
        <ele>1717</ele>
        <time>2017-12-29T10:57:43Z</time>
      </trkpt>
      <trkpt lat="46.02047" lon="6.58328">
        <ele>1717</ele>
        <time>2017-12-29T10:57:44Z</time>
      </trkpt>
      <trkpt lat="46.02046" lon="6.58327">
        <ele>1717</ele>
        <time>2017-12-29T10:57:45Z</time>
      </trkpt>
      <trkpt lat="46.02045" lon="6.58326">
        <ele>1717</ele>
        <time>2017-12-29T10:57:46Z</time>
      </trkpt>
      <trkpt lat="46.02044" lon="6.58324">
        <ele>1718</ele>
        <time>2017-12-29T10:57:49Z</time>
      </trkpt>
      <trkpt lat="46.02042" lon="6.58323">
        <ele>1718</ele>
        <time>2017-12-29T10:57:50Z</time>
      </trkpt>
      <trkpt lat="46.02041" lon="6.58322">
        <ele>1718</ele>
        <time>2017-12-29T10:57:51Z</time>
      </trkpt>
      <trkpt lat="46.02039" lon="6.58321">
        <ele>1719</ele>
        <time>2017-12-29T10:57:52Z</time>
      </trkpt>
      <trkpt lat="46.02038" lon="6.5832">
        <ele>1719</ele>
        <time>2017-12-29T10:57:53Z</time>
      </trkpt>
      <trkpt lat="46.02037" lon="6.58319">
        <ele>1719</ele>
        <time>2017-12-29T10:57:54Z</time>
      </trkpt>
      <trkpt lat="46.02036" lon="6.58318">
        <ele>1720</ele>
        <time>2017-12-29T10:57:55Z</time>
      </trkpt>
      <trkpt lat="46.02035" lon="6.58317">
        <ele>1720</ele>
        <time>2017-12-29T10:57:56Z</time>
      </trkpt>
      <trkpt lat="46.02034" lon="6.58317">
        <ele>1720</ele>
        <time>2017-12-29T10:57:57Z</time>
      </trkpt>
      <trkpt lat="46.02033" lon="6.58317">
        <ele>1720</ele>
        <time>2017-12-29T10:57:58Z</time>
      </trkpt>
      <trkpt lat="46.02031" lon="6.58316">
        <ele>1721</ele>
        <time>2017-12-29T10:57:59Z</time>
      </trkpt>
      <trkpt lat="46.0203" lon="6.58315">
        <ele>1721</ele>
        <time>2017-12-29T10:58:00Z</time>
      </trkpt>
      <trkpt lat="46.02029" lon="6.58314">
        <ele>1721</ele>
        <time>2017-12-29T10:58:01Z</time>
      </trkpt>
      <trkpt lat="46.02028" lon="6.58314">
        <ele>1721</ele>
        <time>2017-12-29T10:58:02Z</time>
      </trkpt>
      <trkpt lat="46.02028" lon="6.58313">
        <ele>1721</ele>
        <time>2017-12-29T10:58:03Z</time>
      </trkpt>
      <trkpt lat="46.02027" lon="6.58313">
        <ele>1722</ele>
        <time>2017-12-29T10:58:04Z</time>
      </trkpt>
      <trkpt lat="46.02027" lon="6.58311">
        <ele>1721</ele>
        <time>2017-12-29T10:58:06Z</time>
      </trkpt>
      <trkpt lat="46.02026" lon="6.58309">
        <ele>1721</ele>
        <time>2017-12-29T10:58:07Z</time>
      </trkpt>
      <trkpt lat="46.02025" lon="6.58308">
        <ele>1721</ele>
        <time>2017-12-29T10:58:08Z</time>
      </trkpt>
      <trkpt lat="46.02023" lon="6.58306">
        <ele>1722</ele>
        <time>2017-12-29T10:58:09Z</time>
      </trkpt>
      <trkpt lat="46.02022" lon="6.58304">
        <ele>1722</ele>
        <time>2017-12-29T10:58:10Z</time>
      </trkpt>
      <trkpt lat="46.02021" lon="6.58304">
        <ele>1722</ele>
        <time>2017-12-29T10:58:11Z</time>
      </trkpt>
      <trkpt lat="46.02018" lon="6.58297">
        <ele>1722</ele>
        <time>2017-12-29T10:58:16Z</time>
      </trkpt>
      <trkpt lat="46.02017" lon="6.58295">
        <ele>1722</ele>
        <time>2017-12-29T10:58:18Z</time>
      </trkpt>
      <trkpt lat="46.02017" lon="6.58293">
        <ele>1722</ele>
        <time>2017-12-29T10:58:19Z</time>
      </trkpt>
      <trkpt lat="46.02017" lon="6.58292">
        <ele>1722</ele>
        <time>2017-12-29T10:58:20Z</time>
      </trkpt>
      <trkpt lat="46.02015" lon="6.58291">
        <ele>1722</ele>
        <time>2017-12-29T10:58:21Z</time>
      </trkpt>
      <trkpt lat="46.02014" lon="6.58289">
        <ele>1722</ele>
        <time>2017-12-29T10:58:22Z</time>
      </trkpt>
      <trkpt lat="46.02012" lon="6.58288">
        <ele>1722</ele>
        <time>2017-12-29T10:58:23Z</time>
      </trkpt>
      <trkpt lat="46.02011" lon="6.58287">
        <ele>1722</ele>
        <time>2017-12-29T10:58:24Z</time>
      </trkpt>
      <trkpt lat="46.0201" lon="6.58286">
        <ele>1722</ele>
        <time>2017-12-29T10:58:25Z</time>
      </trkpt>
      <trkpt lat="46.02009" lon="6.58284">
        <ele>1722</ele>
        <time>2017-12-29T10:58:26Z</time>
      </trkpt>
      <trkpt lat="46.02008" lon="6.58283">
        <ele>1723</ele>
        <time>2017-12-29T10:58:27Z</time>
      </trkpt>
      <trkpt lat="46.02007" lon="6.58282">
        <ele>1723</ele>
        <time>2017-12-29T10:58:28Z</time>
      </trkpt>
      <trkpt lat="46.02006" lon="6.5828">
        <ele>1723</ele>
        <time>2017-12-29T10:58:29Z</time>
      </trkpt>
      <trkpt lat="46.02002" lon="6.58274">
        <ele>1724</ele>
        <time>2017-12-29T10:58:34Z</time>
      </trkpt>
      <trkpt lat="46.02" lon="6.58273">
        <ele>1724</ele>
        <time>2017-12-29T10:58:35Z</time>
      </trkpt>
      <trkpt lat="46.01999" lon="6.58272">
        <ele>1741</ele>
        <time>2017-12-29T10:58:36Z</time>
      </trkpt>
      <trkpt lat="46.01998" lon="6.5827">
        <ele>1741</ele>
        <time>2017-12-29T10:58:37Z</time>
      </trkpt>
      <trkpt lat="46.01997" lon="6.58269">
        <ele>1740</ele>
        <time>2017-12-29T10:58:38Z</time>
      </trkpt>
      <trkpt lat="46.01995" lon="6.58267">
        <ele>1740</ele>
        <time>2017-12-29T10:58:40Z</time>
      </trkpt>
      <trkpt lat="46.01995" lon="6.58266">
        <ele>1740</ele>
        <time>2017-12-29T10:58:41Z</time>
      </trkpt>
      <trkpt lat="46.01994" lon="6.58264">
        <ele>1739</ele>
        <time>2017-12-29T10:58:42Z</time>
      </trkpt>
      <trkpt lat="46.0199" lon="6.58252">
        <ele>1738</ele>
        <time>2017-12-29T10:58:50Z</time>
      </trkpt>
      <trkpt lat="46.01988" lon="6.58251">
        <ele>1738</ele>
        <time>2017-12-29T10:58:51Z</time>
      </trkpt>
      <trkpt lat="46.01987" lon="6.58251">
        <ele>1739</ele>
        <time>2017-12-29T10:58:52Z</time>
      </trkpt>
      <trkpt lat="46.01979" lon="6.58269">
        <ele>1744</ele>
        <time>2017-12-29T10:59:09Z</time>
      </trkpt>
      <trkpt lat="46.0198" lon="6.58271">
        <ele>1744</ele>
        <time>2017-12-29T10:59:10Z</time>
      </trkpt>
      <trkpt lat="46.01981" lon="6.58273">
        <ele>1744</ele>
        <time>2017-12-29T10:59:11Z</time>
      </trkpt>
      <trkpt lat="46.01981" lon="6.58274">
        <ele>1744</ele>
        <time>2017-12-29T10:59:12Z</time>
      </trkpt>
      <trkpt lat="46.01982" lon="6.58276">
        <ele>1744</ele>
        <time>2017-12-29T10:59:13Z</time>
      </trkpt>
      <trkpt lat="46.01983" lon="6.58278">
        <ele>1744</ele>
        <time>2017-12-29T10:59:14Z</time>
      </trkpt>
      <trkpt lat="46.01984" lon="6.58279">
        <ele>1744</ele>
        <time>2017-12-29T10:59:15Z</time>
      </trkpt>
      <trkpt lat="46.01985" lon="6.58282">
        <ele>1744</ele>
        <time>2017-12-29T10:59:16Z</time>
      </trkpt>
      <trkpt lat="46.01986" lon="6.58283">
        <ele>1744</ele>
        <time>2017-12-29T10:59:17Z</time>
      </trkpt>
      <trkpt lat="46.01999" lon="6.58309">
        <ele>1744</ele>
        <time>2017-12-29T10:59:39Z</time>
      </trkpt>
      <trkpt lat="46.0201" lon="6.58317">
        <ele>1727</ele>
        <time>2017-12-29T10:59:50Z</time>
      </trkpt>
      <trkpt lat="46.02011" lon="6.58319">
        <ele>1727</ele>
        <time>2017-12-29T10:59:51Z</time>
      </trkpt>
      <trkpt lat="46.02012" lon="6.5832">
        <ele>1727</ele>
        <time>2017-12-29T10:59:52Z</time>
      </trkpt>
      <trkpt lat="46.02013" lon="6.58321">
        <ele>1727</ele>
        <time>2017-12-29T10:59:53Z</time>
      </trkpt>
      <trkpt lat="46.02014" lon="6.58322">
        <ele>1727</ele>
        <time>2017-12-29T10:59:54Z</time>
      </trkpt>
      <trkpt lat="46.02014" lon="6.58323">
        <ele>1727</ele>
        <time>2017-12-29T10:59:55Z</time>
      </trkpt>
      <trkpt lat="46.02015" lon="6.58324">
        <ele>1727</ele>
        <time>2017-12-29T10:59:56Z</time>
      </trkpt>
      <trkpt lat="46.02016" lon="6.58326">
        <ele>1727</ele>
        <time>2017-12-29T10:59:57Z</time>
      </trkpt>
      <trkpt lat="46.02017" lon="6.58328">
        <ele>1727</ele>
        <time>2017-12-29T10:59:58Z</time>
      </trkpt>
      <trkpt lat="46.02018" lon="6.58329">
        <ele>1727</ele>
        <time>2017-12-29T10:59:59Z</time>
      </trkpt>
      <trkpt lat="46.02018" lon="6.5833">
        <ele>1727</ele>
        <time>2017-12-29T11:00:00Z</time>
      </trkpt>
      <trkpt lat="46.02018" lon="6.58332">
        <ele>1727</ele>
        <time>2017-12-29T11:00:01Z</time>
      </trkpt>
      <trkpt lat="46.02018" lon="6.58334">
        <ele>1730</ele>
        <time>2017-12-29T11:00:02Z</time>
      </trkpt>
      <trkpt lat="46.02019" lon="6.58336">
        <ele>1730</ele>
        <time>2017-12-29T11:00:03Z</time>
      </trkpt>
      <trkpt lat="46.02018" lon="6.58338">
        <ele>1730</ele>
        <time>2017-12-29T11:00:04Z</time>
      </trkpt>
      <trkpt lat="46.02017" lon="6.58339">
        <ele>1731</ele>
        <time>2017-12-29T11:00:05Z</time>
      </trkpt>
      <trkpt lat="46.02016" lon="6.5834">
        <ele>1731</ele>
        <time>2017-12-29T11:00:06Z</time>
      </trkpt>
      <trkpt lat="46.02015" lon="6.58341">
        <ele>1731</ele>
        <time>2017-12-29T11:00:07Z</time>
      </trkpt>
      <trkpt lat="46.02014" lon="6.58341">
        <ele>1732</ele>
        <time>2017-12-29T11:00:08Z</time>
      </trkpt>
      <trkpt lat="46.02013" lon="6.5834">
        <ele>1732</ele>
        <time>2017-12-29T11:00:09Z</time>
      </trkpt>
      <trkpt lat="46.02012" lon="6.58339">
        <ele>1732</ele>
        <time>2017-12-29T11:00:10Z</time>
      </trkpt>
      <trkpt lat="46.02011" lon="6.58338">
        <ele>1733</ele>
        <time>2017-12-29T11:00:11Z</time>
      </trkpt>
      <trkpt lat="46.02011" lon="6.58337">
        <ele>1733</ele>
        <time>2017-12-29T11:00:12Z</time>
      </trkpt>
      <trkpt lat="46.0201" lon="6.58336">
        <ele>1733</ele>
        <time>2017-12-29T11:00:13Z</time>
      </trkpt>
      <trkpt lat="46.02006" lon="6.58334">
        <ele>1735</ele>
        <time>2017-12-29T11:00:17Z</time>
      </trkpt>
      <trkpt lat="46.02005" lon="6.58333">
        <ele>1736</ele>
        <time>2017-12-29T11:00:18Z</time>
      </trkpt>
      <trkpt lat="46.02004" lon="6.58333">
        <ele>1735</ele>
        <time>2017-12-29T11:00:19Z</time>
      </trkpt>
      <trkpt lat="46.02" lon="6.58332">
        <ele>1739</ele>
        <time>2017-12-29T11:00:22Z</time>
      </trkpt>
      <trkpt lat="46.01998" lon="6.58332">
        <ele>1739</ele>
        <time>2017-12-29T11:00:23Z</time>
      </trkpt>
      <trkpt lat="46.01987" lon="6.58331">
        <ele>1743</ele>
        <time>2017-12-29T11:00:32Z</time>
      </trkpt>
      <trkpt lat="46.01982" lon="6.58329">
        <ele>1744</ele>
        <time>2017-12-29T11:00:37Z</time>
      </trkpt>
      <trkpt lat="46.01981" lon="6.58328">
        <ele>1744</ele>
        <time>2017-12-29T11:00:38Z</time>
      </trkpt>
      <trkpt lat="46.0198" lon="6.58329">
        <ele>1745</ele>
        <time>2017-12-29T11:00:39Z</time>
      </trkpt>
      <trkpt lat="46.01978" lon="6.58327">
        <ele>1745</ele>
        <time>2017-12-29T11:00:41Z</time>
      </trkpt>
      <trkpt lat="46.01976" lon="6.58326">
        <ele>1746</ele>
        <time>2017-12-29T11:00:42Z</time>
      </trkpt>
      <trkpt lat="46.01975" lon="6.58326">
        <ele>1746</ele>
        <time>2017-12-29T11:00:43Z</time>
      </trkpt>
      <trkpt lat="46.01974" lon="6.58326">
        <ele>1746</ele>
        <time>2017-12-29T11:00:44Z</time>
      </trkpt>
      <trkpt lat="46.01973" lon="6.58326">
        <ele>1746</ele>
        <time>2017-12-29T11:00:45Z</time>
      </trkpt>
      <trkpt lat="46.01972" lon="6.58326">
        <ele>1747</ele>
        <time>2017-12-29T11:00:46Z</time>
      </trkpt>
      <trkpt lat="46.01971" lon="6.58325">
        <ele>1747</ele>
        <time>2017-12-29T11:00:47Z</time>
      </trkpt>
      <trkpt lat="46.01969" lon="6.58325">
        <ele>1747</ele>
        <time>2017-12-29T11:00:48Z</time>
      </trkpt>
      <trkpt lat="46.01968" lon="6.58325">
        <ele>1748</ele>
        <time>2017-12-29T11:00:49Z</time>
      </trkpt>
      <trkpt lat="46.01967" lon="6.58325">
        <ele>1748</ele>
        <time>2017-12-29T11:00:50Z</time>
      </trkpt>
      <trkpt lat="46.01966" lon="6.58324">
        <ele>1748</ele>
        <time>2017-12-29T11:00:51Z</time>
      </trkpt>
      <trkpt lat="46.01964" lon="6.58324">
        <ele>1748</ele>
        <time>2017-12-29T11:00:52Z</time>
      </trkpt>
      <trkpt lat="46.01963" lon="6.58323">
        <ele>1749</ele>
        <time>2017-12-29T11:00:53Z</time>
      </trkpt>
      <trkpt lat="46.01962" lon="6.58322">
        <ele>1749</ele>
        <time>2017-12-29T11:00:54Z</time>
      </trkpt>
      <trkpt lat="46.01961" lon="6.58322">
        <ele>1749</ele>
        <time>2017-12-29T11:00:55Z</time>
      </trkpt>
      <trkpt lat="46.01958" lon="6.58318">
        <ele>1750</ele>
        <time>2017-12-29T11:00:59Z</time>
      </trkpt>
      <trkpt lat="46.01957" lon="6.58316">
        <ele>1750</ele>
        <time>2017-12-29T11:01:00Z</time>
      </trkpt>
      <trkpt lat="46.01956" lon="6.58314">
        <ele>1750</ele>
        <time>2017-12-29T11:01:01Z</time>
      </trkpt>
      <trkpt lat="46.01956" lon="6.58312">
        <ele>1750</ele>
        <time>2017-12-29T11:01:02Z</time>
      </trkpt>
      <trkpt lat="46.01955" lon="6.58311">
        <ele>1750</ele>
        <time>2017-12-29T11:01:03Z</time>
      </trkpt>
      <trkpt lat="46.01955" lon="6.58309">
        <ele>1750</ele>
        <time>2017-12-29T11:01:04Z</time>
      </trkpt>
      <trkpt lat="46.01954" lon="6.58308">
        <ele>1750</ele>
        <time>2017-12-29T11:01:05Z</time>
      </trkpt>
      <trkpt lat="46.01953" lon="6.58307">
        <ele>1750</ele>
        <time>2017-12-29T11:01:06Z</time>
      </trkpt>
      <trkpt lat="46.01953" lon="6.58305">
        <ele>1750</ele>
        <time>2017-12-29T11:01:07Z</time>
      </trkpt>
      <trkpt lat="46.01952" lon="6.58304">
        <ele>1751</ele>
        <time>2017-12-29T11:01:08Z</time>
      </trkpt>
      <trkpt lat="46.01951" lon="6.58302">
        <ele>1751</ele>
        <time>2017-12-29T11:01:09Z</time>
      </trkpt>
      <trkpt lat="46.0195" lon="6.583">
        <ele>1751</ele>
        <time>2017-12-29T11:01:10Z</time>
      </trkpt>
      <trkpt lat="46.01934" lon="6.5828">
        <ele>1754</ele>
        <time>2017-12-29T11:01:25Z</time>
      </trkpt>
      <trkpt lat="46.01934" lon="6.58278">
        <ele>1754</ele>
        <time>2017-12-29T11:01:26Z</time>
      </trkpt>
      <trkpt lat="46.01933" lon="6.58277">
        <ele>1754</ele>
        <time>2017-12-29T11:01:27Z</time>
      </trkpt>
      <trkpt lat="46.01932" lon="6.58275">
        <ele>1754</ele>
        <time>2017-12-29T11:01:28Z</time>
      </trkpt>
      <trkpt lat="46.01932" lon="6.58274">
        <ele>1755</ele>
        <time>2017-12-29T11:01:29Z</time>
      </trkpt>
      <trkpt lat="46.01932" lon="6.58272">
        <ele>1755</ele>
        <time>2017-12-29T11:01:30Z</time>
      </trkpt>
      <trkpt lat="46.01932" lon="6.58271">
        <ele>1755</ele>
        <time>2017-12-29T11:01:31Z</time>
      </trkpt>
      <trkpt lat="46.01934" lon="6.58257">
        <ele>1756</ele>
        <time>2017-12-29T11:01:39Z</time>
      </trkpt>
      <trkpt lat="46.01934" lon="6.58254">
        <ele>1756</ele>
        <time>2017-12-29T11:01:40Z</time>
      </trkpt>
      <trkpt lat="46.01934" lon="6.58252">
        <ele>1756</ele>
        <time>2017-12-29T11:01:41Z</time>
      </trkpt>
      <trkpt lat="46.01935" lon="6.58251">
        <ele>1756</ele>
        <time>2017-12-29T11:01:42Z</time>
      </trkpt>
      <trkpt lat="46.01936" lon="6.58249">
        <ele>1759</ele>
        <time>2017-12-29T11:01:43Z</time>
      </trkpt>
      <trkpt lat="46.01936" lon="6.58247">
        <ele>1758</ele>
        <time>2017-12-29T11:01:44Z</time>
      </trkpt>
      <trkpt lat="46.01937" lon="6.58244">
        <ele>1758</ele>
        <time>2017-12-29T11:01:45Z</time>
      </trkpt>
      <trkpt lat="46.01937" lon="6.58243">
        <ele>1758</ele>
        <time>2017-12-29T11:01:46Z</time>
      </trkpt>
      <trkpt lat="46.01937" lon="6.5824">
        <ele>1758</ele>
        <time>2017-12-29T11:01:47Z</time>
      </trkpt>
      <trkpt lat="46.01938" lon="6.58232">
        <ele>1758</ele>
        <time>2017-12-29T11:01:51Z</time>
      </trkpt>
      <trkpt lat="46.01943" lon="6.58216">
        <ele>1757</ele>
        <time>2017-12-29T11:02:01Z</time>
      </trkpt>
      <trkpt lat="46.01944" lon="6.58214">
        <ele>1757</ele>
        <time>2017-12-29T11:02:02Z</time>
      </trkpt>
      <trkpt lat="46.01944" lon="6.58213">
        <ele>1757</ele>
        <time>2017-12-29T11:02:03Z</time>
      </trkpt>
      <trkpt lat="46.01945" lon="6.58211">
        <ele>1757</ele>
        <time>2017-12-29T11:02:04Z</time>
      </trkpt>
      <trkpt lat="46.01946" lon="6.5821">
        <ele>1757</ele>
        <time>2017-12-29T11:02:05Z</time>
      </trkpt>
      <trkpt lat="46.01947" lon="6.58208">
        <ele>1757</ele>
        <time>2017-12-29T11:02:06Z</time>
      </trkpt>
      <trkpt lat="46.01947" lon="6.58206">
        <ele>1757</ele>
        <time>2017-12-29T11:02:07Z</time>
      </trkpt>
      <trkpt lat="46.01948" lon="6.58205">
        <ele>1757</ele>
        <time>2017-12-29T11:02:08Z</time>
      </trkpt>
      <trkpt lat="46.01949" lon="6.58204">
        <ele>1757</ele>
        <time>2017-12-29T11:02:09Z</time>
      </trkpt>
      <trkpt lat="46.0195" lon="6.58202">
        <ele>1757</ele>
        <time>2017-12-29T11:02:10Z</time>
      </trkpt>
      <trkpt lat="46.01957" lon="6.58196">
        <ele>1756</ele>
        <time>2017-12-29T11:02:17Z</time>
      </trkpt>
      <trkpt lat="46.01958" lon="6.58195">
        <ele>1756</ele>
        <time>2017-12-29T11:02:18Z</time>
      </trkpt>
      <trkpt lat="46.01959" lon="6.58194">
        <ele>1756</ele>
        <time>2017-12-29T11:02:19Z</time>
      </trkpt>
      <trkpt lat="46.0196" lon="6.58193">
        <ele>1756</ele>
        <time>2017-12-29T11:02:20Z</time>
      </trkpt>
      <trkpt lat="46.0196" lon="6.58191">
        <ele>1756</ele>
        <time>2017-12-29T11:02:21Z</time>
      </trkpt>
      <trkpt lat="46.0196" lon="6.58187">
        <ele>1756</ele>
        <time>2017-12-29T11:02:24Z</time>
      </trkpt>
      <trkpt lat="46.01959" lon="6.58186">
        <ele>1756</ele>
        <time>2017-12-29T11:02:25Z</time>
      </trkpt>
      <trkpt lat="46.01955" lon="6.58185">
        <ele>1757</ele>
        <time>2017-12-29T11:02:30Z</time>
      </trkpt>
      <trkpt lat="46.01954" lon="6.58185">
        <ele>1758</ele>
        <time>2017-12-29T11:02:31Z</time>
      </trkpt>
      <trkpt lat="46.01953" lon="6.58186">
        <ele>1758</ele>
        <time>2017-12-29T11:02:32Z</time>
      </trkpt>
      <trkpt lat="46.01952" lon="6.58187">
        <ele>1758</ele>
        <time>2017-12-29T11:02:33Z</time>
      </trkpt>
      <trkpt lat="46.01951" lon="6.58187">
        <ele>1758</ele>
        <time>2017-12-29T11:02:34Z</time>
      </trkpt>
      <trkpt lat="46.0195" lon="6.58188">
        <ele>1758</ele>
        <time>2017-12-29T11:02:35Z</time>
      </trkpt>
      <trkpt lat="46.0193" lon="6.58201">
        <ele>1760</ele>
        <time>2017-12-29T11:02:52Z</time>
      </trkpt>
      <trkpt lat="46.01921" lon="6.58214">
        <ele>1760</ele>
        <time>2017-12-29T11:03:05Z</time>
      </trkpt>
      <trkpt lat="46.0192" lon="6.58216">
        <ele>1760</ele>
        <time>2017-12-29T11:03:06Z</time>
      </trkpt>
      <trkpt lat="46.0192" lon="6.58217">
        <ele>1760</ele>
        <time>2017-12-29T11:03:07Z</time>
      </trkpt>
      <trkpt lat="46.01918" lon="6.58219">
        <ele>1760</ele>
        <time>2017-12-29T11:03:09Z</time>
      </trkpt>
      <trkpt lat="46.01917" lon="6.5822">
        <ele>1778</ele>
        <time>2017-12-29T11:03:10Z</time>
      </trkpt>
      <trkpt lat="46.01916" lon="6.58221">
        <ele>1778</ele>
        <time>2017-12-29T11:03:11Z</time>
      </trkpt>
      <trkpt lat="46.01914" lon="6.58221">
        <ele>1778</ele>
        <time>2017-12-29T11:03:12Z</time>
      </trkpt>
      <trkpt lat="46.01913" lon="6.5822">
        <ele>1778</ele>
        <time>2017-12-29T11:03:13Z</time>
      </trkpt>
      <trkpt lat="46.01912" lon="6.58217">
        <ele>1779</ele>
        <time>2017-12-29T11:03:16Z</time>
      </trkpt>
      <trkpt lat="46.01911" lon="6.58216">
        <ele>1779</ele>
        <time>2017-12-29T11:03:17Z</time>
      </trkpt>
      <trkpt lat="46.01911" lon="6.58214">
        <ele>1780</ele>
        <time>2017-12-29T11:03:18Z</time>
      </trkpt>
      <trkpt lat="46.01912" lon="6.58212">
        <ele>1780</ele>
        <time>2017-12-29T11:03:19Z</time>
      </trkpt>
      <trkpt lat="46.01912" lon="6.58211">
        <ele>1780</ele>
        <time>2017-12-29T11:03:20Z</time>
      </trkpt>
      <trkpt lat="46.01913" lon="6.58209">
        <ele>1780</ele>
        <time>2017-12-29T11:03:21Z</time>
      </trkpt>
      <trkpt lat="46.01913" lon="6.58207">
        <ele>1780</ele>
        <time>2017-12-29T11:03:22Z</time>
      </trkpt>
      <trkpt lat="46.01926" lon="6.5818">
        <ele>1766</ele>
        <time>2017-12-29T11:03:38Z</time>
      </trkpt>
      <trkpt lat="46.01944" lon="6.58158">
        <ele>1765</ele>
        <time>2017-12-29T11:03:56Z</time>
      </trkpt>
      <trkpt lat="46.01945" lon="6.58157">
        <ele>1765</ele>
        <time>2017-12-29T11:03:57Z</time>
      </trkpt>
      <trkpt lat="46.01946" lon="6.58156">
        <ele>1764</ele>
        <time>2017-12-29T11:03:58Z</time>
      </trkpt>
      <trkpt lat="46.01948" lon="6.58156">
        <ele>1764</ele>
        <time>2017-12-29T11:03:59Z</time>
      </trkpt>
      <trkpt lat="46.01949" lon="6.58155">
        <ele>1764</ele>
        <time>2017-12-29T11:04:00Z</time>
      </trkpt>
      <trkpt lat="46.01958" lon="6.58143">
        <ele>1762</ele>
        <time>2017-12-29T11:04:09Z</time>
      </trkpt>
      <trkpt lat="46.01958" lon="6.58141">
        <ele>1762</ele>
        <time>2017-12-29T11:04:10Z</time>
      </trkpt>
      <trkpt lat="46.01958" lon="6.58139">
        <ele>1762</ele>
        <time>2017-12-29T11:04:11Z</time>
      </trkpt>
      <trkpt lat="46.01958" lon="6.58138">
        <ele>1762</ele>
        <time>2017-12-29T11:04:12Z</time>
      </trkpt>
      <trkpt lat="46.01958" lon="6.58136">
        <ele>1762</ele>
        <time>2017-12-29T11:04:13Z</time>
      </trkpt>
      <trkpt lat="46.01958" lon="6.58135">
        <ele>1762</ele>
        <time>2017-12-29T11:04:14Z</time>
      </trkpt>
      <trkpt lat="46.01957" lon="6.58133">
        <ele>1762</ele>
        <time>2017-12-29T11:04:15Z</time>
      </trkpt>
      <trkpt lat="46.01956" lon="6.58132">
        <ele>1762</ele>
        <time>2017-12-29T11:04:16Z</time>
      </trkpt>
      <trkpt lat="46.01955" lon="6.5813">
        <ele>1762</ele>
        <time>2017-12-29T11:04:17Z</time>
      </trkpt>
      <trkpt lat="46.01955" lon="6.58129">
        <ele>1762</ele>
        <time>2017-12-29T11:04:18Z</time>
      </trkpt>
      <trkpt lat="46.01954" lon="6.58127">
        <ele>1762</ele>
        <time>2017-12-29T11:04:19Z</time>
      </trkpt>
      <trkpt lat="46.01953" lon="6.58125">
        <ele>1762</ele>
        <time>2017-12-29T11:04:20Z</time>
      </trkpt>
      <trkpt lat="46.01952" lon="6.58124">
        <ele>1762</ele>
        <time>2017-12-29T11:04:21Z</time>
      </trkpt>
      <trkpt lat="46.01951" lon="6.58123">
        <ele>1763</ele>
        <time>2017-12-29T11:04:22Z</time>
      </trkpt>
      <trkpt lat="46.01938" lon="6.58108">
        <ele>1764</ele>
        <time>2017-12-29T11:04:36Z</time>
      </trkpt>
      <trkpt lat="46.01937" lon="6.58107">
        <ele>1765</ele>
        <time>2017-12-29T11:04:37Z</time>
      </trkpt>
      <trkpt lat="46.01936" lon="6.58107">
        <ele>1765</ele>
        <time>2017-12-29T11:04:38Z</time>
      </trkpt>
      <trkpt lat="46.01935" lon="6.58106">
        <ele>1765</ele>
        <time>2017-12-29T11:04:39Z</time>
      </trkpt>
      <trkpt lat="46.01934" lon="6.58105">
        <ele>1765</ele>
        <time>2017-12-29T11:04:40Z</time>
      </trkpt>
      <trkpt lat="46.01933" lon="6.58105">
        <ele>1765</ele>
        <time>2017-12-29T11:04:41Z</time>
      </trkpt>
      <trkpt lat="46.01931" lon="6.58104">
        <ele>1765</ele>
        <time>2017-12-29T11:04:42Z</time>
      </trkpt>
      <trkpt lat="46.0193" lon="6.58104">
        <ele>1766</ele>
        <time>2017-12-29T11:04:43Z</time>
      </trkpt>
      <trkpt lat="46.01929" lon="6.58104">
        <ele>1766</ele>
        <time>2017-12-29T11:04:44Z</time>
      </trkpt>
      <trkpt lat="46.01928" lon="6.58104">
        <ele>1766</ele>
        <time>2017-12-29T11:04:45Z</time>
      </trkpt>
      <trkpt lat="46.01927" lon="6.58104">
        <ele>1766</ele>
        <time>2017-12-29T11:04:46Z</time>
      </trkpt>
      <trkpt lat="46.01926" lon="6.58104">
        <ele>1766</ele>
        <time>2017-12-29T11:04:47Z</time>
      </trkpt>
      <trkpt lat="46.01924" lon="6.58104">
        <ele>1766</ele>
        <time>2017-12-29T11:04:48Z</time>
      </trkpt>
      <trkpt lat="46.01923" lon="6.58103">
        <ele>1766</ele>
        <time>2017-12-29T11:04:49Z</time>
      </trkpt>
      <trkpt lat="46.01922" lon="6.58103">
        <ele>1766</ele>
        <time>2017-12-29T11:04:50Z</time>
      </trkpt>
      <trkpt lat="46.01908" lon="6.58097">
        <ele>1778</ele>
        <time>2017-12-29T11:05:02Z</time>
      </trkpt>
      <trkpt lat="46.01904" lon="6.58097">
        <ele>1779</ele>
        <time>2017-12-29T11:05:05Z</time>
      </trkpt>
      <trkpt lat="46.01903" lon="6.58097">
        <ele>1779</ele>
        <time>2017-12-29T11:05:06Z</time>
      </trkpt>
      <trkpt lat="46.01901" lon="6.58097">
        <ele>1779</ele>
        <time>2017-12-29T11:05:07Z</time>
      </trkpt>
      <trkpt lat="46.01889" lon="6.581">
        <ele>1782</ele>
        <time>2017-12-29T11:05:29Z</time>
      </trkpt>
      <trkpt lat="46.01889" lon="6.581">
        <ele>1782</ele>
        <time>2017-12-29T11:05:38Z</time>
      </trkpt>
      <trkpt lat="46.01889" lon="6.58101">
        <ele>1782</ele>
        <time>2017-12-29T11:05:43Z</time>
      </trkpt>
      <trkpt lat="46.01889" lon="6.58102">
        <ele>1783</ele>
        <time>2017-12-29T11:05:47Z</time>
      </trkpt>
      <trkpt lat="46.01888" lon="6.58103">
        <ele>1783</ele>
        <time>2017-12-29T11:05:50Z</time>
      </trkpt>
      <trkpt lat="46.01888" lon="6.58103">
        <ele>1783</ele>
        <time>2017-12-29T11:05:55Z</time>
      </trkpt>
      <trkpt lat="46.01888" lon="6.58102">
        <ele>1783</ele>
        <time>2017-12-29T11:05:58Z</time>
      </trkpt>
      <trkpt lat="46.01888" lon="6.58104">
        <ele>1783</ele>
        <time>2017-12-29T11:06:01Z</time>
      </trkpt>
      <trkpt lat="46.01871" lon="6.58107">
        <ele>1786</ele>
        <time>2017-12-29T11:06:19Z</time>
      </trkpt>
      <trkpt lat="46.01869" lon="6.58108">
        <ele>1786</ele>
        <time>2017-12-29T11:06:21Z</time>
      </trkpt>
      <trkpt lat="46.01862" lon="6.58107">
        <ele>1787</ele>
        <time>2017-12-29T11:06:28Z</time>
      </trkpt>
      <trkpt lat="46.01856" lon="6.58105">
        <ele>1788</ele>
        <time>2017-12-29T11:06:33Z</time>
      </trkpt>
      <trkpt lat="46.0185" lon="6.58098">
        <ele>1789</ele>
        <time>2017-12-29T11:06:40Z</time>
      </trkpt>
      <trkpt lat="46.01842" lon="6.58085">
        <ele>1791</ele>
        <time>2017-12-29T11:06:52Z</time>
      </trkpt>
      <trkpt lat="46.01835" lon="6.58078">
        <ele>1789</ele>
        <time>2017-12-29T11:07:00Z</time>
      </trkpt>
      <trkpt lat="46.01834" lon="6.58077">
        <ele>1788</ele>
        <time>2017-12-29T11:07:01Z</time>
      </trkpt>
      <trkpt lat="46.01833" lon="6.58076">
        <ele>1794</ele>
        <time>2017-12-29T11:07:02Z</time>
      </trkpt>
      <trkpt lat="46.01832" lon="6.58076">
        <ele>1794</ele>
        <time>2017-12-29T11:07:03Z</time>
      </trkpt>
      <trkpt lat="46.01831" lon="6.58075">
        <ele>1794</ele>
        <time>2017-12-29T11:07:04Z</time>
      </trkpt>
      <trkpt lat="46.01825" lon="6.5807">
        <ele>1794</ele>
        <time>2017-12-29T11:07:10Z</time>
      </trkpt>
      <trkpt lat="46.01819" lon="6.58067">
        <ele>1795</ele>
        <time>2017-12-29T11:07:17Z</time>
      </trkpt>
      <trkpt lat="46.01818" lon="6.58066">
        <ele>1795</ele>
        <time>2017-12-29T11:07:18Z</time>
      </trkpt>
      <trkpt lat="46.01816" lon="6.58065">
        <ele>1795</ele>
        <time>2017-12-29T11:07:19Z</time>
      </trkpt>
      <trkpt lat="46.01815" lon="6.58065">
        <ele>1795</ele>
        <time>2017-12-29T11:07:20Z</time>
      </trkpt>
      <trkpt lat="46.01814" lon="6.58064">
        <ele>1795</ele>
        <time>2017-12-29T11:07:21Z</time>
      </trkpt>
      <trkpt lat="46.01813" lon="6.58063">
        <ele>1795</ele>
        <time>2017-12-29T11:07:22Z</time>
      </trkpt>
      <trkpt lat="46.01812" lon="6.58062">
        <ele>1795</ele>
        <time>2017-12-29T11:07:23Z</time>
      </trkpt>
      <trkpt lat="46.01811" lon="6.58061">
        <ele>1795</ele>
        <time>2017-12-29T11:07:24Z</time>
      </trkpt>
      <trkpt lat="46.0181" lon="6.58061">
        <ele>1796</ele>
        <time>2017-12-29T11:07:25Z</time>
      </trkpt>
      <trkpt lat="46.01795" lon="6.58054">
        <ele>1797</ele>
        <time>2017-12-29T11:07:40Z</time>
      </trkpt>
      <trkpt lat="46.01786" lon="6.58052">
        <ele>1798</ele>
        <time>2017-12-29T11:07:47Z</time>
      </trkpt>
      <trkpt lat="46.01785" lon="6.58051">
        <ele>1798</ele>
        <time>2017-12-29T11:07:48Z</time>
      </trkpt>
      <trkpt lat="46.01784" lon="6.58051">
        <ele>1799</ele>
        <time>2017-12-29T11:07:49Z</time>
      </trkpt>
      <trkpt lat="46.01783" lon="6.5805">
        <ele>1799</ele>
        <time>2017-12-29T11:07:50Z</time>
      </trkpt>
      <trkpt lat="46.01782" lon="6.5805">
        <ele>1799</ele>
        <time>2017-12-29T11:07:51Z</time>
      </trkpt>
      <trkpt lat="46.01781" lon="6.58049">
        <ele>1799</ele>
        <time>2017-12-29T11:07:52Z</time>
      </trkpt>
      <trkpt lat="46.0178" lon="6.58049">
        <ele>1799</ele>
        <time>2017-12-29T11:07:53Z</time>
      </trkpt>
      <trkpt lat="46.01772" lon="6.58043">
        <ele>1799</ele>
        <time>2017-12-29T11:08:01Z</time>
      </trkpt>
      <trkpt lat="46.0177" lon="6.58043">
        <ele>1799</ele>
        <time>2017-12-29T11:08:02Z</time>
      </trkpt>
      <trkpt lat="46.01769" lon="6.58042">
        <ele>1799</ele>
        <time>2017-12-29T11:08:03Z</time>
      </trkpt>
      <trkpt lat="46.01768" lon="6.58042">
        <ele>1799</ele>
        <time>2017-12-29T11:08:04Z</time>
      </trkpt>
      <trkpt lat="46.01767" lon="6.58042">
        <ele>1799</ele>
        <time>2017-12-29T11:08:05Z</time>
      </trkpt>
      <trkpt lat="46.01766" lon="6.58041">
        <ele>1799</ele>
        <time>2017-12-29T11:08:07Z</time>
      </trkpt>
      <trkpt lat="46.01754" lon="6.58037">
        <ele>1799</ele>
        <time>2017-12-29T11:08:19Z</time>
      </trkpt>
      <trkpt lat="46.01746" lon="6.58037">
        <ele>1813</ele>
        <time>2017-12-29T11:08:32Z</time>
      </trkpt>
      <trkpt lat="46.01746" lon="6.58039">
        <ele>1814</ele>
        <time>2017-12-29T11:08:33Z</time>
      </trkpt>
      <trkpt lat="46.01746" lon="6.5804">
        <ele>1814</ele>
        <time>2017-12-29T11:08:34Z</time>
      </trkpt>
      <trkpt lat="46.01747" lon="6.58046">
        <ele>1815</ele>
        <time>2017-12-29T11:08:38Z</time>
      </trkpt>
      <trkpt lat="46.01748" lon="6.58048">
        <ele>1816</ele>
        <time>2017-12-29T11:08:41Z</time>
      </trkpt>
      <trkpt lat="46.01752" lon="6.58062">
        <ele>1807</ele>
        <time>2017-12-29T11:08:55Z</time>
      </trkpt>
      <trkpt lat="46.01751" lon="6.58071">
        <ele>1812</ele>
        <time>2017-12-29T11:09:08Z</time>
      </trkpt>
      <trkpt lat="46.01751" lon="6.58071">
        <ele>1812</ele>
        <time>2017-12-29T11:09:09Z</time>
      </trkpt>
      <trkpt lat="46.01746" lon="6.58069">
        <ele>1820</ele>
        <time>2017-12-29T11:09:13Z</time>
      </trkpt>
      <trkpt lat="46.01746" lon="6.58069">
        <ele>1820</ele>
        <time>2017-12-29T11:09:14Z</time>
      </trkpt>
      <trkpt lat="46.01745" lon="6.58069">
        <ele>1820</ele>
        <time>2017-12-29T11:09:15Z</time>
      </trkpt>
      <trkpt lat="46.01744" lon="6.58068">
        <ele>1820</ele>
        <time>2017-12-29T11:09:16Z</time>
      </trkpt>
      <trkpt lat="46.01743" lon="6.58068">
        <ele>1820</ele>
        <time>2017-12-29T11:09:17Z</time>
      </trkpt>
      <trkpt lat="46.01742" lon="6.58067">
        <ele>1820</ele>
        <time>2017-12-29T11:09:18Z</time>
      </trkpt>
      <trkpt lat="46.01741" lon="6.58066">
        <ele>1820</ele>
        <time>2017-12-29T11:09:19Z</time>
      </trkpt>
      <trkpt lat="46.0174" lon="6.58065">
        <ele>1819</ele>
        <time>2017-12-29T11:09:20Z</time>
      </trkpt>
      <trkpt lat="46.01739" lon="6.58064">
        <ele>1819</ele>
        <time>2017-12-29T11:09:21Z</time>
      </trkpt>
      <trkpt lat="46.01738" lon="6.58064">
        <ele>1819</ele>
        <time>2017-12-29T11:09:22Z</time>
      </trkpt>
      <trkpt lat="46.01737" lon="6.58064">
        <ele>1819</ele>
        <time>2017-12-29T11:09:23Z</time>
      </trkpt>
      <trkpt lat="46.01736" lon="6.58063">
        <ele>1819</ele>
        <time>2017-12-29T11:09:24Z</time>
      </trkpt>
      <trkpt lat="46.01726" lon="6.58063">
        <ele>1820</ele>
        <time>2017-12-29T11:09:36Z</time>
      </trkpt>
      <trkpt lat="46.01723" lon="6.58064">
        <ele>1820</ele>
        <time>2017-12-29T11:09:40Z</time>
      </trkpt>
      <trkpt lat="46.0172" lon="6.58064">
        <ele>1820</ele>
        <time>2017-12-29T11:09:43Z</time>
      </trkpt>
      <trkpt lat="46.01712" lon="6.58065">
        <ele>1821</ele>
        <time>2017-12-29T11:09:52Z</time>
      </trkpt>
      <trkpt lat="46.01711" lon="6.58064">
        <ele>1822</ele>
        <time>2017-12-29T11:09:53Z</time>
      </trkpt>
      <trkpt lat="46.01702" lon="6.58066">
        <ele>1824</ele>
        <time>2017-12-29T11:10:05Z</time>
      </trkpt>
      <trkpt lat="46.017" lon="6.58065">
        <ele>1824</ele>
        <time>2017-12-29T11:10:07Z</time>
      </trkpt>
      <trkpt lat="46.01699" lon="6.58063">
        <ele>1824</ele>
        <time>2017-12-29T11:10:09Z</time>
      </trkpt>
      <trkpt lat="46.01694" lon="6.58059">
        <ele>1824</ele>
        <time>2017-12-29T11:10:19Z</time>
      </trkpt>
      <trkpt lat="46.01684" lon="6.58062">
        <ele>1827</ele>
        <time>2017-12-29T11:10:32Z</time>
      </trkpt>
      <trkpt lat="46.01673" lon="6.58065">
        <ele>1831</ele>
        <time>2017-12-29T11:10:46Z</time>
      </trkpt>
      <trkpt lat="46.01671" lon="6.58068">
        <ele>1833</ele>
        <time>2017-12-29T11:10:50Z</time>
      </trkpt>
      <trkpt lat="46.01658" lon="6.58075">
        <ele>1843</ele>
        <time>2017-12-29T11:11:07Z</time>
      </trkpt>
      <trkpt lat="46.0165" lon="6.58075">
        <ele>1843</ele>
        <time>2017-12-29T11:11:15Z</time>
      </trkpt>
      <trkpt lat="46.0165" lon="6.58075">
        <ele>1843</ele>
        <time>2017-12-29T11:11:16Z</time>
      </trkpt>
      <trkpt lat="46.01636" lon="6.58074">
        <ele>1843</ele>
        <time>2017-12-29T11:11:31Z</time>
      </trkpt>
      <trkpt lat="46.01625" lon="6.58075">
        <ele>1845</ele>
        <time>2017-12-29T11:11:43Z</time>
      </trkpt>
      <trkpt lat="46.01624" lon="6.58075">
        <ele>1845</ele>
        <time>2017-12-29T11:11:45Z</time>
      </trkpt>
      <trkpt lat="46.01623" lon="6.58076">
        <ele>1845</ele>
        <time>2017-12-29T11:11:46Z</time>
      </trkpt>
      <trkpt lat="46.01621" lon="6.58075">
        <ele>1845</ele>
        <time>2017-12-29T11:11:48Z</time>
      </trkpt>
      <trkpt lat="46.0162" lon="6.58075">
        <ele>1846</ele>
        <time>2017-12-29T11:11:49Z</time>
      </trkpt>
      <trkpt lat="46.01619" lon="6.58075">
        <ele>1846</ele>
        <time>2017-12-29T11:11:50Z</time>
      </trkpt>
      <trkpt lat="46.01609" lon="6.58078">
        <ele>1849</ele>
        <time>2017-12-29T11:12:03Z</time>
      </trkpt>
      <trkpt lat="46.01602" lon="6.58082">
        <ele>1852</ele>
        <time>2017-12-29T11:12:14Z</time>
      </trkpt>
      <trkpt lat="46.016" lon="6.58083">
        <ele>1866</ele>
        <time>2017-12-29T11:12:17Z</time>
      </trkpt>
      <trkpt lat="46.01597" lon="6.58086">
        <ele>1866</ele>
        <time>2017-12-29T11:12:22Z</time>
      </trkpt>
      <trkpt lat="46.01595" lon="6.58087">
        <ele>1866</ele>
        <time>2017-12-29T11:12:24Z</time>
      </trkpt>
      <trkpt lat="46.01594" lon="6.58087">
        <ele>1866</ele>
        <time>2017-12-29T11:12:26Z</time>
      </trkpt>
      <trkpt lat="46.01584" lon="6.5809">
        <ele>1866</ele>
        <time>2017-12-29T11:12:38Z</time>
      </trkpt>
      <trkpt lat="46.01582" lon="6.5809">
        <ele>1870</ele>
        <time>2017-12-29T11:12:40Z</time>
      </trkpt>
      <trkpt lat="46.01581" lon="6.5809">
        <ele>1870</ele>
        <time>2017-12-29T11:12:41Z</time>
      </trkpt>
      <trkpt lat="46.01567" lon="6.5809">
        <ele>1875</ele>
        <time>2017-12-29T11:12:57Z</time>
      </trkpt>
      <trkpt lat="46.01567" lon="6.5809">
        <ele>1875</ele>
        <time>2017-12-29T11:12:58Z</time>
      </trkpt>
      <trkpt lat="46.01559" lon="6.5809">
        <ele>1877</ele>
        <time>2017-12-29T11:13:07Z</time>
      </trkpt>
      <trkpt lat="46.01558" lon="6.5809">
        <ele>1877</ele>
        <time>2017-12-29T11:13:08Z</time>
      </trkpt>
      <trkpt lat="46.01555" lon="6.5809">
        <ele>1878</ele>
        <time>2017-12-29T11:13:12Z</time>
      </trkpt>
      <trkpt lat="46.01554" lon="6.58089">
        <ele>1878</ele>
        <time>2017-12-29T11:13:13Z</time>
      </trkpt>
      <trkpt lat="46.01547" lon="6.5809">
        <ele>1880</ele>
        <time>2017-12-29T11:13:24Z</time>
      </trkpt>
      <trkpt lat="46.01542" lon="6.58091">
        <ele>1880</ele>
        <time>2017-12-29T11:13:31Z</time>
      </trkpt>
      <trkpt lat="46.01539" lon="6.58097">
        <ele>1881</ele>
        <time>2017-12-29T11:13:42Z</time>
      </trkpt>
      <trkpt lat="46.01531" lon="6.58099">
        <ele>1882</ele>
        <time>2017-12-29T11:13:54Z</time>
      </trkpt>
      <trkpt lat="46.01523" lon="6.581">
        <ele>1883</ele>
        <time>2017-12-29T11:14:06Z</time>
      </trkpt>
      <trkpt lat="46.01516" lon="6.581">
        <ele>1883</ele>
        <time>2017-12-29T11:14:16Z</time>
      </trkpt>
      <trkpt lat="46.0151" lon="6.58103">
        <ele>1883</ele>
        <time>2017-12-29T11:14:26Z</time>
      </trkpt>
      <trkpt lat="46.0151" lon="6.58108">
        <ele>1884</ele>
        <time>2017-12-29T11:14:31Z</time>
      </trkpt>
      <trkpt lat="46.01509" lon="6.58109">
        <ele>1884</ele>
        <time>2017-12-29T11:14:33Z</time>
      </trkpt>
      <trkpt lat="46.01509" lon="6.58111">
        <ele>1884</ele>
        <time>2017-12-29T11:14:35Z</time>
      </trkpt>
      <trkpt lat="46.01508" lon="6.58113">
        <ele>1884</ele>
        <time>2017-12-29T11:14:36Z</time>
      </trkpt>
      <trkpt lat="46.01507" lon="6.58116">
        <ele>1885</ele>
        <time>2017-12-29T11:14:39Z</time>
      </trkpt>
      <trkpt lat="46.01507" lon="6.58117">
        <ele>1885</ele>
        <time>2017-12-29T11:14:40Z</time>
      </trkpt>
      <trkpt lat="46.01507" lon="6.58118">
        <ele>1885</ele>
        <time>2017-12-29T11:14:41Z</time>
      </trkpt>
      <trkpt lat="46.01506" lon="6.58119">
        <ele>1885</ele>
        <time>2017-12-29T11:14:43Z</time>
      </trkpt>
      <trkpt lat="46.01505" lon="6.58121">
        <ele>1885</ele>
        <time>2017-12-29T11:14:45Z</time>
      </trkpt>
      <trkpt lat="46.01504" lon="6.58125">
        <ele>1886</ele>
        <time>2017-12-29T11:14:49Z</time>
      </trkpt>
      <trkpt lat="46.01503" lon="6.58131">
        <ele>1887</ele>
        <time>2017-12-29T11:14:54Z</time>
      </trkpt>
      <trkpt lat="46.01498" lon="6.58141">
        <ele>1893</ele>
        <time>2017-12-29T11:15:04Z</time>
      </trkpt>
      <trkpt lat="46.0149" lon="6.58145">
        <ele>1893</ele>
        <time>2017-12-29T11:15:13Z</time>
      </trkpt>
      <trkpt lat="46.01489" lon="6.58146">
        <ele>1893</ele>
        <time>2017-12-29T11:15:14Z</time>
      </trkpt>
      <trkpt lat="46.01477" lon="6.58147">
        <ele>1893</ele>
        <time>2017-12-29T11:15:24Z</time>
      </trkpt>
      <trkpt lat="46.01468" lon="6.58143">
        <ele>1893</ele>
        <time>2017-12-29T11:15:33Z</time>
      </trkpt>
      <trkpt lat="46.01466" lon="6.58143">
        <ele>1893</ele>
        <time>2017-12-29T11:15:35Z</time>
      </trkpt>
      <trkpt lat="46.01462" lon="6.58144">
        <ele>1893</ele>
        <time>2017-12-29T11:15:39Z</time>
      </trkpt>
      <trkpt lat="46.01461" lon="6.58143">
        <ele>1893</ele>
        <time>2017-12-29T11:15:40Z</time>
      </trkpt>
      <trkpt lat="46.01454" lon="6.58137">
        <ele>1892</ele>
        <time>2017-12-29T11:15:50Z</time>
      </trkpt>
      <trkpt lat="46.01453" lon="6.58136">
        <ele>1892</ele>
        <time>2017-12-29T11:15:51Z</time>
      </trkpt>
      <trkpt lat="46.01445" lon="6.5813">
        <ele>1892</ele>
        <time>2017-12-29T11:16:00Z</time>
      </trkpt>
      <trkpt lat="46.01443" lon="6.58129">
        <ele>1892</ele>
        <time>2017-12-29T11:16:01Z</time>
      </trkpt>
      <trkpt lat="46.01441" lon="6.58128">
        <ele>1892</ele>
        <time>2017-12-29T11:16:03Z</time>
      </trkpt>
      <trkpt lat="46.0144" lon="6.58127">
        <ele>1892</ele>
        <time>2017-12-29T11:16:04Z</time>
      </trkpt>
      <trkpt lat="46.01407" lon="6.58106">
        <ele>1896</ele>
        <time>2017-12-29T11:16:23Z</time>
      </trkpt>
      <trkpt lat="46.01392" lon="6.58101">
        <ele>1896</ele>
        <time>2017-12-29T11:16:30Z</time>
      </trkpt>
      <trkpt lat="46.01372" lon="6.581">
        <ele>1897</ele>
        <time>2017-12-29T11:16:43Z</time>
      </trkpt>
      <trkpt lat="46.01355" lon="6.58098">
        <ele>1898</ele>
        <time>2017-12-29T11:16:56Z</time>
      </trkpt>
      <trkpt lat="46.0133" lon="6.58093">
        <ele>1904</ele>
        <time>2017-12-29T11:17:17Z</time>
      </trkpt>
      <trkpt lat="46.01328" lon="6.58092">
        <ele>1904</ele>
        <time>2017-12-29T11:17:19Z</time>
      </trkpt>
      <trkpt lat="46.01327" lon="6.58091">
        <ele>1904</ele>
        <time>2017-12-29T11:17:20Z</time>
      </trkpt>
      <trkpt lat="46.01326" lon="6.58091">
        <ele>1904</ele>
        <time>2017-12-29T11:17:21Z</time>
      </trkpt>
      <trkpt lat="46.01325" lon="6.58091">
        <ele>1904</ele>
        <time>2017-12-29T11:17:22Z</time>
      </trkpt>
      <trkpt lat="46.01324" lon="6.58091">
        <ele>1904</ele>
        <time>2017-12-29T11:17:23Z</time>
      </trkpt>
      <trkpt lat="46.01323" lon="6.58091">
        <ele>1904</ele>
        <time>2017-12-29T11:17:24Z</time>
      </trkpt>
      <trkpt lat="46.01317" lon="6.58091">
        <ele>1904</ele>
        <time>2017-12-29T11:17:29Z</time>
      </trkpt>
      <trkpt lat="46.01316" lon="6.58091">
        <ele>1904</ele>
        <time>2017-12-29T11:17:30Z</time>
      </trkpt>
      <trkpt lat="46.01315" lon="6.58092">
        <ele>1904</ele>
        <time>2017-12-29T11:17:31Z</time>
      </trkpt>
      <trkpt lat="46.01314" lon="6.58092">
        <ele>1904</ele>
        <time>2017-12-29T11:17:32Z</time>
      </trkpt>
      <trkpt lat="46.01313" lon="6.58092">
        <ele>1905</ele>
        <time>2017-12-29T11:17:33Z</time>
      </trkpt>
      <trkpt lat="46.01312" lon="6.58092">
        <ele>1905</ele>
        <time>2017-12-29T11:17:34Z</time>
      </trkpt>
      <trkpt lat="46.01311" lon="6.58092">
        <ele>1905</ele>
        <time>2017-12-29T11:17:35Z</time>
      </trkpt>
      <trkpt lat="46.01309" lon="6.58092">
        <ele>1905</ele>
        <time>2017-12-29T11:17:36Z</time>
      </trkpt>
      <trkpt lat="46.01307" lon="6.58093">
        <ele>1905</ele>
        <time>2017-12-29T11:17:38Z</time>
      </trkpt>
      <trkpt lat="46.01304" lon="6.58092">
        <ele>1905</ele>
        <time>2017-12-29T11:17:41Z</time>
      </trkpt>
      <trkpt lat="46.01303" lon="6.58092">
        <ele>1905</ele>
        <time>2017-12-29T11:17:42Z</time>
      </trkpt>
      <trkpt lat="46.01294" lon="6.58091">
        <ele>1906</ele>
        <time>2017-12-29T11:17:52Z</time>
      </trkpt>
      <trkpt lat="46.01293" lon="6.58091">
        <ele>1906</ele>
        <time>2017-12-29T11:17:53Z</time>
      </trkpt>
      <trkpt lat="46.01292" lon="6.58091">
        <ele>1907</ele>
        <time>2017-12-29T11:17:54Z</time>
      </trkpt>
      <trkpt lat="46.01291" lon="6.58092">
        <ele>1907</ele>
        <time>2017-12-29T11:17:55Z</time>
      </trkpt>
      <trkpt lat="46.0129" lon="6.58092">
        <ele>1907</ele>
        <time>2017-12-29T11:17:56Z</time>
      </trkpt>
      <trkpt lat="46.01289" lon="6.58092">
        <ele>1907</ele>
        <time>2017-12-29T11:17:57Z</time>
      </trkpt>
      <trkpt lat="46.01287" lon="6.58092">
        <ele>1907</ele>
        <time>2017-12-29T11:17:58Z</time>
      </trkpt>
      <trkpt lat="46.01286" lon="6.58092">
        <ele>1907</ele>
        <time>2017-12-29T11:17:59Z</time>
      </trkpt>
      <trkpt lat="46.01285" lon="6.58092">
        <ele>1907</ele>
        <time>2017-12-29T11:18:00Z</time>
      </trkpt>
      <trkpt lat="46.01283" lon="6.58093">
        <ele>1907</ele>
        <time>2017-12-29T11:18:01Z</time>
      </trkpt>
      <trkpt lat="46.01282" lon="6.58093">
        <ele>1908</ele>
        <time>2017-12-29T11:18:02Z</time>
      </trkpt>
      <trkpt lat="46.01281" lon="6.58093">
        <ele>1908</ele>
        <time>2017-12-29T11:18:03Z</time>
      </trkpt>
      <trkpt lat="46.0128" lon="6.58093">
        <ele>1908</ele>
        <time>2017-12-29T11:18:04Z</time>
      </trkpt>
      <trkpt lat="46.01278" lon="6.58093">
        <ele>1908</ele>
        <time>2017-12-29T11:18:05Z</time>
      </trkpt>
      <trkpt lat="46.01277" lon="6.58093">
        <ele>1908</ele>
        <time>2017-12-29T11:18:06Z</time>
      </trkpt>
      <trkpt lat="46.01276" lon="6.58093">
        <ele>1908</ele>
        <time>2017-12-29T11:18:07Z</time>
      </trkpt>
      <trkpt lat="46.01274" lon="6.58093">
        <ele>1909</ele>
        <time>2017-12-29T11:18:08Z</time>
      </trkpt>
      <trkpt lat="46.01273" lon="6.58093">
        <ele>1909</ele>
        <time>2017-12-29T11:18:09Z</time>
      </trkpt>
      <trkpt lat="46.01271" lon="6.58094">
        <ele>1909</ele>
        <time>2017-12-29T11:18:10Z</time>
      </trkpt>
      <trkpt lat="46.0127" lon="6.58094">
        <ele>1909</ele>
        <time>2017-12-29T11:18:11Z</time>
      </trkpt>
      <trkpt lat="46.01269" lon="6.58094">
        <ele>1909</ele>
        <time>2017-12-29T11:18:12Z</time>
      </trkpt>
      <trkpt lat="46.01225" lon="6.58098">
        <ele>1919</ele>
        <time>2017-12-29T11:18:47Z</time>
      </trkpt>
      <trkpt lat="46.01217" lon="6.58092">
        <ele>1920</ele>
        <time>2017-12-29T11:18:56Z</time>
      </trkpt>
      <trkpt lat="46.01216" lon="6.58091">
        <ele>1920</ele>
        <time>2017-12-29T11:18:58Z</time>
      </trkpt>
      <trkpt lat="46.01215" lon="6.58091">
        <ele>1920</ele>
        <time>2017-12-29T11:18:59Z</time>
      </trkpt>
      <trkpt lat="46.01203" lon="6.58085">
        <ele>1922</ele>
        <time>2017-12-29T11:19:12Z</time>
      </trkpt>
      <trkpt lat="46.012" lon="6.58084">
        <ele>1922</ele>
        <time>2017-12-29T11:19:15Z</time>
      </trkpt>
      <trkpt lat="46.01199" lon="6.58084">
        <ele>1923</ele>
        <time>2017-12-29T11:19:16Z</time>
      </trkpt>
      <trkpt lat="46.01198" lon="6.58083">
        <ele>1923</ele>
        <time>2017-12-29T11:19:17Z</time>
      </trkpt>
      <trkpt lat="46.01189" lon="6.58079">
        <ele>1926</ele>
        <time>2017-12-29T11:19:26Z</time>
      </trkpt>
      <trkpt lat="46.01188" lon="6.58079">
        <ele>1926</ele>
        <time>2017-12-29T11:19:27Z</time>
      </trkpt>
      <trkpt lat="46.01187" lon="6.58079">
        <ele>1927</ele>
        <time>2017-12-29T11:19:28Z</time>
      </trkpt>
      <trkpt lat="46.01158" lon="6.58071">
        <ele>1938</ele>
        <time>2017-12-29T11:19:51Z</time>
      </trkpt>
      <trkpt lat="46.01143" lon="6.58071">
        <ele>1941</ele>
        <time>2017-12-29T11:20:06Z</time>
      </trkpt>
      <trkpt lat="46.01142" lon="6.58072">
        <ele>1941</ele>
        <time>2017-12-29T11:20:07Z</time>
      </trkpt>
      <trkpt lat="46.01141" lon="6.58073">
        <ele>1941</ele>
        <time>2017-12-29T11:20:08Z</time>
      </trkpt>
      <trkpt lat="46.01141" lon="6.58073">
        <ele>1941</ele>
        <time>2017-12-29T11:20:09Z</time>
      </trkpt>
      <trkpt lat="46.0114" lon="6.58074">
        <ele>1942</ele>
        <time>2017-12-29T11:20:10Z</time>
      </trkpt>
      <trkpt lat="46.01139" lon="6.58075">
        <ele>1942</ele>
        <time>2017-12-29T11:20:11Z</time>
      </trkpt>
      <trkpt lat="46.01126" lon="6.58091">
        <ele>1942</ele>
        <time>2017-12-29T11:20:27Z</time>
      </trkpt>
      <trkpt lat="46.01117" lon="6.58099">
        <ele>1943</ele>
        <time>2017-12-29T11:20:39Z</time>
      </trkpt>
      <trkpt lat="46.01108" lon="6.58109">
        <ele>1944</ele>
        <time>2017-12-29T11:20:51Z</time>
      </trkpt>
      <trkpt lat="46.01101" lon="6.58119">
        <ele>1944</ele>
        <time>2017-12-29T11:21:02Z</time>
      </trkpt>
      <trkpt lat="46.01099" lon="6.58122">
        <ele>1944</ele>
        <time>2017-12-29T11:21:06Z</time>
      </trkpt>
      <trkpt lat="46.01099" lon="6.58123">
        <ele>1944</ele>
        <time>2017-12-29T11:21:07Z</time>
      </trkpt>
      <trkpt lat="46.01097" lon="6.58125">
        <ele>1944</ele>
        <time>2017-12-29T11:21:09Z</time>
      </trkpt>
      <trkpt lat="46.01097" lon="6.58126">
        <ele>1944</ele>
        <time>2017-12-29T11:21:10Z</time>
      </trkpt>
      <trkpt lat="46.01091" lon="6.58135">
        <ele>1945</ele>
        <time>2017-12-29T11:21:21Z</time>
      </trkpt>
      <trkpt lat="46.01091" lon="6.58136">
        <ele>1945</ele>
        <time>2017-12-29T11:21:22Z</time>
      </trkpt>
      <trkpt lat="46.01088" lon="6.5814">
        <ele>1945</ele>
        <time>2017-12-29T11:21:27Z</time>
      </trkpt>
      <trkpt lat="46.01084" lon="6.58148">
        <ele>1946</ele>
        <time>2017-12-29T11:21:35Z</time>
      </trkpt>
      <trkpt lat="46.01082" lon="6.58149">
        <ele>1960</ele>
        <time>2017-12-29T11:21:38Z</time>
      </trkpt>
      <trkpt lat="46.01081" lon="6.58147">
        <ele>1961</ele>
        <time>2017-12-29T11:21:40Z</time>
      </trkpt>
      <trkpt lat="46.0108" lon="6.58145">
        <ele>1962</ele>
        <time>2017-12-29T11:21:42Z</time>
      </trkpt>
      <trkpt lat="46.01077" lon="6.58122">
        <ele>1965</ele>
        <time>2017-12-29T11:21:59Z</time>
      </trkpt>
      <trkpt lat="46.01076" lon="6.58122">
        <ele>1965</ele>
        <time>2017-12-29T11:22:00Z</time>
      </trkpt>
      <trkpt lat="46.01075" lon="6.5812">
        <ele>1965</ele>
        <time>2017-12-29T11:22:02Z</time>
      </trkpt>
      <trkpt lat="46.0107" lon="6.58118">
        <ele>1966</ele>
        <time>2017-12-29T11:22:10Z</time>
      </trkpt>
      <trkpt lat="46.01069" lon="6.58117">
        <ele>1966</ele>
        <time>2017-12-29T11:22:12Z</time>
      </trkpt>
      <trkpt lat="46.01067" lon="6.58117">
        <ele>1966</ele>
        <time>2017-12-29T11:22:14Z</time>
      </trkpt>
      <trkpt lat="46.01066" lon="6.58116">
        <ele>1966</ele>
        <time>2017-12-29T11:22:15Z</time>
      </trkpt>
      <trkpt lat="46.01065" lon="6.58116">
        <ele>1967</ele>
        <time>2017-12-29T11:22:17Z</time>
      </trkpt>
      <trkpt lat="46.01064" lon="6.58115">
        <ele>1967</ele>
        <time>2017-12-29T11:22:18Z</time>
      </trkpt>
      <trkpt lat="46.01063" lon="6.58115">
        <ele>1967</ele>
        <time>2017-12-29T11:22:19Z</time>
      </trkpt>
      <trkpt lat="46.01059" lon="6.58115">
        <ele>1968</ele>
        <time>2017-12-29T11:22:24Z</time>
      </trkpt>
      <trkpt lat="46.01057" lon="6.58117">
        <ele>1968</ele>
        <time>2017-12-29T11:22:27Z</time>
      </trkpt>
      <trkpt lat="46.01055" lon="6.58119">
        <ele>1968</ele>
        <time>2017-12-29T11:22:29Z</time>
      </trkpt>
      <trkpt lat="46.01055" lon="6.5812">
        <ele>1968</ele>
        <time>2017-12-29T11:22:30Z</time>
      </trkpt>
      <trkpt lat="46.01048" lon="6.58138">
        <ele>1969</ele>
        <time>2017-12-29T11:22:45Z</time>
      </trkpt>
      <trkpt lat="46.01048" lon="6.58139">
        <ele>1969</ele>
        <time>2017-12-29T11:22:46Z</time>
      </trkpt>
      <trkpt lat="46.01048" lon="6.5814">
        <ele>1969</ele>
        <time>2017-12-29T11:22:47Z</time>
      </trkpt>
      <trkpt lat="46.01037" lon="6.58161">
        <ele>1971</ele>
        <time>2017-12-29T11:23:04Z</time>
      </trkpt>
      <trkpt lat="46.01025" lon="6.58183">
        <ele>1967</ele>
        <time>2017-12-29T11:23:23Z</time>
      </trkpt>
      <trkpt lat="46.01017" lon="6.58196">
        <ele>1967</ele>
        <time>2017-12-29T11:23:36Z</time>
      </trkpt>
      <trkpt lat="46.01016" lon="6.58197">
        <ele>1967</ele>
        <time>2017-12-29T11:23:37Z</time>
      </trkpt>
      <trkpt lat="46.01015" lon="6.58198">
        <ele>1967</ele>
        <time>2017-12-29T11:23:39Z</time>
      </trkpt>
      <trkpt lat="46.01011" lon="6.58204">
        <ele>1967</ele>
        <time>2017-12-29T11:23:45Z</time>
      </trkpt>
      <trkpt lat="46.0101" lon="6.58205">
        <ele>1967</ele>
        <time>2017-12-29T11:23:46Z</time>
      </trkpt>
      <trkpt lat="46.01003" lon="6.58216">
        <ele>1968</ele>
        <time>2017-12-29T11:23:58Z</time>
      </trkpt>
      <trkpt lat="46.01001" lon="6.58218">
        <ele>1968</ele>
        <time>2017-12-29T11:24:01Z</time>
      </trkpt>
      <trkpt lat="46.01" lon="6.58219">
        <ele>1968</ele>
        <time>2017-12-29T11:24:02Z</time>
      </trkpt>
      <trkpt lat="46.01" lon="6.5822">
        <ele>1987</ele>
        <time>2017-12-29T11:24:03Z</time>
      </trkpt>
      <trkpt lat="46.00999" lon="6.58221">
        <ele>1987</ele>
        <time>2017-12-29T11:24:04Z</time>
      </trkpt>
      <trkpt lat="46.00988" lon="6.58232">
        <ele>1986</ele>
        <time>2017-12-29T11:24:18Z</time>
      </trkpt>
      <trkpt lat="46.00976" lon="6.58238">
        <ele>1987</ele>
        <time>2017-12-29T11:24:32Z</time>
      </trkpt>
      <trkpt lat="46.00975" lon="6.58239">
        <ele>1987</ele>
        <time>2017-12-29T11:24:33Z</time>
      </trkpt>
      <trkpt lat="46.00974" lon="6.5824">
        <ele>1988</ele>
        <time>2017-12-29T11:24:34Z</time>
      </trkpt>
      <trkpt lat="46.00973" lon="6.5824">
        <ele>1988</ele>
        <time>2017-12-29T11:24:35Z</time>
      </trkpt>
      <trkpt lat="46.00972" lon="6.5824">
        <ele>1988</ele>
        <time>2017-12-29T11:24:36Z</time>
      </trkpt>
      <trkpt lat="46.00971" lon="6.58241">
        <ele>1988</ele>
        <time>2017-12-29T11:24:37Z</time>
      </trkpt>
      <trkpt lat="46.0097" lon="6.58241">
        <ele>1988</ele>
        <time>2017-12-29T11:24:38Z</time>
      </trkpt>
      <trkpt lat="46.00969" lon="6.58242">
        <ele>1988</ele>
        <time>2017-12-29T11:24:39Z</time>
      </trkpt>
      <trkpt lat="46.00968" lon="6.58242">
        <ele>1989</ele>
        <time>2017-12-29T11:24:40Z</time>
      </trkpt>
      <trkpt lat="46.00963" lon="6.58239">
        <ele>1990</ele>
        <time>2017-12-29T11:24:50Z</time>
      </trkpt>
      <trkpt lat="46.00966" lon="6.58227">
        <ele>1990</ele>
        <time>2017-12-29T11:24:59Z</time>
      </trkpt>
      <trkpt lat="46.00966" lon="6.58226">
        <ele>1990</ele>
        <time>2017-12-29T11:25:00Z</time>
      </trkpt>
      <trkpt lat="46.00967" lon="6.5822">
        <ele>1990</ele>
        <time>2017-12-29T11:25:04Z</time>
      </trkpt>
      <trkpt lat="46.00968" lon="6.582">
        <ele>1991</ele>
        <time>2017-12-29T11:25:19Z</time>
      </trkpt>
      <trkpt lat="46.00968" lon="6.58197">
        <ele>1991</ele>
        <time>2017-12-29T11:25:21Z</time>
      </trkpt>
      <trkpt lat="46.00966" lon="6.5819">
        <ele>1992</ele>
        <time>2017-12-29T11:25:29Z</time>
      </trkpt>
      <trkpt lat="46.00965" lon="6.58187">
        <ele>1992</ele>
        <time>2017-12-29T11:25:32Z</time>
      </trkpt>
      <trkpt lat="46.00961" lon="6.58173">
        <ele>1993</ele>
        <time>2017-12-29T11:25:46Z</time>
      </trkpt>
      <trkpt lat="46.0096" lon="6.5817">
        <ele>1993</ele>
        <time>2017-12-29T11:25:48Z</time>
      </trkpt>
      <trkpt lat="46.00959" lon="6.58165">
        <ele>1997</ele>
        <time>2017-12-29T11:25:53Z</time>
      </trkpt>
      <trkpt lat="46.00955" lon="6.58156">
        <ele>1998</ele>
        <time>2017-12-29T11:26:05Z</time>
      </trkpt>
      <trkpt lat="46.00953" lon="6.58152">
        <ele>1998</ele>
        <time>2017-12-29T11:26:09Z</time>
      </trkpt>
      <trkpt lat="46.00953" lon="6.5815">
        <ele>1998</ele>
        <time>2017-12-29T11:26:10Z</time>
      </trkpt>
      <trkpt lat="46.00953" lon="6.58149">
        <ele>1998</ele>
        <time>2017-12-29T11:26:11Z</time>
      </trkpt>
      <trkpt lat="46.00953" lon="6.58147">
        <ele>1998</ele>
        <time>2017-12-29T11:26:12Z</time>
      </trkpt>
      <trkpt lat="46.00954" lon="6.58146">
        <ele>1998</ele>
        <time>2017-12-29T11:26:13Z</time>
      </trkpt>
      <trkpt lat="46.00955" lon="6.58145">
        <ele>1998</ele>
        <time>2017-12-29T11:26:14Z</time>
      </trkpt>
      <trkpt lat="46.00955" lon="6.58144">
        <ele>1998</ele>
        <time>2017-12-29T11:26:15Z</time>
      </trkpt>
      <trkpt lat="46.00955" lon="6.58143">
        <ele>1998</ele>
        <time>2017-12-29T11:26:16Z</time>
      </trkpt>
      <trkpt lat="46.00956" lon="6.58139">
        <ele>1998</ele>
        <time>2017-12-29T11:26:19Z</time>
      </trkpt>
      <trkpt lat="46.00955" lon="6.58133">
        <ele>1998</ele>
        <time>2017-12-29T11:26:23Z</time>
      </trkpt>
      <trkpt lat="46.00954" lon="6.5813">
        <ele>1998</ele>
        <time>2017-12-29T11:26:26Z</time>
      </trkpt>
      <trkpt lat="46.00954" lon="6.58129">
        <ele>1998</ele>
        <time>2017-12-29T11:26:27Z</time>
      </trkpt>
      <trkpt lat="46.00954" lon="6.58127">
        <ele>1998</ele>
        <time>2017-12-29T11:26:28Z</time>
      </trkpt>
      <trkpt lat="46.00953" lon="6.58108">
        <ele>1998</ele>
        <time>2017-12-29T11:26:39Z</time>
      </trkpt>
      <trkpt lat="46.00953" lon="6.58096">
        <ele>1998</ele>
        <time>2017-12-29T11:26:46Z</time>
      </trkpt>
      <trkpt lat="46.00951" lon="6.58085">
        <ele>1998</ele>
        <time>2017-12-29T11:26:53Z</time>
      </trkpt>
      <trkpt lat="46.00951" lon="6.58083">
        <ele>1999</ele>
        <time>2017-12-29T11:26:54Z</time>
      </trkpt>
      <trkpt lat="46.00951" lon="6.58074">
        <ele>1999</ele>
        <time>2017-12-29T11:27:01Z</time>
      </trkpt>
      <trkpt lat="46.00952" lon="6.58071">
        <ele>1999</ele>
        <time>2017-12-29T11:27:03Z</time>
      </trkpt>
      <trkpt lat="46.00953" lon="6.58066">
        <ele>1998</ele>
        <time>2017-12-29T11:27:06Z</time>
      </trkpt>
      <trkpt lat="46.00963" lon="6.58043">
        <ele>1998</ele>
        <time>2017-12-29T11:27:24Z</time>
      </trkpt>
      <trkpt lat="46.00968" lon="6.58019">
        <ele>1998</ele>
        <time>2017-12-29T11:27:39Z</time>
      </trkpt>
      <trkpt lat="46.00974" lon="6.57991">
        <ele>2000</ele>
        <time>2017-12-29T11:27:55Z</time>
      </trkpt>
      <trkpt lat="46.0098" lon="6.57964">
        <ele>2000</ele>
        <time>2017-12-29T11:28:12Z</time>
      </trkpt>
      <trkpt lat="46.00988" lon="6.57941">
        <ele>2002</ele>
        <time>2017-12-29T11:28:28Z</time>
      </trkpt>
      <trkpt lat="46.00993" lon="6.57901">
        <ele>2004</ele>
        <time>2017-12-29T11:28:52Z</time>
      </trkpt>
      <trkpt lat="46.00994" lon="6.5789">
        <ele>2004</ele>
        <time>2017-12-29T11:28:58Z</time>
      </trkpt>
      <trkpt lat="46.00991" lon="6.57849">
        <ele>2006</ele>
        <time>2017-12-29T11:29:15Z</time>
      </trkpt>
      <trkpt lat="46.00988" lon="6.57831">
        <ele>2006</ele>
        <time>2017-12-29T11:29:21Z</time>
      </trkpt>
      <trkpt lat="46.00985" lon="6.57819">
        <ele>2003</ele>
        <time>2017-12-29T11:29:24Z</time>
      </trkpt>
      <trkpt lat="46.00982" lon="6.57809">
        <ele>2001</ele>
        <time>2017-12-29T11:29:26Z</time>
      </trkpt>
      <trkpt lat="46.0098" lon="6.57804">
        <ele>2000</ele>
        <time>2017-12-29T11:29:27Z</time>
      </trkpt>
      <trkpt lat="46.00976" lon="6.578">
        <ele>2000</ele>
        <time>2017-12-29T11:29:28Z</time>
      </trkpt>
      <trkpt lat="46.00972" lon="6.57796">
        <ele>1999</ele>
        <time>2017-12-29T11:29:29Z</time>
      </trkpt>
      <trkpt lat="46.00968" lon="6.57793">
        <ele>1998</ele>
        <time>2017-12-29T11:29:30Z</time>
      </trkpt>
      <trkpt lat="46.00963" lon="6.57791">
        <ele>1998</ele>
        <time>2017-12-29T11:29:31Z</time>
      </trkpt>
      <trkpt lat="46.00957" lon="6.57786">
        <ele>1997</ele>
        <time>2017-12-29T11:29:33Z</time>
      </trkpt>
      <trkpt lat="46.00957" lon="6.5778">
        <ele>1997</ele>
        <time>2017-12-29T11:29:34Z</time>
      </trkpt>
      <trkpt lat="46.00959" lon="6.57771">
        <ele>1997</ele>
        <time>2017-12-29T11:29:36Z</time>
      </trkpt>
      <trkpt lat="46.00959" lon="6.57761">
        <ele>1997</ele>
        <time>2017-12-29T11:29:38Z</time>
      </trkpt>
      <trkpt lat="46.00956" lon="6.57757">
        <ele>1996</ele>
        <time>2017-12-29T11:29:39Z</time>
      </trkpt>
      <trkpt lat="46.00952" lon="6.57753">
        <ele>1996</ele>
        <time>2017-12-29T11:29:40Z</time>
      </trkpt>
      <trkpt lat="46.00948" lon="6.5775">
        <ele>1989</ele>
        <time>2017-12-29T11:29:41Z</time>
      </trkpt>
      <trkpt lat="46.00944" lon="6.57747">
        <ele>1989</ele>
        <time>2017-12-29T11:29:42Z</time>
      </trkpt>
      <trkpt lat="46.0094" lon="6.57745">
        <ele>1989</ele>
        <time>2017-12-29T11:29:43Z</time>
      </trkpt>
      <trkpt lat="46.00933" lon="6.57742">
        <ele>1989</ele>
        <time>2017-12-29T11:29:45Z</time>
      </trkpt>
      <trkpt lat="46.00923" lon="6.57734">
        <ele>1988</ele>
        <time>2017-12-29T11:29:49Z</time>
      </trkpt>
      <trkpt lat="46.00922" lon="6.57733">
        <ele>1988</ele>
        <time>2017-12-29T11:29:50Z</time>
      </trkpt>
      <trkpt lat="46.00911" lon="6.57718">
        <ele>1980</ele>
        <time>2017-12-29T11:29:55Z</time>
      </trkpt>
      <trkpt lat="46.00904" lon="6.5771">
        <ele>1979</ele>
        <time>2017-12-29T11:29:58Z</time>
      </trkpt>
      <trkpt lat="46.00898" lon="6.57701">
        <ele>1978</ele>
        <time>2017-12-29T11:30:01Z</time>
      </trkpt>
      <trkpt lat="46.00881" lon="6.5768">
        <ele>1977</ele>
        <time>2017-12-29T11:30:12Z</time>
      </trkpt>
      <trkpt lat="46.00866" lon="6.57639">
        <ele>1974</ele>
        <time>2017-12-29T11:30:32Z</time>
      </trkpt>
      <trkpt lat="46.00856" lon="6.57613">
        <ele>1975</ele>
        <time>2017-12-29T11:30:43Z</time>
      </trkpt>
      <trkpt lat="46.00831" lon="6.57587">
        <ele>1978</ele>
        <time>2017-12-29T11:31:05Z</time>
      </trkpt>
      <trkpt lat="46.00829" lon="6.5758">
        <ele>1980</ele>
        <time>2017-12-29T11:31:11Z</time>
      </trkpt>
      <trkpt lat="46.00826" lon="6.57575">
        <ele>1980</ele>
        <time>2017-12-29T11:31:15Z</time>
      </trkpt>
      <trkpt lat="46.00825" lon="6.57571">
        <ele>1980</ele>
        <time>2017-12-29T11:31:18Z</time>
      </trkpt>
      <trkpt lat="46.00819" lon="6.57564">
        <ele>1980</ele>
        <time>2017-12-29T11:31:26Z</time>
      </trkpt>
      <trkpt lat="46.00814" lon="6.57556">
        <ele>1980</ele>
        <time>2017-12-29T11:31:34Z</time>
      </trkpt>
      <trkpt lat="46.00813" lon="6.57549">
        <ele>1980</ele>
        <time>2017-12-29T11:31:41Z</time>
      </trkpt>
      <trkpt lat="46.00812" lon="6.57543">
        <ele>1980</ele>
        <time>2017-12-29T11:31:47Z</time>
      </trkpt>
      <trkpt lat="46.00811" lon="6.57539">
        <ele>1981</ele>
        <time>2017-12-29T11:31:51Z</time>
      </trkpt>
      <trkpt lat="46.0081" lon="6.57538">
        <ele>1981</ele>
        <time>2017-12-29T11:31:52Z</time>
      </trkpt>
      <trkpt lat="46.00809" lon="6.57536">
        <ele>1981</ele>
        <time>2017-12-29T11:31:54Z</time>
      </trkpt>
      <trkpt lat="46.00809" lon="6.57535">
        <ele>1981</ele>
        <time>2017-12-29T11:31:55Z</time>
      </trkpt>
      <trkpt lat="46.00808" lon="6.57534">
        <ele>1981</ele>
        <time>2017-12-29T11:31:56Z</time>
      </trkpt>
      <trkpt lat="46.00808" lon="6.57533">
        <ele>1981</ele>
        <time>2017-12-29T11:31:57Z</time>
      </trkpt>
      <trkpt lat="46.008" lon="6.57523">
        <ele>1981</ele>
        <time>2017-12-29T11:32:08Z</time>
      </trkpt>
      <trkpt lat="46.00792" lon="6.57511">
        <ele>1982</ele>
        <time>2017-12-29T11:32:20Z</time>
      </trkpt>
      <trkpt lat="46.00782" lon="6.57493">
        <ele>1992</ele>
        <time>2017-12-29T11:32:36Z</time>
      </trkpt>
      <trkpt lat="46.00781" lon="6.57491">
        <ele>1992</ele>
        <time>2017-12-29T11:32:38Z</time>
      </trkpt>
      <trkpt lat="46.0078" lon="6.57486">
        <ele>1993</ele>
        <time>2017-12-29T11:32:43Z</time>
      </trkpt>
      <trkpt lat="46.00779" lon="6.57483">
        <ele>1993</ele>
        <time>2017-12-29T11:32:46Z</time>
      </trkpt>
      <trkpt lat="46.00776" lon="6.57481">
        <ele>1993</ele>
        <time>2017-12-29T11:32:50Z</time>
      </trkpt>
      <trkpt lat="46.00774" lon="6.57479">
        <ele>1993</ele>
        <time>2017-12-29T11:32:53Z</time>
      </trkpt>
      <trkpt lat="46.00772" lon="6.57476">
        <ele>1993</ele>
        <time>2017-12-29T11:32:56Z</time>
      </trkpt>
      <trkpt lat="46.00768" lon="6.57469">
        <ele>1994</ele>
        <time>2017-12-29T11:33:03Z</time>
      </trkpt>
      <trkpt lat="46.00767" lon="6.57468">
        <ele>1994</ele>
        <time>2017-12-29T11:33:05Z</time>
      </trkpt>
      <trkpt lat="46.00761" lon="6.5746">
        <ele>1995</ele>
        <time>2017-12-29T11:33:14Z</time>
      </trkpt>
      <trkpt lat="46.00761" lon="6.57459">
        <ele>1996</ele>
        <time>2017-12-29T11:33:15Z</time>
      </trkpt>
      <trkpt lat="46.00757" lon="6.57454">
        <ele>1996</ele>
        <time>2017-12-29T11:33:20Z</time>
      </trkpt>
      <trkpt lat="46.00757" lon="6.57452">
        <ele>1997</ele>
        <time>2017-12-29T11:33:21Z</time>
      </trkpt>
      <trkpt lat="46.00756" lon="6.57451">
        <ele>1997</ele>
        <time>2017-12-29T11:33:22Z</time>
      </trkpt>
      <trkpt lat="46.00755" lon="6.5745">
        <ele>1997</ele>
        <time>2017-12-29T11:33:23Z</time>
      </trkpt>
      <trkpt lat="46.00754" lon="6.57449">
        <ele>1997</ele>
        <time>2017-12-29T11:33:24Z</time>
      </trkpt>
      <trkpt lat="46.00747" lon="6.57439">
        <ele>1995</ele>
        <time>2017-12-29T11:33:32Z</time>
      </trkpt>
      <trkpt lat="46.00743" lon="6.57433">
        <ele>1996</ele>
        <time>2017-12-29T11:33:37Z</time>
      </trkpt>
      <trkpt lat="46.00742" lon="6.57432">
        <ele>1997</ele>
        <time>2017-12-29T11:33:38Z</time>
      </trkpt>
      <trkpt lat="46.00738" lon="6.57425">
        <ele>1998</ele>
        <time>2017-12-29T11:33:43Z</time>
      </trkpt>
      <trkpt lat="46.00738" lon="6.57422">
        <ele>1998</ele>
        <time>2017-12-29T11:33:44Z</time>
      </trkpt>
      <trkpt lat="46.00737" lon="6.57421">
        <ele>1998</ele>
        <time>2017-12-29T11:33:45Z</time>
      </trkpt>
      <trkpt lat="46.00736" lon="6.57419">
        <ele>1998</ele>
        <time>2017-12-29T11:33:46Z</time>
      </trkpt>
      <trkpt lat="46.00736" lon="6.57418">
        <ele>1998</ele>
        <time>2017-12-29T11:33:47Z</time>
      </trkpt>
      <trkpt lat="46.00735" lon="6.57416">
        <ele>2003</ele>
        <time>2017-12-29T11:33:48Z</time>
      </trkpt>
      <trkpt lat="46.00734" lon="6.57415">
        <ele>2003</ele>
        <time>2017-12-29T11:33:49Z</time>
      </trkpt>
      <trkpt lat="46.00733" lon="6.57413">
        <ele>2003</ele>
        <time>2017-12-29T11:33:50Z</time>
      </trkpt>
      <trkpt lat="46.00732" lon="6.57412">
        <ele>2002</ele>
        <time>2017-12-29T11:33:51Z</time>
      </trkpt>
      <trkpt lat="46.00732" lon="6.57411">
        <ele>2002</ele>
        <time>2017-12-29T11:33:52Z</time>
      </trkpt>
      <trkpt lat="46.00731" lon="6.57409">
        <ele>2002</ele>
        <time>2017-12-29T11:33:53Z</time>
      </trkpt>
      <trkpt lat="46.0073" lon="6.57408">
        <ele>2002</ele>
        <time>2017-12-29T11:33:54Z</time>
      </trkpt>
      <trkpt lat="46.00729" lon="6.57407">
        <ele>2002</ele>
        <time>2017-12-29T11:33:55Z</time>
      </trkpt>
      <trkpt lat="46.00723" lon="6.57399">
        <ele>2001</ele>
        <time>2017-12-29T11:34:01Z</time>
      </trkpt>
      <trkpt lat="46.00708" lon="6.57382">
        <ele>2000</ele>
        <time>2017-12-29T11:34:15Z</time>
      </trkpt>
      <trkpt lat="46.00684" lon="6.57352">
        <ele>2000</ele>
        <time>2017-12-29T11:34:39Z</time>
      </trkpt>
      <trkpt lat="46.00676" lon="6.5734">
        <ele>2001</ele>
        <time>2017-12-29T11:34:48Z</time>
      </trkpt>
      <trkpt lat="46.00675" lon="6.57339">
        <ele>2001</ele>
        <time>2017-12-29T11:34:49Z</time>
      </trkpt>
      <trkpt lat="46.00674" lon="6.57337">
        <ele>2001</ele>
        <time>2017-12-29T11:34:50Z</time>
      </trkpt>
      <trkpt lat="46.00673" lon="6.57336">
        <ele>2001</ele>
        <time>2017-12-29T11:34:51Z</time>
      </trkpt>
      <trkpt lat="46.00672" lon="6.57335">
        <ele>2002</ele>
        <time>2017-12-29T11:34:52Z</time>
      </trkpt>
      <trkpt lat="46.00671" lon="6.57333">
        <ele>2001</ele>
        <time>2017-12-29T11:34:53Z</time>
      </trkpt>
      <trkpt lat="46.0067" lon="6.57331">
        <ele>2001</ele>
        <time>2017-12-29T11:34:54Z</time>
      </trkpt>
      <trkpt lat="46.00669" lon="6.5733">
        <ele>2001</ele>
        <time>2017-12-29T11:34:55Z</time>
      </trkpt>
      <trkpt lat="46.0066" lon="6.57314">
        <ele>1994</ele>
        <time>2017-12-29T11:35:05Z</time>
      </trkpt>
      <trkpt lat="46.00648" lon="6.57277">
        <ele>1991</ele>
        <time>2017-12-29T11:35:27Z</time>
      </trkpt>
      <trkpt lat="46.00647" lon="6.57262">
        <ele>1992</ele>
        <time>2017-12-29T11:35:37Z</time>
      </trkpt>
      <trkpt lat="46.00648" lon="6.57256">
        <ele>1992</ele>
        <time>2017-12-29T11:35:43Z</time>
      </trkpt>
      <trkpt lat="46.00648" lon="6.57255">
        <ele>1992</ele>
        <time>2017-12-29T11:35:44Z</time>
      </trkpt>
      <trkpt lat="46.00647" lon="6.57254">
        <ele>1992</ele>
        <time>2017-12-29T11:35:45Z</time>
      </trkpt>
      <trkpt lat="46.00646" lon="6.57244">
        <ele>1988</ele>
        <time>2017-12-29T11:35:49Z</time>
      </trkpt>
      <trkpt lat="46.00643" lon="6.5723">
        <ele>1985</ele>
        <time>2017-12-29T11:35:53Z</time>
      </trkpt>
      <trkpt lat="46.00643" lon="6.57211">
        <ele>1982</ele>
        <time>2017-12-29T11:35:59Z</time>
      </trkpt>
      <trkpt lat="46.00646" lon="6.57194">
        <ele>1980</ele>
        <time>2017-12-29T11:36:07Z</time>
      </trkpt>
      <trkpt lat="46.00647" lon="6.57178">
        <ele>1977</ele>
        <time>2017-12-29T11:36:11Z</time>
      </trkpt>
      <trkpt lat="46.00645" lon="6.57175">
        <ele>1977</ele>
        <time>2017-12-29T11:36:12Z</time>
      </trkpt>
      <trkpt lat="46.00642" lon="6.57172">
        <ele>1977</ele>
        <time>2017-12-29T11:36:13Z</time>
      </trkpt>
      <trkpt lat="46.00638" lon="6.57172">
        <ele>1978</ele>
        <time>2017-12-29T11:36:14Z</time>
      </trkpt>
      <trkpt lat="46.00634" lon="6.57173">
        <ele>1978</ele>
        <time>2017-12-29T11:36:15Z</time>
      </trkpt>
      <trkpt lat="46.00632" lon="6.57175">
        <ele>1978</ele>
        <time>2017-12-29T11:36:16Z</time>
      </trkpt>
      <trkpt lat="46.00629" lon="6.57177">
        <ele>1979</ele>
        <time>2017-12-29T11:36:17Z</time>
      </trkpt>
      <trkpt lat="46.00626" lon="6.57179">
        <ele>1979</ele>
        <time>2017-12-29T11:36:18Z</time>
      </trkpt>
      <trkpt lat="46.00619" lon="6.57184">
        <ele>1980</ele>
        <time>2017-12-29T11:36:22Z</time>
      </trkpt>
      <trkpt lat="46.00615" lon="6.57186">
        <ele>1980</ele>
        <time>2017-12-29T11:36:24Z</time>
      </trkpt>
      <trkpt lat="46.00604" lon="6.57192">
        <ele>1980</ele>
        <time>2017-12-29T11:36:29Z</time>
      </trkpt>
      <trkpt lat="46.00601" lon="6.5719">
        <ele>1980</ele>
        <time>2017-12-29T11:36:30Z</time>
      </trkpt>
      <trkpt lat="46.006" lon="6.57185">
        <ele>1980</ele>
        <time>2017-12-29T11:36:31Z</time>
      </trkpt>
      <trkpt lat="46.00598" lon="6.5718">
        <ele>1980</ele>
        <time>2017-12-29T11:36:32Z</time>
      </trkpt>
      <trkpt lat="46.00594" lon="6.57177">
        <ele>1979</ele>
        <time>2017-12-29T11:36:33Z</time>
      </trkpt>
      <trkpt lat="46.0059" lon="6.57175">
        <ele>1979</ele>
        <time>2017-12-29T11:36:34Z</time>
      </trkpt>
      <trkpt lat="46.00586" lon="6.57174">
        <ele>1979</ele>
        <time>2017-12-29T11:36:35Z</time>
      </trkpt>
      <trkpt lat="46.00578" lon="6.57171">
        <ele>1978</ele>
        <time>2017-12-29T11:36:38Z</time>
      </trkpt>
      <trkpt lat="46.0057" lon="6.57169">
        <ele>1977</ele>
        <time>2017-12-29T11:36:44Z</time>
      </trkpt>
      <trkpt lat="46.00551" lon="6.5717">
        <ele>1977</ele>
        <time>2017-12-29T11:36:56Z</time>
      </trkpt>
      <trkpt lat="46.00543" lon="6.5717">
        <ele>1976</ele>
        <time>2017-12-29T11:37:02Z</time>
      </trkpt>
      <trkpt lat="46.00534" lon="6.5717">
        <ele>1976</ele>
        <time>2017-12-29T11:37:09Z</time>
      </trkpt>
      <trkpt lat="46.00525" lon="6.57169">
        <ele>1976</ele>
        <time>2017-12-29T11:37:17Z</time>
      </trkpt>
      <trkpt lat="46.0052" lon="6.5717">
        <ele>1976</ele>
        <time>2017-12-29T11:37:22Z</time>
      </trkpt>
      <trkpt lat="46.00506" lon="6.5717">
        <ele>1975</ele>
        <time>2017-12-29T11:37:34Z</time>
      </trkpt>
      <trkpt lat="46.00495" lon="6.57169">
        <ele>1975</ele>
        <time>2017-12-29T11:37:44Z</time>
      </trkpt>
      <trkpt lat="46.00483" lon="6.57159">
        <ele>1977</ele>
        <time>2017-12-29T11:37:56Z</time>
      </trkpt>
      <trkpt lat="46.00482" lon="6.57158">
        <ele>1977</ele>
        <time>2017-12-29T11:37:57Z</time>
      </trkpt>
      <trkpt lat="46.00479" lon="6.57156">
        <ele>1978</ele>
        <time>2017-12-29T11:38:00Z</time>
      </trkpt>
      <trkpt lat="46.00466" lon="6.57143">
        <ele>1979</ele>
        <time>2017-12-29T11:38:15Z</time>
      </trkpt>
      <trkpt lat="46.00452" lon="6.57131">
        <ele>1979</ele>
        <time>2017-12-29T11:38:29Z</time>
      </trkpt>
      <trkpt lat="46.00424" lon="6.57117">
        <ele>1981</ele>
        <time>2017-12-29T11:38:53Z</time>
      </trkpt>
      <trkpt lat="46.00423" lon="6.57116">
        <ele>1981</ele>
        <time>2017-12-29T11:38:54Z</time>
      </trkpt>
      <trkpt lat="46.00422" lon="6.57116">
        <ele>1982</ele>
        <time>2017-12-29T11:38:55Z</time>
      </trkpt>
      <trkpt lat="46.00408" lon="6.57102">
        <ele>1985</ele>
        <time>2017-12-29T11:39:10Z</time>
      </trkpt>
      <trkpt lat="46.00399" lon="6.5709">
        <ele>1986</ele>
        <time>2017-12-29T11:39:22Z</time>
      </trkpt>
      <trkpt lat="46.00374" lon="6.57088">
        <ele>1986</ele>
        <time>2017-12-29T11:39:40Z</time>
      </trkpt>
      <trkpt lat="46.0037" lon="6.57087">
        <ele>1986</ele>
        <time>2017-12-29T11:39:46Z</time>
      </trkpt>
      <trkpt lat="46.00369" lon="6.57087">
        <ele>1986</ele>
        <time>2017-12-29T11:39:49Z</time>
      </trkpt>
      <trkpt lat="46.00367" lon="6.57086">
        <ele>1986</ele>
        <time>2017-12-29T11:39:50Z</time>
      </trkpt>
      <trkpt lat="46.00366" lon="6.57086">
        <ele>1986</ele>
        <time>2017-12-29T11:39:51Z</time>
      </trkpt>
      <trkpt lat="46.00365" lon="6.57085">
        <ele>1986</ele>
        <time>2017-12-29T11:39:52Z</time>
      </trkpt>
      <trkpt lat="46.00364" lon="6.57084">
        <ele>1986</ele>
        <time>2017-12-29T11:39:53Z</time>
      </trkpt>
      <trkpt lat="46.00363" lon="6.57083">
        <ele>1990</ele>
        <time>2017-12-29T11:39:54Z</time>
      </trkpt>
      <trkpt lat="46.00361" lon="6.57082">
        <ele>1990</ele>
        <time>2017-12-29T11:39:55Z</time>
      </trkpt>
      <trkpt lat="46.0036" lon="6.57081">
        <ele>1990</ele>
        <time>2017-12-29T11:39:56Z</time>
      </trkpt>
      <trkpt lat="46.00359" lon="6.57081">
        <ele>1990</ele>
        <time>2017-12-29T11:39:57Z</time>
      </trkpt>
      <trkpt lat="46.00358" lon="6.5708">
        <ele>1990</ele>
        <time>2017-12-29T11:39:58Z</time>
      </trkpt>
      <trkpt lat="46.00356" lon="6.57079">
        <ele>1990</ele>
        <time>2017-12-29T11:39:59Z</time>
      </trkpt>
      <trkpt lat="46.00355" lon="6.57078">
        <ele>1990</ele>
        <time>2017-12-29T11:40:00Z</time>
      </trkpt>
      <trkpt lat="46.00351" lon="6.57075">
        <ele>1990</ele>
        <time>2017-12-29T11:40:03Z</time>
      </trkpt>
      <trkpt lat="46.0035" lon="6.57075">
        <ele>1990</ele>
        <time>2017-12-29T11:40:04Z</time>
      </trkpt>
      <trkpt lat="46.00349" lon="6.57074">
        <ele>1990</ele>
        <time>2017-12-29T11:40:05Z</time>
      </trkpt>
      <trkpt lat="46.00347" lon="6.57073">
        <ele>1990</ele>
        <time>2017-12-29T11:40:06Z</time>
      </trkpt>
      <trkpt lat="46.00346" lon="6.57073">
        <ele>1990</ele>
        <time>2017-12-29T11:40:07Z</time>
      </trkpt>
      <trkpt lat="46.00345" lon="6.57072">
        <ele>1990</ele>
        <time>2017-12-29T11:40:08Z</time>
      </trkpt>
      <trkpt lat="46.00344" lon="6.57072">
        <ele>1990</ele>
        <time>2017-12-29T11:40:09Z</time>
      </trkpt>
      <trkpt lat="46.00343" lon="6.57071">
        <ele>1990</ele>
        <time>2017-12-29T11:40:10Z</time>
      </trkpt>
      <trkpt lat="46.00341" lon="6.57071">
        <ele>1990</ele>
        <time>2017-12-29T11:40:11Z</time>
      </trkpt>
      <trkpt lat="46.0034" lon="6.5707">
        <ele>1990</ele>
        <time>2017-12-29T11:40:12Z</time>
      </trkpt>
      <trkpt lat="46.00339" lon="6.5707">
        <ele>1990</ele>
        <time>2017-12-29T11:40:13Z</time>
      </trkpt>
      <trkpt lat="46.00332" lon="6.57066">
        <ele>1992</ele>
        <time>2017-12-29T11:40:19Z</time>
      </trkpt>
      <trkpt lat="46.00321" lon="6.57063">
        <ele>1992</ele>
        <time>2017-12-29T11:40:29Z</time>
      </trkpt>
      <trkpt lat="46.00301" lon="6.57053">
        <ele>1993</ele>
        <time>2017-12-29T11:40:46Z</time>
      </trkpt>
      <trkpt lat="46.00286" lon="6.57045">
        <ele>1993</ele>
        <time>2017-12-29T11:41:02Z</time>
      </trkpt>
      <trkpt lat="46.00285" lon="6.57044">
        <ele>1993</ele>
        <time>2017-12-29T11:41:03Z</time>
      </trkpt>
      <trkpt lat="46.00273" lon="6.57036">
        <ele>1994</ele>
        <time>2017-12-29T11:41:14Z</time>
      </trkpt>
      <trkpt lat="46.00268" lon="6.57034">
        <ele>1994</ele>
        <time>2017-12-29T11:41:20Z</time>
      </trkpt>
      <trkpt lat="46.00266" lon="6.57033">
        <ele>1994</ele>
        <time>2017-12-29T11:41:22Z</time>
      </trkpt>
      <trkpt lat="46.00258" lon="6.57029">
        <ele>1995</ele>
        <time>2017-12-29T11:41:30Z</time>
      </trkpt>
      <trkpt lat="46.00231" lon="6.57014">
        <ele>1992</ele>
        <time>2017-12-29T11:41:57Z</time>
      </trkpt>
      <trkpt lat="46.0023" lon="6.57013">
        <ele>1992</ele>
        <time>2017-12-29T11:41:58Z</time>
      </trkpt>
      <trkpt lat="46.00229" lon="6.57012">
        <ele>1991</ele>
        <time>2017-12-29T11:41:59Z</time>
      </trkpt>
      <trkpt lat="46.00228" lon="6.57012">
        <ele>1991</ele>
        <time>2017-12-29T11:42:00Z</time>
      </trkpt>
      <trkpt lat="46.00227" lon="6.57011">
        <ele>1991</ele>
        <time>2017-12-29T11:42:01Z</time>
      </trkpt>
      <trkpt lat="46.00226" lon="6.57011">
        <ele>1991</ele>
        <time>2017-12-29T11:42:02Z</time>
      </trkpt>
      <trkpt lat="46.00224" lon="6.5701">
        <ele>1991</ele>
        <time>2017-12-29T11:42:03Z</time>
      </trkpt>
      <trkpt lat="46.00223" lon="6.57009">
        <ele>1991</ele>
        <time>2017-12-29T11:42:04Z</time>
      </trkpt>
      <trkpt lat="46.00222" lon="6.57009">
        <ele>1991</ele>
        <time>2017-12-29T11:42:05Z</time>
      </trkpt>
      <trkpt lat="46.00214" lon="6.57005">
        <ele>1990</ele>
        <time>2017-12-29T11:42:13Z</time>
      </trkpt>
      <trkpt lat="46.00194" lon="6.56993">
        <ele>2003</ele>
        <time>2017-12-29T11:42:34Z</time>
      </trkpt>
      <trkpt lat="46.00183" lon="6.56986">
        <ele>2001</ele>
        <time>2017-12-29T11:42:46Z</time>
      </trkpt>
      <trkpt lat="46.00181" lon="6.56985">
        <ele>2001</ele>
        <time>2017-12-29T11:42:48Z</time>
      </trkpt>
      <trkpt lat="46.0018" lon="6.56985">
        <ele>2001</ele>
        <time>2017-12-29T11:42:49Z</time>
      </trkpt>
      <trkpt lat="46.00178" lon="6.56984">
        <ele>2001</ele>
        <time>2017-12-29T11:42:51Z</time>
      </trkpt>
      <trkpt lat="46.00161" lon="6.56973">
        <ele>1995</ele>
        <time>2017-12-29T11:43:10Z</time>
      </trkpt>
      <trkpt lat="46.00159" lon="6.56972">
        <ele>1996</ele>
        <time>2017-12-29T11:43:12Z</time>
      </trkpt>
      <trkpt lat="46.00159" lon="6.56971">
        <ele>1996</ele>
        <time>2017-12-29T11:43:13Z</time>
      </trkpt>
      <trkpt lat="46.00138" lon="6.56953">
        <ele>1999</ele>
        <time>2017-12-29T11:43:39Z</time>
      </trkpt>
      <trkpt lat="46.00113" lon="6.5693">
        <ele>1999</ele>
        <time>2017-12-29T11:44:10Z</time>
      </trkpt>
      <trkpt lat="46.00112" lon="6.56929">
        <ele>1999</ele>
        <time>2017-12-29T11:44:11Z</time>
      </trkpt>
      <trkpt lat="46.00111" lon="6.56928">
        <ele>1999</ele>
        <time>2017-12-29T11:44:12Z</time>
      </trkpt>
      <trkpt lat="46.0011" lon="6.56928">
        <ele>1999</ele>
        <time>2017-12-29T11:44:13Z</time>
      </trkpt>
      <trkpt lat="46.00109" lon="6.56927">
        <ele>1999</ele>
        <time>2017-12-29T11:44:14Z</time>
      </trkpt>
      <trkpt lat="46.00083" lon="6.56898">
        <ele>2002</ele>
        <time>2017-12-29T11:44:49Z</time>
      </trkpt>
      <trkpt lat="46.00082" lon="6.56897">
        <ele>2003</ele>
        <time>2017-12-29T11:44:50Z</time>
      </trkpt>
      <trkpt lat="46.00081" lon="6.56896">
        <ele>2003</ele>
        <time>2017-12-29T11:44:51Z</time>
      </trkpt>
      <trkpt lat="46.0008" lon="6.56895">
        <ele>2003</ele>
        <time>2017-12-29T11:44:52Z</time>
      </trkpt>
      <trkpt lat="46.00079" lon="6.56893">
        <ele>2003</ele>
        <time>2017-12-29T11:44:54Z</time>
      </trkpt>
      <trkpt lat="46.00078" lon="6.56893">
        <ele>2003</ele>
        <time>2017-12-29T11:44:55Z</time>
      </trkpt>
      <trkpt lat="46.00077" lon="6.56892">
        <ele>2003</ele>
        <time>2017-12-29T11:44:56Z</time>
      </trkpt>
      <trkpt lat="46.00051" lon="6.56864">
        <ele>2005</ele>
        <time>2017-12-29T11:45:28Z</time>
      </trkpt>
      <trkpt lat="46.0005" lon="6.56863">
        <ele>2005</ele>
        <time>2017-12-29T11:45:29Z</time>
      </trkpt>
      <trkpt lat="46.00046" lon="6.56857">
        <ele>2006</ele>
        <time>2017-12-29T11:45:35Z</time>
      </trkpt>
      <trkpt lat="46.00045" lon="6.56857">
        <ele>2006</ele>
        <time>2017-12-29T11:45:36Z</time>
      </trkpt>
      <trkpt lat="46.00031" lon="6.56842">
        <ele>2005</ele>
        <time>2017-12-29T11:45:52Z</time>
      </trkpt>
      <trkpt lat="46.0003" lon="6.5684">
        <ele>2005</ele>
        <time>2017-12-29T11:45:53Z</time>
      </trkpt>
      <trkpt lat="46.00029" lon="6.56839">
        <ele>2004</ele>
        <time>2017-12-29T11:45:54Z</time>
      </trkpt>
      <trkpt lat="46.00008" lon="6.56823">
        <ele>2011</ele>
        <time>2017-12-29T11:46:16Z</time>
      </trkpt>
      <trkpt lat="46.00004" lon="6.5682">
        <ele>2011</ele>
        <time>2017-12-29T11:46:20Z</time>
      </trkpt>
      <trkpt lat="46.00003" lon="6.5682">
        <ele>2011</ele>
        <time>2017-12-29T11:46:21Z</time>
      </trkpt>
      <trkpt lat="46.00003" lon="6.56819">
        <ele>2011</ele>
        <time>2017-12-29T11:46:22Z</time>
      </trkpt>
      <trkpt lat="45.99961" lon="6.56792">
        <ele>2008</ele>
        <time>2017-12-29T11:47:06Z</time>
      </trkpt>
      <trkpt lat="45.9996" lon="6.56792">
        <ele>2008</ele>
        <time>2017-12-29T11:47:07Z</time>
      </trkpt>
      <trkpt lat="45.99959" lon="6.56792">
        <ele>2008</ele>
        <time>2017-12-29T11:47:08Z</time>
      </trkpt>
      <trkpt lat="45.99958" lon="6.56791">
        <ele>2008</ele>
        <time>2017-12-29T11:47:09Z</time>
      </trkpt>
      <trkpt lat="45.99939" lon="6.5678">
        <ele>2009</ele>
        <time>2017-12-29T11:47:31Z</time>
      </trkpt>
      <trkpt lat="45.99908" lon="6.56766">
        <ele>2008</ele>
        <time>2017-12-29T11:48:05Z</time>
      </trkpt>
      <trkpt lat="45.99907" lon="6.56766">
        <ele>2008</ele>
        <time>2017-12-29T11:48:06Z</time>
      </trkpt>
      <trkpt lat="45.99891" lon="6.56754">
        <ele>2008</ele>
        <time>2017-12-29T11:48:23Z</time>
      </trkpt>
      <trkpt lat="45.9989" lon="6.56754">
        <ele>2008</ele>
        <time>2017-12-29T11:48:24Z</time>
      </trkpt>
      <trkpt lat="45.99889" lon="6.56752">
        <ele>2008</ele>
        <time>2017-12-29T11:48:25Z</time>
      </trkpt>
      <trkpt lat="45.99888" lon="6.56751">
        <ele>2008</ele>
        <time>2017-12-29T11:48:26Z</time>
      </trkpt>
      <trkpt lat="45.99887" lon="6.5675">
        <ele>2012</ele>
        <time>2017-12-29T11:48:27Z</time>
      </trkpt>
      <trkpt lat="45.99886" lon="6.56749">
        <ele>2012</ele>
        <time>2017-12-29T11:48:28Z</time>
      </trkpt>
      <trkpt lat="45.99885" lon="6.56748">
        <ele>2012</ele>
        <time>2017-12-29T11:48:29Z</time>
      </trkpt>
      <trkpt lat="45.99885" lon="6.56746">
        <ele>2012</ele>
        <time>2017-12-29T11:48:30Z</time>
      </trkpt>
      <trkpt lat="45.99884" lon="6.56742">
        <ele>2011</ele>
        <time>2017-12-29T11:48:37Z</time>
      </trkpt>
      <trkpt lat="45.99884" lon="6.56742">
        <ele>2011</ele>
        <time>2017-12-29T11:48:44Z</time>
      </trkpt>
      <trkpt lat="45.99885" lon="6.56742">
        <ele>2011</ele>
        <time>2017-12-29T11:48:54Z</time>
      </trkpt>
      <trkpt lat="45.99885" lon="6.56742">
        <ele>2011</ele>
        <time>2017-12-29T11:48:57Z</time>
      </trkpt>
      <trkpt lat="45.99885" lon="6.56741">
        <ele>2011</ele>
        <time>2017-12-29T11:48:58Z</time>
      </trkpt>
      <trkpt lat="45.99885" lon="6.56741">
        <ele>2011</ele>
        <time>2017-12-29T11:49:01Z</time>
      </trkpt>
      <trkpt lat="45.99885" lon="6.56742">
        <ele>2011</ele>
        <time>2017-12-29T11:49:03Z</time>
      </trkpt>
      <trkpt lat="45.99885" lon="6.56742">
        <ele>2011</ele>
        <time>2017-12-29T11:49:04Z</time>
      </trkpt>
      <trkpt lat="45.99884" lon="6.56742">
        <ele>2011</ele>
        <time>2017-12-29T11:49:09Z</time>
      </trkpt>
      <trkpt lat="45.99884" lon="6.56743">
        <ele>2011</ele>
        <time>2017-12-29T11:49:18Z</time>
      </trkpt>
      <trkpt lat="45.99885" lon="6.56741">
        <ele>2011</ele>
        <time>2017-12-29T11:49:28Z</time>
      </trkpt>
      <trkpt lat="45.99885" lon="6.56741">
        <ele>2011</ele>
        <time>2017-12-29T11:49:31Z</time>
      </trkpt>
      <trkpt lat="45.99884" lon="6.56741">
        <ele>2011</ele>
        <time>2017-12-29T11:49:57Z</time>
      </trkpt>
      <trkpt lat="45.99883" lon="6.56741">
        <ele>2011</ele>
        <time>2017-12-29T11:49:58Z</time>
      </trkpt>
      <trkpt lat="45.99882" lon="6.56741">
        <ele>2011</ele>
        <time>2017-12-29T11:49:59Z</time>
      </trkpt>
      <trkpt lat="45.99882" lon="6.56741">
        <ele>2011</ele>
        <time>2017-12-29T11:50:00Z</time>
      </trkpt>
      <trkpt lat="45.9988" lon="6.56741">
        <ele>2011</ele>
        <time>2017-12-29T11:50:02Z</time>
      </trkpt>
      <trkpt lat="45.99877" lon="6.5674">
        <ele>2011</ele>
        <time>2017-12-29T11:50:05Z</time>
      </trkpt>
      <trkpt lat="45.99873" lon="6.56738">
        <ele>2011</ele>
        <time>2017-12-29T11:50:11Z</time>
      </trkpt>
      <trkpt lat="45.9987" lon="6.56736">
        <ele>2011</ele>
        <time>2017-12-29T11:50:15Z</time>
      </trkpt>
      <trkpt lat="45.99868" lon="6.56735">
        <ele>2011</ele>
        <time>2017-12-29T11:50:17Z</time>
      </trkpt>
      <trkpt lat="45.99864" lon="6.5673">
        <ele>2011</ele>
        <time>2017-12-29T11:50:23Z</time>
      </trkpt>
      <trkpt lat="45.99863" lon="6.56729">
        <ele>2011</ele>
        <time>2017-12-29T11:50:24Z</time>
      </trkpt>
      <trkpt lat="45.99862" lon="6.56729">
        <ele>2011</ele>
        <time>2017-12-29T11:50:25Z</time>
      </trkpt>
      <trkpt lat="45.99859" lon="6.56728">
        <ele>2011</ele>
        <time>2017-12-29T11:50:28Z</time>
      </trkpt>
      <trkpt lat="45.99854" lon="6.56726">
        <ele>2011</ele>
        <time>2017-12-29T11:50:33Z</time>
      </trkpt>
      <trkpt lat="45.99844" lon="6.56723">
        <ele>2012</ele>
        <time>2017-12-29T11:50:43Z</time>
      </trkpt>
      <trkpt lat="45.9984" lon="6.56721">
        <ele>2011</ele>
        <time>2017-12-29T11:50:48Z</time>
      </trkpt>
      <trkpt lat="45.99839" lon="6.56721">
        <ele>2011</ele>
        <time>2017-12-29T11:50:49Z</time>
      </trkpt>
      <trkpt lat="45.99837" lon="6.5672">
        <ele>2011</ele>
        <time>2017-12-29T11:50:52Z</time>
      </trkpt>
      <trkpt lat="45.99835" lon="6.5672">
        <ele>2011</ele>
        <time>2017-12-29T11:50:55Z</time>
      </trkpt>
      <trkpt lat="45.99833" lon="6.5672">
        <ele>2015</ele>
        <time>2017-12-29T11:50:57Z</time>
      </trkpt>
      <trkpt lat="45.99832" lon="6.5672">
        <ele>2015</ele>
        <time>2017-12-29T11:50:58Z</time>
      </trkpt>
      <trkpt lat="45.9983" lon="6.5672">
        <ele>2015</ele>
        <time>2017-12-29T11:51:00Z</time>
      </trkpt>
      <trkpt lat="45.99829" lon="6.5672">
        <ele>2015</ele>
        <time>2017-12-29T11:51:01Z</time>
      </trkpt>
      <trkpt lat="45.99824" lon="6.56718">
        <ele>2015</ele>
        <time>2017-12-29T11:51:07Z</time>
      </trkpt>
      <trkpt lat="45.99818" lon="6.56715">
        <ele>2015</ele>
        <time>2017-12-29T11:51:15Z</time>
      </trkpt>
      <trkpt lat="45.99817" lon="6.56715">
        <ele>2015</ele>
        <time>2017-12-29T11:51:16Z</time>
      </trkpt>
      <trkpt lat="45.99816" lon="6.56714">
        <ele>2015</ele>
        <time>2017-12-29T11:51:17Z</time>
      </trkpt>
      <trkpt lat="45.99811" lon="6.5671">
        <ele>2016</ele>
        <time>2017-12-29T11:51:24Z</time>
      </trkpt>
      <trkpt lat="45.99809" lon="6.5671">
        <ele>2016</ele>
        <time>2017-12-29T11:51:26Z</time>
      </trkpt>
      <trkpt lat="45.99808" lon="6.56709">
        <ele>2016</ele>
        <time>2017-12-29T11:51:28Z</time>
      </trkpt>
      <trkpt lat="45.99805" lon="6.56704">
        <ele>2016</ele>
        <time>2017-12-29T11:51:35Z</time>
      </trkpt>
      <trkpt lat="45.99803" lon="6.56702">
        <ele>2016</ele>
        <time>2017-12-29T11:51:39Z</time>
      </trkpt>
      <trkpt lat="45.99801" lon="6.56699">
        <ele>2016</ele>
        <time>2017-12-29T11:51:43Z</time>
      </trkpt>
      <trkpt lat="45.99799" lon="6.56696">
        <ele>2017</ele>
        <time>2017-12-29T11:51:47Z</time>
      </trkpt>
      <trkpt lat="45.99794" lon="6.56689">
        <ele>2018</ele>
        <time>2017-12-29T11:51:55Z</time>
      </trkpt>
      <trkpt lat="45.99793" lon="6.56687">
        <ele>2018</ele>
        <time>2017-12-29T11:51:57Z</time>
      </trkpt>
      <trkpt lat="45.99789" lon="6.56684">
        <ele>2019</ele>
        <time>2017-12-29T11:52:02Z</time>
      </trkpt>
      <trkpt lat="45.99783" lon="6.56676">
        <ele>2020</ele>
        <time>2017-12-29T11:52:16Z</time>
      </trkpt>
      <trkpt lat="45.99782" lon="6.56683">
        <ele>2020</ele>
        <time>2017-12-29T11:52:33Z</time>
      </trkpt>
      <trkpt lat="45.99781" lon="6.56684">
        <ele>2020</ele>
        <time>2017-12-29T11:52:38Z</time>
      </trkpt>
      <trkpt lat="45.9978" lon="6.56682">
        <ele>2021</ele>
        <time>2017-12-29T11:52:42Z</time>
      </trkpt>
      <trkpt lat="45.99778" lon="6.56677">
        <ele>2021</ele>
        <time>2017-12-29T11:52:49Z</time>
      </trkpt>
      <trkpt lat="45.99771" lon="6.56674">
        <ele>2024</ele>
        <time>2017-12-29T11:53:12Z</time>
      </trkpt>
      <trkpt lat="45.99765" lon="6.56671">
        <ele>2026</ele>
        <time>2017-12-29T11:53:27Z</time>
      </trkpt>
      <trkpt lat="45.99766" lon="6.56666">
        <ele>2025</ele>
        <time>2017-12-29T11:53:56Z</time>
      </trkpt>
      <trkpt lat="45.99758" lon="6.56663">
        <ele>2029</ele>
        <time>2017-12-29T11:54:26Z</time>
      </trkpt>
      <trkpt lat="45.99752" lon="6.56661">
        <ele>2030</ele>
        <time>2017-12-29T11:54:36Z</time>
      </trkpt>
      <trkpt lat="45.9975" lon="6.5666">
        <ele>2030</ele>
        <time>2017-12-29T11:54:39Z</time>
      </trkpt>
      <trkpt lat="45.99745" lon="6.56657">
        <ele>2037</ele>
        <time>2017-12-29T11:54:51Z</time>
      </trkpt>
      <trkpt lat="45.99737" lon="6.56656">
        <ele>2038</ele>
        <time>2017-12-29T11:55:03Z</time>
      </trkpt>
      <trkpt lat="45.99732" lon="6.56656">
        <ele>2039</ele>
        <time>2017-12-29T11:55:09Z</time>
      </trkpt>
      <trkpt lat="45.99725" lon="6.56652">
        <ele>2040</ele>
        <time>2017-12-29T11:55:24Z</time>
      </trkpt>
      <trkpt lat="45.99718" lon="6.56648">
        <ele>2041</ele>
        <time>2017-12-29T11:56:03Z</time>
      </trkpt>
      <trkpt lat="45.99714" lon="6.56647">
        <ele>2041</ele>
        <time>2017-12-29T11:56:17Z</time>
      </trkpt>
      <trkpt lat="45.99714" lon="6.56647">
        <ele>2041</ele>
        <time>2017-12-29T11:56:19Z</time>
      </trkpt>
      <trkpt lat="45.99714" lon="6.56647">
        <ele>2041</ele>
        <time>2017-12-29T11:56:21Z</time>
      </trkpt>
      <trkpt lat="45.99711" lon="6.56646">
        <ele>2041</ele>
        <time>2017-12-29T11:56:33Z</time>
      </trkpt>
      <trkpt lat="45.99709" lon="6.56645">
        <ele>2042</ele>
        <time>2017-12-29T11:56:41Z</time>
      </trkpt>
      <trkpt lat="45.99702" lon="6.56642">
        <ele>2043</ele>
        <time>2017-12-29T11:57:08Z</time>
      </trkpt>
      <trkpt lat="45.99699" lon="6.5664">
        <ele>2043</ele>
        <time>2017-12-29T11:57:20Z</time>
      </trkpt>
      <trkpt lat="45.99697" lon="6.56642">
        <ele>2043</ele>
        <time>2017-12-29T11:57:38Z</time>
      </trkpt>
      <trkpt lat="45.99693" lon="6.56639">
        <ele>2044</ele>
        <time>2017-12-29T11:57:47Z</time>
      </trkpt>
      <trkpt lat="45.99691" lon="6.56638">
        <ele>2044</ele>
        <time>2017-12-29T11:57:51Z</time>
      </trkpt>
      <trkpt lat="45.99683" lon="6.56633">
        <ele>2045</ele>
        <time>2017-12-29T11:58:14Z</time>
      </trkpt>
      <trkpt lat="45.99677" lon="6.5663">
        <ele>2046</ele>
        <time>2017-12-29T11:58:24Z</time>
      </trkpt>
      <trkpt lat="45.99671" lon="6.56631">
        <ele>2046</ele>
        <time>2017-12-29T11:58:36Z</time>
      </trkpt>
      <trkpt lat="45.9967" lon="6.56631">
        <ele>2046</ele>
        <time>2017-12-29T11:58:38Z</time>
      </trkpt>
      <trkpt lat="45.99665" lon="6.56629">
        <ele>2063</ele>
        <time>2017-12-29T11:58:50Z</time>
      </trkpt>
      <trkpt lat="45.99657" lon="6.56625">
        <ele>2064</ele>
        <time>2017-12-29T11:59:13Z</time>
      </trkpt>
      <trkpt lat="45.99657" lon="6.56624">
        <ele>2064</ele>
        <time>2017-12-29T11:59:16Z</time>
      </trkpt>
      <trkpt lat="45.99655" lon="6.56624">
        <ele>2064</ele>
        <time>2017-12-29T11:59:30Z</time>
      </trkpt>
      <trkpt lat="45.99655" lon="6.56623">
        <ele>2064</ele>
        <time>2017-12-29T11:59:44Z</time>
      </trkpt>
      <trkpt lat="45.99655" lon="6.56623">
        <ele>2064</ele>
        <time>2017-12-29T11:59:55Z</time>
      </trkpt>
      <trkpt lat="45.9965" lon="6.56621">
        <ele>2065</ele>
        <time>2017-12-29T12:00:06Z</time>
      </trkpt>
      <trkpt lat="45.99645" lon="6.5662">
        <ele>2065</ele>
        <time>2017-12-29T12:00:21Z</time>
      </trkpt>
      <trkpt lat="45.99641" lon="6.56619">
        <ele>2066</ele>
        <time>2017-12-29T12:00:33Z</time>
      </trkpt>
      <trkpt lat="45.99633" lon="6.56618">
        <ele>2067</ele>
        <time>2017-12-29T12:00:47Z</time>
      </trkpt>
      <trkpt lat="45.99631" lon="6.56618">
        <ele>2067</ele>
        <time>2017-12-29T12:01:01Z</time>
      </trkpt>
      <trkpt lat="45.99632" lon="6.56618">
        <ele>2067</ele>
        <time>2017-12-29T12:01:06Z</time>
      </trkpt>
      <trkpt lat="45.99632" lon="6.56618">
        <ele>2067</ele>
        <time>2017-12-29T12:01:08Z</time>
      </trkpt>
      <trkpt lat="45.99632" lon="6.56617">
        <ele>2067</ele>
        <time>2017-12-29T12:01:11Z</time>
      </trkpt>
      <trkpt lat="45.99633" lon="6.56618">
        <ele>2067</ele>
        <time>2017-12-29T12:01:15Z</time>
      </trkpt>
      <trkpt lat="45.99629" lon="6.56617">
        <ele>2068</ele>
        <time>2017-12-29T12:01:21Z</time>
      </trkpt>
      <trkpt lat="45.99626" lon="6.56616">
        <ele>2068</ele>
        <time>2017-12-29T12:01:24Z</time>
      </trkpt>
      <trkpt lat="45.99625" lon="6.56616">
        <ele>2068</ele>
        <time>2017-12-29T12:01:25Z</time>
      </trkpt>
      <trkpt lat="45.99623" lon="6.56616">
        <ele>2069</ele>
        <time>2017-12-29T12:01:26Z</time>
      </trkpt>
      <trkpt lat="45.99616" lon="6.56618">
        <ele>2070</ele>
        <time>2017-12-29T12:01:31Z</time>
      </trkpt>
      <trkpt lat="45.99615" lon="6.5662">
        <ele>2070</ele>
        <time>2017-12-29T12:01:32Z</time>
      </trkpt>
      <trkpt lat="45.99614" lon="6.5662">
        <ele>2070</ele>
        <time>2017-12-29T12:01:33Z</time>
      </trkpt>
      <trkpt lat="45.99607" lon="6.56626">
        <ele>2071</ele>
        <time>2017-12-29T12:01:38Z</time>
      </trkpt>
      <trkpt lat="45.996" lon="6.56632">
        <ele>2071</ele>
        <time>2017-12-29T12:01:43Z</time>
      </trkpt>
      <trkpt lat="45.99575" lon="6.56655">
        <ele>2078</ele>
        <time>2017-12-29T12:02:03Z</time>
      </trkpt>
      <trkpt lat="45.99537" lon="6.56693">
        <ele>2072</ele>
        <time>2017-12-29T12:02:31Z</time>
      </trkpt>
      <trkpt lat="45.99523" lon="6.56711">
        <ele>2071</ele>
        <time>2017-12-29T12:02:41Z</time>
      </trkpt>
      <trkpt lat="45.99494" lon="6.56755">
        <ele>2074</ele>
        <time>2017-12-29T12:03:06Z</time>
      </trkpt>
      <trkpt lat="45.99487" lon="6.56764">
        <ele>2072</ele>
        <time>2017-12-29T12:03:12Z</time>
      </trkpt>
      <trkpt lat="45.99483" lon="6.56769">
        <ele>2071</ele>
        <time>2017-12-29T12:03:16Z</time>
      </trkpt>
      <trkpt lat="45.99476" lon="6.56776">
        <ele>2070</ele>
        <time>2017-12-29T12:03:22Z</time>
      </trkpt>
      <trkpt lat="45.9946" lon="6.56796">
        <ele>2069</ele>
        <time>2017-12-29T12:03:37Z</time>
      </trkpt>
      <trkpt lat="45.99456" lon="6.56801">
        <ele>2069</ele>
        <time>2017-12-29T12:03:41Z</time>
      </trkpt>
      <trkpt lat="45.99455" lon="6.56802">
        <ele>2069</ele>
        <time>2017-12-29T12:03:42Z</time>
      </trkpt>
      <trkpt lat="45.99454" lon="6.56804">
        <ele>2069</ele>
        <time>2017-12-29T12:03:43Z</time>
      </trkpt>
      <trkpt lat="45.99442" lon="6.56819">
        <ele>2071</ele>
        <time>2017-12-29T12:03:53Z</time>
      </trkpt>
      <trkpt lat="45.99417" lon="6.56847">
        <ele>2069</ele>
        <time>2017-12-29T12:04:13Z</time>
      </trkpt>
      <trkpt lat="45.99415" lon="6.56849">
        <ele>2076</ele>
        <time>2017-12-29T12:04:15Z</time>
      </trkpt>
      <trkpt lat="45.9941" lon="6.56854">
        <ele>2074</ele>
        <time>2017-12-29T12:04:20Z</time>
      </trkpt>
      <trkpt lat="45.99403" lon="6.56864">
        <ele>2073</ele>
        <time>2017-12-29T12:04:24Z</time>
      </trkpt>
      <trkpt lat="45.99394" lon="6.56875">
        <ele>2071</ele>
        <time>2017-12-29T12:04:28Z</time>
      </trkpt>
      <trkpt lat="45.99389" lon="6.56882">
        <ele>2071</ele>
        <time>2017-12-29T12:04:32Z</time>
      </trkpt>
      <trkpt lat="45.99387" lon="6.56883">
        <ele>2071</ele>
        <time>2017-12-29T12:04:33Z</time>
      </trkpt>
      <trkpt lat="45.99386" lon="6.56885">
        <ele>2071</ele>
        <time>2017-12-29T12:04:34Z</time>
      </trkpt>
      <trkpt lat="45.99385" lon="6.56886">
        <ele>2071</ele>
        <time>2017-12-29T12:04:35Z</time>
      </trkpt>
      <trkpt lat="45.99375" lon="6.56906">
        <ele>2071</ele>
        <time>2017-12-29T12:04:52Z</time>
      </trkpt>
      <trkpt lat="45.99375" lon="6.56904">
        <ele>2071</ele>
        <time>2017-12-29T12:05:01Z</time>
      </trkpt>
      <trkpt lat="45.99375" lon="6.56904">
        <ele>2071</ele>
        <time>2017-12-29T12:05:11Z</time>
      </trkpt>
      <trkpt lat="45.99375" lon="6.56904">
        <ele>2071</ele>
        <time>2017-12-29T12:05:13Z</time>
      </trkpt>
      <trkpt lat="45.99376" lon="6.56903">
        <ele>2071</ele>
        <time>2017-12-29T12:05:19Z</time>
      </trkpt>
      <trkpt lat="45.99376" lon="6.56903">
        <ele>2071</ele>
        <time>2017-12-29T12:05:27Z</time>
      </trkpt>
      <trkpt lat="45.99376" lon="6.56902">
        <ele>2071</ele>
        <time>2017-12-29T12:05:38Z</time>
      </trkpt>
      <trkpt lat="45.99376" lon="6.56902">
        <ele>2071</ele>
        <time>2017-12-29T12:05:40Z</time>
      </trkpt>
      <trkpt lat="45.99376" lon="6.56902">
        <ele>2071</ele>
        <time>2017-12-29T12:05:41Z</time>
      </trkpt>
      <trkpt lat="45.99377" lon="6.56902">
        <ele>2071</ele>
        <time>2017-12-29T12:05:44Z</time>
      </trkpt>
      <trkpt lat="45.99377" lon="6.56902">
        <ele>2071</ele>
        <time>2017-12-29T12:05:48Z</time>
      </trkpt>
      <trkpt lat="45.99377" lon="6.56902">
        <ele>2071</ele>
        <time>2017-12-29T12:05:50Z</time>
      </trkpt>
      <trkpt lat="45.99377" lon="6.56902">
        <ele>2071</ele>
        <time>2017-12-29T12:06:02Z</time>
      </trkpt>
      <trkpt lat="45.99375" lon="6.56904">
        <ele>2071</ele>
        <time>2017-12-29T12:06:12Z</time>
      </trkpt>
      <trkpt lat="45.99374" lon="6.56905">
        <ele>2071</ele>
        <time>2017-12-29T12:06:13Z</time>
      </trkpt>
      <trkpt lat="45.9937" lon="6.56908">
        <ele>2071</ele>
        <time>2017-12-29T12:06:16Z</time>
      </trkpt>
      <trkpt lat="45.99368" lon="6.5691">
        <ele>2072</ele>
        <time>2017-12-29T12:06:18Z</time>
      </trkpt>
      <trkpt lat="45.99366" lon="6.56912">
        <ele>2072</ele>
        <time>2017-12-29T12:06:20Z</time>
      </trkpt>
      <trkpt lat="45.99361" lon="6.56912">
        <ele>2072</ele>
        <time>2017-12-29T12:06:24Z</time>
      </trkpt>
      <trkpt lat="45.99357" lon="6.56913">
        <ele>2073</ele>
        <time>2017-12-29T12:06:28Z</time>
      </trkpt>
      <trkpt lat="45.99351" lon="6.56913">
        <ele>2074</ele>
        <time>2017-12-29T12:06:33Z</time>
      </trkpt>
      <trkpt lat="45.99346" lon="6.56913">
        <ele>2075</ele>
        <time>2017-12-29T12:06:37Z</time>
      </trkpt>
      <trkpt lat="45.99342" lon="6.56915">
        <ele>2076</ele>
        <time>2017-12-29T12:06:41Z</time>
      </trkpt>
      <trkpt lat="45.99341" lon="6.56915">
        <ele>2076</ele>
        <time>2017-12-29T12:06:42Z</time>
      </trkpt>
      <trkpt lat="45.99338" lon="6.56916">
        <ele>2077</ele>
        <time>2017-12-29T12:06:45Z</time>
      </trkpt>
      <trkpt lat="45.99334" lon="6.56917">
        <ele>2077</ele>
        <time>2017-12-29T12:06:49Z</time>
      </trkpt>
      <trkpt lat="45.99329" lon="6.56919">
        <ele>2079</ele>
        <time>2017-12-29T12:06:54Z</time>
      </trkpt>
      <trkpt lat="45.99326" lon="6.5692">
        <ele>2080</ele>
        <time>2017-12-29T12:06:57Z</time>
      </trkpt>
      <trkpt lat="45.99297" lon="6.56943">
        <ele>2085</ele>
        <time>2017-12-29T12:07:22Z</time>
      </trkpt>
      <trkpt lat="45.99282" lon="6.56961">
        <ele>2088</ele>
        <time>2017-12-29T12:07:40Z</time>
      </trkpt>
      <trkpt lat="45.9928" lon="6.56961">
        <ele>2088</ele>
        <time>2017-12-29T12:07:43Z</time>
      </trkpt>
      <trkpt lat="45.99264" lon="6.5696">
        <ele>2090</ele>
        <time>2017-12-29T12:07:59Z</time>
      </trkpt>
      <trkpt lat="45.99262" lon="6.5696">
        <ele>2090</ele>
        <time>2017-12-29T12:08:01Z</time>
      </trkpt>
      <trkpt lat="45.9926" lon="6.5696">
        <ele>2090</ele>
        <time>2017-12-29T12:08:03Z</time>
      </trkpt>
      <trkpt lat="45.99259" lon="6.5696">
        <ele>2090</ele>
        <time>2017-12-29T12:08:04Z</time>
      </trkpt>
      <trkpt lat="45.99245" lon="6.56956">
        <ele>2107</ele>
        <time>2017-12-29T12:08:20Z</time>
      </trkpt>
      <trkpt lat="45.99242" lon="6.56955">
        <ele>2107</ele>
        <time>2017-12-29T12:08:23Z</time>
      </trkpt>
      <trkpt lat="45.99231" lon="6.56953">
        <ele>2109</ele>
        <time>2017-12-29T12:08:37Z</time>
      </trkpt>
      <trkpt lat="45.99229" lon="6.56953">
        <ele>2109</ele>
        <time>2017-12-29T12:08:39Z</time>
      </trkpt>
      <trkpt lat="45.99228" lon="6.56953">
        <ele>2109</ele>
        <time>2017-12-29T12:08:40Z</time>
      </trkpt>
      <trkpt lat="45.99222" lon="6.56951">
        <ele>2110</ele>
        <time>2017-12-29T12:08:50Z</time>
      </trkpt>
      <trkpt lat="45.99221" lon="6.56951">
        <ele>2110</ele>
        <time>2017-12-29T12:08:51Z</time>
      </trkpt>
      <trkpt lat="45.99218" lon="6.5695">
        <ele>2110</ele>
        <time>2017-12-29T12:08:55Z</time>
      </trkpt>
      <trkpt lat="45.99216" lon="6.56949">
        <ele>2111</ele>
        <time>2017-12-29T12:08:59Z</time>
      </trkpt>
      <trkpt lat="45.99212" lon="6.56947">
        <ele>2111</ele>
        <time>2017-12-29T12:09:04Z</time>
      </trkpt>
      <trkpt lat="45.99207" lon="6.56947">
        <ele>2112</ele>
        <time>2017-12-29T12:09:12Z</time>
      </trkpt>
      <trkpt lat="45.992" lon="6.56943">
        <ele>2113</ele>
        <time>2017-12-29T12:09:22Z</time>
      </trkpt>
      <trkpt lat="45.99199" lon="6.56943">
        <ele>2113</ele>
        <time>2017-12-29T12:09:24Z</time>
      </trkpt>
      <trkpt lat="45.99192" lon="6.56941">
        <ele>2114</ele>
        <time>2017-12-29T12:09:33Z</time>
      </trkpt>
      <trkpt lat="45.99182" lon="6.56937">
        <ele>2115</ele>
        <time>2017-12-29T12:09:49Z</time>
      </trkpt>
      <trkpt lat="45.99181" lon="6.56936">
        <ele>2115</ele>
        <time>2017-12-29T12:09:51Z</time>
      </trkpt>
      <trkpt lat="45.99173" lon="6.56934">
        <ele>2116</ele>
        <time>2017-12-29T12:10:01Z</time>
      </trkpt>
      <trkpt lat="45.99172" lon="6.56934">
        <ele>2116</ele>
        <time>2017-12-29T12:10:03Z</time>
      </trkpt>
      <trkpt lat="45.9917" lon="6.56934">
        <ele>2116</ele>
        <time>2017-12-29T12:10:05Z</time>
      </trkpt>
      <trkpt lat="45.99169" lon="6.56934">
        <ele>2116</ele>
        <time>2017-12-29T12:10:06Z</time>
      </trkpt>
      <trkpt lat="45.99165" lon="6.56932">
        <ele>2129</ele>
        <time>2017-12-29T12:10:13Z</time>
      </trkpt>
      <trkpt lat="45.99161" lon="6.56931">
        <ele>2129</ele>
        <time>2017-12-29T12:10:19Z</time>
      </trkpt>
      <trkpt lat="45.99157" lon="6.56929">
        <ele>2130</ele>
        <time>2017-12-29T12:10:26Z</time>
      </trkpt>
      <trkpt lat="45.99155" lon="6.56928">
        <ele>2130</ele>
        <time>2017-12-29T12:10:29Z</time>
      </trkpt>
      <trkpt lat="45.99148" lon="6.56926">
        <ele>2132</ele>
        <time>2017-12-29T12:10:39Z</time>
      </trkpt>
      <trkpt lat="45.99144" lon="6.56926">
        <ele>2134</ele>
        <time>2017-12-29T12:10:47Z</time>
      </trkpt>
      <trkpt lat="45.9914" lon="6.56924">
        <ele>2136</ele>
        <time>2017-12-29T12:10:53Z</time>
      </trkpt>
      <trkpt lat="45.99137" lon="6.56923">
        <ele>2137</ele>
        <time>2017-12-29T12:10:58Z</time>
      </trkpt>
      <trkpt lat="45.99126" lon="6.56919">
        <ele>2140</ele>
        <time>2017-12-29T12:11:18Z</time>
      </trkpt>
      <trkpt lat="45.99125" lon="6.56918">
        <ele>2140</ele>
        <time>2017-12-29T12:11:20Z</time>
      </trkpt>
      <trkpt lat="45.99118" lon="6.56915">
        <ele>2126</ele>
        <time>2017-12-29T12:11:33Z</time>
      </trkpt>
      <trkpt lat="45.99103" lon="6.56906">
        <ele>2130</ele>
        <time>2017-12-29T12:11:59Z</time>
      </trkpt>
      <trkpt lat="45.99091" lon="6.56901">
        <ele>2133</ele>
        <time>2017-12-29T12:12:19Z</time>
      </trkpt>
      <trkpt lat="45.99088" lon="6.569">
        <ele>2133</ele>
        <time>2017-12-29T12:12:24Z</time>
      </trkpt>
      <trkpt lat="45.99084" lon="6.56899">
        <ele>2133</ele>
        <time>2017-12-29T12:12:31Z</time>
      </trkpt>
      <trkpt lat="45.99075" lon="6.56896">
        <ele>2146</ele>
        <time>2017-12-29T12:12:46Z</time>
      </trkpt>
      <trkpt lat="45.99073" lon="6.56896">
        <ele>2146</ele>
        <time>2017-12-29T12:12:48Z</time>
      </trkpt>
      <trkpt lat="45.99064" lon="6.56892">
        <ele>2147</ele>
        <time>2017-12-29T12:13:04Z</time>
      </trkpt>
      <trkpt lat="45.99051" lon="6.5689">
        <ele>2148</ele>
        <time>2017-12-29T12:13:25Z</time>
      </trkpt>
      <trkpt lat="45.99045" lon="6.5689">
        <ele>2149</ele>
        <time>2017-12-29T12:13:35Z</time>
      </trkpt>
      <trkpt lat="45.9904" lon="6.56892">
        <ele>2150</ele>
        <time>2017-12-29T12:13:52Z</time>
      </trkpt>
      <trkpt lat="45.99042" lon="6.569">
        <ele>2151</ele>
        <time>2017-12-29T12:14:01Z</time>
      </trkpt>
      <trkpt lat="45.99044" lon="6.56908">
        <ele>2152</ele>
        <time>2017-12-29T12:14:12Z</time>
      </trkpt>
      <trkpt lat="45.99047" lon="6.56922">
        <ele>2168</ele>
        <time>2017-12-29T12:14:28Z</time>
      </trkpt>
      <trkpt lat="45.99049" lon="6.56933">
        <ele>2168</ele>
        <time>2017-12-29T12:14:41Z</time>
      </trkpt>
      <trkpt lat="45.99052" lon="6.56945">
        <ele>2169</ele>
        <time>2017-12-29T12:14:56Z</time>
      </trkpt>
      <trkpt lat="45.99054" lon="6.56954">
        <ele>2170</ele>
        <time>2017-12-29T12:15:06Z</time>
      </trkpt>
      <trkpt lat="45.99056" lon="6.56962">
        <ele>2171</ele>
        <time>2017-12-29T12:15:15Z</time>
      </trkpt>
      <trkpt lat="45.9905" lon="6.56962">
        <ele>2172</ele>
        <time>2017-12-29T12:15:26Z</time>
      </trkpt>
      <trkpt lat="45.9904" lon="6.56963">
        <ele>2174</ele>
        <time>2017-12-29T12:15:41Z</time>
      </trkpt>
      <trkpt lat="45.99038" lon="6.56963">
        <ele>2174</ele>
        <time>2017-12-29T12:15:45Z</time>
      </trkpt>
      <trkpt lat="45.99035" lon="6.56963">
        <ele>2174</ele>
        <time>2017-12-29T12:15:49Z</time>
      </trkpt>
      <trkpt lat="45.99024" lon="6.56962">
        <ele>2176</ele>
        <time>2017-12-29T12:16:09Z</time>
      </trkpt>
      <trkpt lat="45.99015" lon="6.56963">
        <ele>2177</ele>
        <time>2017-12-29T12:16:23Z</time>
      </trkpt>
      <trkpt lat="45.99013" lon="6.56963">
        <ele>2177</ele>
        <time>2017-12-29T12:16:27Z</time>
      </trkpt>
      <trkpt lat="45.99011" lon="6.56963">
        <ele>2178</ele>
        <time>2017-12-29T12:16:30Z</time>
      </trkpt>
      <trkpt lat="45.99008" lon="6.56964">
        <ele>2178</ele>
        <time>2017-12-29T12:16:34Z</time>
      </trkpt>
      <trkpt lat="45.99005" lon="6.56964">
        <ele>2178</ele>
        <time>2017-12-29T12:16:38Z</time>
      </trkpt>
      <trkpt lat="45.99003" lon="6.56964">
        <ele>2178</ele>
        <time>2017-12-29T12:16:40Z</time>
      </trkpt>
      <trkpt lat="45.99002" lon="6.56964">
        <ele>2179</ele>
        <time>2017-12-29T12:16:42Z</time>
      </trkpt>
      <trkpt lat="45.98995" lon="6.56965">
        <ele>2191</ele>
        <time>2017-12-29T12:16:50Z</time>
      </trkpt>
      <trkpt lat="45.98988" lon="6.56966">
        <ele>2191</ele>
        <time>2017-12-29T12:17:00Z</time>
      </trkpt>
      <trkpt lat="45.98979" lon="6.56966">
        <ele>2192</ele>
        <time>2017-12-29T12:17:13Z</time>
      </trkpt>
      <trkpt lat="45.98974" lon="6.56965">
        <ele>2192</ele>
        <time>2017-12-29T12:17:20Z</time>
      </trkpt>
      <trkpt lat="45.98966" lon="6.56965">
        <ele>2192</ele>
        <time>2017-12-29T12:17:31Z</time>
      </trkpt>
      <trkpt lat="45.98965" lon="6.56965">
        <ele>2193</ele>
        <time>2017-12-29T12:17:33Z</time>
      </trkpt>
      <trkpt lat="45.98956" lon="6.56963">
        <ele>2193</ele>
        <time>2017-12-29T12:17:46Z</time>
      </trkpt>
      <trkpt lat="45.9895" lon="6.56963">
        <ele>2194</ele>
        <time>2017-12-29T12:17:55Z</time>
      </trkpt>
      <trkpt lat="45.9894" lon="6.56962">
        <ele>2194</ele>
        <time>2017-12-29T12:18:11Z</time>
      </trkpt>
      <trkpt lat="45.9893" lon="6.56964">
        <ele>2195</ele>
        <time>2017-12-29T12:18:23Z</time>
      </trkpt>
      <trkpt lat="45.98929" lon="6.56965">
        <ele>2196</ele>
        <time>2017-12-29T12:18:25Z</time>
      </trkpt>
      <trkpt lat="45.98919" lon="6.56968">
        <ele>2197</ele>
        <time>2017-12-29T12:18:36Z</time>
      </trkpt>
      <trkpt lat="45.98918" lon="6.56968">
        <ele>2197</ele>
        <time>2017-12-29T12:18:37Z</time>
      </trkpt>
      <trkpt lat="45.98916" lon="6.56969">
        <ele>2203</ele>
        <time>2017-12-29T12:18:39Z</time>
      </trkpt>
      <trkpt lat="45.98914" lon="6.5697">
        <ele>2203</ele>
        <time>2017-12-29T12:18:42Z</time>
      </trkpt>
      <trkpt lat="45.98882" lon="6.5698">
        <ele>2204</ele>
        <time>2017-12-29T12:19:09Z</time>
      </trkpt>
      <trkpt lat="45.98856" lon="6.56988">
        <ele>2205</ele>
        <time>2017-12-29T12:19:33Z</time>
      </trkpt>
      <trkpt lat="45.98845" lon="6.56994">
        <ele>2207</ele>
        <time>2017-12-29T12:19:43Z</time>
      </trkpt>
      <trkpt lat="45.98824" lon="6.5699">
        <ele>2211</ele>
        <time>2017-12-29T12:20:03Z</time>
      </trkpt>
      <trkpt lat="45.98823" lon="6.56989">
        <ele>2211</ele>
        <time>2017-12-29T12:20:04Z</time>
      </trkpt>
      <trkpt lat="45.98822" lon="6.56989">
        <ele>2211</ele>
        <time>2017-12-29T12:20:05Z</time>
      </trkpt>
      <trkpt lat="45.98821" lon="6.56988">
        <ele>2211</ele>
        <time>2017-12-29T12:20:06Z</time>
      </trkpt>
      <trkpt lat="45.9882" lon="6.56988">
        <ele>2211</ele>
        <time>2017-12-29T12:20:07Z</time>
      </trkpt>
      <trkpt lat="45.98819" lon="6.56987">
        <ele>2211</ele>
        <time>2017-12-29T12:20:08Z</time>
      </trkpt>
      <trkpt lat="45.98818" lon="6.56986">
        <ele>2211</ele>
        <time>2017-12-29T12:20:09Z</time>
      </trkpt>
      <trkpt lat="45.98817" lon="6.56985">
        <ele>2211</ele>
        <time>2017-12-29T12:20:10Z</time>
      </trkpt>
      <trkpt lat="45.98816" lon="6.56984">
        <ele>2211</ele>
        <time>2017-12-29T12:20:11Z</time>
      </trkpt>
      <trkpt lat="45.988" lon="6.56976">
        <ele>2212</ele>
        <time>2017-12-29T12:20:26Z</time>
      </trkpt>
      <trkpt lat="45.988" lon="6.56975">
        <ele>2212</ele>
        <time>2017-12-29T12:20:27Z</time>
      </trkpt>
      <trkpt lat="45.98788" lon="6.56969">
        <ele>2212</ele>
        <time>2017-12-29T12:20:39Z</time>
      </trkpt>
      <trkpt lat="45.98781" lon="6.56967">
        <ele>2213</ele>
        <time>2017-12-29T12:20:47Z</time>
      </trkpt>
      <trkpt lat="45.9878" lon="6.56966">
        <ele>2213</ele>
        <time>2017-12-29T12:20:48Z</time>
      </trkpt>
      <trkpt lat="45.98779" lon="6.56964">
        <ele>2213</ele>
        <time>2017-12-29T12:20:50Z</time>
      </trkpt>
      <trkpt lat="45.98778" lon="6.56963">
        <ele>2213</ele>
        <time>2017-12-29T12:20:51Z</time>
      </trkpt>
      <trkpt lat="45.98778" lon="6.56962">
        <ele>2213</ele>
        <time>2017-12-29T12:20:52Z</time>
      </trkpt>
      <trkpt lat="45.98777" lon="6.56961">
        <ele>2214</ele>
        <time>2017-12-29T12:20:53Z</time>
      </trkpt>
      <trkpt lat="45.98776" lon="6.56961">
        <ele>2214</ele>
        <time>2017-12-29T12:20:54Z</time>
      </trkpt>
      <trkpt lat="45.98775" lon="6.56961">
        <ele>2214</ele>
        <time>2017-12-29T12:20:56Z</time>
      </trkpt>
      <trkpt lat="45.98772" lon="6.56963">
        <ele>2214</ele>
        <time>2017-12-29T12:20:59Z</time>
      </trkpt>
      <trkpt lat="45.98771" lon="6.56964">
        <ele>2214</ele>
        <time>2017-12-29T12:21:01Z</time>
      </trkpt>
      <trkpt lat="45.9877" lon="6.56964">
        <ele>2214</ele>
        <time>2017-12-29T12:21:02Z</time>
      </trkpt>
      <trkpt lat="45.98769" lon="6.56964">
        <ele>2214</ele>
        <time>2017-12-29T12:21:04Z</time>
      </trkpt>
      <trkpt lat="45.98749" lon="6.56969">
        <ele>2226</ele>
        <time>2017-12-29T12:21:28Z</time>
      </trkpt>
      <trkpt lat="45.98738" lon="6.56969">
        <ele>2227</ele>
        <time>2017-12-29T12:21:43Z</time>
      </trkpt>
      <trkpt lat="45.98735" lon="6.56969">
        <ele>2227</ele>
        <time>2017-12-29T12:21:47Z</time>
      </trkpt>
      <trkpt lat="45.98733" lon="6.56969">
        <ele>2228</ele>
        <time>2017-12-29T12:21:49Z</time>
      </trkpt>
      <trkpt lat="45.98732" lon="6.56969">
        <ele>2228</ele>
        <time>2017-12-29T12:21:51Z</time>
      </trkpt>
      <trkpt lat="45.98729" lon="6.56968">
        <ele>2228</ele>
        <time>2017-12-29T12:21:54Z</time>
      </trkpt>
      <trkpt lat="45.98728" lon="6.56968">
        <ele>2229</ele>
        <time>2017-12-29T12:21:56Z</time>
      </trkpt>
      <trkpt lat="45.98724" lon="6.56965">
        <ele>2230</ele>
        <time>2017-12-29T12:22:03Z</time>
      </trkpt>
      <trkpt lat="45.98722" lon="6.56965">
        <ele>2230</ele>
        <time>2017-12-29T12:22:05Z</time>
      </trkpt>
      <trkpt lat="45.98721" lon="6.5696">
        <ele>2231</ele>
        <time>2017-12-29T12:22:13Z</time>
      </trkpt>
      <trkpt lat="45.98721" lon="6.56958">
        <ele>2231</ele>
        <time>2017-12-29T12:22:15Z</time>
      </trkpt>
      <trkpt lat="45.98721" lon="6.56954">
        <ele>2232</ele>
        <time>2017-12-29T12:22:19Z</time>
      </trkpt>
      <trkpt lat="45.98721" lon="6.56952">
        <ele>2232</ele>
        <time>2017-12-29T12:22:21Z</time>
      </trkpt>
      <trkpt lat="45.98719" lon="6.56942">
        <ele>2233</ele>
        <time>2017-12-29T12:22:31Z</time>
      </trkpt>
      <trkpt lat="45.98719" lon="6.56942">
        <ele>2233</ele>
        <time>2017-12-29T12:22:32Z</time>
      </trkpt>
      <trkpt lat="45.98719" lon="6.56939">
        <ele>2233</ele>
        <time>2017-12-29T12:22:34Z</time>
      </trkpt>
      <trkpt lat="45.98713" lon="6.56936">
        <ele>2235</ele>
        <time>2017-12-29T12:22:44Z</time>
      </trkpt>
      <trkpt lat="45.98712" lon="6.56937">
        <ele>2235</ele>
        <time>2017-12-29T12:22:45Z</time>
      </trkpt>
      <trkpt lat="45.987" lon="6.56941">
        <ele>2237</ele>
        <time>2017-12-29T12:23:01Z</time>
      </trkpt>
      <trkpt lat="45.98695" lon="6.5694">
        <ele>2238</ele>
        <time>2017-12-29T12:23:08Z</time>
      </trkpt>
      <trkpt lat="45.98693" lon="6.5694">
        <ele>2238</ele>
        <time>2017-12-29T12:23:10Z</time>
      </trkpt>
      <trkpt lat="45.9869" lon="6.56941">
        <ele>2239</ele>
        <time>2017-12-29T12:23:14Z</time>
      </trkpt>
      <trkpt lat="45.9868" lon="6.56941">
        <ele>2241</ele>
        <time>2017-12-29T12:23:29Z</time>
      </trkpt>
      <trkpt lat="45.98678" lon="6.56937">
        <ele>2243</ele>
        <time>2017-12-29T12:23:38Z</time>
      </trkpt>
      <trkpt lat="45.98678" lon="6.56931">
        <ele>2245</ele>
        <time>2017-12-29T12:23:44Z</time>
      </trkpt>
      <trkpt lat="45.98677" lon="6.56927">
        <ele>2247</ele>
        <time>2017-12-29T12:23:49Z</time>
      </trkpt>
      <trkpt lat="45.98674" lon="6.56927">
        <ele>2248</ele>
        <time>2017-12-29T12:23:54Z</time>
      </trkpt>
      <trkpt lat="45.98674" lon="6.56927">
        <ele>2248</ele>
        <time>2017-12-29T12:23:55Z</time>
      </trkpt>
      <trkpt lat="45.98671" lon="6.56928">
        <ele>2248</ele>
        <time>2017-12-29T12:23:59Z</time>
      </trkpt>
      <trkpt lat="45.98668" lon="6.56929">
        <ele>2248</ele>
        <time>2017-12-29T12:24:03Z</time>
      </trkpt>
      <trkpt lat="45.98655" lon="6.56934">
        <ele>2258</ele>
        <time>2017-12-29T12:24:23Z</time>
      </trkpt>
      <trkpt lat="45.98643" lon="6.56936">
        <ele>2259</ele>
        <time>2017-12-29T12:24:40Z</time>
      </trkpt>
      <trkpt lat="45.98639" lon="6.56937">
        <ele>2259</ele>
        <time>2017-12-29T12:24:46Z</time>
      </trkpt>
      <trkpt lat="45.98633" lon="6.56939">
        <ele>2260</ele>
        <time>2017-12-29T12:24:54Z</time>
      </trkpt>
      <trkpt lat="45.98629" lon="6.56942">
        <ele>2261</ele>
        <time>2017-12-29T12:25:01Z</time>
      </trkpt>
      <trkpt lat="45.98628" lon="6.56944">
        <ele>2261</ele>
        <time>2017-12-29T12:25:02Z</time>
      </trkpt>
      <trkpt lat="45.98627" lon="6.56944">
        <ele>2261</ele>
        <time>2017-12-29T12:25:03Z</time>
      </trkpt>
      <trkpt lat="45.98625" lon="6.56947">
        <ele>2261</ele>
        <time>2017-12-29T12:25:06Z</time>
      </trkpt>
      <trkpt lat="45.98624" lon="6.56947">
        <ele>2261</ele>
        <time>2017-12-29T12:25:07Z</time>
      </trkpt>
      <trkpt lat="45.98622" lon="6.56948">
        <ele>2261</ele>
        <time>2017-12-29T12:25:08Z</time>
      </trkpt>
      <trkpt lat="45.98621" lon="6.56948">
        <ele>2261</ele>
        <time>2017-12-29T12:25:09Z</time>
      </trkpt>
      <trkpt lat="45.9862" lon="6.56949">
        <ele>2261</ele>
        <time>2017-12-29T12:25:10Z</time>
      </trkpt>
      <trkpt lat="45.98611" lon="6.56956">
        <ele>2262</ele>
        <time>2017-12-29T12:25:19Z</time>
      </trkpt>
      <trkpt lat="45.98601" lon="6.56964">
        <ele>2262</ele>
        <time>2017-12-29T12:25:27Z</time>
      </trkpt>
      <trkpt lat="45.98592" lon="6.56971">
        <ele>2262</ele>
        <time>2017-12-29T12:25:35Z</time>
      </trkpt>
      <trkpt lat="45.98577" lon="6.56987">
        <ele>2267</ele>
        <time>2017-12-29T12:25:48Z</time>
      </trkpt>
      <trkpt lat="45.9854" lon="6.57029">
        <ele>2264</ele>
        <time>2017-12-29T12:26:22Z</time>
      </trkpt>
      <trkpt lat="45.98528" lon="6.57047">
        <ele>2265</ele>
        <time>2017-12-29T12:26:35Z</time>
      </trkpt>
      <trkpt lat="45.98527" lon="6.57048">
        <ele>2265</ele>
        <time>2017-12-29T12:26:36Z</time>
      </trkpt>
      <trkpt lat="45.98526" lon="6.5705">
        <ele>2265</ele>
        <time>2017-12-29T12:26:37Z</time>
      </trkpt>
      <trkpt lat="45.9852" lon="6.57061">
        <ele>2266</ele>
        <time>2017-12-29T12:26:46Z</time>
      </trkpt>
      <trkpt lat="45.98519" lon="6.57062">
        <ele>2266</ele>
        <time>2017-12-29T12:26:47Z</time>
      </trkpt>
      <trkpt lat="45.98518" lon="6.57063">
        <ele>2266</ele>
        <time>2017-12-29T12:26:48Z</time>
      </trkpt>
      <trkpt lat="45.98517" lon="6.57064">
        <ele>2266</ele>
        <time>2017-12-29T12:26:49Z</time>
      </trkpt>
      <trkpt lat="45.98516" lon="6.57065">
        <ele>2266</ele>
        <time>2017-12-29T12:26:50Z</time>
      </trkpt>
      <trkpt lat="45.98516" lon="6.57067">
        <ele>2266</ele>
        <time>2017-12-29T12:26:51Z</time>
      </trkpt>
      <trkpt lat="45.98515" lon="6.57067">
        <ele>2267</ele>
        <time>2017-12-29T12:26:52Z</time>
      </trkpt>
      <trkpt lat="45.98515" lon="6.57069">
        <ele>2267</ele>
        <time>2017-12-29T12:26:53Z</time>
      </trkpt>
      <trkpt lat="45.98514" lon="6.5707">
        <ele>2267</ele>
        <time>2017-12-29T12:26:54Z</time>
      </trkpt>
      <trkpt lat="45.98507" lon="6.57087">
        <ele>2269</ele>
        <time>2017-12-29T12:27:07Z</time>
      </trkpt>
      <trkpt lat="45.98501" lon="6.571">
        <ele>2269</ele>
        <time>2017-12-29T12:27:17Z</time>
      </trkpt>
      <trkpt lat="45.985" lon="6.57102">
        <ele>2269</ele>
        <time>2017-12-29T12:27:19Z</time>
      </trkpt>
      <trkpt lat="45.98491" lon="6.57123">
        <ele>2277</ele>
        <time>2017-12-29T12:27:37Z</time>
      </trkpt>
      <trkpt lat="45.98488" lon="6.57129">
        <ele>2277</ele>
        <time>2017-12-29T12:27:42Z</time>
      </trkpt>
      <trkpt lat="45.98488" lon="6.5713">
        <ele>2278</ele>
        <time>2017-12-29T12:27:43Z</time>
      </trkpt>
      <trkpt lat="45.98486" lon="6.57135">
        <ele>2278</ele>
        <time>2017-12-29T12:27:47Z</time>
      </trkpt>
      <trkpt lat="45.98486" lon="6.57137">
        <ele>2278</ele>
        <time>2017-12-29T12:27:48Z</time>
      </trkpt>
      <trkpt lat="45.98481" lon="6.57153">
        <ele>2280</ele>
        <time>2017-12-29T12:28:02Z</time>
      </trkpt>
      <trkpt lat="45.98481" lon="6.57154">
        <ele>2280</ele>
        <time>2017-12-29T12:28:03Z</time>
      </trkpt>
      <trkpt lat="45.9848" lon="6.57157">
        <ele>2280</ele>
        <time>2017-12-29T12:28:16Z</time>
      </trkpt>
      <trkpt lat="45.9848" lon="6.57157">
        <ele>2280</ele>
        <time>2017-12-29T12:28:23Z</time>
      </trkpt>
      <trkpt lat="45.98479" lon="6.57157">
        <ele>2280</ele>
        <time>2017-12-29T12:28:28Z</time>
      </trkpt>
      <trkpt lat="45.98479" lon="6.57158">
        <ele>2280</ele>
        <time>2017-12-29T12:28:31Z</time>
      </trkpt>
      <trkpt lat="45.98479" lon="6.57158">
        <ele>2280</ele>
        <time>2017-12-29T12:28:33Z</time>
      </trkpt>
      <trkpt lat="45.98478" lon="6.57158">
        <ele>2280</ele>
        <time>2017-12-29T12:28:35Z</time>
      </trkpt>
      <trkpt lat="45.98478" lon="6.57158">
        <ele>2280</ele>
        <time>2017-12-29T12:28:37Z</time>
      </trkpt>
      <trkpt lat="45.98478" lon="6.57158">
        <ele>2280</ele>
        <time>2017-12-29T12:28:44Z</time>
      </trkpt>
      <trkpt lat="45.98478" lon="6.57158">
        <ele>2280</ele>
        <time>2017-12-29T12:28:46Z</time>
      </trkpt>
      <trkpt lat="45.98477" lon="6.57159">
        <ele>2280</ele>
        <time>2017-12-29T12:28:49Z</time>
      </trkpt>
      <trkpt lat="45.98477" lon="6.57157">
        <ele>2280</ele>
        <time>2017-12-29T12:29:02Z</time>
      </trkpt>
      <trkpt lat="45.98477" lon="6.57157">
        <ele>2280</ele>
        <time>2017-12-29T12:29:04Z</time>
      </trkpt>
      <trkpt lat="45.98479" lon="6.57155">
        <ele>2280</ele>
        <time>2017-12-29T12:29:14Z</time>
      </trkpt>
      <trkpt lat="45.98479" lon="6.57157">
        <ele>2280</ele>
        <time>2017-12-29T12:29:48Z</time>
      </trkpt>
      <trkpt lat="45.98479" lon="6.5716">
        <ele>2280</ele>
        <time>2017-12-29T12:30:06Z</time>
      </trkpt>
      <trkpt lat="45.98478" lon="6.57162">
        <ele>2280</ele>
        <time>2017-12-29T12:30:08Z</time>
      </trkpt>
      <trkpt lat="45.98477" lon="6.57164">
        <ele>2280</ele>
        <time>2017-12-29T12:30:09Z</time>
      </trkpt>
      <trkpt lat="45.98476" lon="6.57169">
        <ele>2288</ele>
        <time>2017-12-29T12:30:13Z</time>
      </trkpt>
      <trkpt lat="45.98474" lon="6.57179">
        <ele>2289</ele>
        <time>2017-12-29T12:30:20Z</time>
      </trkpt>
      <trkpt lat="45.98472" lon="6.57185">
        <ele>2289</ele>
        <time>2017-12-29T12:30:25Z</time>
      </trkpt>
      <trkpt lat="45.98471" lon="6.57189">
        <ele>2289</ele>
        <time>2017-12-29T12:30:28Z</time>
      </trkpt>
      <trkpt lat="45.98471" lon="6.57191">
        <ele>2290</ele>
        <time>2017-12-29T12:30:29Z</time>
      </trkpt>
      <trkpt lat="45.98471" lon="6.57195">
        <ele>2290</ele>
        <time>2017-12-29T12:30:32Z</time>
      </trkpt>
      <trkpt lat="45.9847" lon="6.572">
        <ele>2290</ele>
        <time>2017-12-29T12:30:36Z</time>
      </trkpt>
      <trkpt lat="45.98469" lon="6.57204">
        <ele>2291</ele>
        <time>2017-12-29T12:30:40Z</time>
      </trkpt>
      <trkpt lat="45.98469" lon="6.57205">
        <ele>2291</ele>
        <time>2017-12-29T12:30:41Z</time>
      </trkpt>
      <trkpt lat="45.98468" lon="6.5721">
        <ele>2291</ele>
        <time>2017-12-29T12:30:46Z</time>
      </trkpt>
      <trkpt lat="45.98468" lon="6.57215">
        <ele>2291</ele>
        <time>2017-12-29T12:30:50Z</time>
      </trkpt>
      <trkpt lat="45.98467" lon="6.5722">
        <ele>2291</ele>
        <time>2017-12-29T12:30:55Z</time>
      </trkpt>
      <trkpt lat="45.98466" lon="6.57224">
        <ele>2292</ele>
        <time>2017-12-29T12:30:59Z</time>
      </trkpt>
      <trkpt lat="45.98466" lon="6.57227">
        <ele>2292</ele>
        <time>2017-12-29T12:31:01Z</time>
      </trkpt>
      <trkpt lat="45.98465" lon="6.57229">
        <ele>2292</ele>
        <time>2017-12-29T12:31:03Z</time>
      </trkpt>
      <trkpt lat="45.98462" lon="6.57238">
        <ele>2293</ele>
        <time>2017-12-29T12:31:11Z</time>
      </trkpt>
      <trkpt lat="45.98461" lon="6.57243">
        <ele>2293</ele>
        <time>2017-12-29T12:31:16Z</time>
      </trkpt>
      <trkpt lat="45.9846" lon="6.57248">
        <ele>2293</ele>
        <time>2017-12-29T12:31:20Z</time>
      </trkpt>
      <trkpt lat="45.9846" lon="6.57253">
        <ele>2298</ele>
        <time>2017-12-29T12:31:25Z</time>
      </trkpt>
      <trkpt lat="45.98459" lon="6.57258">
        <ele>2299</ele>
        <time>2017-12-29T12:31:29Z</time>
      </trkpt>
      <trkpt lat="45.98458" lon="6.5726">
        <ele>2299</ele>
        <time>2017-12-29T12:31:31Z</time>
      </trkpt>
      <trkpt lat="45.98457" lon="6.57263">
        <ele>2299</ele>
        <time>2017-12-29T12:31:33Z</time>
      </trkpt>
      <trkpt lat="45.98454" lon="6.57272">
        <ele>2300</ele>
        <time>2017-12-29T12:31:44Z</time>
      </trkpt>
      <trkpt lat="45.98448" lon="6.57274">
        <ele>2301</ele>
        <time>2017-12-29T12:31:53Z</time>
      </trkpt>
      <trkpt lat="45.98444" lon="6.57274">
        <ele>2302</ele>
        <time>2017-12-29T12:31:58Z</time>
      </trkpt>
      <trkpt lat="45.98439" lon="6.57274">
        <ele>2303</ele>
        <time>2017-12-29T12:32:06Z</time>
      </trkpt>
      <trkpt lat="45.98429" lon="6.57276">
        <ele>2304</ele>
        <time>2017-12-29T12:32:21Z</time>
      </trkpt>
      <trkpt lat="45.98428" lon="6.57277">
        <ele>2304</ele>
        <time>2017-12-29T12:32:23Z</time>
      </trkpt>
      <trkpt lat="45.98419" lon="6.57277">
        <ele>2305</ele>
        <time>2017-12-29T12:32:38Z</time>
      </trkpt>
      <trkpt lat="45.98409" lon="6.57277">
        <ele>2319</ele>
        <time>2017-12-29T12:32:54Z</time>
      </trkpt>
      <trkpt lat="45.98408" lon="6.57276">
        <ele>2319</ele>
        <time>2017-12-29T12:32:55Z</time>
      </trkpt>
      <trkpt lat="45.98407" lon="6.57276">
        <ele>2319</ele>
        <time>2017-12-29T12:32:56Z</time>
      </trkpt>
      <trkpt lat="45.98396" lon="6.57276">
        <ele>2320</ele>
        <time>2017-12-29T12:33:13Z</time>
      </trkpt>
      <trkpt lat="45.98387" lon="6.57277">
        <ele>2320</ele>
        <time>2017-12-29T12:33:26Z</time>
      </trkpt>
      <trkpt lat="45.98382" lon="6.57277">
        <ele>2321</ele>
        <time>2017-12-29T12:33:34Z</time>
      </trkpt>
      <trkpt lat="45.98379" lon="6.57278">
        <ele>2321</ele>
        <time>2017-12-29T12:33:40Z</time>
      </trkpt>
      <trkpt lat="45.98372" lon="6.5728">
        <ele>2322</ele>
        <time>2017-12-29T12:33:50Z</time>
      </trkpt>
      <trkpt lat="45.98361" lon="6.57282">
        <ele>2323</ele>
        <time>2017-12-29T12:34:08Z</time>
      </trkpt>
      <trkpt lat="45.98353" lon="6.57284">
        <ele>2323</ele>
        <time>2017-12-29T12:34:23Z</time>
      </trkpt>
      <trkpt lat="45.98345" lon="6.57287">
        <ele>2324</ele>
        <time>2017-12-29T12:34:35Z</time>
      </trkpt>
      <trkpt lat="45.98342" lon="6.57289">
        <ele>2324</ele>
        <time>2017-12-29T12:34:39Z</time>
      </trkpt>
      <trkpt lat="45.98335" lon="6.57293">
        <ele>2326</ele>
        <time>2017-12-29T12:34:50Z</time>
      </trkpt>
      <trkpt lat="45.98333" lon="6.57294">
        <ele>2325</ele>
        <time>2017-12-29T12:34:54Z</time>
      </trkpt>
      <trkpt lat="45.98325" lon="6.573">
        <ele>2326</ele>
        <time>2017-12-29T12:35:07Z</time>
      </trkpt>
      <trkpt lat="45.98323" lon="6.57302">
        <ele>2326</ele>
        <time>2017-12-29T12:35:09Z</time>
      </trkpt>
      <trkpt lat="45.98318" lon="6.5731">
        <ele>2327</ele>
        <time>2017-12-29T12:35:22Z</time>
      </trkpt>
      <trkpt lat="45.98313" lon="6.57323">
        <ele>2329</ele>
        <time>2017-12-29T12:35:39Z</time>
      </trkpt>
      <trkpt lat="45.98312" lon="6.57331">
        <ele>2330</ele>
        <time>2017-12-29T12:35:56Z</time>
      </trkpt>
      <trkpt lat="45.98316" lon="6.57329">
        <ele>2331</ele>
        <time>2017-12-29T12:36:01Z</time>
      </trkpt>
      <trkpt lat="45.98323" lon="6.57332">
        <ele>2334</ele>
        <time>2017-12-29T12:36:14Z</time>
      </trkpt>
      <trkpt lat="45.98327" lon="6.5734">
        <ele>2342</ele>
        <time>2017-12-29T12:36:25Z</time>
      </trkpt>
      <trkpt lat="45.98329" lon="6.57343">
        <ele>2342</ele>
        <time>2017-12-29T12:36:29Z</time>
      </trkpt>
      <trkpt lat="45.9833" lon="6.57345">
        <ele>2342</ele>
        <time>2017-12-29T12:36:31Z</time>
      </trkpt>
      <trkpt lat="45.98331" lon="6.57349">
        <ele>2343</ele>
        <time>2017-12-29T12:36:35Z</time>
      </trkpt>
      <trkpt lat="45.98331" lon="6.57356">
        <ele>2344</ele>
        <time>2017-12-29T12:36:42Z</time>
      </trkpt>
      <trkpt lat="45.98331" lon="6.57358">
        <ele>2344</ele>
        <time>2017-12-29T12:36:44Z</time>
      </trkpt>
      <trkpt lat="45.9833" lon="6.57369">
        <ele>2346</ele>
        <time>2017-12-29T12:36:56Z</time>
      </trkpt>
      <trkpt lat="45.9833" lon="6.5737">
        <ele>2346</ele>
        <time>2017-12-29T12:36:57Z</time>
      </trkpt>
      <trkpt lat="45.9833" lon="6.57374">
        <ele>2347</ele>
        <time>2017-12-29T12:37:01Z</time>
      </trkpt>
      <trkpt lat="45.98326" lon="6.57387">
        <ele>2349</ele>
        <time>2017-12-29T12:37:14Z</time>
      </trkpt>
      <trkpt lat="45.98325" lon="6.57389">
        <ele>2350</ele>
        <time>2017-12-29T12:37:16Z</time>
      </trkpt>
      <trkpt lat="45.98325" lon="6.57392">
        <ele>2350</ele>
        <time>2017-12-29T12:37:18Z</time>
      </trkpt>
      <trkpt lat="45.98324" lon="6.57393">
        <ele>2351</ele>
        <time>2017-12-29T12:37:19Z</time>
      </trkpt>
      <trkpt lat="45.98323" lon="6.574">
        <ele>2353</ele>
        <time>2017-12-29T12:37:25Z</time>
      </trkpt>
      <trkpt lat="45.98322" lon="6.57402">
        <ele>2353</ele>
        <time>2017-12-29T12:37:27Z</time>
      </trkpt>
      <trkpt lat="45.9832" lon="6.57408">
        <ele>2354</ele>
        <time>2017-12-29T12:37:32Z</time>
      </trkpt>
      <trkpt lat="45.98319" lon="6.57412">
        <ele>2354</ele>
        <time>2017-12-29T12:37:36Z</time>
      </trkpt>
      <trkpt lat="45.98319" lon="6.57413">
        <ele>2355</ele>
        <time>2017-12-29T12:37:37Z</time>
      </trkpt>
      <trkpt lat="45.98317" lon="6.57417">
        <ele>2364</ele>
        <time>2017-12-29T12:37:41Z</time>
      </trkpt>
      <trkpt lat="45.98312" lon="6.57432">
        <ele>2365</ele>
        <time>2017-12-29T12:37:56Z</time>
      </trkpt>
      <trkpt lat="45.98311" lon="6.57434">
        <ele>2365</ele>
        <time>2017-12-29T12:37:58Z</time>
      </trkpt>
      <trkpt lat="45.9831" lon="6.5744">
        <ele>2366</ele>
        <time>2017-12-29T12:38:04Z</time>
      </trkpt>
      <trkpt lat="45.98307" lon="6.57452">
        <ele>2367</ele>
        <time>2017-12-29T12:38:17Z</time>
      </trkpt>
      <trkpt lat="45.98305" lon="6.57459">
        <ele>2368</ele>
        <time>2017-12-29T12:38:24Z</time>
      </trkpt>
      <trkpt lat="45.98304" lon="6.57468">
        <ele>2369</ele>
        <time>2017-12-29T12:38:33Z</time>
      </trkpt>
      <trkpt lat="45.98303" lon="6.57482">
        <ele>2370</ele>
        <time>2017-12-29T12:38:46Z</time>
      </trkpt>
      <trkpt lat="45.98302" lon="6.57483">
        <ele>2370</ele>
        <time>2017-12-29T12:38:50Z</time>
      </trkpt>
      <trkpt lat="45.98294" lon="6.5748">
        <ele>2370</ele>
        <time>2017-12-29T12:39:02Z</time>
      </trkpt>
      <trkpt lat="45.98286" lon="6.57477">
        <ele>2371</ele>
        <time>2017-12-29T12:39:15Z</time>
      </trkpt>
      <trkpt lat="45.98282" lon="6.57475">
        <ele>2371</ele>
        <time>2017-12-29T12:39:22Z</time>
      </trkpt>
      <trkpt lat="45.98275" lon="6.57471">
        <ele>2370</ele>
        <time>2017-12-29T12:39:46Z</time>
      </trkpt>
      <trkpt lat="45.98272" lon="6.5747">
        <ele>2370</ele>
        <time>2017-12-29T12:39:55Z</time>
      </trkpt>
      <trkpt lat="45.98271" lon="6.57471">
        <ele>2371</ele>
        <time>2017-12-29T12:40:11Z</time>
      </trkpt>
      <trkpt lat="45.98272" lon="6.57472">
        <ele>2371</ele>
        <time>2017-12-29T12:40:14Z</time>
      </trkpt>
      <trkpt lat="45.98275" lon="6.57484">
        <ele>2372</ele>
        <time>2017-12-29T12:40:29Z</time>
      </trkpt>
      <trkpt lat="45.98277" lon="6.5749">
        <ele>2373</ele>
        <time>2017-12-29T12:40:37Z</time>
      </trkpt>
      <trkpt lat="45.98269" lon="6.57491">
        <ele>2375</ele>
        <time>2017-12-29T12:40:55Z</time>
      </trkpt>
      <trkpt lat="45.98264" lon="6.5749">
        <ele>2376</ele>
        <time>2017-12-29T12:41:07Z</time>
      </trkpt>
      <trkpt lat="45.98256" lon="6.57487">
        <ele>2376</ele>
        <time>2017-12-29T12:41:21Z</time>
      </trkpt>
      <trkpt lat="45.98253" lon="6.57485">
        <ele>2376</ele>
        <time>2017-12-29T12:41:27Z</time>
      </trkpt>
      <trkpt lat="45.98251" lon="6.57486">
        <ele>2377</ele>
        <time>2017-12-29T12:41:34Z</time>
      </trkpt>
      <trkpt lat="45.98252" lon="6.57491">
        <ele>2379</ele>
        <time>2017-12-29T12:41:40Z</time>
      </trkpt>
      <trkpt lat="45.98253" lon="6.57494">
        <ele>2380</ele>
        <time>2017-12-29T12:41:44Z</time>
      </trkpt>
      <trkpt lat="45.98254" lon="6.57509">
        <ele>2379</ele>
        <time>2017-12-29T12:42:02Z</time>
      </trkpt>
      <trkpt lat="45.98248" lon="6.57508">
        <ele>2385</ele>
        <time>2017-12-29T12:42:19Z</time>
      </trkpt>
      <trkpt lat="45.98244" lon="6.57506">
        <ele>2385</ele>
        <time>2017-12-29T12:42:26Z</time>
      </trkpt>
      <trkpt lat="45.98243" lon="6.57506">
        <ele>2385</ele>
        <time>2017-12-29T12:42:27Z</time>
      </trkpt>
      <trkpt lat="45.98238" lon="6.57504">
        <ele>2386</ele>
        <time>2017-12-29T12:42:36Z</time>
      </trkpt>
      <trkpt lat="45.98234" lon="6.57503">
        <ele>2386</ele>
        <time>2017-12-29T12:42:44Z</time>
      </trkpt>
      <trkpt lat="45.98234" lon="6.57508">
        <ele>2386</ele>
        <time>2017-12-29T12:42:54Z</time>
      </trkpt>
      <trkpt lat="45.98234" lon="6.5751">
        <ele>2386</ele>
        <time>2017-12-29T12:42:56Z</time>
      </trkpt>
      <trkpt lat="45.98234" lon="6.57512">
        <ele>2386</ele>
        <time>2017-12-29T12:42:58Z</time>
      </trkpt>
      <trkpt lat="45.98234" lon="6.57521">
        <ele>2387</ele>
        <time>2017-12-29T12:43:07Z</time>
      </trkpt>
      <trkpt lat="45.98234" lon="6.57523">
        <ele>2387</ele>
        <time>2017-12-29T12:43:09Z</time>
      </trkpt>
      <trkpt lat="45.98234" lon="6.57525">
        <ele>2387</ele>
        <time>2017-12-29T12:43:11Z</time>
      </trkpt>
      <trkpt lat="45.98234" lon="6.57526">
        <ele>2386</ele>
        <time>2017-12-29T12:43:12Z</time>
      </trkpt>
      <trkpt lat="45.98234" lon="6.57527">
        <ele>2386</ele>
        <time>2017-12-29T12:43:13Z</time>
      </trkpt>
      <trkpt lat="45.98233" lon="6.57534">
        <ele>2386</ele>
        <time>2017-12-29T12:43:18Z</time>
      </trkpt>
      <trkpt lat="45.98233" lon="6.57535">
        <ele>2386</ele>
        <time>2017-12-29T12:43:19Z</time>
      </trkpt>
      <trkpt lat="45.98233" lon="6.57536">
        <ele>2386</ele>
        <time>2017-12-29T12:43:20Z</time>
      </trkpt>
      <trkpt lat="45.98232" lon="6.57538">
        <ele>2386</ele>
        <time>2017-12-29T12:43:21Z</time>
      </trkpt>
      <trkpt lat="45.98232" lon="6.5754">
        <ele>2386</ele>
        <time>2017-12-29T12:43:23Z</time>
      </trkpt>
      <trkpt lat="45.98231" lon="6.57544">
        <ele>2386</ele>
        <time>2017-12-29T12:43:26Z</time>
      </trkpt>
      <trkpt lat="45.9823" lon="6.57546">
        <ele>2386</ele>
        <time>2017-12-29T12:43:28Z</time>
      </trkpt>
      <trkpt lat="45.98229" lon="6.57548">
        <ele>2386</ele>
        <time>2017-12-29T12:43:30Z</time>
      </trkpt>
      <trkpt lat="45.98225" lon="6.57562">
        <ele>2385</ele>
        <time>2017-12-29T12:43:46Z</time>
      </trkpt>
      <trkpt lat="45.98222" lon="6.57572">
        <ele>2384</ele>
        <time>2017-12-29T12:44:00Z</time>
      </trkpt>
      <trkpt lat="45.98218" lon="6.57583">
        <ele>2385</ele>
        <time>2017-12-29T12:44:15Z</time>
      </trkpt>
      <trkpt lat="45.98215" lon="6.57592">
        <ele>2374</ele>
        <time>2017-12-29T12:44:32Z</time>
      </trkpt>
      <trkpt lat="45.98214" lon="6.57592">
        <ele>2374</ele>
        <time>2017-12-29T12:44:35Z</time>
      </trkpt>
      <trkpt lat="45.98209" lon="6.57587">
        <ele>2376</ele>
        <time>2017-12-29T12:44:50Z</time>
      </trkpt>
      <trkpt lat="45.98201" lon="6.57581">
        <ele>2390</ele>
        <time>2017-12-29T12:45:08Z</time>
      </trkpt>
      <trkpt lat="45.98195" lon="6.57577">
        <ele>2392</ele>
        <time>2017-12-29T12:45:21Z</time>
      </trkpt>
      <trkpt lat="45.98194" lon="6.57577">
        <ele>2392</ele>
        <time>2017-12-29T12:45:22Z</time>
      </trkpt>
      <trkpt lat="45.98188" lon="6.57579">
        <ele>2394</ele>
        <time>2017-12-29T12:45:33Z</time>
      </trkpt>
      <trkpt lat="45.98184" lon="6.57581">
        <ele>2395</ele>
        <time>2017-12-29T12:45:40Z</time>
      </trkpt>
      <trkpt lat="45.98181" lon="6.57587">
        <ele>2388</ele>
        <time>2017-12-29T12:45:47Z</time>
      </trkpt>
      <trkpt lat="45.9818" lon="6.57597">
        <ele>2385</ele>
        <time>2017-12-29T12:46:00Z</time>
      </trkpt>
      <trkpt lat="45.9818" lon="6.576">
        <ele>2384</ele>
        <time>2017-12-29T12:46:03Z</time>
      </trkpt>
      <trkpt lat="45.9818" lon="6.57608">
        <ele>2380</ele>
        <time>2017-12-29T12:46:15Z</time>
      </trkpt>
      <trkpt lat="45.98178" lon="6.57621">
        <ele>2376</ele>
        <time>2017-12-29T12:46:28Z</time>
      </trkpt>
      <trkpt lat="45.98177" lon="6.57625">
        <ele>2375</ele>
        <time>2017-12-29T12:46:32Z</time>
      </trkpt>
      <trkpt lat="45.98175" lon="6.57641">
        <ele>2370</ele>
        <time>2017-12-29T12:46:49Z</time>
      </trkpt>
      <trkpt lat="45.98174" lon="6.57645">
        <ele>2370</ele>
        <time>2017-12-29T12:46:58Z</time>
      </trkpt>
      <trkpt lat="45.98174" lon="6.57647">
        <ele>2369</ele>
        <time>2017-12-29T12:47:05Z</time>
      </trkpt>
      <trkpt lat="45.98175" lon="6.57647">
        <ele>2369</ele>
        <time>2017-12-29T12:47:11Z</time>
      </trkpt>
      <trkpt lat="45.98176" lon="6.57647">
        <ele>2369</ele>
        <time>2017-12-29T12:47:17Z</time>
      </trkpt>
      <trkpt lat="45.98176" lon="6.57648">
        <ele>2369</ele>
        <time>2017-12-29T12:47:21Z</time>
      </trkpt>
      <trkpt lat="45.98176" lon="6.57648">
        <ele>2369</ele>
        <time>2017-12-29T12:47:24Z</time>
      </trkpt>
      <trkpt lat="45.98176" lon="6.57649">
        <ele>2369</ele>
        <time>2017-12-29T12:47:30Z</time>
      </trkpt>
      <trkpt lat="45.98175" lon="6.57649">
        <ele>2369</ele>
        <time>2017-12-29T12:47:38Z</time>
      </trkpt>
      <trkpt lat="45.98175" lon="6.57648">
        <ele>2369</ele>
        <time>2017-12-29T12:47:43Z</time>
      </trkpt>
      <trkpt lat="45.98177" lon="6.57647">
        <ele>2369</ele>
        <time>2017-12-29T12:47:47Z</time>
      </trkpt>
      <trkpt lat="45.98176" lon="6.57647">
        <ele>2369</ele>
        <time>2017-12-29T12:47:50Z</time>
      </trkpt>
      <trkpt lat="45.98177" lon="6.57648">
        <ele>2369</ele>
        <time>2017-12-29T12:47:56Z</time>
      </trkpt>
      <trkpt lat="45.98177" lon="6.57648">
        <ele>2369</ele>
        <time>2017-12-29T12:48:02Z</time>
      </trkpt>
      <trkpt lat="45.98177" lon="6.57647">
        <ele>2369</ele>
        <time>2017-12-29T12:48:19Z</time>
      </trkpt>
      <trkpt lat="45.98176" lon="6.57647">
        <ele>2369</ele>
        <time>2017-12-29T12:48:37Z</time>
      </trkpt>
      <trkpt lat="45.98176" lon="6.57648">
        <ele>2369</ele>
        <time>2017-12-29T12:48:45Z</time>
      </trkpt>
      <trkpt lat="45.98176" lon="6.57647">
        <ele>2369</ele>
        <time>2017-12-29T12:48:52Z</time>
      </trkpt>
      <trkpt lat="45.98176" lon="6.57648">
        <ele>2369</ele>
        <time>2017-12-29T12:49:01Z</time>
      </trkpt>
      <trkpt lat="45.98176" lon="6.57648">
        <ele>2369</ele>
        <time>2017-12-29T12:49:04Z</time>
      </trkpt>
      <trkpt lat="45.98176" lon="6.57648">
        <ele>2369</ele>
        <time>2017-12-29T12:49:10Z</time>
      </trkpt>
      <trkpt lat="45.98176" lon="6.57648">
        <ele>2369</ele>
        <time>2017-12-29T12:49:23Z</time>
      </trkpt>
      <trkpt lat="45.98176" lon="6.57648">
        <ele>2369</ele>
        <time>2017-12-29T12:49:30Z</time>
      </trkpt>
      <trkpt lat="45.98176" lon="6.57648">
        <ele>2369</ele>
        <time>2017-12-29T12:49:34Z</time>
      </trkpt>
      <trkpt lat="45.98175" lon="6.57648">
        <ele>2369</ele>
        <time>2017-12-29T12:49:51Z</time>
      </trkpt>
      <trkpt lat="45.98176" lon="6.57649">
        <ele>2369</ele>
        <time>2017-12-29T12:50:01Z</time>
      </trkpt>
      <trkpt lat="45.98176" lon="6.57648">
        <ele>2369</ele>
        <time>2017-12-29T12:50:15Z</time>
      </trkpt>
      <trkpt lat="45.98176" lon="6.57649">
        <ele>2369</ele>
        <time>2017-12-29T12:50:26Z</time>
      </trkpt>
      <trkpt lat="45.98176" lon="6.57649">
        <ele>2369</ele>
        <time>2017-12-29T12:50:33Z</time>
      </trkpt>
      <trkpt lat="45.98176" lon="6.57649">
        <ele>2369</ele>
        <time>2017-12-29T12:50:35Z</time>
      </trkpt>
      <trkpt lat="45.98176" lon="6.57649">
        <ele>2369</ele>
        <time>2017-12-29T12:50:38Z</time>
      </trkpt>
      <trkpt lat="45.98176" lon="6.57649">
        <ele>2369</ele>
        <time>2017-12-29T12:50:46Z</time>
      </trkpt>
      <trkpt lat="45.98176" lon="6.5765">
        <ele>2368</ele>
        <time>2017-12-29T12:50:51Z</time>
      </trkpt>
      <trkpt lat="45.98176" lon="6.57649">
        <ele>2369</ele>
        <time>2017-12-29T12:51:00Z</time>
      </trkpt>
      <trkpt lat="45.98176" lon="6.57648">
        <ele>2369</ele>
        <time>2017-12-29T12:51:15Z</time>
      </trkpt>
      <trkpt lat="45.98175" lon="6.57648">
        <ele>2369</ele>
        <time>2017-12-29T12:51:19Z</time>
      </trkpt>
      <trkpt lat="45.98174" lon="6.57645">
        <ele>2369</ele>
        <time>2017-12-29T12:51:27Z</time>
      </trkpt>
      <trkpt lat="45.98174" lon="6.57643">
        <ele>2370</ele>
        <time>2017-12-29T12:51:28Z</time>
      </trkpt>
      <trkpt lat="45.98174" lon="6.57641">
        <ele>2370</ele>
        <time>2017-12-29T12:51:29Z</time>
      </trkpt>
      <trkpt lat="45.98174" lon="6.57638">
        <ele>2371</ele>
        <time>2017-12-29T12:51:30Z</time>
      </trkpt>
      <trkpt lat="45.98174" lon="6.57634">
        <ele>2372</ele>
        <time>2017-12-29T12:51:31Z</time>
      </trkpt>
      <trkpt lat="45.98174" lon="6.57622">
        <ele>2376</ele>
        <time>2017-12-29T12:51:35Z</time>
      </trkpt>
      <trkpt lat="45.98174" lon="6.57622">
        <ele>2376</ele>
        <time>2017-12-29T12:51:36Z</time>
      </trkpt>
      <trkpt lat="45.98176" lon="6.57618">
        <ele>2377</ele>
        <time>2017-12-29T12:51:39Z</time>
      </trkpt>
      <trkpt lat="45.98177" lon="6.57618">
        <ele>2377</ele>
        <time>2017-12-29T12:51:40Z</time>
      </trkpt>
      <trkpt lat="45.98179" lon="6.57618">
        <ele>2376</ele>
        <time>2017-12-29T12:51:41Z</time>
      </trkpt>
      <trkpt lat="45.98181" lon="6.57617">
        <ele>2377</ele>
        <time>2017-12-29T12:51:42Z</time>
      </trkpt>
      <trkpt lat="45.98181" lon="6.57615">
        <ele>2377</ele>
        <time>2017-12-29T12:51:43Z</time>
      </trkpt>
      <trkpt lat="45.98181" lon="6.57613">
        <ele>2378</ele>
        <time>2017-12-29T12:51:44Z</time>
      </trkpt>
      <trkpt lat="45.98182" lon="6.57612">
        <ele>2378</ele>
        <time>2017-12-29T12:51:45Z</time>
      </trkpt>
      <trkpt lat="45.98183" lon="6.57611">
        <ele>2378</ele>
        <time>2017-12-29T12:51:46Z</time>
      </trkpt>
      <trkpt lat="45.98185" lon="6.5761">
        <ele>2379</ele>
        <time>2017-12-29T12:51:47Z</time>
      </trkpt>
      <trkpt lat="45.98186" lon="6.57608">
        <ele>2379</ele>
        <time>2017-12-29T12:51:48Z</time>
      </trkpt>
      <trkpt lat="45.98187" lon="6.57606">
        <ele>2379</ele>
        <time>2017-12-29T12:51:49Z</time>
      </trkpt>
      <trkpt lat="45.98187" lon="6.57603">
        <ele>2380</ele>
        <time>2017-12-29T12:51:50Z</time>
      </trkpt>
      <trkpt lat="45.98188" lon="6.576">
        <ele>2381</ele>
        <time>2017-12-29T12:51:51Z</time>
      </trkpt>
      <trkpt lat="45.98189" lon="6.57598">
        <ele>2381</ele>
        <time>2017-12-29T12:51:52Z</time>
      </trkpt>
      <trkpt lat="45.98192" lon="6.57597">
        <ele>2380</ele>
        <time>2017-12-29T12:51:53Z</time>
      </trkpt>
      <trkpt lat="45.98194" lon="6.57597">
        <ele>2379</ele>
        <time>2017-12-29T12:51:54Z</time>
      </trkpt>
      <trkpt lat="45.98196" lon="6.57596">
        <ele>2379</ele>
        <time>2017-12-29T12:51:55Z</time>
      </trkpt>
      <trkpt lat="45.98198" lon="6.57595">
        <ele>2379</ele>
        <time>2017-12-29T12:51:56Z</time>
      </trkpt>
      <trkpt lat="45.98199" lon="6.57594">
        <ele>2378</ele>
        <time>2017-12-29T12:51:57Z</time>
      </trkpt>
      <trkpt lat="45.98201" lon="6.57594">
        <ele>2378</ele>
        <time>2017-12-29T12:51:58Z</time>
      </trkpt>
      <trkpt lat="45.98202" lon="6.57594">
        <ele>2377</ele>
        <time>2017-12-29T12:51:59Z</time>
      </trkpt>
      <trkpt lat="45.98203" lon="6.57592">
        <ele>2377</ele>
        <time>2017-12-29T12:52:00Z</time>
      </trkpt>
      <trkpt lat="45.98204" lon="6.5759">
        <ele>2377</ele>
        <time>2017-12-29T12:52:03Z</time>
      </trkpt>
      <trkpt lat="45.98205" lon="6.57588">
        <ele>2377</ele>
        <time>2017-12-29T12:52:09Z</time>
      </trkpt>
      <trkpt lat="45.98207" lon="6.57587">
        <ele>2376</ele>
        <time>2017-12-29T12:52:12Z</time>
      </trkpt>
      <trkpt lat="45.9821" lon="6.57587">
        <ele>2375</ele>
        <time>2017-12-29T12:52:15Z</time>
      </trkpt>
      <trkpt lat="45.98212" lon="6.57586">
        <ele>2375</ele>
        <time>2017-12-29T12:52:16Z</time>
      </trkpt>
      <trkpt lat="45.98214" lon="6.57584">
        <ele>2375</ele>
        <time>2017-12-29T12:52:17Z</time>
      </trkpt>
      <trkpt lat="45.98215" lon="6.57581">
        <ele>2386</ele>
        <time>2017-12-29T12:52:20Z</time>
      </trkpt>
      <trkpt lat="45.98216" lon="6.57578">
        <ele>2386</ele>
        <time>2017-12-29T12:52:21Z</time>
      </trkpt>
      <trkpt lat="45.98217" lon="6.57574">
        <ele>2386</ele>
        <time>2017-12-29T12:52:22Z</time>
      </trkpt>
      <trkpt lat="45.98218" lon="6.5757">
        <ele>2386</ele>
        <time>2017-12-29T12:52:23Z</time>
      </trkpt>
      <trkpt lat="45.98218" lon="6.57566">
        <ele>2386</ele>
        <time>2017-12-29T12:52:24Z</time>
      </trkpt>
      <trkpt lat="45.98219" lon="6.57562">
        <ele>2386</ele>
        <time>2017-12-29T12:52:25Z</time>
      </trkpt>
      <trkpt lat="45.9822" lon="6.57559">
        <ele>2386</ele>
        <time>2017-12-29T12:52:26Z</time>
      </trkpt>
      <trkpt lat="45.98223" lon="6.57558">
        <ele>2386</ele>
        <time>2017-12-29T12:52:27Z</time>
      </trkpt>
      <trkpt lat="45.98227" lon="6.57556">
        <ele>2385</ele>
        <time>2017-12-29T12:52:28Z</time>
      </trkpt>
      <trkpt lat="45.9823" lon="6.57552">
        <ele>2385</ele>
        <time>2017-12-29T12:52:29Z</time>
      </trkpt>
      <trkpt lat="45.98233" lon="6.57548">
        <ele>2385</ele>
        <time>2017-12-29T12:52:30Z</time>
      </trkpt>
      <trkpt lat="45.98235" lon="6.57548">
        <ele>2385</ele>
        <time>2017-12-29T12:52:31Z</time>
      </trkpt>
      <trkpt lat="45.98238" lon="6.57548">
        <ele>2385</ele>
        <time>2017-12-29T12:52:32Z</time>
      </trkpt>
      <trkpt lat="45.98241" lon="6.57546">
        <ele>2384</ele>
        <time>2017-12-29T12:52:33Z</time>
      </trkpt>
      <trkpt lat="45.98244" lon="6.57544">
        <ele>2384</ele>
        <time>2017-12-29T12:52:34Z</time>
      </trkpt>
      <trkpt lat="45.98248" lon="6.57544">
        <ele>2384</ele>
        <time>2017-12-29T12:52:35Z</time>
      </trkpt>
      <trkpt lat="45.98252" lon="6.57543">
        <ele>2371</ele>
        <time>2017-12-29T12:52:36Z</time>
      </trkpt>
      <trkpt lat="45.98256" lon="6.57541">
        <ele>2371</ele>
        <time>2017-12-29T12:52:37Z</time>
      </trkpt>
      <trkpt lat="45.9826" lon="6.57539">
        <ele>2371</ele>
        <time>2017-12-29T12:52:38Z</time>
      </trkpt>
      <trkpt lat="45.98265" lon="6.57538">
        <ele>2371</ele>
        <time>2017-12-29T12:52:39Z</time>
      </trkpt>
      <trkpt lat="45.98272" lon="6.57539">
        <ele>2370</ele>
        <time>2017-12-29T12:52:41Z</time>
      </trkpt>
      <trkpt lat="45.98275" lon="6.57539">
        <ele>2370</ele>
        <time>2017-12-29T12:52:42Z</time>
      </trkpt>
      <trkpt lat="45.98279" lon="6.57538">
        <ele>2370</ele>
        <time>2017-12-29T12:52:43Z</time>
      </trkpt>
      <trkpt lat="45.98282" lon="6.57539">
        <ele>2369</ele>
        <time>2017-12-29T12:52:44Z</time>
      </trkpt>
      <trkpt lat="45.98284" lon="6.57538">
        <ele>2369</ele>
        <time>2017-12-29T12:52:45Z</time>
      </trkpt>
      <trkpt lat="45.98286" lon="6.57536">
        <ele>2369</ele>
        <time>2017-12-29T12:52:46Z</time>
      </trkpt>
      <trkpt lat="45.98288" lon="6.57535">
        <ele>2369</ele>
        <time>2017-12-29T12:52:47Z</time>
      </trkpt>
      <trkpt lat="45.9829" lon="6.57535">
        <ele>2369</ele>
        <time>2017-12-29T12:52:48Z</time>
      </trkpt>
      <trkpt lat="45.98292" lon="6.57534">
        <ele>2369</ele>
        <time>2017-12-29T12:52:49Z</time>
      </trkpt>
      <trkpt lat="45.98292" lon="6.57532">
        <ele>2369</ele>
        <time>2017-12-29T12:52:50Z</time>
      </trkpt>
      <trkpt lat="45.98293" lon="6.57531">
        <ele>2369</ele>
        <time>2017-12-29T12:52:51Z</time>
      </trkpt>
      <trkpt lat="45.98293" lon="6.5753">
        <ele>2369</ele>
        <time>2017-12-29T12:52:52Z</time>
      </trkpt>
      <trkpt lat="45.98294" lon="6.57521">
        <ele>2370</ele>
        <time>2017-12-29T12:52:56Z</time>
      </trkpt>
      <trkpt lat="45.98294" lon="6.57521">
        <ele>2370</ele>
        <time>2017-12-29T12:52:58Z</time>
      </trkpt>
      <trkpt lat="45.98295" lon="6.57521">
        <ele>2370</ele>
        <time>2017-12-29T12:53:01Z</time>
      </trkpt>
      <trkpt lat="45.98296" lon="6.57521">
        <ele>2370</ele>
        <time>2017-12-29T12:53:02Z</time>
      </trkpt>
      <trkpt lat="45.98299" lon="6.57524">
        <ele>2370</ele>
        <time>2017-12-29T12:53:06Z</time>
      </trkpt>
      <trkpt lat="45.983" lon="6.57524">
        <ele>2369</ele>
        <time>2017-12-29T12:53:08Z</time>
      </trkpt>
      <trkpt lat="45.98301" lon="6.57523">
        <ele>2369</ele>
        <time>2017-12-29T12:53:10Z</time>
      </trkpt>
      <trkpt lat="45.98302" lon="6.57523">
        <ele>2369</ele>
        <time>2017-12-29T12:53:15Z</time>
      </trkpt>
      <trkpt lat="45.98303" lon="6.57522">
        <ele>2369</ele>
        <time>2017-12-29T12:53:16Z</time>
      </trkpt>
      <trkpt lat="45.98303" lon="6.57521">
        <ele>2370</ele>
        <time>2017-12-29T12:53:19Z</time>
      </trkpt>
      <trkpt lat="45.98306" lon="6.5752">
        <ele>2370</ele>
        <time>2017-12-29T12:53:28Z</time>
      </trkpt>
      <trkpt lat="45.98307" lon="6.5752">
        <ele>2369</ele>
        <time>2017-12-29T12:53:29Z</time>
      </trkpt>
      <trkpt lat="45.98308" lon="6.57521">
        <ele>2369</ele>
        <time>2017-12-29T12:53:30Z</time>
      </trkpt>
      <trkpt lat="45.98309" lon="6.57522">
        <ele>2369</ele>
        <time>2017-12-29T12:53:31Z</time>
      </trkpt>
      <trkpt lat="45.9831" lon="6.57523">
        <ele>2369</ele>
        <time>2017-12-29T12:53:32Z</time>
      </trkpt>
      <trkpt lat="45.98312" lon="6.57524">
        <ele>2369</ele>
        <time>2017-12-29T12:53:33Z</time>
      </trkpt>
      <trkpt lat="45.98314" lon="6.57525">
        <ele>2369</ele>
        <time>2017-12-29T12:53:34Z</time>
      </trkpt>
      <trkpt lat="45.98316" lon="6.57524">
        <ele>2369</ele>
        <time>2017-12-29T12:53:35Z</time>
      </trkpt>
      <trkpt lat="45.98319" lon="6.57522">
        <ele>2369</ele>
        <time>2017-12-29T12:53:36Z</time>
      </trkpt>
      <trkpt lat="45.98322" lon="6.57519">
        <ele>2369</ele>
        <time>2017-12-29T12:53:37Z</time>
      </trkpt>
      <trkpt lat="45.98324" lon="6.57514">
        <ele>2370</ele>
        <time>2017-12-29T12:53:38Z</time>
      </trkpt>
      <trkpt lat="45.98326" lon="6.57508">
        <ele>2371</ele>
        <time>2017-12-29T12:53:39Z</time>
      </trkpt>
      <trkpt lat="45.98327" lon="6.57502">
        <ele>2372</ele>
        <time>2017-12-29T12:53:40Z</time>
      </trkpt>
      <trkpt lat="45.98328" lon="6.57496">
        <ele>2372</ele>
        <time>2017-12-29T12:53:41Z</time>
      </trkpt>
      <trkpt lat="45.98333" lon="6.57479">
        <ele>2370</ele>
        <time>2017-12-29T12:53:45Z</time>
      </trkpt>
      <trkpt lat="45.98343" lon="6.57441">
        <ele>2355</ele>
        <time>2017-12-29T12:53:58Z</time>
      </trkpt>
      <trkpt lat="45.98344" lon="6.57427">
        <ele>2357</ele>
        <time>2017-12-29T12:54:03Z</time>
      </trkpt>
      <trkpt lat="45.98343" lon="6.57409">
        <ele>2354</ele>
        <time>2017-12-29T12:54:09Z</time>
      </trkpt>
      <trkpt lat="45.98327" lon="6.57371">
        <ele>2346</ele>
        <time>2017-12-29T12:54:22Z</time>
      </trkpt>
      <trkpt lat="45.98327" lon="6.57367">
        <ele>2345</ele>
        <time>2017-12-29T12:54:23Z</time>
      </trkpt>
      <trkpt lat="45.98328" lon="6.57362">
        <ele>2345</ele>
        <time>2017-12-29T12:54:24Z</time>
      </trkpt>
      <trkpt lat="45.98327" lon="6.57357">
        <ele>2344</ele>
        <time>2017-12-29T12:54:25Z</time>
      </trkpt>
      <trkpt lat="45.98327" lon="6.57353">
        <ele>2343</ele>
        <time>2017-12-29T12:54:26Z</time>
      </trkpt>
      <trkpt lat="45.98328" lon="6.57349">
        <ele>2343</ele>
        <time>2017-12-29T12:54:27Z</time>
      </trkpt>
      <trkpt lat="45.98328" lon="6.57343">
        <ele>2342</ele>
        <time>2017-12-29T12:54:28Z</time>
      </trkpt>
      <trkpt lat="45.98328" lon="6.57338">
        <ele>2342</ele>
        <time>2017-12-29T12:54:29Z</time>
      </trkpt>
      <trkpt lat="45.98331" lon="6.57335">
        <ele>2341</ele>
        <time>2017-12-29T12:54:30Z</time>
      </trkpt>
      <trkpt lat="45.98333" lon="6.57333">
        <ele>2340</ele>
        <time>2017-12-29T12:54:31Z</time>
      </trkpt>
      <trkpt lat="45.98334" lon="6.57329">
        <ele>2338</ele>
        <time>2017-12-29T12:54:32Z</time>
      </trkpt>
      <trkpt lat="45.98335" lon="6.57324">
        <ele>2335</ele>
        <time>2017-12-29T12:54:33Z</time>
      </trkpt>
      <trkpt lat="45.98337" lon="6.57321">
        <ele>2334</ele>
        <time>2017-12-29T12:54:34Z</time>
      </trkpt>
      <trkpt lat="45.98339" lon="6.5732">
        <ele>2333</ele>
        <time>2017-12-29T12:54:35Z</time>
      </trkpt>
      <trkpt lat="45.98341" lon="6.57318">
        <ele>2332</ele>
        <time>2017-12-29T12:54:36Z</time>
      </trkpt>
      <trkpt lat="45.98341" lon="6.57314">
        <ele>2331</ele>
        <time>2017-12-29T12:54:37Z</time>
      </trkpt>
      <trkpt lat="45.98341" lon="6.57309">
        <ele>2329</ele>
        <time>2017-12-29T12:54:38Z</time>
      </trkpt>
      <trkpt lat="45.98343" lon="6.57305">
        <ele>2328</ele>
        <time>2017-12-29T12:54:39Z</time>
      </trkpt>
      <trkpt lat="45.98345" lon="6.57301">
        <ele>2327</ele>
        <time>2017-12-29T12:54:40Z</time>
      </trkpt>
      <trkpt lat="45.98346" lon="6.57297">
        <ele>2326</ele>
        <time>2017-12-29T12:54:41Z</time>
      </trkpt>
      <trkpt lat="45.98347" lon="6.57292">
        <ele>2325</ele>
        <time>2017-12-29T12:54:42Z</time>
      </trkpt>
      <trkpt lat="45.98347" lon="6.57287">
        <ele>2324</ele>
        <time>2017-12-29T12:54:43Z</time>
      </trkpt>
      <trkpt lat="45.9835" lon="6.57284">
        <ele>2323</ele>
        <time>2017-12-29T12:54:44Z</time>
      </trkpt>
      <trkpt lat="45.98353" lon="6.57283">
        <ele>2323</ele>
        <time>2017-12-29T12:54:45Z</time>
      </trkpt>
      <trkpt lat="45.98355" lon="6.5728">
        <ele>2323</ele>
        <time>2017-12-29T12:54:46Z</time>
      </trkpt>
      <trkpt lat="45.98356" lon="6.57275">
        <ele>2322</ele>
        <time>2017-12-29T12:54:47Z</time>
      </trkpt>
      <trkpt lat="45.98358" lon="6.57269">
        <ele>2321</ele>
        <time>2017-12-29T12:54:48Z</time>
      </trkpt>
      <trkpt lat="45.98362" lon="6.57265">
        <ele>2321</ele>
        <time>2017-12-29T12:54:49Z</time>
      </trkpt>
      <trkpt lat="45.98363" lon="6.5726">
        <ele>2320</ele>
        <time>2017-12-29T12:54:50Z</time>
      </trkpt>
      <trkpt lat="45.98363" lon="6.57255">
        <ele>2320</ele>
        <time>2017-12-29T12:54:51Z</time>
      </trkpt>
      <trkpt lat="45.98364" lon="6.57249">
        <ele>2306</ele>
        <time>2017-12-29T12:54:52Z</time>
      </trkpt>
      <trkpt lat="45.98367" lon="6.57244">
        <ele>2305</ele>
        <time>2017-12-29T12:54:53Z</time>
      </trkpt>
      <trkpt lat="45.98367" lon="6.57238">
        <ele>2305</ele>
        <time>2017-12-29T12:54:54Z</time>
      </trkpt>
      <trkpt lat="45.98368" lon="6.57232">
        <ele>2304</ele>
        <time>2017-12-29T12:54:55Z</time>
      </trkpt>
      <trkpt lat="45.9837" lon="6.57227">
        <ele>2303</ele>
        <time>2017-12-29T12:54:56Z</time>
      </trkpt>
      <trkpt lat="45.98373" lon="6.57223">
        <ele>2302</ele>
        <time>2017-12-29T12:54:57Z</time>
      </trkpt>
      <trkpt lat="45.98374" lon="6.57217">
        <ele>2301</ele>
        <time>2017-12-29T12:54:58Z</time>
      </trkpt>
      <trkpt lat="45.98374" lon="6.57211">
        <ele>2300</ele>
        <time>2017-12-29T12:54:59Z</time>
      </trkpt>
      <trkpt lat="45.98377" lon="6.57207">
        <ele>2299</ele>
        <time>2017-12-29T12:55:00Z</time>
      </trkpt>
      <trkpt lat="45.98381" lon="6.57204">
        <ele>2299</ele>
        <time>2017-12-29T12:55:01Z</time>
      </trkpt>
      <trkpt lat="45.98385" lon="6.572">
        <ele>2298</ele>
        <time>2017-12-29T12:55:02Z</time>
      </trkpt>
      <trkpt lat="45.9839" lon="6.57196">
        <ele>2298</ele>
        <time>2017-12-29T12:55:03Z</time>
      </trkpt>
      <trkpt lat="45.98395" lon="6.5719">
        <ele>2297</ele>
        <time>2017-12-29T12:55:04Z</time>
      </trkpt>
      <trkpt lat="45.98397" lon="6.57183">
        <ele>2295</ele>
        <time>2017-12-29T12:55:05Z</time>
      </trkpt>
      <trkpt lat="45.984" lon="6.57175">
        <ele>2294</ele>
        <time>2017-12-29T12:55:06Z</time>
      </trkpt>
      <trkpt lat="45.98403" lon="6.57166">
        <ele>2283</ele>
        <time>2017-12-29T12:55:07Z</time>
      </trkpt>
      <trkpt lat="45.98406" lon="6.57158">
        <ele>2282</ele>
        <time>2017-12-29T12:55:08Z</time>
      </trkpt>
      <trkpt lat="45.98409" lon="6.57151">
        <ele>2281</ele>
        <time>2017-12-29T12:55:09Z</time>
      </trkpt>
      <trkpt lat="45.98413" lon="6.57147">
        <ele>2280</ele>
        <time>2017-12-29T12:55:10Z</time>
      </trkpt>
      <trkpt lat="45.98417" lon="6.57143">
        <ele>2281</ele>
        <time>2017-12-29T12:55:11Z</time>
      </trkpt>
      <trkpt lat="45.98422" lon="6.57139">
        <ele>2280</ele>
        <time>2017-12-29T12:55:12Z</time>
      </trkpt>
      <trkpt lat="45.98426" lon="6.57136">
        <ele>2279</ele>
        <time>2017-12-29T12:55:13Z</time>
      </trkpt>
      <trkpt lat="45.98429" lon="6.57132">
        <ele>2278</ele>
        <time>2017-12-29T12:55:14Z</time>
      </trkpt>
      <trkpt lat="45.98436" lon="6.57123">
        <ele>2277</ele>
        <time>2017-12-29T12:55:16Z</time>
      </trkpt>
      <trkpt lat="45.98447" lon="6.57105">
        <ele>2274</ele>
        <time>2017-12-29T12:55:19Z</time>
      </trkpt>
      <trkpt lat="45.98459" lon="6.57083">
        <ele>2264</ele>
        <time>2017-12-29T12:55:23Z</time>
      </trkpt>
      <trkpt lat="45.98461" lon="6.57079">
        <ele>2265</ele>
        <time>2017-12-29T12:55:24Z</time>
      </trkpt>
      <trkpt lat="45.98482" lon="6.57045">
        <ele>2264</ele>
        <time>2017-12-29T12:55:39Z</time>
      </trkpt>
      <trkpt lat="45.98504" lon="6.57032">
        <ele>2266</ele>
        <time>2017-12-29T12:56:04Z</time>
      </trkpt>
      <trkpt lat="45.98519" lon="6.57028">
        <ele>2266</ele>
        <time>2017-12-29T12:56:21Z</time>
      </trkpt>
      <trkpt lat="45.98521" lon="6.57027">
        <ele>2265</ele>
        <time>2017-12-29T12:56:24Z</time>
      </trkpt>
      <trkpt lat="45.98522" lon="6.57026">
        <ele>2265</ele>
        <time>2017-12-29T12:56:26Z</time>
      </trkpt>
      <trkpt lat="45.98523" lon="6.57026">
        <ele>2265</ele>
        <time>2017-12-29T12:56:27Z</time>
      </trkpt>
      <trkpt lat="45.98543" lon="6.57017">
        <ele>2264</ele>
        <time>2017-12-29T12:56:48Z</time>
      </trkpt>
      <trkpt lat="45.98548" lon="6.57016">
        <ele>2264</ele>
        <time>2017-12-29T12:56:52Z</time>
      </trkpt>
      <trkpt lat="45.98549" lon="6.57015">
        <ele>2264</ele>
        <time>2017-12-29T12:56:53Z</time>
      </trkpt>
      <trkpt lat="45.98568" lon="6.57008">
        <ele>2264</ele>
        <time>2017-12-29T12:57:04Z</time>
      </trkpt>
      <trkpt lat="45.98585" lon="6.57007">
        <ele>2259</ele>
        <time>2017-12-29T12:57:09Z</time>
      </trkpt>
      <trkpt lat="45.98597" lon="6.57005">
        <ele>2255</ele>
        <time>2017-12-29T12:57:13Z</time>
      </trkpt>
      <trkpt lat="45.98607" lon="6.57003">
        <ele>2251</ele>
        <time>2017-12-29T12:57:16Z</time>
      </trkpt>
      <trkpt lat="45.98624" lon="6.57002">
        <ele>2245</ele>
        <time>2017-12-29T12:57:21Z</time>
      </trkpt>
      <trkpt lat="45.98638" lon="6.56996">
        <ele>2252</ele>
        <time>2017-12-29T12:57:27Z</time>
      </trkpt>
      <trkpt lat="45.98647" lon="6.56989">
        <ele>2249</ele>
        <time>2017-12-29T12:57:31Z</time>
      </trkpt>
      <trkpt lat="45.98662" lon="6.56979">
        <ele>2248</ele>
        <time>2017-12-29T12:57:36Z</time>
      </trkpt>
      <trkpt lat="45.9868" lon="6.56969">
        <ele>2235</ele>
        <time>2017-12-29T12:57:41Z</time>
      </trkpt>
      <trkpt lat="45.98689" lon="6.56966">
        <ele>2235</ele>
        <time>2017-12-29T12:57:44Z</time>
      </trkpt>
      <trkpt lat="45.98697" lon="6.56965">
        <ele>2234</ele>
        <time>2017-12-29T12:57:48Z</time>
      </trkpt>
      <trkpt lat="45.98711" lon="6.56968">
        <ele>2231</ele>
        <time>2017-12-29T12:57:57Z</time>
      </trkpt>
      <trkpt lat="45.9872" lon="6.5697">
        <ele>2230</ele>
        <time>2017-12-29T12:58:03Z</time>
      </trkpt>
      <trkpt lat="45.98724" lon="6.5697">
        <ele>2229</ele>
        <time>2017-12-29T12:58:06Z</time>
      </trkpt>
      <trkpt lat="45.98728" lon="6.56971">
        <ele>2228</ele>
        <time>2017-12-29T12:58:09Z</time>
      </trkpt>
      <trkpt lat="45.98729" lon="6.56971">
        <ele>2228</ele>
        <time>2017-12-29T12:58:10Z</time>
      </trkpt>
      <trkpt lat="45.98734" lon="6.56971">
        <ele>2227</ele>
        <time>2017-12-29T12:58:21Z</time>
      </trkpt>
      <trkpt lat="45.98736" lon="6.56971">
        <ele>2227</ele>
        <time>2017-12-29T12:58:25Z</time>
      </trkpt>
      <trkpt lat="45.98761" lon="6.56967">
        <ele>2214</ele>
        <time>2017-12-29T12:58:36Z</time>
      </trkpt>
      <trkpt lat="45.98775" lon="6.56961">
        <ele>2214</ele>
        <time>2017-12-29T12:58:40Z</time>
      </trkpt>
      <trkpt lat="45.98778" lon="6.56964">
        <ele>2213</ele>
        <time>2017-12-29T12:58:41Z</time>
      </trkpt>
      <trkpt lat="45.98782" lon="6.56964">
        <ele>2213</ele>
        <time>2017-12-29T12:58:42Z</time>
      </trkpt>
      <trkpt lat="45.98786" lon="6.56964">
        <ele>2213</ele>
        <time>2017-12-29T12:58:43Z</time>
      </trkpt>
      <trkpt lat="45.9879" lon="6.56965">
        <ele>2212</ele>
        <time>2017-12-29T12:58:44Z</time>
      </trkpt>
      <trkpt lat="45.98794" lon="6.56966">
        <ele>2212</ele>
        <time>2017-12-29T12:58:45Z</time>
      </trkpt>
      <trkpt lat="45.98798" lon="6.56967">
        <ele>2212</ele>
        <time>2017-12-29T12:58:46Z</time>
      </trkpt>
      <trkpt lat="45.98802" lon="6.5697">
        <ele>2212</ele>
        <time>2017-12-29T12:58:47Z</time>
      </trkpt>
      <trkpt lat="45.98806" lon="6.56971">
        <ele>2211</ele>
        <time>2017-12-29T12:58:48Z</time>
      </trkpt>
      <trkpt lat="45.98809" lon="6.56971">
        <ele>2211</ele>
        <time>2017-12-29T12:58:49Z</time>
      </trkpt>
      <trkpt lat="45.98813" lon="6.56971">
        <ele>2211</ele>
        <time>2017-12-29T12:58:50Z</time>
      </trkpt>
      <trkpt lat="45.98816" lon="6.56973">
        <ele>2211</ele>
        <time>2017-12-29T12:58:51Z</time>
      </trkpt>
      <trkpt lat="45.98819" lon="6.56975">
        <ele>2211</ele>
        <time>2017-12-29T12:58:52Z</time>
      </trkpt>
      <trkpt lat="45.98823" lon="6.56974">
        <ele>2211</ele>
        <time>2017-12-29T12:58:54Z</time>
      </trkpt>
      <trkpt lat="45.98825" lon="6.56971">
        <ele>2210</ele>
        <time>2017-12-29T12:58:55Z</time>
      </trkpt>
      <trkpt lat="45.98827" lon="6.56967">
        <ele>2210</ele>
        <time>2017-12-29T12:58:56Z</time>
      </trkpt>
      <trkpt lat="45.98831" lon="6.56963">
        <ele>2210</ele>
        <time>2017-12-29T12:58:57Z</time>
      </trkpt>
      <trkpt lat="45.98835" lon="6.56962">
        <ele>2204</ele>
        <time>2017-12-29T12:58:58Z</time>
      </trkpt>
      <trkpt lat="45.98839" lon="6.56962">
        <ele>2203</ele>
        <time>2017-12-29T12:58:59Z</time>
      </trkpt>
      <trkpt lat="45.98843" lon="6.56961">
        <ele>2203</ele>
        <time>2017-12-29T12:59:00Z</time>
      </trkpt>
      <trkpt lat="45.98848" lon="6.5696">
        <ele>2203</ele>
        <time>2017-12-29T12:59:01Z</time>
      </trkpt>
      <trkpt lat="45.9885" lon="6.56956">
        <ele>2203</ele>
        <time>2017-12-29T12:59:02Z</time>
      </trkpt>
      <trkpt lat="45.98854" lon="6.56947">
        <ele>2202</ele>
        <time>2017-12-29T12:59:04Z</time>
      </trkpt>
      <trkpt lat="45.98858" lon="6.56944">
        <ele>2201</ele>
        <time>2017-12-29T12:59:05Z</time>
      </trkpt>
      <trkpt lat="45.98863" lon="6.56944">
        <ele>2201</ele>
        <time>2017-12-29T12:59:06Z</time>
      </trkpt>
      <trkpt lat="45.98873" lon="6.56944">
        <ele>2201</ele>
        <time>2017-12-29T12:59:08Z</time>
      </trkpt>
      <trkpt lat="45.98904" lon="6.56942">
        <ele>2198</ele>
        <time>2017-12-29T12:59:14Z</time>
      </trkpt>
      <trkpt lat="45.98939" lon="6.56937">
        <ele>2191</ele>
        <time>2017-12-29T12:59:26Z</time>
      </trkpt>
      <trkpt lat="45.98965" lon="6.56946">
        <ele>2190</ele>
        <time>2017-12-29T12:59:33Z</time>
      </trkpt>
      <trkpt lat="45.98984" lon="6.56953">
        <ele>2190</ele>
        <time>2017-12-29T12:59:37Z</time>
      </trkpt>
      <trkpt lat="45.99007" lon="6.56963">
        <ele>2178</ele>
        <time>2017-12-29T12:59:41Z</time>
      </trkpt>
      <trkpt lat="45.99012" lon="6.56965">
        <ele>2178</ele>
        <time>2017-12-29T12:59:42Z</time>
      </trkpt>
      <trkpt lat="45.99017" lon="6.56967">
        <ele>2178</ele>
        <time>2017-12-29T12:59:43Z</time>
      </trkpt>
      <trkpt lat="45.99023" lon="6.5697">
        <ele>2177</ele>
        <time>2017-12-29T12:59:44Z</time>
      </trkpt>
      <trkpt lat="45.99046" lon="6.56986">
        <ele>2175</ele>
        <time>2017-12-29T12:59:49Z</time>
      </trkpt>
      <trkpt lat="45.99072" lon="6.57">
        <ele>2179</ele>
        <time>2017-12-29T12:59:55Z</time>
      </trkpt>
      <trkpt lat="45.99088" lon="6.5701">
        <ele>2170</ele>
        <time>2017-12-29T12:59:59Z</time>
      </trkpt>
      <trkpt lat="45.99091" lon="6.57013">
        <ele>2169</ele>
        <time>2017-12-29T13:00:00Z</time>
      </trkpt>
      <trkpt lat="45.99113" lon="6.57034">
        <ele>2165</ele>
        <time>2017-12-29T13:00:08Z</time>
      </trkpt>
      <trkpt lat="45.99128" lon="6.57048">
        <ele>2162</ele>
        <time>2017-12-29T13:00:13Z</time>
      </trkpt>
      <trkpt lat="45.99134" lon="6.57056">
        <ele>2160</ele>
        <time>2017-12-29T13:00:17Z</time>
      </trkpt>
      <trkpt lat="45.99134" lon="6.57056">
        <ele>2161</ele>
        <time>2017-12-29T13:00:28Z</time>
      </trkpt>
      <trkpt lat="45.99135" lon="6.57058">
        <ele>2160</ele>
        <time>2017-12-29T13:00:31Z</time>
      </trkpt>
      <trkpt lat="45.99136" lon="6.57059">
        <ele>2160</ele>
        <time>2017-12-29T13:00:32Z</time>
      </trkpt>
      <trkpt lat="45.99138" lon="6.5706">
        <ele>2159</ele>
        <time>2017-12-29T13:00:33Z</time>
      </trkpt>
      <trkpt lat="45.99141" lon="6.57058">
        <ele>2158</ele>
        <time>2017-12-29T13:00:34Z</time>
      </trkpt>
      <trkpt lat="45.99144" lon="6.57055">
        <ele>2158</ele>
        <time>2017-12-29T13:00:35Z</time>
      </trkpt>
      <trkpt lat="45.99146" lon="6.57055">
        <ele>2157</ele>
        <time>2017-12-29T13:00:36Z</time>
      </trkpt>
      <trkpt lat="45.99149" lon="6.57056">
        <ele>2156</ele>
        <time>2017-12-29T13:00:37Z</time>
      </trkpt>
      <trkpt lat="45.9915" lon="6.57054">
        <ele>2156</ele>
        <time>2017-12-29T13:00:38Z</time>
      </trkpt>
      <trkpt lat="45.99151" lon="6.57051">
        <ele>2156</ele>
        <time>2017-12-29T13:00:39Z</time>
      </trkpt>
      <trkpt lat="45.99153" lon="6.57048">
        <ele>2156</ele>
        <time>2017-12-29T13:00:40Z</time>
      </trkpt>
      <trkpt lat="45.99155" lon="6.57048">
        <ele>2156</ele>
        <time>2017-12-29T13:00:41Z</time>
      </trkpt>
      <trkpt lat="45.99157" lon="6.57048">
        <ele>2155</ele>
        <time>2017-12-29T13:00:42Z</time>
      </trkpt>
      <trkpt lat="45.99158" lon="6.57046">
        <ele>2155</ele>
        <time>2017-12-29T13:00:43Z</time>
      </trkpt>
      <trkpt lat="45.99158" lon="6.57044">
        <ele>2155</ele>
        <time>2017-12-29T13:00:44Z</time>
      </trkpt>
      <trkpt lat="45.99157" lon="6.57041">
        <ele>2155</ele>
        <time>2017-12-29T13:00:45Z</time>
      </trkpt>
      <trkpt lat="45.99156" lon="6.57034">
        <ele>2155</ele>
        <time>2017-12-29T13:00:48Z</time>
      </trkpt>
      <trkpt lat="45.99156" lon="6.57028">
        <ele>2154</ele>
        <time>2017-12-29T13:00:50Z</time>
      </trkpt>
      <trkpt lat="45.99157" lon="6.57027">
        <ele>2154</ele>
        <time>2017-12-29T13:00:51Z</time>
      </trkpt>
      <trkpt lat="45.99159" lon="6.57027">
        <ele>2154</ele>
        <time>2017-12-29T13:00:52Z</time>
      </trkpt>
      <trkpt lat="45.99162" lon="6.57027">
        <ele>2153</ele>
        <time>2017-12-29T13:00:54Z</time>
      </trkpt>
      <trkpt lat="45.99162" lon="6.57025">
        <ele>2153</ele>
        <time>2017-12-29T13:00:55Z</time>
      </trkpt>
      <trkpt lat="45.99162" lon="6.57022">
        <ele>2152</ele>
        <time>2017-12-29T13:00:56Z</time>
      </trkpt>
      <trkpt lat="45.99161" lon="6.57019">
        <ele>2151</ele>
        <time>2017-12-29T13:00:57Z</time>
      </trkpt>
      <trkpt lat="45.9916" lon="6.57015">
        <ele>2150</ele>
        <time>2017-12-29T13:00:58Z</time>
      </trkpt>
      <trkpt lat="45.99159" lon="6.57011">
        <ele>2150</ele>
        <time>2017-12-29T13:00:59Z</time>
      </trkpt>
      <trkpt lat="45.99157" lon="6.57009">
        <ele>2149</ele>
        <time>2017-12-29T13:01:00Z</time>
      </trkpt>
      <trkpt lat="45.99155" lon="6.57005">
        <ele>2149</ele>
        <time>2017-12-29T13:01:02Z</time>
      </trkpt>
      <trkpt lat="45.99155" lon="6.57002">
        <ele>2149</ele>
        <time>2017-12-29T13:01:11Z</time>
      </trkpt>
      <trkpt lat="45.99155" lon="6.57">
        <ele>2143</ele>
        <time>2017-12-29T13:01:12Z</time>
      </trkpt>
      <trkpt lat="45.99155" lon="6.56992">
        <ele>2143</ele>
        <time>2017-12-29T13:01:14Z</time>
      </trkpt>
      <trkpt lat="45.99157" lon="6.56991">
        <ele>2143</ele>
        <time>2017-12-29T13:01:15Z</time>
      </trkpt>
      <trkpt lat="45.99159" lon="6.56989">
        <ele>2142</ele>
        <time>2017-12-29T13:01:16Z</time>
      </trkpt>
      <trkpt lat="45.99161" lon="6.56985">
        <ele>2142</ele>
        <time>2017-12-29T13:01:17Z</time>
      </trkpt>
      <trkpt lat="45.99164" lon="6.56981">
        <ele>2142</ele>
        <time>2017-12-29T13:01:18Z</time>
      </trkpt>
      <trkpt lat="45.99167" lon="6.5698">
        <ele>2126</ele>
        <time>2017-12-29T13:01:19Z</time>
      </trkpt>
      <trkpt lat="45.99171" lon="6.5698">
        <ele>2126</ele>
        <time>2017-12-29T13:01:20Z</time>
      </trkpt>
      <trkpt lat="45.99173" lon="6.56979">
        <ele>2125</ele>
        <time>2017-12-29T13:01:21Z</time>
      </trkpt>
      <trkpt lat="45.99174" lon="6.56975">
        <ele>2123</ele>
        <time>2017-12-29T13:01:22Z</time>
      </trkpt>
      <trkpt lat="45.99177" lon="6.56972">
        <ele>2122</ele>
        <time>2017-12-29T13:01:23Z</time>
      </trkpt>
      <trkpt lat="45.99181" lon="6.5697">
        <ele>2120</ele>
        <time>2017-12-29T13:01:24Z</time>
      </trkpt>
      <trkpt lat="45.99184" lon="6.56965">
        <ele>2119</ele>
        <time>2017-12-29T13:01:25Z</time>
      </trkpt>
      <trkpt lat="45.99189" lon="6.56963">
        <ele>2118</ele>
        <time>2017-12-29T13:01:26Z</time>
      </trkpt>
      <trkpt lat="45.99194" lon="6.56965">
        <ele>2117</ele>
        <time>2017-12-29T13:01:27Z</time>
      </trkpt>
      <trkpt lat="45.99198" lon="6.56969">
        <ele>2117</ele>
        <time>2017-12-29T13:01:28Z</time>
      </trkpt>
      <trkpt lat="45.9921" lon="6.56977">
        <ele>2115</ele>
        <time>2017-12-29T13:01:31Z</time>
      </trkpt>
      <trkpt lat="45.99214" lon="6.56975">
        <ele>2114</ele>
        <time>2017-12-29T13:01:32Z</time>
      </trkpt>
      <trkpt lat="45.99218" lon="6.56974">
        <ele>2113</ele>
        <time>2017-12-29T13:01:33Z</time>
      </trkpt>
      <trkpt lat="45.99223" lon="6.56976">
        <ele>2112</ele>
        <time>2017-12-29T13:01:34Z</time>
      </trkpt>
      <trkpt lat="45.99227" lon="6.56978">
        <ele>2111</ele>
        <time>2017-12-29T13:01:35Z</time>
      </trkpt>
      <trkpt lat="45.99231" lon="6.56982">
        <ele>2110</ele>
        <time>2017-12-29T13:01:36Z</time>
      </trkpt>
      <trkpt lat="45.99243" lon="6.56992">
        <ele>2107</ele>
        <time>2017-12-29T13:01:39Z</time>
      </trkpt>
      <trkpt lat="45.99246" lon="6.56996">
        <ele>2106</ele>
        <time>2017-12-29T13:01:40Z</time>
      </trkpt>
      <trkpt lat="45.99249" lon="6.56998">
        <ele>2105</ele>
        <time>2017-12-29T13:01:41Z</time>
      </trkpt>
      <trkpt lat="45.99252" lon="6.56997">
        <ele>2101</ele>
        <time>2017-12-29T13:01:42Z</time>
      </trkpt>
      <trkpt lat="45.99256" lon="6.56994">
        <ele>2099</ele>
        <time>2017-12-29T13:01:43Z</time>
      </trkpt>
      <trkpt lat="45.99264" lon="6.56989">
        <ele>2094</ele>
        <time>2017-12-29T13:01:45Z</time>
      </trkpt>
      <trkpt lat="45.99268" lon="6.56989">
        <ele>2093</ele>
        <time>2017-12-29T13:01:46Z</time>
      </trkpt>
      <trkpt lat="45.99272" lon="6.56987">
        <ele>2092</ele>
        <time>2017-12-29T13:01:47Z</time>
      </trkpt>
      <trkpt lat="45.99276" lon="6.56986">
        <ele>2091</ele>
        <time>2017-12-29T13:01:48Z</time>
      </trkpt>
      <trkpt lat="45.99279" lon="6.56986">
        <ele>2090</ele>
        <time>2017-12-29T13:01:49Z</time>
      </trkpt>
      <trkpt lat="45.99283" lon="6.56984">
        <ele>2089</ele>
        <time>2017-12-29T13:01:50Z</time>
      </trkpt>
      <trkpt lat="45.99286" lon="6.56978">
        <ele>2088</ele>
        <time>2017-12-29T13:01:51Z</time>
      </trkpt>
      <trkpt lat="45.99289" lon="6.56971">
        <ele>2087</ele>
        <time>2017-12-29T13:01:52Z</time>
      </trkpt>
      <trkpt lat="45.99293" lon="6.56965">
        <ele>2086</ele>
        <time>2017-12-29T13:01:53Z</time>
      </trkpt>
      <trkpt lat="45.99297" lon="6.56959">
        <ele>2086</ele>
        <time>2017-12-29T13:01:54Z</time>
      </trkpt>
      <trkpt lat="45.99302" lon="6.56954">
        <ele>2085</ele>
        <time>2017-12-29T13:01:55Z</time>
      </trkpt>
      <trkpt lat="45.99308" lon="6.56947">
        <ele>2084</ele>
        <time>2017-12-29T13:01:59Z</time>
      </trkpt>
      <trkpt lat="45.99309" lon="6.56946">
        <ele>2084</ele>
        <time>2017-12-29T13:02:02Z</time>
      </trkpt>
      <trkpt lat="45.9931" lon="6.56942">
        <ele>2084</ele>
        <time>2017-12-29T13:02:07Z</time>
      </trkpt>
      <trkpt lat="45.99311" lon="6.5694">
        <ele>2084</ele>
        <time>2017-12-29T13:02:09Z</time>
      </trkpt>
      <trkpt lat="45.99316" lon="6.56931">
        <ele>2083</ele>
        <time>2017-12-29T13:02:26Z</time>
      </trkpt>
      <trkpt lat="45.99318" lon="6.56929">
        <ele>2082</ele>
        <time>2017-12-29T13:02:32Z</time>
      </trkpt>
      <trkpt lat="45.99319" lon="6.56928">
        <ele>2082</ele>
        <time>2017-12-29T13:02:33Z</time>
      </trkpt>
      <trkpt lat="45.99322" lon="6.56926">
        <ele>2081</ele>
        <time>2017-12-29T13:02:34Z</time>
      </trkpt>
      <trkpt lat="45.99325" lon="6.56924">
        <ele>2081</ele>
        <time>2017-12-29T13:02:35Z</time>
      </trkpt>
      <trkpt lat="45.99329" lon="6.56923">
        <ele>2080</ele>
        <time>2017-12-29T13:02:36Z</time>
      </trkpt>
      <trkpt lat="45.99331" lon="6.56921">
        <ele>2079</ele>
        <time>2017-12-29T13:02:37Z</time>
      </trkpt>
      <trkpt lat="45.99334" lon="6.56918">
        <ele>2077</ele>
        <time>2017-12-29T13:02:38Z</time>
      </trkpt>
      <trkpt lat="45.99337" lon="6.56916">
        <ele>2077</ele>
        <time>2017-12-29T13:02:39Z</time>
      </trkpt>
      <trkpt lat="45.99348" lon="6.5691">
        <ele>2074</ele>
        <time>2017-12-29T13:02:43Z</time>
      </trkpt>
      <trkpt lat="45.99351" lon="6.56907">
        <ele>2074</ele>
        <time>2017-12-29T13:02:44Z</time>
      </trkpt>
      <trkpt lat="45.99356" lon="6.56904">
        <ele>2073</ele>
        <time>2017-12-29T13:02:45Z</time>
      </trkpt>
      <trkpt lat="45.99364" lon="6.56898">
        <ele>2072</ele>
        <time>2017-12-29T13:02:47Z</time>
      </trkpt>
      <trkpt lat="45.99369" lon="6.56895">
        <ele>2072</ele>
        <time>2017-12-29T13:02:48Z</time>
      </trkpt>
      <trkpt lat="45.99374" lon="6.56893">
        <ele>2071</ele>
        <time>2017-12-29T13:02:49Z</time>
      </trkpt>
      <trkpt lat="45.99379" lon="6.56893">
        <ele>2071</ele>
        <time>2017-12-29T13:02:50Z</time>
      </trkpt>
      <trkpt lat="45.99384" lon="6.56891">
        <ele>2070</ele>
        <time>2017-12-29T13:02:51Z</time>
      </trkpt>
      <trkpt lat="45.99389" lon="6.56888">
        <ele>2070</ele>
        <time>2017-12-29T13:02:52Z</time>
      </trkpt>
      <trkpt lat="45.99392" lon="6.56886">
        <ele>2070</ele>
        <time>2017-12-29T13:02:53Z</time>
      </trkpt>
      <trkpt lat="45.99393" lon="6.56884">
        <ele>2070</ele>
        <time>2017-12-29T13:02:54Z</time>
      </trkpt>
      <trkpt lat="45.99393" lon="6.56881">
        <ele>2071</ele>
        <time>2017-12-29T13:02:57Z</time>
      </trkpt>
      <trkpt lat="45.99394" lon="6.56879">
        <ele>2071</ele>
        <time>2017-12-29T13:03:00Z</time>
      </trkpt>
      <trkpt lat="45.99406" lon="6.56871">
        <ele>2072</ele>
        <time>2017-12-29T13:03:29Z</time>
      </trkpt>
      <trkpt lat="45.99411" lon="6.56862">
        <ele>2073</ele>
        <time>2017-12-29T13:03:50Z</time>
      </trkpt>
      <trkpt lat="45.99416" lon="6.56848">
        <ele>2076</ele>
        <time>2017-12-29T13:04:09Z</time>
      </trkpt>
      <trkpt lat="45.99418" lon="6.56844">
        <ele>2071</ele>
        <time>2017-12-29T13:04:12Z</time>
      </trkpt>
      <trkpt lat="45.99425" lon="6.56826">
        <ele>2075</ele>
        <time>2017-12-29T13:04:19Z</time>
      </trkpt>
      <trkpt lat="45.99436" lon="6.56805">
        <ele>2071</ele>
        <time>2017-12-29T13:04:27Z</time>
      </trkpt>
      <trkpt lat="45.99439" lon="6.56801">
        <ele>2070</ele>
        <time>2017-12-29T13:04:33Z</time>
      </trkpt>
      <trkpt lat="45.99441" lon="6.56799">
        <ele>2070</ele>
        <time>2017-12-29T13:04:36Z</time>
      </trkpt>
      <trkpt lat="45.99442" lon="6.56798">
        <ele>2070</ele>
        <time>2017-12-29T13:04:39Z</time>
      </trkpt>
      <trkpt lat="45.99446" lon="6.56794">
        <ele>2070</ele>
        <time>2017-12-29T13:04:45Z</time>
      </trkpt>
      <trkpt lat="45.99448" lon="6.56793">
        <ele>2070</ele>
        <time>2017-12-29T13:04:48Z</time>
      </trkpt>
      <trkpt lat="45.99449" lon="6.56792">
        <ele>2070</ele>
        <time>2017-12-29T13:04:50Z</time>
      </trkpt>
      <trkpt lat="45.9945" lon="6.5679">
        <ele>2069</ele>
        <time>2017-12-29T13:04:53Z</time>
      </trkpt>
      <trkpt lat="45.99451" lon="6.5679">
        <ele>2069</ele>
        <time>2017-12-29T13:04:54Z</time>
      </trkpt>
      <trkpt lat="45.99455" lon="6.56787">
        <ele>2069</ele>
        <time>2017-12-29T13:04:59Z</time>
      </trkpt>
      <trkpt lat="45.99457" lon="6.56786">
        <ele>2069</ele>
        <time>2017-12-29T13:05:02Z</time>
      </trkpt>
      <trkpt lat="45.99464" lon="6.56781">
        <ele>2069</ele>
        <time>2017-12-29T13:05:11Z</time>
      </trkpt>
      <trkpt lat="45.99465" lon="6.56781">
        <ele>2069</ele>
        <time>2017-12-29T13:05:12Z</time>
      </trkpt>
      <trkpt lat="45.99466" lon="6.5678">
        <ele>2069</ele>
        <time>2017-12-29T13:05:14Z</time>
      </trkpt>
      <trkpt lat="45.99467" lon="6.56779">
        <ele>2069</ele>
        <time>2017-12-29T13:05:15Z</time>
      </trkpt>
      <trkpt lat="45.995" lon="6.56748">
        <ele>2075</ele>
        <time>2017-12-29T13:05:44Z</time>
      </trkpt>
      <trkpt lat="45.9951" lon="6.56735">
        <ele>2073</ele>
        <time>2017-12-29T13:05:59Z</time>
      </trkpt>
      <trkpt lat="45.99517" lon="6.56726">
        <ele>2072</ele>
        <time>2017-12-29T13:06:15Z</time>
      </trkpt>
      <trkpt lat="45.99518" lon="6.56725">
        <ele>2072</ele>
        <time>2017-12-29T13:06:16Z</time>
      </trkpt>
      <trkpt lat="45.99518" lon="6.56724">
        <ele>2072</ele>
        <time>2017-12-29T13:06:17Z</time>
      </trkpt>
      <trkpt lat="45.99524" lon="6.56716">
        <ele>2071</ele>
        <time>2017-12-29T13:06:28Z</time>
      </trkpt>
      <trkpt lat="45.9953" lon="6.56708">
        <ele>2071</ele>
        <time>2017-12-29T13:06:40Z</time>
      </trkpt>
      <trkpt lat="45.99538" lon="6.56696">
        <ele>2072</ele>
        <time>2017-12-29T13:06:56Z</time>
      </trkpt>
      <trkpt lat="45.99539" lon="6.56692">
        <ele>2072</ele>
        <time>2017-12-29T13:06:59Z</time>
      </trkpt>
      <trkpt lat="45.99544" lon="6.56684">
        <ele>2072</ele>
        <time>2017-12-29T13:07:09Z</time>
      </trkpt>
      <trkpt lat="45.99545" lon="6.56683">
        <ele>2072</ele>
        <time>2017-12-29T13:07:10Z</time>
      </trkpt>
      <trkpt lat="45.99548" lon="6.56677">
        <ele>2073</ele>
        <time>2017-12-29T13:07:17Z</time>
      </trkpt>
      <trkpt lat="45.99559" lon="6.56666">
        <ele>2077</ele>
        <time>2017-12-29T13:07:36Z</time>
      </trkpt>
      <trkpt lat="45.99567" lon="6.56662">
        <ele>2077</ele>
        <time>2017-12-29T13:07:49Z</time>
      </trkpt>
      <trkpt lat="45.99573" lon="6.56656">
        <ele>2078</ele>
        <time>2017-12-29T13:07:59Z</time>
      </trkpt>
      <trkpt lat="45.99592" lon="6.56642">
        <ele>2073</ele>
        <time>2017-12-29T13:08:33Z</time>
      </trkpt>
      <trkpt lat="45.99593" lon="6.56642">
        <ele>2073</ele>
        <time>2017-12-29T13:08:34Z</time>
      </trkpt>
      <trkpt lat="45.99594" lon="6.56641">
        <ele>2073</ele>
        <time>2017-12-29T13:08:37Z</time>
      </trkpt>
      <trkpt lat="45.99595" lon="6.56641">
        <ele>2072</ele>
        <time>2017-12-29T13:08:38Z</time>
      </trkpt>
      <trkpt lat="45.99608" lon="6.56634">
        <ele>2070</ele>
        <time>2017-12-29T13:09:06Z</time>
      </trkpt>
      <trkpt lat="45.99609" lon="6.56633">
        <ele>2070</ele>
        <time>2017-12-29T13:09:07Z</time>
      </trkpt>
      <trkpt lat="45.99613" lon="6.56628">
        <ele>2070</ele>
        <time>2017-12-29T13:09:15Z</time>
      </trkpt>
      <trkpt lat="45.99615" lon="6.56627">
        <ele>2069</ele>
        <time>2017-12-29T13:09:18Z</time>
      </trkpt>
      <trkpt lat="45.99616" lon="6.56626">
        <ele>2069</ele>
        <time>2017-12-29T13:09:19Z</time>
      </trkpt>
      <trkpt lat="45.99617" lon="6.56625">
        <ele>2069</ele>
        <time>2017-12-29T13:09:21Z</time>
      </trkpt>
      <trkpt lat="45.99618" lon="6.56625">
        <ele>2069</ele>
        <time>2017-12-29T13:09:22Z</time>
      </trkpt>
      <trkpt lat="45.99621" lon="6.56623">
        <ele>2069</ele>
        <time>2017-12-29T13:09:28Z</time>
      </trkpt>
      <trkpt lat="45.99625" lon="6.56621">
        <ele>2068</ele>
        <time>2017-12-29T13:09:34Z</time>
      </trkpt>
      <trkpt lat="45.99626" lon="6.56619">
        <ele>2068</ele>
        <time>2017-12-29T13:09:37Z</time>
      </trkpt>
      <trkpt lat="45.99629" lon="6.56618">
        <ele>2068</ele>
        <time>2017-12-29T13:09:40Z</time>
      </trkpt>
      <trkpt lat="45.99633" lon="6.56616">
        <ele>2067</ele>
        <time>2017-12-29T13:09:46Z</time>
      </trkpt>
      <trkpt lat="45.99641" lon="6.56615">
        <ele>2066</ele>
        <time>2017-12-29T13:10:02Z</time>
      </trkpt>
      <trkpt lat="45.99642" lon="6.56615">
        <ele>2066</ele>
        <time>2017-12-29T13:10:03Z</time>
      </trkpt>
      <trkpt lat="45.99646" lon="6.56616">
        <ele>2065</ele>
        <time>2017-12-29T13:10:15Z</time>
      </trkpt>
      <trkpt lat="45.99647" lon="6.56617">
        <ele>2065</ele>
        <time>2017-12-29T13:10:16Z</time>
      </trkpt>
      <trkpt lat="45.99652" lon="6.56617">
        <ele>2065</ele>
        <time>2017-12-29T13:10:28Z</time>
      </trkpt>
      <trkpt lat="45.99652" lon="6.56617">
        <ele>2065</ele>
        <time>2017-12-29T13:10:30Z</time>
      </trkpt>
      <trkpt lat="45.99653" lon="6.56618">
        <ele>2064</ele>
        <time>2017-12-29T13:10:31Z</time>
      </trkpt>
      <trkpt lat="45.99655" lon="6.5662">
        <ele>2064</ele>
        <time>2017-12-29T13:10:32Z</time>
      </trkpt>
      <trkpt lat="45.99656" lon="6.56621">
        <ele>2064</ele>
        <time>2017-12-29T13:10:33Z</time>
      </trkpt>
      <trkpt lat="45.99657" lon="6.56622">
        <ele>2064</ele>
        <time>2017-12-29T13:10:34Z</time>
      </trkpt>
      <trkpt lat="45.99659" lon="6.56623">
        <ele>2064</ele>
        <time>2017-12-29T13:10:35Z</time>
      </trkpt>
      <trkpt lat="45.9966" lon="6.56623">
        <ele>2064</ele>
        <time>2017-12-29T13:10:36Z</time>
      </trkpt>
      <trkpt lat="45.99662" lon="6.56622">
        <ele>2063</ele>
        <time>2017-12-29T13:10:37Z</time>
      </trkpt>
      <trkpt lat="45.99665" lon="6.56624">
        <ele>2063</ele>
        <time>2017-12-29T13:10:38Z</time>
      </trkpt>
      <trkpt lat="45.99667" lon="6.56626">
        <ele>2047</ele>
        <time>2017-12-29T13:10:39Z</time>
      </trkpt>
      <trkpt lat="45.99671" lon="6.56627">
        <ele>2046</ele>
        <time>2017-12-29T13:10:41Z</time>
      </trkpt>
      <trkpt lat="45.99674" lon="6.56626">
        <ele>2046</ele>
        <time>2017-12-29T13:10:42Z</time>
      </trkpt>
      <trkpt lat="45.99677" lon="6.56626">
        <ele>2046</ele>
        <time>2017-12-29T13:10:43Z</time>
      </trkpt>
      <trkpt lat="45.99679" lon="6.56627">
        <ele>2046</ele>
        <time>2017-12-29T13:10:44Z</time>
      </trkpt>
      <trkpt lat="45.99681" lon="6.56628">
        <ele>2045</ele>
        <time>2017-12-29T13:10:45Z</time>
      </trkpt>
      <trkpt lat="45.99691" lon="6.56634">
        <ele>2044</ele>
        <time>2017-12-29T13:10:50Z</time>
      </trkpt>
      <trkpt lat="45.99694" lon="6.56635">
        <ele>2044</ele>
        <time>2017-12-29T13:10:51Z</time>
      </trkpt>
      <trkpt lat="45.99697" lon="6.56636">
        <ele>2043</ele>
        <time>2017-12-29T13:10:52Z</time>
      </trkpt>
      <trkpt lat="45.99699" lon="6.56637">
        <ele>2043</ele>
        <time>2017-12-29T13:10:53Z</time>
      </trkpt>
      <trkpt lat="45.99701" lon="6.56637">
        <ele>2043</ele>
        <time>2017-12-29T13:10:57Z</time>
      </trkpt>
      <trkpt lat="45.99703" lon="6.56639">
        <ele>2042</ele>
        <time>2017-12-29T13:11:01Z</time>
      </trkpt>
      <trkpt lat="45.99705" lon="6.5664">
        <ele>2042</ele>
        <time>2017-12-29T13:11:02Z</time>
      </trkpt>
      <trkpt lat="45.99706" lon="6.56641">
        <ele>2042</ele>
        <time>2017-12-29T13:11:03Z</time>
      </trkpt>
      <trkpt lat="45.99707" lon="6.56641">
        <ele>2042</ele>
        <time>2017-12-29T13:11:04Z</time>
      </trkpt>
      <trkpt lat="45.99708" lon="6.56642">
        <ele>2042</ele>
        <time>2017-12-29T13:11:05Z</time>
      </trkpt>
      <trkpt lat="45.9971" lon="6.56643">
        <ele>2042</ele>
        <time>2017-12-29T13:11:06Z</time>
      </trkpt>
      <trkpt lat="45.99712" lon="6.56645">
        <ele>2041</ele>
        <time>2017-12-29T13:11:07Z</time>
      </trkpt>
      <trkpt lat="45.99715" lon="6.56646">
        <ele>2041</ele>
        <time>2017-12-29T13:11:08Z</time>
      </trkpt>
      <trkpt lat="45.99717" lon="6.56646">
        <ele>2041</ele>
        <time>2017-12-29T13:11:09Z</time>
      </trkpt>
      <trkpt lat="45.99724" lon="6.5665">
        <ele>2040</ele>
        <time>2017-12-29T13:11:12Z</time>
      </trkpt>
      <trkpt lat="45.99738" lon="6.56652">
        <ele>2038</ele>
        <time>2017-12-29T13:11:15Z</time>
      </trkpt>
      <trkpt lat="45.99749" lon="6.56655">
        <ele>2037</ele>
        <time>2017-12-29T13:11:18Z</time>
      </trkpt>
      <trkpt lat="45.99756" lon="6.56657">
        <ele>2027</ele>
        <time>2017-12-29T13:11:20Z</time>
      </trkpt>
      <trkpt lat="45.99764" lon="6.5666">
        <ele>2025</ele>
        <time>2017-12-29T13:11:24Z</time>
      </trkpt>
      <trkpt lat="45.9977" lon="6.56667">
        <ele>2025</ele>
        <time>2017-12-29T13:11:28Z</time>
      </trkpt>
      <trkpt lat="45.99774" lon="6.56671">
        <ele>2023</ele>
        <time>2017-12-29T13:11:31Z</time>
      </trkpt>
      <trkpt lat="45.99776" lon="6.56674">
        <ele>2022</ele>
        <time>2017-12-29T13:11:32Z</time>
      </trkpt>
      <trkpt lat="45.99778" lon="6.56677">
        <ele>2021</ele>
        <time>2017-12-29T13:11:33Z</time>
      </trkpt>
      <trkpt lat="45.99783" lon="6.56685">
        <ele>2020</ele>
        <time>2017-12-29T13:11:35Z</time>
      </trkpt>
      <trkpt lat="45.99787" lon="6.5669">
        <ele>2018</ele>
        <time>2017-12-29T13:11:38Z</time>
      </trkpt>
      <trkpt lat="45.99789" lon="6.56693">
        <ele>2018</ele>
        <time>2017-12-29T13:11:48Z</time>
      </trkpt>
      <trkpt lat="45.99791" lon="6.56695">
        <ele>2018</ele>
        <time>2017-12-29T13:11:49Z</time>
      </trkpt>
      <trkpt lat="45.99793" lon="6.56697">
        <ele>2017</ele>
        <time>2017-12-29T13:11:50Z</time>
      </trkpt>
      <trkpt lat="45.99795" lon="6.567">
        <ele>2017</ele>
        <time>2017-12-29T13:11:51Z</time>
      </trkpt>
      <trkpt lat="45.99797" lon="6.56702">
        <ele>2017</ele>
        <time>2017-12-29T13:11:52Z</time>
      </trkpt>
      <trkpt lat="45.99799" lon="6.56703">
        <ele>2016</ele>
        <time>2017-12-29T13:11:53Z</time>
      </trkpt>
      <trkpt lat="45.99801" lon="6.56705">
        <ele>2016</ele>
        <time>2017-12-29T13:11:54Z</time>
      </trkpt>
      <trkpt lat="45.9981" lon="6.56714">
        <ele>2016</ele>
        <time>2017-12-29T13:12:00Z</time>
      </trkpt>
      <trkpt lat="45.99817" lon="6.5672">
        <ele>2015</ele>
        <time>2017-12-29T13:12:02Z</time>
      </trkpt>
      <trkpt lat="45.99828" lon="6.56727">
        <ele>2015</ele>
        <time>2017-12-29T13:12:05Z</time>
      </trkpt>
      <trkpt lat="45.99835" lon="6.56731">
        <ele>2012</ele>
        <time>2017-12-29T13:12:08Z</time>
      </trkpt>
      <trkpt lat="45.99843" lon="6.56736">
        <ele>2012</ele>
        <time>2017-12-29T13:12:13Z</time>
      </trkpt>
      <trkpt lat="45.9985" lon="6.56742">
        <ele>2012</ele>
        <time>2017-12-29T13:12:16Z</time>
      </trkpt>
      <trkpt lat="45.9986" lon="6.5675">
        <ele>2012</ele>
        <time>2017-12-29T13:12:19Z</time>
      </trkpt>
      <trkpt lat="45.99869" lon="6.56756">
        <ele>2008</ele>
        <time>2017-12-29T13:12:21Z</time>
      </trkpt>
      <trkpt lat="45.9989" lon="6.56769">
        <ele>2007</ele>
        <time>2017-12-29T13:12:26Z</time>
      </trkpt>
      <trkpt lat="45.99909" lon="6.56787">
        <ele>2005</ele>
        <time>2017-12-29T13:12:33Z</time>
      </trkpt>
      <trkpt lat="45.99922" lon="6.56796">
        <ele>2005</ele>
        <time>2017-12-29T13:12:36Z</time>
      </trkpt>
      <trkpt lat="45.99936" lon="6.56808">
        <ele>2004</ele>
        <time>2017-12-29T13:12:39Z</time>
      </trkpt>
      <trkpt lat="45.99948" lon="6.56819">
        <ele>2004</ele>
        <time>2017-12-29T13:12:42Z</time>
      </trkpt>
      <trkpt lat="45.9995" lon="6.56823">
        <ele>2004</ele>
        <time>2017-12-29T13:12:43Z</time>
      </trkpt>
      <trkpt lat="45.99969" lon="6.56842">
        <ele>1993</ele>
        <time>2017-12-29T13:12:53Z</time>
      </trkpt>
      <trkpt lat="45.99982" lon="6.56853">
        <ele>1993</ele>
        <time>2017-12-29T13:13:01Z</time>
      </trkpt>
      <trkpt lat="45.99989" lon="6.5686">
        <ele>1993</ele>
        <time>2017-12-29T13:13:13Z</time>
      </trkpt>
      <trkpt lat="45.99995" lon="6.56866">
        <ele>1992</ele>
        <time>2017-12-29T13:13:21Z</time>
      </trkpt>
      <trkpt lat="45.99996" lon="6.56867">
        <ele>1992</ele>
        <time>2017-12-29T13:13:23Z</time>
      </trkpt>
      <trkpt lat="46.00001" lon="6.56871">
        <ele>2000</ele>
        <time>2017-12-29T13:13:30Z</time>
      </trkpt>
      <trkpt lat="46.00001" lon="6.56872">
        <ele>2000</ele>
        <time>2017-12-29T13:13:31Z</time>
      </trkpt>
      <trkpt lat="46.00003" lon="6.56873">
        <ele>1999</ele>
        <time>2017-12-29T13:13:33Z</time>
      </trkpt>
      <trkpt lat="46.00003" lon="6.56874">
        <ele>1999</ele>
        <time>2017-12-29T13:13:34Z</time>
      </trkpt>
      <trkpt lat="46.00005" lon="6.56875">
        <ele>1999</ele>
        <time>2017-12-29T13:13:36Z</time>
      </trkpt>
      <trkpt lat="46.00007" lon="6.56879">
        <ele>1999</ele>
        <time>2017-12-29T13:13:40Z</time>
      </trkpt>
      <trkpt lat="46.00016" lon="6.56896">
        <ele>1996</ele>
        <time>2017-12-29T13:13:51Z</time>
      </trkpt>
      <trkpt lat="46.00024" lon="6.56907">
        <ele>1996</ele>
        <time>2017-12-29T13:14:01Z</time>
      </trkpt>
      <trkpt lat="46.00026" lon="6.56909">
        <ele>1996</ele>
        <time>2017-12-29T13:14:04Z</time>
      </trkpt>
      <trkpt lat="46.00031" lon="6.56915">
        <ele>1997</ele>
        <time>2017-12-29T13:14:12Z</time>
      </trkpt>
      <trkpt lat="46.00031" lon="6.56916">
        <ele>1997</ele>
        <time>2017-12-29T13:14:13Z</time>
      </trkpt>
      <trkpt lat="46.0003" lon="6.5692">
        <ele>1985</ele>
        <time>2017-12-29T13:14:35Z</time>
      </trkpt>
      <trkpt lat="46.0003" lon="6.56919">
        <ele>1985</ele>
        <time>2017-12-29T13:14:40Z</time>
      </trkpt>
      <trkpt lat="46.00029" lon="6.56919">
        <ele>1985</ele>
        <time>2017-12-29T13:14:42Z</time>
      </trkpt>
      <trkpt lat="46.0003" lon="6.56919">
        <ele>1985</ele>
        <time>2017-12-29T13:14:43Z</time>
      </trkpt>
      <trkpt lat="46.0003" lon="6.56919">
        <ele>1985</ele>
        <time>2017-12-29T13:14:45Z</time>
      </trkpt>
      <trkpt lat="46.0003" lon="6.56919">
        <ele>1985</ele>
        <time>2017-12-29T13:14:47Z</time>
      </trkpt>
      <trkpt lat="46.0003" lon="6.56918">
        <ele>1985</ele>
        <time>2017-12-29T13:14:57Z</time>
      </trkpt>
      <trkpt lat="46.00031" lon="6.56917">
        <ele>1985</ele>
        <time>2017-12-29T13:15:08Z</time>
      </trkpt>
      <trkpt lat="46.00031" lon="6.56918">
        <ele>1985</ele>
        <time>2017-12-29T13:15:13Z</time>
      </trkpt>
      <trkpt lat="46.00031" lon="6.56918">
        <ele>1985</ele>
        <time>2017-12-29T13:15:22Z</time>
      </trkpt>
      <trkpt lat="46.00032" lon="6.56917">
        <ele>1985</ele>
        <time>2017-12-29T13:15:26Z</time>
      </trkpt>
      <trkpt lat="46.00032" lon="6.56916">
        <ele>1997</ele>
        <time>2017-12-29T13:15:40Z</time>
      </trkpt>
      <trkpt lat="46.00032" lon="6.56916">
        <ele>1997</ele>
        <time>2017-12-29T13:15:46Z</time>
      </trkpt>
      <trkpt lat="46.00033" lon="6.56918">
        <ele>1985</ele>
        <time>2017-12-29T13:15:51Z</time>
      </trkpt>
      <trkpt lat="46.00033" lon="6.56918">
        <ele>1985</ele>
        <time>2017-12-29T13:15:58Z</time>
      </trkpt>
      <trkpt lat="46.00033" lon="6.56918">
        <ele>1985</ele>
        <time>2017-12-29T13:16:04Z</time>
      </trkpt>
      <trkpt lat="46.00033" lon="6.56917">
        <ele>1985</ele>
        <time>2017-12-29T13:16:09Z</time>
      </trkpt>
      <trkpt lat="46.00033" lon="6.56918">
        <ele>1985</ele>
        <time>2017-12-29T13:16:14Z</time>
      </trkpt>
      <trkpt lat="46.00032" lon="6.56917">
        <ele>1985</ele>
        <time>2017-12-29T13:16:23Z</time>
      </trkpt>
      <trkpt lat="46.00032" lon="6.56918">
        <ele>1985</ele>
        <time>2017-12-29T13:16:27Z</time>
      </trkpt>
      <trkpt lat="46.00032" lon="6.56918">
        <ele>1985</ele>
        <time>2017-12-29T13:16:30Z</time>
      </trkpt>
      <trkpt lat="46.00032" lon="6.56916">
        <ele>1997</ele>
        <time>2017-12-29T13:16:39Z</time>
      </trkpt>
      <trkpt lat="46.00032" lon="6.56917">
        <ele>1985</ele>
        <time>2017-12-29T13:16:43Z</time>
      </trkpt>
      <trkpt lat="46.00032" lon="6.56917">
        <ele>1985</ele>
        <time>2017-12-29T13:17:11Z</time>
      </trkpt>
      <trkpt lat="46.00031" lon="6.56918">
        <ele>1985</ele>
        <time>2017-12-29T13:17:18Z</time>
      </trkpt>
      <trkpt lat="46.00032" lon="6.56918">
        <ele>1985</ele>
        <time>2017-12-29T13:17:31Z</time>
      </trkpt>
      <trkpt lat="46.00031" lon="6.56918">
        <ele>1985</ele>
        <time>2017-12-29T13:17:34Z</time>
      </trkpt>
      <trkpt lat="46.00032" lon="6.56918">
        <ele>1985</ele>
        <time>2017-12-29T13:17:38Z</time>
      </trkpt>
      <trkpt lat="46.00032" lon="6.56918">
        <ele>1985</ele>
        <time>2017-12-29T13:17:40Z</time>
      </trkpt>
      <trkpt lat="46.00032" lon="6.56919">
        <ele>1985</ele>
        <time>2017-12-29T13:17:45Z</time>
      </trkpt>
      <trkpt lat="46.00032" lon="6.56919">
        <ele>1985</ele>
        <time>2017-12-29T13:17:48Z</time>
      </trkpt>
      <trkpt lat="46.00032" lon="6.56919">
        <ele>1985</ele>
        <time>2017-12-29T13:17:53Z</time>
      </trkpt>
      <trkpt lat="46.00032" lon="6.56919">
        <ele>1985</ele>
        <time>2017-12-29T13:18:08Z</time>
      </trkpt>
      <trkpt lat="46.00035" lon="6.56916">
        <ele>1997</ele>
        <time>2017-12-29T13:18:27Z</time>
      </trkpt>
      <trkpt lat="46.00036" lon="6.56918">
        <ele>1985</ele>
        <time>2017-12-29T13:18:29Z</time>
      </trkpt>
      <trkpt lat="46.00037" lon="6.56919">
        <ele>1985</ele>
        <time>2017-12-29T13:18:31Z</time>
      </trkpt>
      <trkpt lat="46.00038" lon="6.5692">
        <ele>1985</ele>
        <time>2017-12-29T13:18:32Z</time>
      </trkpt>
      <trkpt lat="46.00039" lon="6.56921">
        <ele>1986</ele>
        <time>2017-12-29T13:18:33Z</time>
      </trkpt>
      <trkpt lat="46.0004" lon="6.56922">
        <ele>1986</ele>
        <time>2017-12-29T13:18:34Z</time>
      </trkpt>
      <trkpt lat="46.00041" lon="6.56922">
        <ele>1986</ele>
        <time>2017-12-29T13:18:35Z</time>
      </trkpt>
      <trkpt lat="46.00041" lon="6.56922">
        <ele>1986</ele>
        <time>2017-12-29T13:18:36Z</time>
      </trkpt>
      <trkpt lat="46.00042" lon="6.56923">
        <ele>1986</ele>
        <time>2017-12-29T13:18:37Z</time>
      </trkpt>
      <trkpt lat="46.00044" lon="6.56924">
        <ele>1986</ele>
        <time>2017-12-29T13:18:38Z</time>
      </trkpt>
      <trkpt lat="46.00045" lon="6.56925">
        <ele>1986</ele>
        <time>2017-12-29T13:18:39Z</time>
      </trkpt>
      <trkpt lat="46.00046" lon="6.56926">
        <ele>1986</ele>
        <time>2017-12-29T13:18:40Z</time>
      </trkpt>
      <trkpt lat="46.00047" lon="6.56927">
        <ele>1986</ele>
        <time>2017-12-29T13:18:41Z</time>
      </trkpt>
      <trkpt lat="46.00048" lon="6.56928">
        <ele>1986</ele>
        <time>2017-12-29T13:18:42Z</time>
      </trkpt>
      <trkpt lat="46.00049" lon="6.56929">
        <ele>1986</ele>
        <time>2017-12-29T13:18:43Z</time>
      </trkpt>
      <trkpt lat="46.0005" lon="6.5693">
        <ele>1987</ele>
        <time>2017-12-29T13:18:44Z</time>
      </trkpt>
      <trkpt lat="46.00051" lon="6.56931">
        <ele>1987</ele>
        <time>2017-12-29T13:18:45Z</time>
      </trkpt>
      <trkpt lat="46.00057" lon="6.56937">
        <ele>1987</ele>
        <time>2017-12-29T13:18:52Z</time>
      </trkpt>
      <trkpt lat="46.00065" lon="6.56943">
        <ele>1987</ele>
        <time>2017-12-29T13:19:01Z</time>
      </trkpt>
      <trkpt lat="46.00066" lon="6.56943">
        <ele>1987</ele>
        <time>2017-12-29T13:19:02Z</time>
      </trkpt>
      <trkpt lat="46.00073" lon="6.56948">
        <ele>1987</ele>
        <time>2017-12-29T13:19:08Z</time>
      </trkpt>
      <trkpt lat="46.00085" lon="6.56955">
        <ele>1994</ele>
        <time>2017-12-29T13:19:18Z</time>
      </trkpt>
      <trkpt lat="46.001" lon="6.56965">
        <ele>1993</ele>
        <time>2017-12-29T13:19:32Z</time>
      </trkpt>
      <trkpt lat="46.00102" lon="6.56966">
        <ele>1993</ele>
        <time>2017-12-29T13:19:33Z</time>
      </trkpt>
      <trkpt lat="46.00106" lon="6.56968">
        <ele>1993</ele>
        <time>2017-12-29T13:19:37Z</time>
      </trkpt>
      <trkpt lat="46.00107" lon="6.56968">
        <ele>1993</ele>
        <time>2017-12-29T13:19:38Z</time>
      </trkpt>
      <trkpt lat="46.00108" lon="6.56969">
        <ele>1993</ele>
        <time>2017-12-29T13:19:39Z</time>
      </trkpt>
      <trkpt lat="46.00109" lon="6.56969">
        <ele>1993</ele>
        <time>2017-12-29T13:19:40Z</time>
      </trkpt>
      <trkpt lat="46.00111" lon="6.5697">
        <ele>1993</ele>
        <time>2017-12-29T13:19:41Z</time>
      </trkpt>
      <trkpt lat="46.00112" lon="6.56971">
        <ele>1993</ele>
        <time>2017-12-29T13:19:42Z</time>
      </trkpt>
      <trkpt lat="46.00113" lon="6.56972">
        <ele>1993</ele>
        <time>2017-12-29T13:19:43Z</time>
      </trkpt>
      <trkpt lat="46.00114" lon="6.56972">
        <ele>1993</ele>
        <time>2017-12-29T13:19:44Z</time>
      </trkpt>
      <trkpt lat="46.00115" lon="6.56973">
        <ele>1993</ele>
        <time>2017-12-29T13:19:45Z</time>
      </trkpt>
      <trkpt lat="46.00117" lon="6.56974">
        <ele>1993</ele>
        <time>2017-12-29T13:19:46Z</time>
      </trkpt>
      <trkpt lat="46.00118" lon="6.56974">
        <ele>1993</ele>
        <time>2017-12-29T13:19:47Z</time>
      </trkpt>
      <trkpt lat="46.00119" lon="6.56975">
        <ele>1993</ele>
        <time>2017-12-29T13:19:48Z</time>
      </trkpt>
      <trkpt lat="46.00137" lon="6.56987">
        <ele>1993</ele>
        <time>2017-12-29T13:20:03Z</time>
      </trkpt>
      <trkpt lat="46.00138" lon="6.56987">
        <ele>1993</ele>
        <time>2017-12-29T13:20:04Z</time>
      </trkpt>
      <trkpt lat="46.00139" lon="6.56988">
        <ele>1993</ele>
        <time>2017-12-29T13:20:05Z</time>
      </trkpt>
      <trkpt lat="46.00141" lon="6.56989">
        <ele>1993</ele>
        <time>2017-12-29T13:20:06Z</time>
      </trkpt>
      <trkpt lat="46.00142" lon="6.56991">
        <ele>1993</ele>
        <time>2017-12-29T13:20:07Z</time>
      </trkpt>
      <trkpt lat="46.00158" lon="6.57003">
        <ele>1984</ele>
        <time>2017-12-29T13:20:19Z</time>
      </trkpt>
      <trkpt lat="46.00174" lon="6.57011">
        <ele>1987</ele>
        <time>2017-12-29T13:20:33Z</time>
      </trkpt>
      <trkpt lat="46.00176" lon="6.57011">
        <ele>1987</ele>
        <time>2017-12-29T13:20:34Z</time>
      </trkpt>
      <trkpt lat="46.00204" lon="6.57025">
        <ele>1987</ele>
        <time>2017-12-29T13:20:59Z</time>
      </trkpt>
      <trkpt lat="46.00205" lon="6.57026">
        <ele>1987</ele>
        <time>2017-12-29T13:21:00Z</time>
      </trkpt>
      <trkpt lat="46.00249" lon="6.57042">
        <ele>1988</ele>
        <time>2017-12-29T13:21:36Z</time>
      </trkpt>
      <trkpt lat="46.00269" lon="6.57047">
        <ele>1992</ele>
        <time>2017-12-29T13:21:53Z</time>
      </trkpt>
      <trkpt lat="46.0027" lon="6.57047">
        <ele>1992</ele>
        <time>2017-12-29T13:21:54Z</time>
      </trkpt>
      <trkpt lat="46.00271" lon="6.57048">
        <ele>1992</ele>
        <time>2017-12-29T13:21:55Z</time>
      </trkpt>
      <trkpt lat="46.00274" lon="6.5705">
        <ele>1992</ele>
        <time>2017-12-29T13:21:58Z</time>
      </trkpt>
      <trkpt lat="46.00275" lon="6.57051">
        <ele>1992</ele>
        <time>2017-12-29T13:22:00Z</time>
      </trkpt>
      <trkpt lat="46.00276" lon="6.57052">
        <ele>1992</ele>
        <time>2017-12-29T13:22:01Z</time>
      </trkpt>
      <trkpt lat="46.00288" lon="6.57059">
        <ele>1992</ele>
        <time>2017-12-29T13:22:14Z</time>
      </trkpt>
      <trkpt lat="46.00289" lon="6.5706">
        <ele>1992</ele>
        <time>2017-12-29T13:22:15Z</time>
      </trkpt>
      <trkpt lat="46.0029" lon="6.57061">
        <ele>1992</ele>
        <time>2017-12-29T13:22:16Z</time>
      </trkpt>
      <trkpt lat="46.00291" lon="6.57062">
        <ele>1992</ele>
        <time>2017-12-29T13:22:17Z</time>
      </trkpt>
      <trkpt lat="46.00292" lon="6.57063">
        <ele>1992</ele>
        <time>2017-12-29T13:22:18Z</time>
      </trkpt>
      <trkpt lat="46.00293" lon="6.57063">
        <ele>1992</ele>
        <time>2017-12-29T13:22:19Z</time>
      </trkpt>
      <trkpt lat="46.00294" lon="6.57063">
        <ele>1992</ele>
        <time>2017-12-29T13:22:20Z</time>
      </trkpt>
      <trkpt lat="46.00295" lon="6.57064">
        <ele>1992</ele>
        <time>2017-12-29T13:22:21Z</time>
      </trkpt>
      <trkpt lat="46.00295" lon="6.57064">
        <ele>1992</ele>
        <time>2017-12-29T13:22:22Z</time>
      </trkpt>
      <trkpt lat="46.00322" lon="6.57073">
        <ele>1991</ele>
        <time>2017-12-29T13:22:46Z</time>
      </trkpt>
      <trkpt lat="46.00341" lon="6.57088">
        <ele>1988</ele>
        <time>2017-12-29T13:23:01Z</time>
      </trkpt>
      <trkpt lat="46.00355" lon="6.57099">
        <ele>1986</ele>
        <time>2017-12-29T13:23:12Z</time>
      </trkpt>
      <trkpt lat="46.00371" lon="6.57111">
        <ele>1985</ele>
        <time>2017-12-29T13:23:26Z</time>
      </trkpt>
      <trkpt lat="46.00372" lon="6.57112">
        <ele>1985</ele>
        <time>2017-12-29T13:23:27Z</time>
      </trkpt>
      <trkpt lat="46.00373" lon="6.57112">
        <ele>1985</ele>
        <time>2017-12-29T13:23:28Z</time>
      </trkpt>
      <trkpt lat="46.00375" lon="6.57113">
        <ele>1985</ele>
        <time>2017-12-29T13:23:29Z</time>
      </trkpt>
      <trkpt lat="46.00376" lon="6.57113">
        <ele>1985</ele>
        <time>2017-12-29T13:23:30Z</time>
      </trkpt>
      <trkpt lat="46.00377" lon="6.57114">
        <ele>1985</ele>
        <time>2017-12-29T13:23:31Z</time>
      </trkpt>
      <trkpt lat="46.00378" lon="6.57114">
        <ele>1985</ele>
        <time>2017-12-29T13:23:32Z</time>
      </trkpt>
      <trkpt lat="46.00379" lon="6.57115">
        <ele>1985</ele>
        <time>2017-12-29T13:23:33Z</time>
      </trkpt>
      <trkpt lat="46.0038" lon="6.57116">
        <ele>1984</ele>
        <time>2017-12-29T13:23:34Z</time>
      </trkpt>
      <trkpt lat="46.00413" lon="6.57127">
        <ele>1984</ele>
        <time>2017-12-29T13:24:04Z</time>
      </trkpt>
      <trkpt lat="46.00458" lon="6.57145">
        <ele>1979</ele>
        <time>2017-12-29T13:24:44Z</time>
      </trkpt>
      <trkpt lat="46.0047" lon="6.57154">
        <ele>1978</ele>
        <time>2017-12-29T13:24:53Z</time>
      </trkpt>
      <trkpt lat="46.00481" lon="6.57162">
        <ele>1977</ele>
        <time>2017-12-29T13:25:00Z</time>
      </trkpt>
      <trkpt lat="46.00492" lon="6.57168">
        <ele>1975</ele>
        <time>2017-12-29T13:25:08Z</time>
      </trkpt>
      <trkpt lat="46.00514" lon="6.57173">
        <ele>1975</ele>
        <time>2017-12-29T13:25:19Z</time>
      </trkpt>
      <trkpt lat="46.00529" lon="6.57174">
        <ele>1976</ele>
        <time>2017-12-29T13:25:31Z</time>
      </trkpt>
      <trkpt lat="46.00565" lon="6.57177">
        <ele>1977</ele>
        <time>2017-12-29T13:25:59Z</time>
      </trkpt>
      <trkpt lat="46.00569" lon="6.57179">
        <ele>1977</ele>
        <time>2017-12-29T13:26:04Z</time>
      </trkpt>
      <trkpt lat="46.00575" lon="6.57184">
        <ele>1977</ele>
        <time>2017-12-29T13:26:11Z</time>
      </trkpt>
      <trkpt lat="46.00579" lon="6.5719">
        <ele>1977</ele>
        <time>2017-12-29T13:26:17Z</time>
      </trkpt>
      <trkpt lat="46.00581" lon="6.57194">
        <ele>1978</ele>
        <time>2017-12-29T13:26:21Z</time>
      </trkpt>
      <trkpt lat="46.00581" lon="6.57195">
        <ele>1978</ele>
        <time>2017-12-29T13:26:22Z</time>
      </trkpt>
      <trkpt lat="46.00585" lon="6.57203">
        <ele>1981</ele>
        <time>2017-12-29T13:26:31Z</time>
      </trkpt>
      <trkpt lat="46.00586" lon="6.57203">
        <ele>1981</ele>
        <time>2017-12-29T13:26:32Z</time>
      </trkpt>
      <trkpt lat="46.00588" lon="6.57206">
        <ele>1981</ele>
        <time>2017-12-29T13:26:35Z</time>
      </trkpt>
      <trkpt lat="46.00593" lon="6.5721">
        <ele>1981</ele>
        <time>2017-12-29T13:26:45Z</time>
      </trkpt>
      <trkpt lat="46.00595" lon="6.57207">
        <ele>1981</ele>
        <time>2017-12-29T13:26:49Z</time>
      </trkpt>
      <trkpt lat="46.00597" lon="6.57206">
        <ele>1981</ele>
        <time>2017-12-29T13:26:53Z</time>
      </trkpt>
      <trkpt lat="46.00599" lon="6.57205">
        <ele>1981</ele>
        <time>2017-12-29T13:26:55Z</time>
      </trkpt>
      <trkpt lat="46.00607" lon="6.57198">
        <ele>1981</ele>
        <time>2017-12-29T13:27:09Z</time>
      </trkpt>
      <trkpt lat="46.00615" lon="6.57193">
        <ele>1980</ele>
        <time>2017-12-29T13:27:21Z</time>
      </trkpt>
      <trkpt lat="46.0062" lon="6.5719">
        <ele>1980</ele>
        <time>2017-12-29T13:27:29Z</time>
      </trkpt>
      <trkpt lat="46.00622" lon="6.57189">
        <ele>1980</ele>
        <time>2017-12-29T13:27:31Z</time>
      </trkpt>
      <trkpt lat="46.00625" lon="6.57185">
        <ele>1980</ele>
        <time>2017-12-29T13:27:37Z</time>
      </trkpt>
      <trkpt lat="46.0063" lon="6.57183">
        <ele>1979</ele>
        <time>2017-12-29T13:27:43Z</time>
      </trkpt>
      <trkpt lat="46.00636" lon="6.57183">
        <ele>1979</ele>
        <time>2017-12-29T13:27:52Z</time>
      </trkpt>
      <trkpt lat="46.00638" lon="6.57183">
        <ele>1979</ele>
        <time>2017-12-29T13:27:54Z</time>
      </trkpt>
      <trkpt lat="46.00639" lon="6.57183">
        <ele>1978</ele>
        <time>2017-12-29T13:27:56Z</time>
      </trkpt>
      <trkpt lat="46.00652" lon="6.57188">
        <ele>1978</ele>
        <time>2017-12-29T13:28:12Z</time>
      </trkpt>
      <trkpt lat="46.00656" lon="6.5719">
        <ele>1978</ele>
        <time>2017-12-29T13:28:18Z</time>
      </trkpt>
      <trkpt lat="46.00657" lon="6.57191">
        <ele>1978</ele>
        <time>2017-12-29T13:28:20Z</time>
      </trkpt>
      <trkpt lat="46.00659" lon="6.57194">
        <ele>1979</ele>
        <time>2017-12-29T13:28:23Z</time>
      </trkpt>
      <trkpt lat="46.00658" lon="6.57197">
        <ele>1980</ele>
        <time>2017-12-29T13:28:26Z</time>
      </trkpt>
      <trkpt lat="46.00657" lon="6.57198">
        <ele>1980</ele>
        <time>2017-12-29T13:28:27Z</time>
      </trkpt>
      <trkpt lat="46.00655" lon="6.57204">
        <ele>1981</ele>
        <time>2017-12-29T13:28:35Z</time>
      </trkpt>
      <trkpt lat="46.00652" lon="6.57216">
        <ele>1984</ele>
        <time>2017-12-29T13:28:47Z</time>
      </trkpt>
      <trkpt lat="46.00651" lon="6.57224">
        <ele>1985</ele>
        <time>2017-12-29T13:28:55Z</time>
      </trkpt>
      <trkpt lat="46.00651" lon="6.57225">
        <ele>1985</ele>
        <time>2017-12-29T13:28:56Z</time>
      </trkpt>
      <trkpt lat="46.0065" lon="6.57226">
        <ele>1986</ele>
        <time>2017-12-29T13:28:57Z</time>
      </trkpt>
      <trkpt lat="46.00648" lon="6.57237">
        <ele>1988</ele>
        <time>2017-12-29T13:29:07Z</time>
      </trkpt>
      <trkpt lat="46.00655" lon="6.57283">
        <ele>1992</ele>
        <time>2017-12-29T13:29:34Z</time>
      </trkpt>
      <trkpt lat="46.00664" lon="6.57301">
        <ele>1993</ele>
        <time>2017-12-29T13:29:46Z</time>
      </trkpt>
      <trkpt lat="46.00676" lon="6.57319">
        <ele>2000</ele>
        <time>2017-12-29T13:30:00Z</time>
      </trkpt>
      <trkpt lat="46.00684" lon="6.57334">
        <ele>2001</ele>
        <time>2017-12-29T13:30:10Z</time>
      </trkpt>
      <trkpt lat="46.00698" lon="6.57348">
        <ele>2001</ele>
        <time>2017-12-29T13:30:20Z</time>
      </trkpt>
      <trkpt lat="46.00739" lon="6.57374">
        <ele>2002</ele>
        <time>2017-12-29T13:30:51Z</time>
      </trkpt>
      <trkpt lat="46.00764" lon="6.57387">
        <ele>2003</ele>
        <time>2017-12-29T13:31:12Z</time>
      </trkpt>
      <trkpt lat="46.00776" lon="6.57395">
        <ele>2003</ele>
        <time>2017-12-29T13:31:24Z</time>
      </trkpt>
      <trkpt lat="46.00788" lon="6.57403">
        <ele>2002</ele>
        <time>2017-12-29T13:31:37Z</time>
      </trkpt>
      <trkpt lat="46.0079" lon="6.57404">
        <ele>2002</ele>
        <time>2017-12-29T13:31:39Z</time>
      </trkpt>
      <trkpt lat="46.00792" lon="6.57407">
        <ele>2002</ele>
        <time>2017-12-29T13:31:42Z</time>
      </trkpt>
      <trkpt lat="46.00792" lon="6.57409">
        <ele>2002</ele>
        <time>2017-12-29T13:31:43Z</time>
      </trkpt>
      <trkpt lat="46.00793" lon="6.57419">
        <ele>1998</ele>
        <time>2017-12-29T13:31:52Z</time>
      </trkpt>
      <trkpt lat="46.00793" lon="6.57421">
        <ele>1998</ele>
        <time>2017-12-29T13:31:54Z</time>
      </trkpt>
      <trkpt lat="46.00794" lon="6.57422">
        <ele>1998</ele>
        <time>2017-12-29T13:31:55Z</time>
      </trkpt>
      <trkpt lat="46.00794" lon="6.57431">
        <ele>1997</ele>
        <time>2017-12-29T13:32:00Z</time>
      </trkpt>
      <trkpt lat="46.00794" lon="6.57436">
        <ele>1997</ele>
        <time>2017-12-29T13:32:04Z</time>
      </trkpt>
      <trkpt lat="46.00794" lon="6.57437">
        <ele>1997</ele>
        <time>2017-12-29T13:32:05Z</time>
      </trkpt>
      <trkpt lat="46.00794" lon="6.5744">
        <ele>1997</ele>
        <time>2017-12-29T13:32:06Z</time>
      </trkpt>
      <trkpt lat="46.00794" lon="6.57442">
        <ele>1996</ele>
        <time>2017-12-29T13:32:07Z</time>
      </trkpt>
      <trkpt lat="46.00793" lon="6.57445">
        <ele>1996</ele>
        <time>2017-12-29T13:32:08Z</time>
      </trkpt>
      <trkpt lat="46.00788" lon="6.57459">
        <ele>1995</ele>
        <time>2017-12-29T13:32:12Z</time>
      </trkpt>
      <trkpt lat="46.00787" lon="6.57463">
        <ele>1995</ele>
        <time>2017-12-29T13:32:13Z</time>
      </trkpt>
      <trkpt lat="46.00787" lon="6.57468">
        <ele>1994</ele>
        <time>2017-12-29T13:32:14Z</time>
      </trkpt>
      <trkpt lat="46.00789" lon="6.57471">
        <ele>1994</ele>
        <time>2017-12-29T13:32:15Z</time>
      </trkpt>
      <trkpt lat="46.00792" lon="6.57473">
        <ele>1994</ele>
        <time>2017-12-29T13:32:16Z</time>
      </trkpt>
      <trkpt lat="46.00794" lon="6.57473">
        <ele>1994</ele>
        <time>2017-12-29T13:32:17Z</time>
      </trkpt>
      <trkpt lat="46.00795" lon="6.57474">
        <ele>1993</ele>
        <time>2017-12-29T13:32:18Z</time>
      </trkpt>
      <trkpt lat="46.00796" lon="6.57474">
        <ele>1993</ele>
        <time>2017-12-29T13:32:19Z</time>
      </trkpt>
      <trkpt lat="46.00797" lon="6.57478">
        <ele>1993</ele>
        <time>2017-12-29T13:32:23Z</time>
      </trkpt>
      <trkpt lat="46.00796" lon="6.5748">
        <ele>1993</ele>
        <time>2017-12-29T13:32:24Z</time>
      </trkpt>
      <trkpt lat="46.00795" lon="6.57484">
        <ele>1993</ele>
        <time>2017-12-29T13:32:25Z</time>
      </trkpt>
      <trkpt lat="46.00793" lon="6.57487">
        <ele>1993</ele>
        <time>2017-12-29T13:32:26Z</time>
      </trkpt>
      <trkpt lat="46.00794" lon="6.57488">
        <ele>1992</ele>
        <time>2017-12-29T13:32:29Z</time>
      </trkpt>
      <trkpt lat="46.00795" lon="6.57488">
        <ele>1992</ele>
        <time>2017-12-29T13:32:39Z</time>
      </trkpt>
      <trkpt lat="46.00794" lon="6.57492">
        <ele>1992</ele>
        <time>2017-12-29T13:32:45Z</time>
      </trkpt>
      <trkpt lat="46.00792" lon="6.57499">
        <ele>1992</ele>
        <time>2017-12-29T13:32:51Z</time>
      </trkpt>
      <trkpt lat="46.00791" lon="6.57508">
        <ele>1982</ele>
        <time>2017-12-29T13:32:58Z</time>
      </trkpt>
      <trkpt lat="46.00791" lon="6.5751">
        <ele>1982</ele>
        <time>2017-12-29T13:33:00Z</time>
      </trkpt>
      <trkpt lat="46.00791" lon="6.57512">
        <ele>1982</ele>
        <time>2017-12-29T13:33:01Z</time>
      </trkpt>
      <trkpt lat="46.00791" lon="6.57514">
        <ele>1982</ele>
        <time>2017-12-29T13:33:02Z</time>
      </trkpt>
      <trkpt lat="46.00792" lon="6.57516">
        <ele>1982</ele>
        <time>2017-12-29T13:33:03Z</time>
      </trkpt>
      <trkpt lat="46.00794" lon="6.57519">
        <ele>1982</ele>
        <time>2017-12-29T13:33:04Z</time>
      </trkpt>
      <trkpt lat="46.00795" lon="6.57522">
        <ele>1981</ele>
        <time>2017-12-29T13:33:05Z</time>
      </trkpt>
      <trkpt lat="46.00797" lon="6.57524">
        <ele>1981</ele>
        <time>2017-12-29T13:33:06Z</time>
      </trkpt>
      <trkpt lat="46.00798" lon="6.57527">
        <ele>1981</ele>
        <time>2017-12-29T13:33:07Z</time>
      </trkpt>
      <trkpt lat="46.008" lon="6.5753">
        <ele>1981</ele>
        <time>2017-12-29T13:33:08Z</time>
      </trkpt>
      <trkpt lat="46.00801" lon="6.57533">
        <ele>1981</ele>
        <time>2017-12-29T13:33:09Z</time>
      </trkpt>
      <trkpt lat="46.00803" lon="6.57535">
        <ele>1981</ele>
        <time>2017-12-29T13:33:10Z</time>
      </trkpt>
      <trkpt lat="46.00804" lon="6.57536">
        <ele>1981</ele>
        <time>2017-12-29T13:33:11Z</time>
      </trkpt>
      <trkpt lat="46.0081" lon="6.57537">
        <ele>1981</ele>
        <time>2017-12-29T13:33:18Z</time>
      </trkpt>
      <trkpt lat="46.00817" lon="6.57536">
        <ele>1981</ele>
        <time>2017-12-29T13:33:22Z</time>
      </trkpt>
      <trkpt lat="46.00818" lon="6.57538">
        <ele>1981</ele>
        <time>2017-12-29T13:33:27Z</time>
      </trkpt>
      <trkpt lat="46.00818" lon="6.57541">
        <ele>1981</ele>
        <time>2017-12-29T13:33:28Z</time>
      </trkpt>
      <trkpt lat="46.00818" lon="6.57543">
        <ele>1981</ele>
        <time>2017-12-29T13:33:29Z</time>
      </trkpt>
      <trkpt lat="46.00818" lon="6.57554">
        <ele>1980</ele>
        <time>2017-12-29T13:33:34Z</time>
      </trkpt>
      <trkpt lat="46.00824" lon="6.57569">
        <ele>1980</ele>
        <time>2017-12-29T13:33:41Z</time>
      </trkpt>
      <trkpt lat="46.00834" lon="6.57579">
        <ele>1978</ele>
        <time>2017-12-29T13:33:44Z</time>
      </trkpt>
      <trkpt lat="46.00845" lon="6.57587">
        <ele>1977</ele>
        <time>2017-12-29T13:33:48Z</time>
      </trkpt>
      <trkpt lat="46.00848" lon="6.57591">
        <ele>1977</ele>
        <time>2017-12-29T13:33:54Z</time>
      </trkpt>
      <trkpt lat="46.00856" lon="6.57595">
        <ele>1976</ele>
        <time>2017-12-29T13:34:08Z</time>
      </trkpt>
      <trkpt lat="46.00868" lon="6.57604">
        <ele>1974</ele>
        <time>2017-12-29T13:34:29Z</time>
      </trkpt>
      <trkpt lat="46.0087" lon="6.57607">
        <ele>1974</ele>
        <time>2017-12-29T13:34:36Z</time>
      </trkpt>
      <trkpt lat="46.00871" lon="6.57608">
        <ele>1974</ele>
        <time>2017-12-29T13:34:37Z</time>
      </trkpt>
      <trkpt lat="46.00881" lon="6.5763">
        <ele>1974</ele>
        <time>2017-12-29T13:34:57Z</time>
      </trkpt>
      <trkpt lat="46.00886" lon="6.5765">
        <ele>1975</ele>
        <time>2017-12-29T13:35:10Z</time>
      </trkpt>
      <trkpt lat="46.00888" lon="6.57671">
        <ele>1978</ele>
        <time>2017-12-29T13:35:21Z</time>
      </trkpt>
      <trkpt lat="46.00893" lon="6.57693">
        <ele>1978</ele>
        <time>2017-12-29T13:35:34Z</time>
      </trkpt>
      <trkpt lat="46.00893" lon="6.57695">
        <ele>1978</ele>
        <time>2017-12-29T13:35:35Z</time>
      </trkpt>
      <trkpt lat="46.00893" lon="6.57696">
        <ele>1978</ele>
        <time>2017-12-29T13:35:36Z</time>
      </trkpt>
      <trkpt lat="46.00894" lon="6.57698">
        <ele>1978</ele>
        <time>2017-12-29T13:35:37Z</time>
      </trkpt>
      <trkpt lat="46.00895" lon="6.57699">
        <ele>1978</ele>
        <time>2017-12-29T13:35:38Z</time>
      </trkpt>
      <trkpt lat="46.00895" lon="6.57701">
        <ele>1978</ele>
        <time>2017-12-29T13:35:39Z</time>
      </trkpt>
      <trkpt lat="46.00896" lon="6.57703">
        <ele>1978</ele>
        <time>2017-12-29T13:35:40Z</time>
      </trkpt>
      <trkpt lat="46.00896" lon="6.57705">
        <ele>1978</ele>
        <time>2017-12-29T13:35:41Z</time>
      </trkpt>
      <trkpt lat="46.00896" lon="6.57706">
        <ele>1978</ele>
        <time>2017-12-29T13:35:42Z</time>
      </trkpt>
      <trkpt lat="46.00896" lon="6.57708">
        <ele>1978</ele>
        <time>2017-12-29T13:35:43Z</time>
      </trkpt>
      <trkpt lat="46.00898" lon="6.57717">
        <ele>1979</ele>
        <time>2017-12-29T13:35:49Z</time>
      </trkpt>
      <trkpt lat="46.00899" lon="6.57725">
        <ele>1980</ele>
        <time>2017-12-29T13:35:55Z</time>
      </trkpt>
      <trkpt lat="46.00902" lon="6.57741">
        <ele>1983</ele>
        <time>2017-12-29T13:36:07Z</time>
      </trkpt>
      <trkpt lat="46.00907" lon="6.57746">
        <ele>1985</ele>
        <time>2017-12-29T13:36:14Z</time>
      </trkpt>
      <trkpt lat="46.0091" lon="6.57747">
        <ele>1986</ele>
        <time>2017-12-29T13:36:17Z</time>
      </trkpt>
      <trkpt lat="46.00923" lon="6.57749">
        <ele>1989</ele>
        <time>2017-12-29T13:36:33Z</time>
      </trkpt>
      <trkpt lat="46.00925" lon="6.5775">
        <ele>1989</ele>
        <time>2017-12-29T13:36:35Z</time>
      </trkpt>
      <trkpt lat="46.00936" lon="6.57754">
        <ele>1994</ele>
        <time>2017-12-29T13:36:51Z</time>
      </trkpt>
      <trkpt lat="46.00948" lon="6.5776">
        <ele>1996</ele>
        <time>2017-12-29T13:37:09Z</time>
      </trkpt>
      <trkpt lat="46.0095" lon="6.57761">
        <ele>1996</ele>
        <time>2017-12-29T13:37:11Z</time>
      </trkpt>
      <trkpt lat="46.00951" lon="6.57761">
        <ele>1996</ele>
        <time>2017-12-29T13:37:13Z</time>
      </trkpt>
      <trkpt lat="46.00961" lon="6.5777">
        <ele>1997</ele>
        <time>2017-12-29T13:37:29Z</time>
      </trkpt>
      <trkpt lat="46.0097" lon="6.57777">
        <ele>1998</ele>
        <time>2017-12-29T13:37:44Z</time>
      </trkpt>
      <trkpt lat="46.00977" lon="6.57787">
        <ele>1999</ele>
        <time>2017-12-29T13:38:00Z</time>
      </trkpt>
      <trkpt lat="46.00977" lon="6.57788">
        <ele>1999</ele>
        <time>2017-12-29T13:38:02Z</time>
      </trkpt>
      <trkpt lat="46.00976" lon="6.57789">
        <ele>1999</ele>
        <time>2017-12-29T13:38:03Z</time>
      </trkpt>
      <trkpt lat="46.00976" lon="6.57791">
        <ele>1999</ele>
        <time>2017-12-29T13:38:20Z</time>
      </trkpt>
      <trkpt lat="46.00976" lon="6.57791">
        <ele>1999</ele>
        <time>2017-12-29T13:38:26Z</time>
      </trkpt>
      <trkpt lat="46.00976" lon="6.57791">
        <ele>1999</ele>
        <time>2017-12-29T13:38:30Z</time>
      </trkpt>
      <trkpt lat="46.00976" lon="6.57798">
        <ele>2000</ele>
        <time>2017-12-29T13:38:40Z</time>
      </trkpt>
      <trkpt lat="46.00975" lon="6.57799">
        <ele>2000</ele>
        <time>2017-12-29T13:38:41Z</time>
      </trkpt>
      <trkpt lat="46.00975" lon="6.57801">
        <ele>2000</ele>
        <time>2017-12-29T13:38:42Z</time>
      </trkpt>
      <trkpt lat="46.00975" lon="6.57804">
        <ele>2000</ele>
        <time>2017-12-29T13:38:45Z</time>
      </trkpt>
      <trkpt lat="46.00974" lon="6.57807">
        <ele>2000</ele>
        <time>2017-12-29T13:38:48Z</time>
      </trkpt>
      <trkpt lat="46.00974" lon="6.57811">
        <ele>2000</ele>
        <time>2017-12-29T13:38:52Z</time>
      </trkpt>
      <trkpt lat="46.00974" lon="6.57812">
        <ele>2000</ele>
        <time>2017-12-29T13:38:53Z</time>
      </trkpt>
      <trkpt lat="46.00974" lon="6.57814">
        <ele>2001</ele>
        <time>2017-12-29T13:38:55Z</time>
      </trkpt>
      <trkpt lat="46.00974" lon="6.57819">
        <ele>2001</ele>
        <time>2017-12-29T13:38:59Z</time>
      </trkpt>
      <trkpt lat="46.00974" lon="6.57822">
        <ele>2001</ele>
        <time>2017-12-29T13:39:01Z</time>
      </trkpt>
      <trkpt lat="46.00974" lon="6.57824">
        <ele>2001</ele>
        <time>2017-12-29T13:39:03Z</time>
      </trkpt>
      <trkpt lat="46.00976" lon="6.57835">
        <ele>2004</ele>
        <time>2017-12-29T13:39:12Z</time>
      </trkpt>
      <trkpt lat="46.00978" lon="6.57844">
        <ele>2004</ele>
        <time>2017-12-29T13:39:19Z</time>
      </trkpt>
      <trkpt lat="46.00978" lon="6.57846">
        <ele>2004</ele>
        <time>2017-12-29T13:39:21Z</time>
      </trkpt>
      <trkpt lat="46.0098" lon="6.57857">
        <ele>2003</ele>
        <time>2017-12-29T13:39:31Z</time>
      </trkpt>
      <trkpt lat="46.00982" lon="6.57866">
        <ele>2003</ele>
        <time>2017-12-29T13:39:39Z</time>
      </trkpt>
      <trkpt lat="46.00982" lon="6.57867">
        <ele>2003</ele>
        <time>2017-12-29T13:39:40Z</time>
      </trkpt>
      <trkpt lat="46.00982" lon="6.57868">
        <ele>2003</ele>
        <time>2017-12-29T13:39:41Z</time>
      </trkpt>
      <trkpt lat="46.00986" lon="6.57886">
        <ele>2003</ele>
        <time>2017-12-29T13:39:57Z</time>
      </trkpt>
      <trkpt lat="46.00986" lon="6.57887">
        <ele>2003</ele>
        <time>2017-12-29T13:39:58Z</time>
      </trkpt>
      <trkpt lat="46.0099" lon="6.57903">
        <ele>2004</ele>
        <time>2017-12-29T13:40:10Z</time>
      </trkpt>
      <trkpt lat="46.0099" lon="6.57905">
        <ele>2005</ele>
        <time>2017-12-29T13:40:11Z</time>
      </trkpt>
      <trkpt lat="46.0099" lon="6.57907">
        <ele>2005</ele>
        <time>2017-12-29T13:40:12Z</time>
      </trkpt>
      <trkpt lat="46.00993" lon="6.57925">
        <ele>2005</ele>
        <time>2017-12-29T13:40:26Z</time>
      </trkpt>
      <trkpt lat="46.00993" lon="6.57928">
        <ele>2004</ele>
        <time>2017-12-29T13:40:29Z</time>
      </trkpt>
      <trkpt lat="46.00992" lon="6.5793">
        <ele>2004</ele>
        <time>2017-12-29T13:40:30Z</time>
      </trkpt>
      <trkpt lat="46.0099" lon="6.57935">
        <ele>2003</ele>
        <time>2017-12-29T13:40:34Z</time>
      </trkpt>
      <trkpt lat="46.00989" lon="6.57936">
        <ele>2003</ele>
        <time>2017-12-29T13:40:35Z</time>
      </trkpt>
      <trkpt lat="46.00988" lon="6.57938">
        <ele>2002</ele>
        <time>2017-12-29T13:40:36Z</time>
      </trkpt>
      <trkpt lat="46.00979" lon="6.57957">
        <ele>2001</ele>
        <time>2017-12-29T13:40:46Z</time>
      </trkpt>
      <trkpt lat="46.00976" lon="6.57976">
        <ele>2000</ele>
        <time>2017-12-29T13:40:55Z</time>
      </trkpt>
      <trkpt lat="46.00975" lon="6.57979">
        <ele>2000</ele>
        <time>2017-12-29T13:40:56Z</time>
      </trkpt>
      <trkpt lat="46.00975" lon="6.57981">
        <ele>2000</ele>
        <time>2017-12-29T13:40:57Z</time>
      </trkpt>
      <trkpt lat="46.00974" lon="6.57983">
        <ele>2000</ele>
        <time>2017-12-29T13:40:58Z</time>
      </trkpt>
      <trkpt lat="46.00973" lon="6.57985">
        <ele>2000</ele>
        <time>2017-12-29T13:40:59Z</time>
      </trkpt>
      <trkpt lat="46.00973" lon="6.57987">
        <ele>2000</ele>
        <time>2017-12-29T13:41:00Z</time>
      </trkpt>
      <trkpt lat="46.00973" lon="6.57988">
        <ele>2000</ele>
        <time>2017-12-29T13:41:01Z</time>
      </trkpt>
      <trkpt lat="46.00972" lon="6.5799">
        <ele>2000</ele>
        <time>2017-12-29T13:41:02Z</time>
      </trkpt>
      <trkpt lat="46.00972" lon="6.57992">
        <ele>2000</ele>
        <time>2017-12-29T13:41:03Z</time>
      </trkpt>
      <trkpt lat="46.00965" lon="6.58022">
        <ele>1998</ele>
        <time>2017-12-29T13:41:18Z</time>
      </trkpt>
      <trkpt lat="46.0096" lon="6.58051">
        <ele>1998</ele>
        <time>2017-12-29T13:41:34Z</time>
      </trkpt>
      <trkpt lat="46.00958" lon="6.5807">
        <ele>1998</ele>
        <time>2017-12-29T13:41:43Z</time>
      </trkpt>
      <trkpt lat="46.00961" lon="6.58105">
        <ele>1997</ele>
        <time>2017-12-29T13:42:14Z</time>
      </trkpt>
      <trkpt lat="46.00962" lon="6.58105">
        <ele>1997</ele>
        <time>2017-12-29T13:42:30Z</time>
      </trkpt>
      <trkpt lat="46.00962" lon="6.58105">
        <ele>1997</ele>
        <time>2017-12-29T13:42:36Z</time>
      </trkpt>
      <trkpt lat="46.00962" lon="6.58105">
        <ele>1997</ele>
        <time>2017-12-29T13:42:39Z</time>
      </trkpt>
      <trkpt lat="46.00961" lon="6.58105">
        <ele>1997</ele>
        <time>2017-12-29T13:42:43Z</time>
      </trkpt>
      <trkpt lat="46.00961" lon="6.58106">
        <ele>1997</ele>
        <time>2017-12-29T13:42:52Z</time>
      </trkpt>
      <trkpt lat="46.00959" lon="6.58105">
        <ele>1997</ele>
        <time>2017-12-29T13:43:19Z</time>
      </trkpt>
      <trkpt lat="46.00959" lon="6.58105">
        <ele>1997</ele>
        <time>2017-12-29T13:43:21Z</time>
      </trkpt>
      <trkpt lat="46.0096" lon="6.58106">
        <ele>1997</ele>
        <time>2017-12-29T13:43:24Z</time>
      </trkpt>
      <trkpt lat="46.0096" lon="6.58104">
        <ele>1997</ele>
        <time>2017-12-29T13:43:39Z</time>
      </trkpt>
      <trkpt lat="46.00959" lon="6.58105">
        <ele>1997</ele>
        <time>2017-12-29T13:43:59Z</time>
      </trkpt>
      <trkpt lat="46.00959" lon="6.58105">
        <ele>1997</ele>
        <time>2017-12-29T13:44:02Z</time>
      </trkpt>
      <trkpt lat="46.00959" lon="6.58105">
        <ele>1997</ele>
        <time>2017-12-29T13:44:03Z</time>
      </trkpt>
      <trkpt lat="46.00957" lon="6.58105">
        <ele>1997</ele>
        <time>2017-12-29T13:44:17Z</time>
      </trkpt>
      <trkpt lat="46.00958" lon="6.58105">
        <ele>1997</ele>
        <time>2017-12-29T13:44:36Z</time>
      </trkpt>
      <trkpt lat="46.00958" lon="6.58105">
        <ele>1997</ele>
        <time>2017-12-29T13:44:45Z</time>
      </trkpt>
      <trkpt lat="46.00959" lon="6.58105">
        <ele>1997</ele>
        <time>2017-12-29T13:44:50Z</time>
      </trkpt>
      <trkpt lat="46.00959" lon="6.58106">
        <ele>1997</ele>
        <time>2017-12-29T13:44:53Z</time>
      </trkpt>
      <trkpt lat="46.0096" lon="6.58106">
        <ele>1997</ele>
        <time>2017-12-29T13:44:56Z</time>
      </trkpt>
      <trkpt lat="46.00961" lon="6.58108">
        <ele>1997</ele>
        <time>2017-12-29T13:45:11Z</time>
      </trkpt>
      <trkpt lat="46.00964" lon="6.58125">
        <ele>1997</ele>
        <time>2017-12-29T13:45:15Z</time>
      </trkpt>
      <trkpt lat="46.00967" lon="6.5813">
        <ele>1996</ele>
        <time>2017-12-29T13:45:16Z</time>
      </trkpt>
      <trkpt lat="46.0097" lon="6.58131">
        <ele>1996</ele>
        <time>2017-12-29T13:45:17Z</time>
      </trkpt>
      <trkpt lat="46.00973" lon="6.58132">
        <ele>1995</ele>
        <time>2017-12-29T13:45:18Z</time>
      </trkpt>
      <trkpt lat="46.00978" lon="6.58133">
        <ele>1995</ele>
        <time>2017-12-29T13:45:19Z</time>
      </trkpt>
      <trkpt lat="46.00983" lon="6.58133">
        <ele>1994</ele>
        <time>2017-12-29T13:45:20Z</time>
      </trkpt>
      <trkpt lat="46.00988" lon="6.58128">
        <ele>1994</ele>
        <time>2017-12-29T13:45:21Z</time>
      </trkpt>
      <trkpt lat="46.00994" lon="6.58127">
        <ele>1994</ele>
        <time>2017-12-29T13:45:22Z</time>
      </trkpt>
      <trkpt lat="46.01" lon="6.5813">
        <ele>1977</ele>
        <time>2017-12-29T13:45:23Z</time>
      </trkpt>
      <trkpt lat="46.01005" lon="6.5813">
        <ele>1977</ele>
        <time>2017-12-29T13:45:24Z</time>
      </trkpt>
      <trkpt lat="46.0101" lon="6.58125">
        <ele>1976</ele>
        <time>2017-12-29T13:45:25Z</time>
      </trkpt>
      <trkpt lat="46.01016" lon="6.58119">
        <ele>1976</ele>
        <time>2017-12-29T13:45:26Z</time>
      </trkpt>
      <trkpt lat="46.01022" lon="6.58116">
        <ele>1975</ele>
        <time>2017-12-29T13:45:27Z</time>
      </trkpt>
      <trkpt lat="46.01026" lon="6.58112">
        <ele>1974</ele>
        <time>2017-12-29T13:45:28Z</time>
      </trkpt>
      <trkpt lat="46.01028" lon="6.58111">
        <ele>1974</ele>
        <time>2017-12-29T13:45:29Z</time>
      </trkpt>
      <trkpt lat="46.0103" lon="6.58111">
        <ele>1974</ele>
        <time>2017-12-29T13:45:31Z</time>
      </trkpt>
      <trkpt lat="46.01031" lon="6.5811">
        <ele>1973</ele>
        <time>2017-12-29T13:45:32Z</time>
      </trkpt>
      <trkpt lat="46.01033" lon="6.58109">
        <ele>1973</ele>
        <time>2017-12-29T13:45:33Z</time>
      </trkpt>
      <trkpt lat="46.01035" lon="6.58108">
        <ele>1973</ele>
        <time>2017-12-29T13:45:34Z</time>
      </trkpt>
      <trkpt lat="46.01057" lon="6.58105">
        <ele>1968</ele>
        <time>2017-12-29T13:45:40Z</time>
      </trkpt>
      <trkpt lat="46.01068" lon="6.58105">
        <ele>1965</ele>
        <time>2017-12-29T13:45:44Z</time>
      </trkpt>
      <trkpt lat="46.01072" lon="6.58102">
        <ele>1965</ele>
        <time>2017-12-29T13:45:45Z</time>
      </trkpt>
      <trkpt lat="46.01079" lon="6.58097">
        <ele>1963</ele>
        <time>2017-12-29T13:45:48Z</time>
      </trkpt>
      <trkpt lat="46.01082" lon="6.58099">
        <ele>1963</ele>
        <time>2017-12-29T13:45:49Z</time>
      </trkpt>
      <trkpt lat="46.01085" lon="6.58101">
        <ele>1949</ele>
        <time>2017-12-29T13:45:50Z</time>
      </trkpt>
      <trkpt lat="46.01086" lon="6.581">
        <ele>1949</ele>
        <time>2017-12-29T13:45:51Z</time>
      </trkpt>
      <trkpt lat="46.01087" lon="6.58098">
        <ele>1950</ele>
        <time>2017-12-29T13:45:52Z</time>
      </trkpt>
      <trkpt lat="46.01087" lon="6.58097">
        <ele>1950</ele>
        <time>2017-12-29T13:45:53Z</time>
      </trkpt>
      <trkpt lat="46.01087" lon="6.58096">
        <ele>1950</ele>
        <time>2017-12-29T13:45:55Z</time>
      </trkpt>
      <trkpt lat="46.01088" lon="6.58096">
        <ele>1950</ele>
        <time>2017-12-29T13:46:03Z</time>
      </trkpt>
      <trkpt lat="46.01092" lon="6.58098">
        <ele>1949</ele>
        <time>2017-12-29T13:46:06Z</time>
      </trkpt>
      <trkpt lat="46.01092" lon="6.58099">
        <ele>1949</ele>
        <time>2017-12-29T13:46:07Z</time>
      </trkpt>
      <trkpt lat="46.01092" lon="6.581">
        <ele>1949</ele>
        <time>2017-12-29T13:46:08Z</time>
      </trkpt>
      <trkpt lat="46.01092" lon="6.58102">
        <ele>1948</ele>
        <time>2017-12-29T13:46:09Z</time>
      </trkpt>
      <trkpt lat="46.01092" lon="6.58106">
        <ele>1947</ele>
        <time>2017-12-29T13:46:10Z</time>
      </trkpt>
      <trkpt lat="46.01093" lon="6.58111">
        <ele>1946</ele>
        <time>2017-12-29T13:46:11Z</time>
      </trkpt>
      <trkpt lat="46.01094" lon="6.58113">
        <ele>1946</ele>
        <time>2017-12-29T13:46:12Z</time>
      </trkpt>
      <trkpt lat="46.01096" lon="6.58114">
        <ele>1946</ele>
        <time>2017-12-29T13:46:13Z</time>
      </trkpt>
      <trkpt lat="46.011" lon="6.58113">
        <ele>1945</ele>
        <time>2017-12-29T13:46:14Z</time>
      </trkpt>
      <trkpt lat="46.01103" lon="6.58111">
        <ele>1945</ele>
        <time>2017-12-29T13:46:15Z</time>
      </trkpt>
      <trkpt lat="46.01106" lon="6.58107">
        <ele>1945</ele>
        <time>2017-12-29T13:46:16Z</time>
      </trkpt>
      <trkpt lat="46.01108" lon="6.58102">
        <ele>1945</ele>
        <time>2017-12-29T13:46:17Z</time>
      </trkpt>
      <trkpt lat="46.0111" lon="6.58096">
        <ele>1945</ele>
        <time>2017-12-29T13:46:18Z</time>
      </trkpt>
      <trkpt lat="46.01114" lon="6.58093">
        <ele>1944</ele>
        <time>2017-12-29T13:46:19Z</time>
      </trkpt>
      <trkpt lat="46.01119" lon="6.5809">
        <ele>1943</ele>
        <time>2017-12-29T13:46:20Z</time>
      </trkpt>
      <trkpt lat="46.01125" lon="6.58088">
        <ele>1942</ele>
        <time>2017-12-29T13:46:21Z</time>
      </trkpt>
      <trkpt lat="46.01132" lon="6.58086">
        <ele>1940</ele>
        <time>2017-12-29T13:46:22Z</time>
      </trkpt>
      <trkpt lat="46.01144" lon="6.58083">
        <ele>1940</ele>
        <time>2017-12-29T13:46:24Z</time>
      </trkpt>
      <trkpt lat="46.01157" lon="6.58084">
        <ele>1935</ele>
        <time>2017-12-29T13:46:27Z</time>
      </trkpt>
      <trkpt lat="46.01165" lon="6.58088">
        <ele>1934</ele>
        <time>2017-12-29T13:46:29Z</time>
      </trkpt>
      <trkpt lat="46.0117" lon="6.58092">
        <ele>1928</ele>
        <time>2017-12-29T13:46:31Z</time>
      </trkpt>
      <trkpt lat="46.01172" lon="6.58091">
        <ele>1928</ele>
        <time>2017-12-29T13:46:32Z</time>
      </trkpt>
      <trkpt lat="46.01174" lon="6.58091">
        <ele>1928</ele>
        <time>2017-12-29T13:46:33Z</time>
      </trkpt>
      <trkpt lat="46.01182" lon="6.58088">
        <ele>1926</ele>
        <time>2017-12-29T13:46:36Z</time>
      </trkpt>
      <trkpt lat="46.01186" lon="6.58089">
        <ele>1925</ele>
        <time>2017-12-29T13:46:37Z</time>
      </trkpt>
      <trkpt lat="46.01189" lon="6.58088">
        <ele>1924</ele>
        <time>2017-12-29T13:46:38Z</time>
      </trkpt>
      <trkpt lat="46.01193" lon="6.58087">
        <ele>1924</ele>
        <time>2017-12-29T13:46:39Z</time>
      </trkpt>
      <trkpt lat="46.01196" lon="6.58085">
        <ele>1923</ele>
        <time>2017-12-29T13:46:40Z</time>
      </trkpt>
      <trkpt lat="46.012" lon="6.58083">
        <ele>1924</ele>
        <time>2017-12-29T13:46:41Z</time>
      </trkpt>
      <trkpt lat="46.01205" lon="6.58083">
        <ele>1923</ele>
        <time>2017-12-29T13:46:42Z</time>
      </trkpt>
      <trkpt lat="46.01209" lon="6.5808">
        <ele>1923</ele>
        <time>2017-12-29T13:46:43Z</time>
      </trkpt>
      <trkpt lat="46.01214" lon="6.58078">
        <ele>1922</ele>
        <time>2017-12-29T13:46:44Z</time>
      </trkpt>
      <trkpt lat="46.01217" lon="6.58078">
        <ele>1922</ele>
        <time>2017-12-29T13:46:45Z</time>
      </trkpt>
      <trkpt lat="46.01219" lon="6.58079">
        <ele>1921</ele>
        <time>2017-12-29T13:46:46Z</time>
      </trkpt>
      <trkpt lat="46.01234" lon="6.58088">
        <ele>1918</ele>
        <time>2017-12-29T13:46:52Z</time>
      </trkpt>
      <trkpt lat="46.01249" lon="6.58087">
        <ele>1916</ele>
        <time>2017-12-29T13:46:56Z</time>
      </trkpt>
      <trkpt lat="46.01265" lon="6.5808">
        <ele>1910</ele>
        <time>2017-12-29T13:47:03Z</time>
      </trkpt>
      <trkpt lat="46.01287" lon="6.58072">
        <ele>1907</ele>
        <time>2017-12-29T13:47:15Z</time>
      </trkpt>
      <trkpt lat="46.01301" lon="6.58071">
        <ele>1905</ele>
        <time>2017-12-29T13:47:20Z</time>
      </trkpt>
      <trkpt lat="46.01319" lon="6.58071">
        <ele>1904</ele>
        <time>2017-12-29T13:47:25Z</time>
      </trkpt>
      <trkpt lat="46.01323" lon="6.5807">
        <ele>1904</ele>
        <time>2017-12-29T13:47:26Z</time>
      </trkpt>
      <trkpt lat="46.01326" lon="6.58067">
        <ele>1903</ele>
        <time>2017-12-29T13:47:27Z</time>
      </trkpt>
      <trkpt lat="46.01329" lon="6.58066">
        <ele>1903</ele>
        <time>2017-12-29T13:47:28Z</time>
      </trkpt>
      <trkpt lat="46.01333" lon="6.58065">
        <ele>1903</ele>
        <time>2017-12-29T13:47:29Z</time>
      </trkpt>
      <trkpt lat="46.01336" lon="6.58065">
        <ele>1896</ele>
        <time>2017-12-29T13:47:30Z</time>
      </trkpt>
      <trkpt lat="46.01338" lon="6.58062">
        <ele>1895</ele>
        <time>2017-12-29T13:47:31Z</time>
      </trkpt>
      <trkpt lat="46.01342" lon="6.58059">
        <ele>1895</ele>
        <time>2017-12-29T13:47:32Z</time>
      </trkpt>
      <trkpt lat="46.01346" lon="6.58057">
        <ele>1894</ele>
        <time>2017-12-29T13:47:33Z</time>
      </trkpt>
      <trkpt lat="46.01349" lon="6.58058">
        <ele>1894</ele>
        <time>2017-12-29T13:47:34Z</time>
      </trkpt>
      <trkpt lat="46.01353" lon="6.5806">
        <ele>1894</ele>
        <time>2017-12-29T13:47:35Z</time>
      </trkpt>
      <trkpt lat="46.01357" lon="6.5806">
        <ele>1893</ele>
        <time>2017-12-29T13:47:36Z</time>
      </trkpt>
      <trkpt lat="46.01362" lon="6.5806">
        <ele>1893</ele>
        <time>2017-12-29T13:47:37Z</time>
      </trkpt>
      <trkpt lat="46.01368" lon="6.58059">
        <ele>1892</ele>
        <time>2017-12-29T13:47:38Z</time>
      </trkpt>
      <trkpt lat="46.01374" lon="6.58058">
        <ele>1891</ele>
        <time>2017-12-29T13:47:39Z</time>
      </trkpt>
      <trkpt lat="46.01398" lon="6.58053">
        <ele>1890</ele>
        <time>2017-12-29T13:47:43Z</time>
      </trkpt>
      <trkpt lat="46.01425" lon="6.58046">
        <ele>1879</ele>
        <time>2017-12-29T13:47:48Z</time>
      </trkpt>
      <trkpt lat="46.01431" lon="6.58044">
        <ele>1878</ele>
        <time>2017-12-29T13:47:49Z</time>
      </trkpt>
      <trkpt lat="46.01437" lon="6.58044">
        <ele>1878</ele>
        <time>2017-12-29T13:47:50Z</time>
      </trkpt>
      <trkpt lat="46.01457" lon="6.58044">
        <ele>1876</ele>
        <time>2017-12-29T13:47:54Z</time>
      </trkpt>
      <trkpt lat="46.01472" lon="6.58045">
        <ele>1875</ele>
        <time>2017-12-29T13:47:58Z</time>
      </trkpt>
      <trkpt lat="46.01495" lon="6.58047">
        <ele>1875</ele>
        <time>2017-12-29T13:48:04Z</time>
      </trkpt>
      <trkpt lat="46.01509" lon="6.5805">
        <ele>1865</ele>
        <time>2017-12-29T13:48:08Z</time>
      </trkpt>
      <trkpt lat="46.01524" lon="6.58056">
        <ele>1864</ele>
        <time>2017-12-29T13:48:13Z</time>
      </trkpt>
      <trkpt lat="46.01539" lon="6.58062">
        <ele>1863</ele>
        <time>2017-12-29T13:48:20Z</time>
      </trkpt>
      <trkpt lat="46.0154" lon="6.5806">
        <ele>1863</ele>
        <time>2017-12-29T13:48:21Z</time>
      </trkpt>
      <trkpt lat="46.01542" lon="6.58056">
        <ele>1862</ele>
        <time>2017-12-29T13:48:22Z</time>
      </trkpt>
      <trkpt lat="46.01544" lon="6.5805">
        <ele>1860</ele>
        <time>2017-12-29T13:48:23Z</time>
      </trkpt>
      <trkpt lat="46.01548" lon="6.58035">
        <ele>1857</ele>
        <time>2017-12-29T13:48:25Z</time>
      </trkpt>
      <trkpt lat="46.01551" lon="6.58027">
        <ele>1855</ele>
        <time>2017-12-29T13:48:26Z</time>
      </trkpt>
      <trkpt lat="46.01553" lon="6.58019">
        <ele>1853</ele>
        <time>2017-12-29T13:48:27Z</time>
      </trkpt>
      <trkpt lat="46.01557" lon="6.58001">
        <ele>1849</ele>
        <time>2017-12-29T13:48:29Z</time>
      </trkpt>
      <trkpt lat="46.01558" lon="6.57993">
        <ele>1830</ele>
        <time>2017-12-29T13:48:30Z</time>
      </trkpt>
      <trkpt lat="46.0156" lon="6.57985">
        <ele>1828</ele>
        <time>2017-12-29T13:48:31Z</time>
      </trkpt>
      <trkpt lat="46.01562" lon="6.57979">
        <ele>1827</ele>
        <time>2017-12-29T13:48:32Z</time>
      </trkpt>
      <trkpt lat="46.01563" lon="6.57972">
        <ele>1826</ele>
        <time>2017-12-29T13:48:33Z</time>
      </trkpt>
      <trkpt lat="46.01563" lon="6.57966">
        <ele>1824</ele>
        <time>2017-12-29T13:48:34Z</time>
      </trkpt>
      <trkpt lat="46.01561" lon="6.57961">
        <ele>1823</ele>
        <time>2017-12-29T13:48:35Z</time>
      </trkpt>
      <trkpt lat="46.01558" lon="6.57957">
        <ele>1822</ele>
        <time>2017-12-29T13:48:36Z</time>
      </trkpt>
      <trkpt lat="46.01556" lon="6.57951">
        <ele>1821</ele>
        <time>2017-12-29T13:48:37Z</time>
      </trkpt>
      <trkpt lat="46.01556" lon="6.57945">
        <ele>1819</ele>
        <time>2017-12-29T13:48:38Z</time>
      </trkpt>
      <trkpt lat="46.01555" lon="6.57939">
        <ele>1818</ele>
        <time>2017-12-29T13:48:39Z</time>
      </trkpt>
      <trkpt lat="46.01555" lon="6.57932">
        <ele>1816</ele>
        <time>2017-12-29T13:48:40Z</time>
      </trkpt>
      <trkpt lat="46.01556" lon="6.57927">
        <ele>1815</ele>
        <time>2017-12-29T13:48:41Z</time>
      </trkpt>
      <trkpt lat="46.01559" lon="6.57923">
        <ele>1813</ele>
        <time>2017-12-29T13:48:42Z</time>
      </trkpt>
      <trkpt lat="46.0156" lon="6.57919">
        <ele>1812</ele>
        <time>2017-12-29T13:48:43Z</time>
      </trkpt>
      <trkpt lat="46.01559" lon="6.57914">
        <ele>1793</ele>
        <time>2017-12-29T13:48:44Z</time>
      </trkpt>
      <trkpt lat="46.01557" lon="6.57913">
        <ele>1793</ele>
        <time>2017-12-29T13:48:45Z</time>
      </trkpt>
      <trkpt lat="46.01556" lon="6.57912">
        <ele>1793</ele>
        <time>2017-12-29T13:48:46Z</time>
      </trkpt>
      <trkpt lat="46.01556" lon="6.57913">
        <ele>1793</ele>
        <time>2017-12-29T13:48:47Z</time>
      </trkpt>
      <trkpt lat="46.01555" lon="6.57915">
        <ele>1793</ele>
        <time>2017-12-29T13:49:07Z</time>
      </trkpt>
      <trkpt lat="46.01555" lon="6.57916">
        <ele>1793</ele>
        <time>2017-12-29T13:49:12Z</time>
      </trkpt>
      <trkpt lat="46.01555" lon="6.57916">
        <ele>1793</ele>
        <time>2017-12-29T13:49:14Z</time>
      </trkpt>
      <trkpt lat="46.01556" lon="6.57917">
        <ele>1813</ele>
        <time>2017-12-29T13:49:20Z</time>
      </trkpt>
      <trkpt lat="46.01555" lon="6.57918">
        <ele>1814</ele>
        <time>2017-12-29T13:49:24Z</time>
      </trkpt>
      <trkpt lat="46.01555" lon="6.57918">
        <ele>1814</ele>
        <time>2017-12-29T13:49:45Z</time>
      </trkpt>
      <trkpt lat="46.01555" lon="6.57918">
        <ele>1814</ele>
        <time>2017-12-29T13:49:54Z</time>
      </trkpt>
      <trkpt lat="46.01555" lon="6.57918">
        <ele>1814</ele>
        <time>2017-12-29T13:49:56Z</time>
      </trkpt>
      <trkpt lat="46.01556" lon="6.57918">
        <ele>1814</ele>
        <time>2017-12-29T13:49:57Z</time>
      </trkpt>
      <trkpt lat="46.01556" lon="6.57917">
        <ele>1813</ele>
        <time>2017-12-29T13:50:15Z</time>
      </trkpt>
      <trkpt lat="46.01556" lon="6.57919">
        <ele>1813</ele>
        <time>2017-12-29T13:50:34Z</time>
      </trkpt>
      <trkpt lat="46.01556" lon="6.57919">
        <ele>1813</ele>
        <time>2017-12-29T13:50:36Z</time>
      </trkpt>
      <trkpt lat="46.01556" lon="6.57919">
        <ele>1814</ele>
        <time>2017-12-29T13:50:44Z</time>
      </trkpt>
      <trkpt lat="46.01556" lon="6.5792">
        <ele>1814</ele>
        <time>2017-12-29T13:50:58Z</time>
      </trkpt>
      <trkpt lat="46.01557" lon="6.57917">
        <ele>1813</ele>
        <time>2017-12-29T13:51:06Z</time>
      </trkpt>
      <trkpt lat="46.01557" lon="6.57918">
        <ele>1813</ele>
        <time>2017-12-29T13:51:13Z</time>
      </trkpt>
      <trkpt lat="46.01557" lon="6.5792">
        <ele>1813</ele>
        <time>2017-12-29T13:51:18Z</time>
      </trkpt>
      <trkpt lat="46.01556" lon="6.5792">
        <ele>1814</ele>
        <time>2017-12-29T13:51:21Z</time>
      </trkpt>
      <trkpt lat="46.01556" lon="6.57922">
        <ele>1814</ele>
        <time>2017-12-29T13:51:33Z</time>
      </trkpt>
      <trkpt lat="46.01556" lon="6.57921">
        <ele>1814</ele>
        <time>2017-12-29T13:51:49Z</time>
      </trkpt>
      <trkpt lat="46.01556" lon="6.57922">
        <ele>1814</ele>
        <time>2017-12-29T13:52:11Z</time>
      </trkpt>
      <trkpt lat="46.01554" lon="6.57922">
        <ele>1815</ele>
        <time>2017-12-29T13:52:38Z</time>
      </trkpt>
      <trkpt lat="46.01555" lon="6.57922">
        <ele>1814</ele>
        <time>2017-12-29T13:52:47Z</time>
      </trkpt>
      <trkpt lat="46.01554" lon="6.57922">
        <ele>1815</ele>
        <time>2017-12-29T13:52:53Z</time>
      </trkpt>
      <trkpt lat="46.01554" lon="6.57922">
        <ele>1815</ele>
        <time>2017-12-29T13:52:56Z</time>
      </trkpt>
      <trkpt lat="46.01554" lon="6.57922">
        <ele>1815</ele>
        <time>2017-12-29T13:53:03Z</time>
      </trkpt>
      <trkpt lat="46.01554" lon="6.57922">
        <ele>1815</ele>
        <time>2017-12-29T13:53:06Z</time>
      </trkpt>
      <trkpt lat="46.01555" lon="6.57921">
        <ele>1814</ele>
        <time>2017-12-29T13:53:55Z</time>
      </trkpt>
      <trkpt lat="46.01554" lon="6.5792">
        <ele>1814</ele>
        <time>2017-12-29T13:54:10Z</time>
      </trkpt>
      <trkpt lat="46.01555" lon="6.57919">
        <ele>1814</ele>
        <time>2017-12-29T13:54:32Z</time>
      </trkpt>
      <trkpt lat="46.01555" lon="6.57919">
        <ele>1814</ele>
        <time>2017-12-29T13:54:39Z</time>
      </trkpt>
      <trkpt lat="46.01555" lon="6.57919">
        <ele>1814</ele>
        <time>2017-12-29T13:54:40Z</time>
      </trkpt>
      <trkpt lat="46.01555" lon="6.57919">
        <ele>1814</ele>
        <time>2017-12-29T13:54:47Z</time>
      </trkpt>
      <trkpt lat="46.01555" lon="6.57919">
        <ele>1814</ele>
        <time>2017-12-29T13:54:53Z</time>
      </trkpt>
      <trkpt lat="46.01555" lon="6.5792">
        <ele>1814</ele>
        <time>2017-12-29T13:54:57Z</time>
      </trkpt>
      <trkpt lat="46.01555" lon="6.57919">
        <ele>1814</ele>
        <time>2017-12-29T13:54:59Z</time>
      </trkpt>
      <trkpt lat="46.01555" lon="6.57922">
        <ele>1814</ele>
        <time>2017-12-29T13:55:12Z</time>
      </trkpt>
      <trkpt lat="46.01555" lon="6.57922">
        <ele>1814</ele>
        <time>2017-12-29T13:55:15Z</time>
      </trkpt>
      <trkpt lat="46.01555" lon="6.57922">
        <ele>1814</ele>
        <time>2017-12-29T13:55:16Z</time>
      </trkpt>
      <trkpt lat="46.01555" lon="6.57921">
        <ele>1814</ele>
        <time>2017-12-29T13:55:20Z</time>
      </trkpt>
      <trkpt lat="46.01556" lon="6.5792">
        <ele>1814</ele>
        <time>2017-12-29T13:55:30Z</time>
      </trkpt>
      <trkpt lat="46.01556" lon="6.5792">
        <ele>1814</ele>
        <time>2017-12-29T13:55:52Z</time>
      </trkpt>
      <trkpt lat="46.01555" lon="6.5792">
        <ele>1814</ele>
        <time>2017-12-29T13:55:55Z</time>
      </trkpt>
      <trkpt lat="46.01555" lon="6.57921">
        <ele>1814</ele>
        <time>2017-12-29T13:55:57Z</time>
      </trkpt>
      <trkpt lat="46.01554" lon="6.5792">
        <ele>1814</ele>
        <time>2017-12-29T13:55:59Z</time>
      </trkpt>
      <trkpt lat="46.01554" lon="6.57921">
        <ele>1814</ele>
        <time>2017-12-29T13:56:01Z</time>
      </trkpt>
      <trkpt lat="46.01554" lon="6.57921">
        <ele>1814</ele>
        <time>2017-12-29T13:56:04Z</time>
      </trkpt>
      <trkpt lat="46.01559" lon="6.57924">
        <ele>1813</ele>
        <time>2017-12-29T13:56:20Z</time>
      </trkpt>
      <trkpt lat="46.01564" lon="6.5793">
        <ele>1812</ele>
        <time>2017-12-29T13:56:34Z</time>
      </trkpt>
      <trkpt lat="46.01566" lon="6.57933">
        <ele>1813</ele>
        <time>2017-12-29T13:56:37Z</time>
      </trkpt>
      <trkpt lat="46.01567" lon="6.57936">
        <ele>1814</ele>
        <time>2017-12-29T13:56:40Z</time>
      </trkpt>
      <trkpt lat="46.01566" lon="6.57937">
        <ele>1814</ele>
        <time>2017-12-29T13:56:43Z</time>
      </trkpt>
      <trkpt lat="46.01562" lon="6.57937">
        <ele>1815</ele>
        <time>2017-12-29T13:56:48Z</time>
      </trkpt>
      <trkpt lat="46.01559" lon="6.57937">
        <ele>1817</ele>
        <time>2017-12-29T13:56:53Z</time>
      </trkpt>
      <trkpt lat="46.01552" lon="6.57939">
        <ele>1819</ele>
        <time>2017-12-29T13:57:07Z</time>
      </trkpt>
      <trkpt lat="46.01548" lon="6.57939">
        <ele>1820</ele>
        <time>2017-12-29T13:57:13Z</time>
      </trkpt>
      <trkpt lat="46.01545" lon="6.57939">
        <ele>1820</ele>
        <time>2017-12-29T13:57:19Z</time>
      </trkpt>
      <trkpt lat="46.0154" lon="6.57941">
        <ele>1821</ele>
        <time>2017-12-29T13:57:32Z</time>
      </trkpt>
      <trkpt lat="46.01545" lon="6.57949">
        <ele>1822</ele>
        <time>2017-12-29T13:57:45Z</time>
      </trkpt>
      <trkpt lat="46.01552" lon="6.57961">
        <ele>1824</ele>
        <time>2017-12-29T13:58:07Z</time>
      </trkpt>
      <trkpt lat="46.01559" lon="6.57973">
        <ele>1826</ele>
        <time>2017-12-29T13:58:26Z</time>
      </trkpt>
      <trkpt lat="46.01562" lon="6.57978">
        <ele>1827</ele>
        <time>2017-12-29T13:58:33Z</time>
      </trkpt>
      <trkpt lat="46.01568" lon="6.57993">
        <ele>1830</ele>
        <time>2017-12-29T13:58:55Z</time>
      </trkpt>
      <trkpt lat="46.01575" lon="6.58007">
        <ele>1842</ele>
        <time>2017-12-29T13:59:17Z</time>
      </trkpt>
      <trkpt lat="46.01578" lon="6.58013">
        <ele>1844</ele>
        <time>2017-12-29T13:59:27Z</time>
      </trkpt>
      <trkpt lat="46.01579" lon="6.58015">
        <ele>1845</ele>
        <time>2017-12-29T13:59:31Z</time>
      </trkpt>
      <trkpt lat="46.0158" lon="6.58018">
        <ele>1847</ele>
        <time>2017-12-29T13:59:34Z</time>
      </trkpt>
      <trkpt lat="46.01582" lon="6.58024">
        <ele>1849</ele>
        <time>2017-12-29T13:59:42Z</time>
      </trkpt>
      <trkpt lat="46.01583" lon="6.58026">
        <ele>1850</ele>
        <time>2017-12-29T13:59:44Z</time>
      </trkpt>
      <trkpt lat="46.01572" lon="6.58026">
        <ele>1851</ele>
        <time>2017-12-29T14:00:07Z</time>
      </trkpt>
      <trkpt lat="46.01559" lon="6.58027">
        <ele>1854</ele>
        <time>2017-12-29T14:00:28Z</time>
      </trkpt>
      <trkpt lat="46.01546" lon="6.58029">
        <ele>1856</ele>
        <time>2017-12-29T14:00:48Z</time>
      </trkpt>
      <trkpt lat="46.01543" lon="6.58029">
        <ele>1857</ele>
        <time>2017-12-29T14:00:53Z</time>
      </trkpt>
      <trkpt lat="46.01533" lon="6.58028">
        <ele>1858</ele>
        <time>2017-12-29T14:01:11Z</time>
      </trkpt>
      <trkpt lat="46.01527" lon="6.58025">
        <ele>1858</ele>
        <time>2017-12-29T14:01:24Z</time>
      </trkpt>
      <trkpt lat="46.01515" lon="6.58025">
        <ele>1859</ele>
        <time>2017-12-29T14:01:46Z</time>
      </trkpt>
      <trkpt lat="46.0151" lon="6.58025">
        <ele>1859</ele>
        <time>2017-12-29T14:01:53Z</time>
      </trkpt>
      <trkpt lat="46.01499" lon="6.58025">
        <ele>1868</ele>
        <time>2017-12-29T14:02:12Z</time>
      </trkpt>
      <trkpt lat="46.0149" lon="6.58027">
        <ele>1870</ele>
        <time>2017-12-29T14:02:26Z</time>
      </trkpt>
      <trkpt lat="46.01489" lon="6.58027">
        <ele>1870</ele>
        <time>2017-12-29T14:02:27Z</time>
      </trkpt>
      <trkpt lat="46.01483" lon="6.58028">
        <ele>1871</ele>
        <time>2017-12-29T14:02:38Z</time>
      </trkpt>
      <trkpt lat="46.01475" lon="6.58031">
        <ele>1872</ele>
        <time>2017-12-29T14:02:52Z</time>
      </trkpt>
      <trkpt lat="46.01463" lon="6.58036">
        <ele>1875</ele>
        <time>2017-12-29T14:03:12Z</time>
      </trkpt>
      <trkpt lat="46.01457" lon="6.58039">
        <ele>1876</ele>
        <time>2017-12-29T14:03:24Z</time>
      </trkpt>
      <trkpt lat="46.01455" lon="6.5804">
        <ele>1876</ele>
        <time>2017-12-29T14:03:26Z</time>
      </trkpt>
      <trkpt lat="46.0145" lon="6.58042">
        <ele>1876</ele>
        <time>2017-12-29T14:03:35Z</time>
      </trkpt>
      <trkpt lat="46.01446" lon="6.58044">
        <ele>1877</ele>
        <time>2017-12-29T14:03:40Z</time>
      </trkpt>
      <trkpt lat="46.01444" lon="6.58044">
        <ele>1877</ele>
        <time>2017-12-29T14:03:43Z</time>
      </trkpt>
      <trkpt lat="46.0144" lon="6.58045">
        <ele>1878</ele>
        <time>2017-12-29T14:03:51Z</time>
      </trkpt>
      <trkpt lat="46.01439" lon="6.58045">
        <ele>1878</ele>
        <time>2017-12-29T14:03:52Z</time>
      </trkpt>
      <trkpt lat="46.01435" lon="6.58046">
        <ele>1878</ele>
        <time>2017-12-29T14:03:56Z</time>
      </trkpt>
      <trkpt lat="46.01434" lon="6.58046">
        <ele>1878</ele>
        <time>2017-12-29T14:03:58Z</time>
      </trkpt>
      <trkpt lat="46.01422" lon="6.58047">
        <ele>1879</ele>
        <time>2017-12-29T14:04:13Z</time>
      </trkpt>
      <trkpt lat="46.0142" lon="6.58047">
        <ele>1880</ele>
        <time>2017-12-29T14:04:15Z</time>
      </trkpt>
      <trkpt lat="46.01416" lon="6.5805">
        <ele>1889</ele>
        <time>2017-12-29T14:04:22Z</time>
      </trkpt>
      <trkpt lat="46.01414" lon="6.5805">
        <ele>1889</ele>
        <time>2017-12-29T14:04:24Z</time>
      </trkpt>
      <trkpt lat="46.01413" lon="6.58051">
        <ele>1889</ele>
        <time>2017-12-29T14:04:25Z</time>
      </trkpt>
      <trkpt lat="46.01412" lon="6.58051">
        <ele>1889</ele>
        <time>2017-12-29T14:04:26Z</time>
      </trkpt>
      <trkpt lat="46.014" lon="6.58053">
        <ele>1890</ele>
        <time>2017-12-29T14:04:41Z</time>
      </trkpt>
      <trkpt lat="46.01391" lon="6.58055">
        <ele>1890</ele>
        <time>2017-12-29T14:04:52Z</time>
      </trkpt>
      <trkpt lat="46.0139" lon="6.58055">
        <ele>1890</ele>
        <time>2017-12-29T14:04:53Z</time>
      </trkpt>
      <trkpt lat="46.01389" lon="6.58056">
        <ele>1890</ele>
        <time>2017-12-29T14:04:54Z</time>
      </trkpt>
      <trkpt lat="46.01388" lon="6.58056">
        <ele>1890</ele>
        <time>2017-12-29T14:04:55Z</time>
      </trkpt>
      <trkpt lat="46.01387" lon="6.58056">
        <ele>1890</ele>
        <time>2017-12-29T14:04:56Z</time>
      </trkpt>
      <trkpt lat="46.01386" lon="6.58056">
        <ele>1890</ele>
        <time>2017-12-29T14:04:57Z</time>
      </trkpt>
      <trkpt lat="46.01382" lon="6.58057">
        <ele>1891</ele>
        <time>2017-12-29T14:05:02Z</time>
      </trkpt>
      <trkpt lat="46.01381" lon="6.58057">
        <ele>1891</ele>
        <time>2017-12-29T14:05:04Z</time>
      </trkpt>
      <trkpt lat="46.0138" lon="6.58058">
        <ele>1891</ele>
        <time>2017-12-29T14:05:05Z</time>
      </trkpt>
      <trkpt lat="46.01368" lon="6.5806">
        <ele>1892</ele>
        <time>2017-12-29T14:05:22Z</time>
      </trkpt>
      <trkpt lat="46.01361" lon="6.58061">
        <ele>1893</ele>
        <time>2017-12-29T14:05:31Z</time>
      </trkpt>
      <trkpt lat="46.0136" lon="6.58061">
        <ele>1893</ele>
        <time>2017-12-29T14:05:33Z</time>
      </trkpt>
      <trkpt lat="46.01358" lon="6.58061">
        <ele>1893</ele>
        <time>2017-12-29T14:05:35Z</time>
      </trkpt>
      <trkpt lat="46.01351" lon="6.58059">
        <ele>1894</ele>
        <time>2017-12-29T14:05:42Z</time>
      </trkpt>
      <trkpt lat="46.01346" lon="6.58057">
        <ele>1894</ele>
        <time>2017-12-29T14:05:49Z</time>
      </trkpt>
      <trkpt lat="46.01337" lon="6.58056">
        <ele>1894</ele>
        <time>2017-12-29T14:05:59Z</time>
      </trkpt>
      <trkpt lat="46.01335" lon="6.58056">
        <ele>1894</ele>
        <time>2017-12-29T14:06:01Z</time>
      </trkpt>
      <trkpt lat="46.01333" lon="6.58056">
        <ele>1903</ele>
        <time>2017-12-29T14:06:15Z</time>
      </trkpt>
      <trkpt lat="46.01333" lon="6.58055">
        <ele>1903</ele>
        <time>2017-12-29T14:06:18Z</time>
      </trkpt>
      <trkpt lat="46.01334" lon="6.58056">
        <ele>1894</ele>
        <time>2017-12-29T14:06:22Z</time>
      </trkpt>
      <trkpt lat="46.01334" lon="6.58056">
        <ele>1894</ele>
        <time>2017-12-29T14:06:25Z</time>
      </trkpt>
      <trkpt lat="46.01334" lon="6.58056">
        <ele>1894</ele>
        <time>2017-12-29T14:06:29Z</time>
      </trkpt>
      <trkpt lat="46.01334" lon="6.58056">
        <ele>1894</ele>
        <time>2017-12-29T14:06:46Z</time>
      </trkpt>
      <trkpt lat="46.01334" lon="6.58056">
        <ele>1894</ele>
        <time>2017-12-29T14:06:52Z</time>
      </trkpt>
      <trkpt lat="46.01334" lon="6.58055">
        <ele>1894</ele>
        <time>2017-12-29T14:06:59Z</time>
      </trkpt>
      <trkpt lat="46.01334" lon="6.58055">
        <ele>1894</ele>
        <time>2017-12-29T14:07:00Z</time>
      </trkpt>
      <trkpt lat="46.01334" lon="6.58055">
        <ele>1894</ele>
        <time>2017-12-29T14:07:02Z</time>
      </trkpt>
      <trkpt lat="46.01335" lon="6.58056">
        <ele>1894</ele>
        <time>2017-12-29T14:07:03Z</time>
      </trkpt>
      <trkpt lat="46.01334" lon="6.58055">
        <ele>1894</ele>
        <time>2017-12-29T14:07:04Z</time>
      </trkpt>
      <trkpt lat="46.01334" lon="6.58055">
        <ele>1894</ele>
        <time>2017-12-29T14:07:20Z</time>
      </trkpt>
      <trkpt lat="46.01333" lon="6.58055">
        <ele>1903</ele>
        <time>2017-12-29T14:07:23Z</time>
      </trkpt>
      <trkpt lat="46.01333" lon="6.58055">
        <ele>1903</ele>
        <time>2017-12-29T14:07:30Z</time>
      </trkpt>
      <trkpt lat="46.01333" lon="6.58055">
        <ele>1903</ele>
        <time>2017-12-29T14:07:42Z</time>
      </trkpt>
      <trkpt lat="46.01332" lon="6.58055">
        <ele>1903</ele>
        <time>2017-12-29T14:07:46Z</time>
      </trkpt>
      <trkpt lat="46.01332" lon="6.58055">
        <ele>1903</ele>
        <time>2017-12-29T14:07:51Z</time>
      </trkpt>
      <trkpt lat="46.01333" lon="6.58054">
        <ele>1903</ele>
        <time>2017-12-29T14:08:08Z</time>
      </trkpt>
      <trkpt lat="46.01334" lon="6.58055">
        <ele>1894</ele>
        <time>2017-12-29T14:08:50Z</time>
      </trkpt>
      <trkpt lat="46.01335" lon="6.58056">
        <ele>1894</ele>
        <time>2017-12-29T14:08:53Z</time>
      </trkpt>
      <trkpt lat="46.01334" lon="6.58056">
        <ele>1894</ele>
        <time>2017-12-29T14:08:55Z</time>
      </trkpt>
      <trkpt lat="46.01333" lon="6.58055">
        <ele>1903</ele>
        <time>2017-12-29T14:08:59Z</time>
      </trkpt>
      <trkpt lat="46.01333" lon="6.58051">
        <ele>1902</ele>
        <time>2017-12-29T14:09:02Z</time>
      </trkpt>
      <trkpt lat="46.01333" lon="6.58048">
        <ele>1902</ele>
        <time>2017-12-29T14:09:03Z</time>
      </trkpt>
      <trkpt lat="46.01334" lon="6.58034">
        <ele>1891</ele>
        <time>2017-12-29T14:09:05Z</time>
      </trkpt>
      <trkpt lat="46.01336" lon="6.58028">
        <ele>1891</ele>
        <time>2017-12-29T14:09:06Z</time>
      </trkpt>
      <trkpt lat="46.01336" lon="6.5802">
        <ele>1890</ele>
        <time>2017-12-29T14:09:07Z</time>
      </trkpt>
      <trkpt lat="46.01336" lon="6.58012">
        <ele>1890</ele>
        <time>2017-12-29T14:09:08Z</time>
      </trkpt>
      <trkpt lat="46.01337" lon="6.58005">
        <ele>1890</ele>
        <time>2017-12-29T14:09:09Z</time>
      </trkpt>
      <trkpt lat="46.01339" lon="6.57999">
        <ele>1886</ele>
        <time>2017-12-29T14:09:10Z</time>
      </trkpt>
      <trkpt lat="46.01343" lon="6.57993">
        <ele>1883</ele>
        <time>2017-12-29T14:09:11Z</time>
      </trkpt>
      <trkpt lat="46.01348" lon="6.57989">
        <ele>1881</ele>
        <time>2017-12-29T14:09:12Z</time>
      </trkpt>
      <trkpt lat="46.01353" lon="6.57984">
        <ele>1879</ele>
        <time>2017-12-29T14:09:13Z</time>
      </trkpt>
      <trkpt lat="46.01358" lon="6.57979">
        <ele>1877</ele>
        <time>2017-12-29T14:09:14Z</time>
      </trkpt>
      <trkpt lat="46.01364" lon="6.57976">
        <ele>1876</ele>
        <time>2017-12-29T14:09:15Z</time>
      </trkpt>
      <trkpt lat="46.01369" lon="6.57973">
        <ele>1875</ele>
        <time>2017-12-29T14:09:16Z</time>
      </trkpt>
      <trkpt lat="46.01375" lon="6.57968">
        <ele>1873</ele>
        <time>2017-12-29T14:09:17Z</time>
      </trkpt>
      <trkpt lat="46.01379" lon="6.57963">
        <ele>1872</ele>
        <time>2017-12-29T14:09:18Z</time>
      </trkpt>
      <trkpt lat="46.01382" lon="6.57956">
        <ele>1871</ele>
        <time>2017-12-29T14:09:19Z</time>
      </trkpt>
      <trkpt lat="46.01385" lon="6.57948">
        <ele>1869</ele>
        <time>2017-12-29T14:09:20Z</time>
      </trkpt>
      <trkpt lat="46.01388" lon="6.5794">
        <ele>1868</ele>
        <time>2017-12-29T14:09:21Z</time>
      </trkpt>
      <trkpt lat="46.0139" lon="6.57931">
        <ele>1866</ele>
        <time>2017-12-29T14:09:22Z</time>
      </trkpt>
      <trkpt lat="46.01392" lon="6.57923">
        <ele>1864</ele>
        <time>2017-12-29T14:09:23Z</time>
      </trkpt>
      <trkpt lat="46.01394" lon="6.57916">
        <ele>1856</ele>
        <time>2017-12-29T14:09:24Z</time>
      </trkpt>
      <trkpt lat="46.01397" lon="6.5791">
        <ele>1855</ele>
        <time>2017-12-29T14:09:25Z</time>
      </trkpt>
      <trkpt lat="46.014" lon="6.57905">
        <ele>1854</ele>
        <time>2017-12-29T14:09:26Z</time>
      </trkpt>
      <trkpt lat="46.01406" lon="6.57895">
        <ele>1854</ele>
        <time>2017-12-29T14:09:28Z</time>
      </trkpt>
      <trkpt lat="46.01411" lon="6.57892">
        <ele>1853</ele>
        <time>2017-12-29T14:09:29Z</time>
      </trkpt>
      <trkpt lat="46.01414" lon="6.57891">
        <ele>1853</ele>
        <time>2017-12-29T14:09:30Z</time>
      </trkpt>
      <trkpt lat="46.01418" lon="6.57889">
        <ele>1833</ele>
        <time>2017-12-29T14:09:31Z</time>
      </trkpt>
      <trkpt lat="46.01423" lon="6.57887">
        <ele>1832</ele>
        <time>2017-12-29T14:09:32Z</time>
      </trkpt>
      <trkpt lat="46.01429" lon="6.57887">
        <ele>1831</ele>
        <time>2017-12-29T14:09:33Z</time>
      </trkpt>
      <trkpt lat="46.01434" lon="6.57883">
        <ele>1830</ele>
        <time>2017-12-29T14:09:34Z</time>
      </trkpt>
      <trkpt lat="46.0144" lon="6.57879">
        <ele>1828</ele>
        <time>2017-12-29T14:09:35Z</time>
      </trkpt>
      <trkpt lat="46.01445" lon="6.57873">
        <ele>1826</ele>
        <time>2017-12-29T14:09:36Z</time>
      </trkpt>
      <trkpt lat="46.0145" lon="6.57867">
        <ele>1825</ele>
        <time>2017-12-29T14:09:37Z</time>
      </trkpt>
      <trkpt lat="46.01454" lon="6.57861">
        <ele>1824</ele>
        <time>2017-12-29T14:09:38Z</time>
      </trkpt>
      <trkpt lat="46.01458" lon="6.57855">
        <ele>1822</ele>
        <time>2017-12-29T14:09:39Z</time>
      </trkpt>
      <trkpt lat="46.01462" lon="6.57853">
        <ele>1821</ele>
        <time>2017-12-29T14:09:40Z</time>
      </trkpt>
      <trkpt lat="46.01464" lon="6.57854">
        <ele>1820</ele>
        <time>2017-12-29T14:09:41Z</time>
      </trkpt>
      <trkpt lat="46.01466" lon="6.57857">
        <ele>1820</ele>
        <time>2017-12-29T14:09:42Z</time>
      </trkpt>
      <trkpt lat="46.0147" lon="6.5786">
        <ele>1819</ele>
        <time>2017-12-29T14:09:43Z</time>
      </trkpt>
      <trkpt lat="46.01475" lon="6.57863">
        <ele>1819</ele>
        <time>2017-12-29T14:09:44Z</time>
      </trkpt>
      <trkpt lat="46.01485" lon="6.57868">
        <ele>1817</ele>
        <time>2017-12-29T14:09:46Z</time>
      </trkpt>
      <trkpt lat="46.0149" lon="6.57868">
        <ele>1817</ele>
        <time>2017-12-29T14:09:47Z</time>
      </trkpt>
      <trkpt lat="46.01495" lon="6.57865">
        <ele>1815</ele>
        <time>2017-12-29T14:09:48Z</time>
      </trkpt>
      <trkpt lat="46.01501" lon="6.5786">
        <ele>1793</ele>
        <time>2017-12-29T14:09:49Z</time>
      </trkpt>
      <trkpt lat="46.01507" lon="6.57857">
        <ele>1793</ele>
        <time>2017-12-29T14:09:50Z</time>
      </trkpt>
      <trkpt lat="46.01511" lon="6.57853">
        <ele>1792</ele>
        <time>2017-12-29T14:09:51Z</time>
      </trkpt>
      <trkpt lat="46.01516" lon="6.57847">
        <ele>1791</ele>
        <time>2017-12-29T14:09:52Z</time>
      </trkpt>
      <trkpt lat="46.01523" lon="6.57844">
        <ele>1789</ele>
        <time>2017-12-29T14:09:53Z</time>
      </trkpt>
      <trkpt lat="46.01529" lon="6.57844">
        <ele>1788</ele>
        <time>2017-12-29T14:09:54Z</time>
      </trkpt>
      <trkpt lat="46.01533" lon="6.57841">
        <ele>1787</ele>
        <time>2017-12-29T14:09:55Z</time>
      </trkpt>
      <trkpt lat="46.01536" lon="6.57835">
        <ele>1785</ele>
        <time>2017-12-29T14:09:56Z</time>
      </trkpt>
      <trkpt lat="46.0154" lon="6.57832">
        <ele>1767</ele>
        <time>2017-12-29T14:09:57Z</time>
      </trkpt>
      <trkpt lat="46.01544" lon="6.57832">
        <ele>1765</ele>
        <time>2017-12-29T14:09:58Z</time>
      </trkpt>
      <trkpt lat="46.01545" lon="6.57834">
        <ele>1782</ele>
        <time>2017-12-29T14:09:59Z</time>
      </trkpt>
      <trkpt lat="46.01549" lon="6.57832">
        <ele>1763</ele>
        <time>2017-12-29T14:10:03Z</time>
      </trkpt>
      <trkpt lat="46.01552" lon="6.57831">
        <ele>1763</ele>
        <time>2017-12-29T14:10:04Z</time>
      </trkpt>
      <trkpt lat="46.01553" lon="6.5783">
        <ele>1762</ele>
        <time>2017-12-29T14:10:05Z</time>
      </trkpt>
      <trkpt lat="46.01555" lon="6.57827">
        <ele>1761</ele>
        <time>2017-12-29T14:10:06Z</time>
      </trkpt>
      <trkpt lat="46.01557" lon="6.57823">
        <ele>1761</ele>
        <time>2017-12-29T14:10:07Z</time>
      </trkpt>
      <trkpt lat="46.01559" lon="6.57817">
        <ele>1760</ele>
        <time>2017-12-29T14:10:08Z</time>
      </trkpt>
      <trkpt lat="46.01562" lon="6.5781">
        <ele>1759</ele>
        <time>2017-12-29T14:10:09Z</time>
      </trkpt>
      <trkpt lat="46.01566" lon="6.57803">
        <ele>1757</ele>
        <time>2017-12-29T14:10:10Z</time>
      </trkpt>
      <trkpt lat="46.01571" lon="6.57799">
        <ele>1756</ele>
        <time>2017-12-29T14:10:11Z</time>
      </trkpt>
      <trkpt lat="46.01575" lon="6.57795">
        <ele>1755</ele>
        <time>2017-12-29T14:10:12Z</time>
      </trkpt>
      <trkpt lat="46.0158" lon="6.5779">
        <ele>1753</ele>
        <time>2017-12-29T14:10:13Z</time>
      </trkpt>
      <trkpt lat="46.01586" lon="6.57784">
        <ele>1729</ele>
        <time>2017-12-29T14:10:14Z</time>
      </trkpt>
      <trkpt lat="46.01591" lon="6.57778">
        <ele>1728</ele>
        <time>2017-12-29T14:10:15Z</time>
      </trkpt>
      <trkpt lat="46.01594" lon="6.57773">
        <ele>1727</ele>
        <time>2017-12-29T14:10:16Z</time>
      </trkpt>
      <trkpt lat="46.01596" lon="6.57766">
        <ele>1726</ele>
        <time>2017-12-29T14:10:17Z</time>
      </trkpt>
      <trkpt lat="46.01596" lon="6.57759">
        <ele>1725</ele>
        <time>2017-12-29T14:10:18Z</time>
      </trkpt>
      <trkpt lat="46.01598" lon="6.57754">
        <ele>1725</ele>
        <time>2017-12-29T14:10:19Z</time>
      </trkpt>
      <trkpt lat="46.01601" lon="6.57753">
        <ele>1725</ele>
        <time>2017-12-29T14:10:20Z</time>
      </trkpt>
      <trkpt lat="46.01603" lon="6.57751">
        <ele>1724</ele>
        <time>2017-12-29T14:10:21Z</time>
      </trkpt>
      <trkpt lat="46.01604" lon="6.57746">
        <ele>1712</ele>
        <time>2017-12-29T14:10:22Z</time>
      </trkpt>
      <trkpt lat="46.01606" lon="6.57741">
        <ele>1710</ele>
        <time>2017-12-29T14:10:23Z</time>
      </trkpt>
      <trkpt lat="46.0161" lon="6.57737">
        <ele>1708</ele>
        <time>2017-12-29T14:10:24Z</time>
      </trkpt>
      <trkpt lat="46.01613" lon="6.57732">
        <ele>1707</ele>
        <time>2017-12-29T14:10:25Z</time>
      </trkpt>
      <trkpt lat="46.01616" lon="6.57728">
        <ele>1706</ele>
        <time>2017-12-29T14:10:26Z</time>
      </trkpt>
      <trkpt lat="46.01619" lon="6.57726">
        <ele>1705</ele>
        <time>2017-12-29T14:10:27Z</time>
      </trkpt>
      <trkpt lat="46.0162" lon="6.57722">
        <ele>1704</ele>
        <time>2017-12-29T14:10:28Z</time>
      </trkpt>
      <trkpt lat="46.01619" lon="6.5772">
        <ele>1704</ele>
        <time>2017-12-29T14:10:29Z</time>
      </trkpt>
      <trkpt lat="46.0162" lon="6.5772">
        <ele>1704</ele>
        <time>2017-12-29T14:10:33Z</time>
      </trkpt>
      <trkpt lat="46.0162" lon="6.57719">
        <ele>1704</ele>
        <time>2017-12-29T14:10:37Z</time>
      </trkpt>
      <trkpt lat="46.01624" lon="6.5772">
        <ele>1703</ele>
        <time>2017-12-29T14:10:39Z</time>
      </trkpt>
      <trkpt lat="46.01626" lon="6.5772">
        <ele>1702</ele>
        <time>2017-12-29T14:10:40Z</time>
      </trkpt>
      <trkpt lat="46.01629" lon="6.57718">
        <ele>1702</ele>
        <time>2017-12-29T14:10:41Z</time>
      </trkpt>
      <trkpt lat="46.01631" lon="6.57716">
        <ele>1701</ele>
        <time>2017-12-29T14:10:42Z</time>
      </trkpt>
      <trkpt lat="46.01633" lon="6.57714">
        <ele>1700</ele>
        <time>2017-12-29T14:10:43Z</time>
      </trkpt>
      <trkpt lat="46.01635" lon="6.57713">
        <ele>1700</ele>
        <time>2017-12-29T14:10:44Z</time>
      </trkpt>
      <trkpt lat="46.01637" lon="6.57712">
        <ele>1699</ele>
        <time>2017-12-29T14:10:45Z</time>
      </trkpt>
      <trkpt lat="46.01639" lon="6.57709">
        <ele>1698</ele>
        <time>2017-12-29T14:10:46Z</time>
      </trkpt>
      <trkpt lat="46.01643" lon="6.57707">
        <ele>1697</ele>
        <time>2017-12-29T14:10:47Z</time>
      </trkpt>
      <trkpt lat="46.01649" lon="6.57707">
        <ele>1696</ele>
        <time>2017-12-29T14:10:48Z</time>
      </trkpt>
      <trkpt lat="46.01652" lon="6.57704">
        <ele>1695</ele>
        <time>2017-12-29T14:10:49Z</time>
      </trkpt>
      <trkpt lat="46.01656" lon="6.577">
        <ele>1693</ele>
        <time>2017-12-29T14:10:50Z</time>
      </trkpt>
      <trkpt lat="46.01662" lon="6.577">
        <ele>1692</ele>
        <time>2017-12-29T14:10:51Z</time>
      </trkpt>
      <trkpt lat="46.01666" lon="6.577">
        <ele>1692</ele>
        <time>2017-12-29T14:10:52Z</time>
      </trkpt>
      <trkpt lat="46.01669" lon="6.57697">
        <ele>1667</ele>
        <time>2017-12-29T14:10:53Z</time>
      </trkpt>
      <trkpt lat="46.01672" lon="6.57694">
        <ele>1667</ele>
        <time>2017-12-29T14:10:54Z</time>
      </trkpt>
      <trkpt lat="46.01678" lon="6.57689">
        <ele>1666</ele>
        <time>2017-12-29T14:10:55Z</time>
      </trkpt>
      <trkpt lat="46.0168" lon="6.57686">
        <ele>1665</ele>
        <time>2017-12-29T14:10:56Z</time>
      </trkpt>
      <trkpt lat="46.01683" lon="6.57681">
        <ele>1664</ele>
        <time>2017-12-29T14:10:57Z</time>
      </trkpt>
      <trkpt lat="46.01687" lon="6.57677">
        <ele>1663</ele>
        <time>2017-12-29T14:10:58Z</time>
      </trkpt>
      <trkpt lat="46.0169" lon="6.57674">
        <ele>1663</ele>
        <time>2017-12-29T14:10:59Z</time>
      </trkpt>
      <trkpt lat="46.01692" lon="6.5767">
        <ele>1662</ele>
        <time>2017-12-29T14:11:00Z</time>
      </trkpt>
      <trkpt lat="46.01693" lon="6.57668">
        <ele>1661</ele>
        <time>2017-12-29T14:11:01Z</time>
      </trkpt>
      <trkpt lat="46.01695" lon="6.57667">
        <ele>1661</ele>
        <time>2017-12-29T14:11:02Z</time>
      </trkpt>
      <trkpt lat="46.01697" lon="6.57664">
        <ele>1643</ele>
        <time>2017-12-29T14:11:03Z</time>
      </trkpt>
      <trkpt lat="46.017" lon="6.57661">
        <ele>1641</ele>
        <time>2017-12-29T14:11:04Z</time>
      </trkpt>
      <trkpt lat="46.01703" lon="6.57658">
        <ele>1639</ele>
        <time>2017-12-29T14:11:05Z</time>
      </trkpt>
      <trkpt lat="46.01705" lon="6.57654">
        <ele>1638</ele>
        <time>2017-12-29T14:11:06Z</time>
      </trkpt>
      <trkpt lat="46.01706" lon="6.57649">
        <ele>1637</ele>
        <time>2017-12-29T14:11:07Z</time>
      </trkpt>
      <trkpt lat="46.0171" lon="6.57645">
        <ele>1635</ele>
        <time>2017-12-29T14:11:08Z</time>
      </trkpt>
      <trkpt lat="46.01713" lon="6.57643">
        <ele>1634</ele>
        <time>2017-12-29T14:11:09Z</time>
      </trkpt>
      <trkpt lat="46.01716" lon="6.57643">
        <ele>1632</ele>
        <time>2017-12-29T14:11:10Z</time>
      </trkpt>
      <trkpt lat="46.01719" lon="6.57642">
        <ele>1631</ele>
        <time>2017-12-29T14:11:11Z</time>
      </trkpt>
      <trkpt lat="46.01722" lon="6.5764">
        <ele>1630</ele>
        <time>2017-12-29T14:11:12Z</time>
      </trkpt>
      <trkpt lat="46.01724" lon="6.57637">
        <ele>1629</ele>
        <time>2017-12-29T14:11:13Z</time>
      </trkpt>
      <trkpt lat="46.01726" lon="6.57634">
        <ele>1629</ele>
        <time>2017-12-29T14:11:14Z</time>
      </trkpt>
      <trkpt lat="46.01727" lon="6.57631">
        <ele>1628</ele>
        <time>2017-12-29T14:11:16Z</time>
      </trkpt>
      <trkpt lat="46.01726" lon="6.57632">
        <ele>1628</ele>
        <time>2017-12-29T14:11:19Z</time>
      </trkpt>
      <trkpt lat="46.01725" lon="6.57631">
        <ele>1629</ele>
        <time>2017-12-29T14:11:26Z</time>
      </trkpt>
      <trkpt lat="46.01724" lon="6.57631">
        <ele>1629</ele>
        <time>2017-12-29T14:11:31Z</time>
      </trkpt>
      <trkpt lat="46.01725" lon="6.57633">
        <ele>1629</ele>
        <time>2017-12-29T14:11:38Z</time>
      </trkpt>
      <trkpt lat="46.01722" lon="6.57632">
        <ele>1629</ele>
        <time>2017-12-29T14:11:49Z</time>
      </trkpt>
      <trkpt lat="46.01723" lon="6.57631">
        <ele>1629</ele>
        <time>2017-12-29T14:11:55Z</time>
      </trkpt>
      <trkpt lat="46.01725" lon="6.57631">
        <ele>1628</ele>
        <time>2017-12-29T14:11:56Z</time>
      </trkpt>
      <trkpt lat="46.01727" lon="6.5763">
        <ele>1628</ele>
        <time>2017-12-29T14:11:57Z</time>
      </trkpt>
      <trkpt lat="46.0173" lon="6.57628">
        <ele>1627</ele>
        <time>2017-12-29T14:11:58Z</time>
      </trkpt>
      <trkpt lat="46.01733" lon="6.57628">
        <ele>1626</ele>
        <time>2017-12-29T14:11:59Z</time>
      </trkpt>
      <trkpt lat="46.01735" lon="6.57629">
        <ele>1625</ele>
        <time>2017-12-29T14:12:00Z</time>
      </trkpt>
      <trkpt lat="46.01737" lon="6.57629">
        <ele>1625</ele>
        <time>2017-12-29T14:12:01Z</time>
      </trkpt>
      <trkpt lat="46.01741" lon="6.57629">
        <ele>1624</ele>
        <time>2017-12-29T14:12:02Z</time>
      </trkpt>
      <trkpt lat="46.01743" lon="6.5763">
        <ele>1624</ele>
        <time>2017-12-29T14:12:03Z</time>
      </trkpt>
      <trkpt lat="46.01746" lon="6.5763">
        <ele>1624</ele>
        <time>2017-12-29T14:12:04Z</time>
      </trkpt>
      <trkpt lat="46.01751" lon="6.5763">
        <ele>1591</ele>
        <time>2017-12-29T14:12:05Z</time>
      </trkpt>
      <trkpt lat="46.01755" lon="6.57629">
        <ele>1590</ele>
        <time>2017-12-29T14:12:06Z</time>
      </trkpt>
      <trkpt lat="46.01759" lon="6.57627">
        <ele>1589</ele>
        <time>2017-12-29T14:12:07Z</time>
      </trkpt>
      <trkpt lat="46.01763" lon="6.57626">
        <ele>1588</ele>
        <time>2017-12-29T14:12:09Z</time>
      </trkpt>
      <trkpt lat="46.01762" lon="6.57626">
        <ele>1589</ele>
        <time>2017-12-29T14:12:12Z</time>
      </trkpt>
      <trkpt lat="46.01767" lon="6.5763">
        <ele>1588</ele>
        <time>2017-12-29T14:12:25Z</time>
      </trkpt>
      <trkpt lat="46.01768" lon="6.57631">
        <ele>1589</ele>
        <time>2017-12-29T14:12:28Z</time>
      </trkpt>
      <trkpt lat="46.01772" lon="6.57635">
        <ele>1589</ele>
        <time>2017-12-29T14:12:31Z</time>
      </trkpt>
      <trkpt lat="46.01773" lon="6.57636">
        <ele>1588</ele>
        <time>2017-12-29T14:12:32Z</time>
      </trkpt>
      <trkpt lat="46.01774" lon="6.57636">
        <ele>1589</ele>
        <time>2017-12-29T14:12:33Z</time>
      </trkpt>
      <trkpt lat="46.01775" lon="6.57637">
        <ele>1588</ele>
        <time>2017-12-29T14:12:34Z</time>
      </trkpt>
      <trkpt lat="46.01783" lon="6.5764">
        <ele>1587</ele>
        <time>2017-12-29T14:12:38Z</time>
      </trkpt>
      <trkpt lat="46.01793" lon="6.5764">
        <ele>1583</ele>
        <time>2017-12-29T14:12:42Z</time>
      </trkpt>
      <trkpt lat="46.01805" lon="6.57641">
        <ele>1580</ele>
        <time>2017-12-29T14:12:45Z</time>
      </trkpt>
      <trkpt lat="46.0181" lon="6.57641">
        <ele>1579</ele>
        <time>2017-12-29T14:12:46Z</time>
      </trkpt>
      <trkpt lat="46.01814" lon="6.57642">
        <ele>1579</ele>
        <time>2017-12-29T14:12:47Z</time>
      </trkpt>
      <trkpt lat="46.01815" lon="6.57643">
        <ele>1579</ele>
        <time>2017-12-29T14:12:48Z</time>
      </trkpt>
      <trkpt lat="46.01817" lon="6.57644">
        <ele>1578</ele>
        <time>2017-12-29T14:12:50Z</time>
      </trkpt>
      <trkpt lat="46.01819" lon="6.57643">
        <ele>1578</ele>
        <time>2017-12-29T14:12:51Z</time>
      </trkpt>
      <trkpt lat="46.01823" lon="6.57643">
        <ele>1577</ele>
        <time>2017-12-29T14:12:52Z</time>
      </trkpt>
      <trkpt lat="46.01827" lon="6.57639">
        <ele>1576</ele>
        <time>2017-12-29T14:12:53Z</time>
      </trkpt>
      <trkpt lat="46.01832" lon="6.57634">
        <ele>1575</ele>
        <time>2017-12-29T14:12:54Z</time>
      </trkpt>
      <trkpt lat="46.01837" lon="6.57634">
        <ele>1551</ele>
        <time>2017-12-29T14:12:55Z</time>
      </trkpt>
      <trkpt lat="46.01843" lon="6.57634">
        <ele>1551</ele>
        <time>2017-12-29T14:12:56Z</time>
      </trkpt>
      <trkpt lat="46.01848" lon="6.57632">
        <ele>1549</ele>
        <time>2017-12-29T14:12:57Z</time>
      </trkpt>
      <trkpt lat="46.01851" lon="6.57626">
        <ele>1547</ele>
        <time>2017-12-29T14:12:58Z</time>
      </trkpt>
      <trkpt lat="46.01855" lon="6.57619">
        <ele>1544</ele>
        <time>2017-12-29T14:12:59Z</time>
      </trkpt>
      <trkpt lat="46.01859" lon="6.57612">
        <ele>1541</ele>
        <time>2017-12-29T14:13:00Z</time>
      </trkpt>
      <trkpt lat="46.01863" lon="6.57604">
        <ele>1539</ele>
        <time>2017-12-29T14:13:01Z</time>
      </trkpt>
      <trkpt lat="46.01869" lon="6.576">
        <ele>1537</ele>
        <time>2017-12-29T14:13:02Z</time>
      </trkpt>
      <trkpt lat="46.01874" lon="6.57599">
        <ele>1536</ele>
        <time>2017-12-29T14:13:03Z</time>
      </trkpt>
      <trkpt lat="46.0188" lon="6.57596">
        <ele>1533</ele>
        <time>2017-12-29T14:13:04Z</time>
      </trkpt>
      <trkpt lat="46.01887" lon="6.57592">
        <ele>1529</ele>
        <time>2017-12-29T14:13:05Z</time>
      </trkpt>
      <trkpt lat="46.01897" lon="6.57587">
        <ele>1522</ele>
        <time>2017-12-29T14:13:06Z</time>
      </trkpt>
      <trkpt lat="46.01903" lon="6.57583">
        <ele>1501</ele>
        <time>2017-12-29T14:13:07Z</time>
      </trkpt>
      <trkpt lat="46.01914" lon="6.57571">
        <ele>1500</ele>
        <time>2017-12-29T14:13:09Z</time>
      </trkpt>
      <trkpt lat="46.01919" lon="6.57565">
        <ele>1483</ele>
        <time>2017-12-29T14:13:10Z</time>
      </trkpt>
      <trkpt lat="46.01923" lon="6.57559">
        <ele>1480</ele>
        <time>2017-12-29T14:13:11Z</time>
      </trkpt>
      <trkpt lat="46.0193" lon="6.57553">
        <ele>1476</ele>
        <time>2017-12-29T14:13:12Z</time>
      </trkpt>
      <trkpt lat="46.01934" lon="6.57547">
        <ele>1474</ele>
        <time>2017-12-29T14:13:13Z</time>
      </trkpt>
      <trkpt lat="46.01938" lon="6.57539">
        <ele>1471</ele>
        <time>2017-12-29T14:13:14Z</time>
      </trkpt>
      <trkpt lat="46.01938" lon="6.57533">
        <ele>1470</ele>
        <time>2017-12-29T14:13:15Z</time>
      </trkpt>
      <trkpt lat="46.0194" lon="6.57529">
        <ele>1469</ele>
        <time>2017-12-29T14:13:16Z</time>
      </trkpt>
      <trkpt lat="46.01947" lon="6.57525">
        <ele>1467</ele>
        <time>2017-12-29T14:13:17Z</time>
      </trkpt>
      <trkpt lat="46.01949" lon="6.57524">
        <ele>1467</ele>
        <time>2017-12-29T14:13:18Z</time>
      </trkpt>
      <trkpt lat="46.01948" lon="6.5752">
        <ele>1466</ele>
        <time>2017-12-29T14:13:19Z</time>
      </trkpt>
      <trkpt lat="46.01946" lon="6.57518">
        <ele>1466</ele>
        <time>2017-12-29T14:13:20Z</time>
      </trkpt>
      <trkpt lat="46.01944" lon="6.57516">
        <ele>1466</ele>
        <time>2017-12-29T14:13:21Z</time>
      </trkpt>
      <trkpt lat="46.01942" lon="6.57515">
        <ele>1466</ele>
        <time>2017-12-29T14:13:22Z</time>
      </trkpt>
      <trkpt lat="46.01941" lon="6.57516">
        <ele>1467</ele>
        <time>2017-12-29T14:13:23Z</time>
      </trkpt>
      <trkpt lat="46.01939" lon="6.57516">
        <ele>1467</ele>
        <time>2017-12-29T14:13:24Z</time>
      </trkpt>
      <trkpt lat="46.01937" lon="6.57517">
        <ele>1467</ele>
        <time>2017-12-29T14:13:25Z</time>
      </trkpt>
      <trkpt lat="46.01933" lon="6.57519">
        <ele>1468</ele>
        <time>2017-12-29T14:13:32Z</time>
      </trkpt>
      <trkpt lat="46.01931" lon="6.57519">
        <ele>1468</ele>
        <time>2017-12-29T14:13:33Z</time>
      </trkpt>
      <trkpt lat="46.01928" lon="6.57521">
        <ele>1468</ele>
        <time>2017-12-29T14:13:42Z</time>
      </trkpt>
      <trkpt lat="46.01927" lon="6.57523">
        <ele>1469</ele>
        <time>2017-12-29T14:13:49Z</time>
      </trkpt>
      <trkpt lat="46.01924" lon="6.57524">
        <ele>1469</ele>
        <time>2017-12-29T14:13:51Z</time>
      </trkpt>
      <trkpt lat="46.01915" lon="6.57525">
        <ele>1489</ele>
        <time>2017-12-29T14:14:21Z</time>
      </trkpt>
      <trkpt lat="46.01915" lon="6.57525">
        <ele>1489</ele>
        <time>2017-12-29T14:14:29Z</time>
      </trkpt>
      <trkpt lat="46.01914" lon="6.57525">
        <ele>1489</ele>
        <time>2017-12-29T14:14:43Z</time>
      </trkpt>
      <trkpt lat="46.0191" lon="6.57526">
        <ele>1491</ele>
        <time>2017-12-29T14:15:08Z</time>
      </trkpt>
      <trkpt lat="46.01911" lon="6.57526">
        <ele>1491</ele>
        <time>2017-12-29T14:15:11Z</time>
      </trkpt>
      <trkpt lat="46.01911" lon="6.57525">
        <ele>1490</ele>
        <time>2017-12-29T14:15:17Z</time>
      </trkpt>
      <trkpt lat="46.01911" lon="6.57524">
        <ele>1489</ele>
        <time>2017-12-29T14:15:51Z</time>
      </trkpt>
      <trkpt lat="46.0191" lon="6.57523">
        <ele>1489</ele>
        <time>2017-12-29T14:16:25Z</time>
      </trkpt>
      <trkpt lat="46.0191" lon="6.57522">
        <ele>1489</ele>
        <time>2017-12-29T14:16:42Z</time>
      </trkpt>
      <trkpt lat="46.01912" lon="6.57525">
        <ele>1490</ele>
        <time>2017-12-29T14:17:08Z</time>
      </trkpt>
      <trkpt lat="46.01913" lon="6.57526">
        <ele>1490</ele>
        <time>2017-12-29T14:17:13Z</time>
      </trkpt>
      <trkpt lat="46.01913" lon="6.57528">
        <ele>1491</ele>
        <time>2017-12-29T14:17:49Z</time>
      </trkpt>
      <trkpt lat="46.0191" lon="6.57526">
        <ele>1491</ele>
        <time>2017-12-29T14:18:06Z</time>
      </trkpt>
      <trkpt lat="46.01908" lon="6.57525">
        <ele>1491</ele>
        <time>2017-12-29T14:18:09Z</time>
      </trkpt>
      <trkpt lat="46.01907" lon="6.57525">
        <ele>1491</ele>
        <time>2017-12-29T14:18:10Z</time>
      </trkpt>
      <trkpt lat="46.01907" lon="6.57525">
        <ele>1491</ele>
        <time>2017-12-29T14:18:12Z</time>
      </trkpt>
      <trkpt lat="46.01907" lon="6.57526">
        <ele>1491</ele>
        <time>2017-12-29T14:18:17Z</time>
      </trkpt>
      <trkpt lat="46.01907" lon="6.5753">
        <ele>1493</ele>
        <time>2017-12-29T14:18:38Z</time>
      </trkpt>
      <trkpt lat="46.01907" lon="6.57532">
        <ele>1494</ele>
        <time>2017-12-29T14:18:40Z</time>
      </trkpt>
      <trkpt lat="46.01903" lon="6.57534">
        <ele>1495</ele>
        <time>2017-12-29T14:19:00Z</time>
      </trkpt>
      <trkpt lat="46.01904" lon="6.57535">
        <ele>1495</ele>
        <time>2017-12-29T14:19:13Z</time>
      </trkpt>
      <trkpt lat="46.01904" lon="6.57534">
        <ele>1495</ele>
        <time>2017-12-29T14:19:18Z</time>
      </trkpt>
      <trkpt lat="46.01904" lon="6.57534">
        <ele>1495</ele>
        <time>2017-12-29T14:19:25Z</time>
      </trkpt>
      <trkpt lat="46.01904" lon="6.57542">
        <ele>1498</ele>
        <time>2017-12-29T14:19:40Z</time>
      </trkpt>
      <trkpt lat="46.01905" lon="6.57545">
        <ele>1498</ele>
        <time>2017-12-29T14:19:44Z</time>
      </trkpt>
      <trkpt lat="46.01906" lon="6.57549">
        <ele>1499</ele>
        <time>2017-12-29T14:19:48Z</time>
      </trkpt>
      <trkpt lat="46.01906" lon="6.57552">
        <ele>1499</ele>
        <time>2017-12-29T14:19:50Z</time>
      </trkpt>
      <trkpt lat="46.0191" lon="6.57561">
        <ele>1500</ele>
        <time>2017-12-29T14:20:02Z</time>
      </trkpt>
      <trkpt lat="46.01913" lon="6.5757">
        <ele>1500</ele>
        <time>2017-12-29T14:20:21Z</time>
      </trkpt>
      <trkpt lat="46.01901" lon="6.57568">
        <ele>1501</ele>
        <time>2017-12-29T14:20:44Z</time>
      </trkpt>
      <trkpt lat="46.01893" lon="6.57566">
        <ele>1503</ele>
        <time>2017-12-29T14:21:05Z</time>
      </trkpt>
      <trkpt lat="46.01884" lon="6.57565">
        <ele>1505</ele>
        <time>2017-12-29T14:21:22Z</time>
      </trkpt>
      <trkpt lat="46.01876" lon="6.57563">
        <ele>1507</ele>
        <time>2017-12-29T14:21:41Z</time>
      </trkpt>
      <trkpt lat="46.01866" lon="6.57559">
        <ele>1510</ele>
        <time>2017-12-29T14:22:01Z</time>
      </trkpt>
      <trkpt lat="46.01861" lon="6.57558">
        <ele>1511</ele>
        <time>2017-12-29T14:22:21Z</time>
      </trkpt>
      <trkpt lat="46.01865" lon="6.5757">
        <ele>1512</ele>
        <time>2017-12-29T14:22:46Z</time>
      </trkpt>
      <trkpt lat="46.01869" lon="6.57582">
        <ele>1512</ele>
        <time>2017-12-29T14:23:07Z</time>
      </trkpt>
      <trkpt lat="46.01871" lon="6.57594">
        <ele>1536</ele>
        <time>2017-12-29T14:23:25Z</time>
      </trkpt>
      <trkpt lat="46.01877" lon="6.57603">
        <ele>1536</ele>
        <time>2017-12-29T14:23:46Z</time>
      </trkpt>
      <trkpt lat="46.0188" lon="6.5761">
        <ele>1537</ele>
        <time>2017-12-29T14:24:02Z</time>
      </trkpt>
      <trkpt lat="46.01873" lon="6.57613">
        <ele>1539</ele>
        <time>2017-12-29T14:24:25Z</time>
      </trkpt>
      <trkpt lat="46.01865" lon="6.57611">
        <ele>1540</ele>
        <time>2017-12-29T14:24:45Z</time>
      </trkpt>
      <trkpt lat="46.01858" lon="6.57609">
        <ele>1541</ele>
        <time>2017-12-29T14:24:59Z</time>
      </trkpt>
      <trkpt lat="46.0185" lon="6.57605">
        <ele>1541</ele>
        <time>2017-12-29T14:25:20Z</time>
      </trkpt>
      <trkpt lat="46.01843" lon="6.57604">
        <ele>1541</ele>
        <time>2017-12-29T14:25:41Z</time>
      </trkpt>
      <trkpt lat="46.01836" lon="6.57603">
        <ele>1541</ele>
        <time>2017-12-29T14:25:59Z</time>
      </trkpt>
      <trkpt lat="46.01831" lon="6.576">
        <ele>1558</ele>
        <time>2017-12-29T14:26:15Z</time>
      </trkpt>
      <trkpt lat="46.0183" lon="6.57599">
        <ele>1558</ele>
        <time>2017-12-29T14:26:42Z</time>
      </trkpt>
      <trkpt lat="46.01831" lon="6.57602">
        <ele>1560</ele>
        <time>2017-12-29T14:26:50Z</time>
      </trkpt>
      <trkpt lat="46.01835" lon="6.57612">
        <ele>1543</ele>
        <time>2017-12-29T14:27:09Z</time>
      </trkpt>
      <trkpt lat="46.01838" lon="6.57621">
        <ele>1546</ele>
        <time>2017-12-29T14:27:27Z</time>
      </trkpt>
      <trkpt lat="46.01842" lon="6.57626">
        <ele>1548</ele>
        <time>2017-12-29T14:27:41Z</time>
      </trkpt>
      <trkpt lat="46.01844" lon="6.57629">
        <ele>1549</ele>
        <time>2017-12-29T14:27:54Z</time>
      </trkpt>
      <trkpt lat="46.01845" lon="6.57628">
        <ele>1548</ele>
        <time>2017-12-29T14:28:11Z</time>
      </trkpt>
      <trkpt lat="46.01845" lon="6.57629">
        <ele>1548</ele>
        <time>2017-12-29T14:28:19Z</time>
      </trkpt>
      <trkpt lat="46.01848" lon="6.57644">
        <ele>1554</ele>
        <time>2017-12-29T14:28:39Z</time>
      </trkpt>
      <trkpt lat="46.0185" lon="6.57648">
        <ele>1555</ele>
        <time>2017-12-29T14:28:46Z</time>
      </trkpt>
      <trkpt lat="46.0185" lon="6.57657">
        <ele>1559</ele>
        <time>2017-12-29T14:29:08Z</time>
      </trkpt>
      <trkpt lat="46.01842" lon="6.57654">
        <ele>1561</ele>
        <time>2017-12-29T14:29:27Z</time>
      </trkpt>
      <trkpt lat="46.01836" lon="6.57652">
        <ele>1562</ele>
        <time>2017-12-29T14:29:42Z</time>
      </trkpt>
      <trkpt lat="46.01832" lon="6.5765">
        <ele>1577</ele>
        <time>2017-12-29T14:30:27Z</time>
      </trkpt>
      <trkpt lat="46.0183" lon="6.57652">
        <ele>1578</ele>
        <time>2017-12-29T14:30:37Z</time>
      </trkpt>
      <trkpt lat="46.01819" lon="6.57651">
        <ele>1579</ele>
        <time>2017-12-29T14:30:55Z</time>
      </trkpt>
      <trkpt lat="46.01814" lon="6.57651">
        <ele>1580</ele>
        <time>2017-12-29T14:31:03Z</time>
      </trkpt>
      <trkpt lat="46.01813" lon="6.57652">
        <ele>1580</ele>
        <time>2017-12-29T14:31:04Z</time>
      </trkpt>
      <trkpt lat="46.01808" lon="6.57651">
        <ele>1581</ele>
        <time>2017-12-29T14:31:15Z</time>
      </trkpt>
      <trkpt lat="46.01805" lon="6.57651">
        <ele>1582</ele>
        <time>2017-12-29T14:31:23Z</time>
      </trkpt>
      <trkpt lat="46.01801" lon="6.5765">
        <ele>1583</ele>
        <time>2017-12-29T14:31:40Z</time>
      </trkpt>
      <trkpt lat="46.01793" lon="6.57648">
        <ele>1585</ele>
        <time>2017-12-29T14:31:57Z</time>
      </trkpt>
      <trkpt lat="46.01791" lon="6.57645">
        <ele>1585</ele>
        <time>2017-12-29T14:32:12Z</time>
      </trkpt>
      <trkpt lat="46.01791" lon="6.57645">
        <ele>1585</ele>
        <time>2017-12-29T14:32:18Z</time>
      </trkpt>
      <trkpt lat="46.01792" lon="6.57645">
        <ele>1585</ele>
        <time>2017-12-29T14:32:25Z</time>
      </trkpt>
      <trkpt lat="46.01792" lon="6.57646">
        <ele>1585</ele>
        <time>2017-12-29T14:32:28Z</time>
      </trkpt>
      <trkpt lat="46.01792" lon="6.57647">
        <ele>1585</ele>
        <time>2017-12-29T14:32:31Z</time>
      </trkpt>
      <trkpt lat="46.01792" lon="6.57648">
        <ele>1585</ele>
        <time>2017-12-29T14:32:33Z</time>
      </trkpt>
      <trkpt lat="46.01791" lon="6.57648">
        <ele>1585</ele>
        <time>2017-12-29T14:32:36Z</time>
      </trkpt>
      <trkpt lat="46.01793" lon="6.57648">
        <ele>1585</ele>
        <time>2017-12-29T14:32:58Z</time>
      </trkpt>
      <trkpt lat="46.01794" lon="6.57648">
        <ele>1585</ele>
        <time>2017-12-29T14:33:03Z</time>
      </trkpt>
      <trkpt lat="46.01794" lon="6.57648">
        <ele>1584</ele>
        <time>2017-12-29T14:33:05Z</time>
      </trkpt>
      <trkpt lat="46.01794" lon="6.57646">
        <ele>1584</ele>
        <time>2017-12-29T14:33:12Z</time>
      </trkpt>
      <trkpt lat="46.01794" lon="6.57645">
        <ele>1584</ele>
        <time>2017-12-29T14:33:26Z</time>
      </trkpt>
      <trkpt lat="46.01794" lon="6.57644">
        <ele>1584</ele>
        <time>2017-12-29T14:33:27Z</time>
      </trkpt>
      <trkpt lat="46.01795" lon="6.57645">
        <ele>1584</ele>
        <time>2017-12-29T14:33:36Z</time>
      </trkpt>
      <trkpt lat="46.01794" lon="6.57645">
        <ele>1584</ele>
        <time>2017-12-29T14:33:38Z</time>
      </trkpt>
      <trkpt lat="46.01792" lon="6.57647">
        <ele>1585</ele>
        <time>2017-12-29T14:33:48Z</time>
      </trkpt>
      <trkpt lat="46.01791" lon="6.57645">
        <ele>1585</ele>
        <time>2017-12-29T14:33:54Z</time>
      </trkpt>
      <trkpt lat="46.01791" lon="6.57642">
        <ele>1584</ele>
        <time>2017-12-29T14:34:28Z</time>
      </trkpt>
      <trkpt lat="46.01792" lon="6.57642">
        <ele>1584</ele>
        <time>2017-12-29T14:34:34Z</time>
      </trkpt>
      <trkpt lat="46.01792" lon="6.57643">
        <ele>1584</ele>
        <time>2017-12-29T14:34:44Z</time>
      </trkpt>
      <trkpt lat="46.01793" lon="6.57642">
        <ele>1584</ele>
        <time>2017-12-29T14:35:04Z</time>
      </trkpt>
      <trkpt lat="46.01793" lon="6.57643">
        <ele>1584</ele>
        <time>2017-12-29T14:35:23Z</time>
      </trkpt>
      <trkpt lat="46.01792" lon="6.57643">
        <ele>1584</ele>
        <time>2017-12-29T14:35:33Z</time>
      </trkpt>
      <trkpt lat="46.01793" lon="6.57642">
        <ele>1584</ele>
        <time>2017-12-29T14:35:39Z</time>
      </trkpt>
      <trkpt lat="46.01794" lon="6.57644">
        <ele>1584</ele>
        <time>2017-12-29T14:35:54Z</time>
      </trkpt>
      <trkpt lat="46.01795" lon="6.57643">
        <ele>1583</ele>
        <time>2017-12-29T14:36:05Z</time>
      </trkpt>
      <trkpt lat="46.01794" lon="6.57644">
        <ele>1584</ele>
        <time>2017-12-29T14:36:25Z</time>
      </trkpt>
      <trkpt lat="46.01793" lon="6.57644">
        <ele>1584</ele>
        <time>2017-12-29T14:36:44Z</time>
      </trkpt>
      <trkpt lat="46.01793" lon="6.57646">
        <ele>1584</ele>
        <time>2017-12-29T14:36:47Z</time>
      </trkpt>
      <trkpt lat="46.01791" lon="6.57646">
        <ele>1585</ele>
        <time>2017-12-29T14:36:58Z</time>
      </trkpt>
      <trkpt lat="46.0179" lon="6.57646">
        <ele>1585</ele>
        <time>2017-12-29T14:37:01Z</time>
      </trkpt>
      <trkpt lat="46.01789" lon="6.57646">
        <ele>1586</ele>
        <time>2017-12-29T14:37:03Z</time>
      </trkpt>
      <trkpt lat="46.01788" lon="6.57646">
        <ele>1586</ele>
        <time>2017-12-29T14:37:06Z</time>
      </trkpt>
      <trkpt lat="46.01787" lon="6.57646">
        <ele>1586</ele>
        <time>2017-12-29T14:37:09Z</time>
      </trkpt>
      <trkpt lat="46.01784" lon="6.57646">
        <ele>1587</ele>
        <time>2017-12-29T14:37:14Z</time>
      </trkpt>
      <trkpt lat="46.01782" lon="6.57646">
        <ele>1588</ele>
        <time>2017-12-29T14:37:19Z</time>
      </trkpt>
      <trkpt lat="46.01779" lon="6.57645">
        <ele>1589</ele>
        <time>2017-12-29T14:37:24Z</time>
      </trkpt>
      <trkpt lat="46.01776" lon="6.57645">
        <ele>1590</ele>
        <time>2017-12-29T14:37:28Z</time>
      </trkpt>
      <trkpt lat="46.01773" lon="6.57644">
        <ele>1591</ele>
        <time>2017-12-29T14:37:33Z</time>
      </trkpt>
      <trkpt lat="46.0177" lon="6.57644">
        <ele>1592</ele>
        <time>2017-12-29T14:37:38Z</time>
      </trkpt>
      <trkpt lat="46.01767" lon="6.57643">
        <ele>1593</ele>
        <time>2017-12-29T14:37:45Z</time>
      </trkpt>
      <trkpt lat="46.01762" lon="6.57639">
        <ele>1593</ele>
        <time>2017-12-29T14:37:51Z</time>
      </trkpt>
      <trkpt lat="46.01762" lon="6.57639">
        <ele>1593</ele>
        <time>2017-12-29T14:37:52Z</time>
      </trkpt>
      <trkpt lat="46.01761" lon="6.57638">
        <ele>1592</ele>
        <time>2017-12-29T14:37:53Z</time>
      </trkpt>
      <trkpt lat="46.01761" lon="6.57637">
        <ele>1592</ele>
        <time>2017-12-29T14:37:54Z</time>
      </trkpt>
      <trkpt lat="46.01749" lon="6.57631">
        <ele>1624</ele>
        <time>2017-12-29T14:38:16Z</time>
      </trkpt>
      <trkpt lat="46.01741" lon="6.57635">
        <ele>1625</ele>
        <time>2017-12-29T14:38:38Z</time>
      </trkpt>
      <trkpt lat="46.01736" lon="6.57636">
        <ele>1626</ele>
        <time>2017-12-29T14:38:54Z</time>
      </trkpt>
      <trkpt lat="46.01726" lon="6.57634">
        <ele>1628</ele>
        <time>2017-12-29T14:39:16Z</time>
      </trkpt>
      <trkpt lat="46.01727" lon="6.57632">
        <ele>1628</ele>
        <time>2017-12-29T14:39:28Z</time>
      </trkpt>
      <trkpt lat="46.01722" lon="6.57634">
        <ele>1630</ele>
        <time>2017-12-29T14:39:59Z</time>
      </trkpt>
      <trkpt lat="46.01714" lon="6.57635">
        <ele>1632</ele>
        <time>2017-12-29T14:40:20Z</time>
      </trkpt>
      <trkpt lat="46.01717" lon="6.57645">
        <ele>1633</ele>
        <time>2017-12-29T14:40:42Z</time>
      </trkpt>
      <trkpt lat="46.01713" lon="6.57648">
        <ele>1634</ele>
        <time>2017-12-29T14:41:00Z</time>
      </trkpt>
      <trkpt lat="46.01707" lon="6.5765">
        <ele>1637</ele>
        <time>2017-12-29T14:41:24Z</time>
      </trkpt>
      <trkpt lat="46.01703" lon="6.57653">
        <ele>1639</ele>
        <time>2017-12-29T14:41:49Z</time>
      </trkpt>
      <trkpt lat="46.01697" lon="6.57646">
        <ele>1640</ele>
        <time>2017-12-29T14:42:05Z</time>
      </trkpt>
      <trkpt lat="46.01695" lon="6.57655">
        <ele>1643</ele>
        <time>2017-12-29T14:42:29Z</time>
      </trkpt>
      <trkpt lat="46.01693" lon="6.57659">
        <ele>1645</ele>
        <time>2017-12-29T14:42:56Z</time>
      </trkpt>
      <trkpt lat="46.01695" lon="6.57669">
        <ele>1660</ele>
        <time>2017-12-29T14:43:15Z</time>
      </trkpt>
      <trkpt lat="46.01687" lon="6.57672">
        <ele>1663</ele>
        <time>2017-12-29T14:43:43Z</time>
      </trkpt>
      <trkpt lat="46.01681" lon="6.57669">
        <ele>1665</ele>
        <time>2017-12-29T14:44:04Z</time>
      </trkpt>
      <trkpt lat="46.01677" lon="6.57673">
        <ele>1666</ele>
        <time>2017-12-29T14:44:23Z</time>
      </trkpt>
      <trkpt lat="46.01679" lon="6.57678">
        <ele>1666</ele>
        <time>2017-12-29T14:44:36Z</time>
      </trkpt>
      <trkpt lat="46.01675" lon="6.57683">
        <ele>1666</ele>
        <time>2017-12-29T14:45:10Z</time>
      </trkpt>
      <trkpt lat="46.01675" lon="6.57683">
        <ele>1666</ele>
        <time>2017-12-29T14:45:11Z</time>
      </trkpt>
      <trkpt lat="46.01674" lon="6.57684">
        <ele>1666</ele>
        <time>2017-12-29T14:45:14Z</time>
      </trkpt>
      <trkpt lat="46.01667" lon="6.57682">
        <ele>1667</ele>
        <time>2017-12-29T14:45:34Z</time>
      </trkpt>
      <trkpt lat="46.01662" lon="6.57678">
        <ele>1682</ele>
        <time>2017-12-29T14:45:55Z</time>
      </trkpt>
      <trkpt lat="46.01661" lon="6.57688">
        <ele>1688</ele>
        <time>2017-12-29T14:46:13Z</time>
      </trkpt>
      <trkpt lat="46.01659" lon="6.57693">
        <ele>1691</ele>
        <time>2017-12-29T14:46:30Z</time>
      </trkpt>
      <trkpt lat="46.01654" lon="6.57697">
        <ele>1693</ele>
        <time>2017-12-29T14:46:55Z</time>
      </trkpt>
      <trkpt lat="46.01649" lon="6.57692">
        <ele>1693</ele>
        <time>2017-12-29T14:47:14Z</time>
      </trkpt>
      <trkpt lat="46.01652" lon="6.57707">
        <ele>1696</ele>
        <time>2017-12-29T14:47:39Z</time>
      </trkpt>
      <trkpt lat="46.01655" lon="6.57717">
        <ele>1697</ele>
        <time>2017-12-29T14:48:13Z</time>
      </trkpt>
      <trkpt lat="46.01647" lon="6.57718">
        <ele>1698</ele>
        <time>2017-12-29T14:48:42Z</time>
      </trkpt>
      <trkpt lat="46.01638" lon="6.57716">
        <ele>1699</ele>
        <time>2017-12-29T14:49:03Z</time>
      </trkpt>
      <trkpt lat="46.01638" lon="6.57719">
        <ele>1700</ele>
        <time>2017-12-29T14:49:20Z</time>
      </trkpt>
      <trkpt lat="46.0164" lon="6.5773">
        <ele>1700</ele>
        <time>2017-12-29T14:49:38Z</time>
      </trkpt>
      <trkpt lat="46.01638" lon="6.57733">
        <ele>1700</ele>
        <time>2017-12-29T14:49:56Z</time>
      </trkpt>
      <trkpt lat="46.0163" lon="6.5773">
        <ele>1702</ele>
        <time>2017-12-29T14:50:16Z</time>
      </trkpt>
      <trkpt lat="46.01625" lon="6.57723">
        <ele>1703</ele>
        <time>2017-12-29T14:50:35Z</time>
      </trkpt>
      <trkpt lat="46.01619" lon="6.5772">
        <ele>1704</ele>
        <time>2017-12-29T14:51:04Z</time>
      </trkpt>
      <trkpt lat="46.01615" lon="6.57724">
        <ele>1705</ele>
        <time>2017-12-29T14:51:23Z</time>
      </trkpt>
      <trkpt lat="46.01611" lon="6.57719">
        <ele>1706</ele>
        <time>2017-12-29T14:51:39Z</time>
      </trkpt>
      <trkpt lat="46.01608" lon="6.57714">
        <ele>1706</ele>
        <time>2017-12-29T14:52:08Z</time>
      </trkpt>
      <trkpt lat="46.01606" lon="6.57725">
        <ele>1708</ele>
        <time>2017-12-29T14:52:28Z</time>
      </trkpt>
      <trkpt lat="46.01604" lon="6.57739">
        <ele>1711</ele>
        <time>2017-12-29T14:52:49Z</time>
      </trkpt>
      <trkpt lat="46.01599" lon="6.57746">
        <ele>1714</ele>
        <time>2017-12-29T14:53:13Z</time>
      </trkpt>
      <trkpt lat="46.01591" lon="6.57742">
        <ele>1717</ele>
        <time>2017-12-29T14:53:34Z</time>
      </trkpt>
      <trkpt lat="46.01588" lon="6.57751">
        <ele>1725</ele>
        <time>2017-12-29T14:53:53Z</time>
      </trkpt>
      <trkpt lat="46.01587" lon="6.57761">
        <ele>1726</ele>
        <time>2017-12-29T14:54:11Z</time>
      </trkpt>
      <trkpt lat="46.01576" lon="6.57756">
        <ele>1737</ele>
        <time>2017-12-29T14:54:36Z</time>
      </trkpt>
      <trkpt lat="46.0157" lon="6.57747">
        <ele>1736</ele>
        <time>2017-12-29T14:54:56Z</time>
      </trkpt>
      <trkpt lat="46.01564" lon="6.57749">
        <ele>1739</ele>
        <time>2017-12-29T14:55:26Z</time>
      </trkpt>
      <trkpt lat="46.01561" lon="6.57736">
        <ele>1743</ele>
        <time>2017-12-29T14:55:50Z</time>
      </trkpt>
      <trkpt lat="46.01558" lon="6.57749">
        <ele>1743</ele>
        <time>2017-12-29T14:56:18Z</time>
      </trkpt>
      <trkpt lat="46.01556" lon="6.57758">
        <ele>1751</ele>
        <time>2017-12-29T14:56:34Z</time>
      </trkpt>
      <trkpt lat="46.01553" lon="6.57772">
        <ele>1755</ele>
        <time>2017-12-29T14:56:57Z</time>
      </trkpt>
      <trkpt lat="46.01551" lon="6.57782">
        <ele>1758</ele>
        <time>2017-12-29T14:57:23Z</time>
      </trkpt>
      <trkpt lat="46.01552" lon="6.57789">
        <ele>1759</ele>
        <time>2017-12-29T14:57:38Z</time>
      </trkpt>
      <trkpt lat="46.01553" lon="6.57794">
        <ele>1759</ele>
        <time>2017-12-29T14:58:08Z</time>
      </trkpt>
      <trkpt lat="46.01553" lon="6.57794">
        <ele>1759</ele>
        <time>2017-12-29T14:58:13Z</time>
      </trkpt>
      <trkpt lat="46.01553" lon="6.57795">
        <ele>1759</ele>
        <time>2017-12-29T14:58:21Z</time>
      </trkpt>
      <trkpt lat="46.01553" lon="6.57796">
        <ele>1759</ele>
        <time>2017-12-29T14:58:23Z</time>
      </trkpt>
      <trkpt lat="46.01553" lon="6.57796">
        <ele>1759</ele>
        <time>2017-12-29T14:58:24Z</time>
      </trkpt>
      <trkpt lat="46.01553" lon="6.57796">
        <ele>1759</ele>
        <time>2017-12-29T14:58:28Z</time>
      </trkpt>
      <trkpt lat="46.01554" lon="6.57796">
        <ele>1759</ele>
        <time>2017-12-29T14:58:33Z</time>
      </trkpt>
      <trkpt lat="46.01554" lon="6.57796">
        <ele>1759</ele>
        <time>2017-12-29T14:58:42Z</time>
      </trkpt>
      <trkpt lat="46.01554" lon="6.57796">
        <ele>1759</ele>
        <time>2017-12-29T14:58:48Z</time>
      </trkpt>
      <trkpt lat="46.01553" lon="6.57796">
        <ele>1759</ele>
        <time>2017-12-29T14:59:06Z</time>
      </trkpt>
      <trkpt lat="46.01553" lon="6.57796">
        <ele>1760</ele>
        <time>2017-12-29T14:59:13Z</time>
      </trkpt>
      <trkpt lat="46.01554" lon="6.57794">
        <ele>1759</ele>
        <time>2017-12-29T14:59:48Z</time>
      </trkpt>
      <trkpt lat="46.01554" lon="6.57795">
        <ele>1759</ele>
        <time>2017-12-29T14:59:55Z</time>
      </trkpt>
      <trkpt lat="46.01553" lon="6.57796">
        <ele>1760</ele>
        <time>2017-12-29T15:00:00Z</time>
      </trkpt>
      <trkpt lat="46.01552" lon="6.57797">
        <ele>1760</ele>
        <time>2017-12-29T15:00:04Z</time>
      </trkpt>
      <trkpt lat="46.01552" lon="6.57798">
        <ele>1760</ele>
        <time>2017-12-29T15:00:06Z</time>
      </trkpt>
      <trkpt lat="46.01552" lon="6.57795">
        <ele>1760</ele>
        <time>2017-12-29T15:00:23Z</time>
      </trkpt>
      <trkpt lat="46.01552" lon="6.57794">
        <ele>1760</ele>
        <time>2017-12-29T15:00:25Z</time>
      </trkpt>
      <trkpt lat="46.01551" lon="6.57793">
        <ele>1760</ele>
        <time>2017-12-29T15:00:28Z</time>
      </trkpt>
      <trkpt lat="46.0155" lon="6.57791">
        <ele>1760</ele>
        <time>2017-12-29T15:00:35Z</time>
      </trkpt>
      <trkpt lat="46.01548" lon="6.57788">
        <ele>1760</ele>
        <time>2017-12-29T15:00:41Z</time>
      </trkpt>
      <trkpt lat="46.01547" lon="6.57788">
        <ele>1760</ele>
        <time>2017-12-29T15:00:45Z</time>
      </trkpt>
      <trkpt lat="46.01545" lon="6.57787">
        <ele>1760</ele>
        <time>2017-12-29T15:00:48Z</time>
      </trkpt>
      <trkpt lat="46.01543" lon="6.57786">
        <ele>1761</ele>
        <time>2017-12-29T15:00:54Z</time>
      </trkpt>
      <trkpt lat="46.0154" lon="6.57785">
        <ele>1762</ele>
        <time>2017-12-29T15:00:59Z</time>
      </trkpt>
      <trkpt lat="46.01537" lon="6.57783">
        <ele>1762</ele>
        <time>2017-12-29T15:01:05Z</time>
      </trkpt>
      <trkpt lat="46.0154" lon="6.57796">
        <ele>1763</ele>
        <time>2017-12-29T15:01:34Z</time>
      </trkpt>
      <trkpt lat="46.0154" lon="6.57803">
        <ele>1764</ele>
        <time>2017-12-29T15:01:47Z</time>
      </trkpt>
      <trkpt lat="46.01544" lon="6.57819">
        <ele>1764</ele>
        <time>2017-12-29T15:02:20Z</time>
      </trkpt>
      <trkpt lat="46.01538" lon="6.57815">
        <ele>1766</ele>
        <time>2017-12-29T15:02:47Z</time>
      </trkpt>
      <trkpt lat="46.01535" lon="6.57813">
        <ele>1767</ele>
        <time>2017-12-29T15:03:02Z</time>
      </trkpt>
      <trkpt lat="46.01535" lon="6.57826">
        <ele>1768</ele>
        <time>2017-12-29T15:03:22Z</time>
      </trkpt>
      <trkpt lat="46.01539" lon="6.57836">
        <ele>1784</ele>
        <time>2017-12-29T15:03:38Z</time>
      </trkpt>
      <trkpt lat="46.01541" lon="6.57848">
        <ele>1785</ele>
        <time>2017-12-29T15:03:58Z</time>
      </trkpt>
      <trkpt lat="46.01542" lon="6.57854">
        <ele>1785</ele>
        <time>2017-12-29T15:04:11Z</time>
      </trkpt>
      <trkpt lat="46.01532" lon="6.57852">
        <ele>1788</ele>
        <time>2017-12-29T15:04:35Z</time>
      </trkpt>
      <trkpt lat="46.01526" lon="6.57852">
        <ele>1789</ele>
        <time>2017-12-29T15:04:47Z</time>
      </trkpt>
      <trkpt lat="46.01521" lon="6.57851">
        <ele>1790</ele>
        <time>2017-12-29T15:04:56Z</time>
      </trkpt>
      <trkpt lat="46.01513" lon="6.57846">
        <ele>1791</ele>
        <time>2017-12-29T15:05:20Z</time>
      </trkpt>
      <trkpt lat="46.01506" lon="6.57844">
        <ele>1792</ele>
        <time>2017-12-29T15:05:39Z</time>
      </trkpt>
      <trkpt lat="46.01496" lon="6.5784">
        <ele>1802</ele>
        <time>2017-12-29T15:06:06Z</time>
      </trkpt>
      <trkpt lat="46.01494" lon="6.57839">
        <ele>1803</ele>
        <time>2017-12-29T15:06:09Z</time>
      </trkpt>
      <trkpt lat="46.01488" lon="6.57838">
        <ele>1806</ele>
        <time>2017-12-29T15:06:27Z</time>
      </trkpt>
      <trkpt lat="46.01493" lon="6.57852">
        <ele>1810</ele>
        <time>2017-12-29T15:06:52Z</time>
      </trkpt>
      <trkpt lat="46.01494" lon="6.57857">
        <ele>1813</ele>
        <time>2017-12-29T15:07:03Z</time>
      </trkpt>
      <trkpt lat="46.01495" lon="6.57866">
        <ele>1815</ele>
        <time>2017-12-29T15:07:18Z</time>
      </trkpt>
      <trkpt lat="46.01497" lon="6.57872">
        <ele>1817</ele>
        <time>2017-12-29T15:07:31Z</time>
      </trkpt>
      <trkpt lat="46.01491" lon="6.57882">
        <ele>1819</ele>
        <time>2017-12-29T15:08:13Z</time>
      </trkpt>
      <trkpt lat="46.01484" lon="6.57882">
        <ele>1820</ele>
        <time>2017-12-29T15:08:27Z</time>
      </trkpt>
      <trkpt lat="46.01482" lon="6.57882">
        <ele>1821</ele>
        <time>2017-12-29T15:08:34Z</time>
      </trkpt>
      <trkpt lat="46.01481" lon="6.57882">
        <ele>1821</ele>
        <time>2017-12-29T15:08:38Z</time>
      </trkpt>
      <trkpt lat="46.01471" lon="6.57882">
        <ele>1822</ele>
        <time>2017-12-29T15:08:58Z</time>
      </trkpt>
      <trkpt lat="46.0146" lon="6.5788">
        <ele>1824</ele>
        <time>2017-12-29T15:09:22Z</time>
      </trkpt>
      <trkpt lat="46.01452" lon="6.57875">
        <ele>1825</ele>
        <time>2017-12-29T15:09:40Z</time>
      </trkpt>
      <trkpt lat="46.01452" lon="6.57874">
        <ele>1825</ele>
        <time>2017-12-29T15:09:43Z</time>
      </trkpt>
      <trkpt lat="46.01447" lon="6.5787">
        <ele>1826</ele>
        <time>2017-12-29T15:09:57Z</time>
      </trkpt>
      <trkpt lat="46.01447" lon="6.57869">
        <ele>1826</ele>
        <time>2017-12-29T15:10:08Z</time>
      </trkpt>
      <trkpt lat="46.01443" lon="6.57867">
        <ele>1826</ele>
        <time>2017-12-29T15:10:15Z</time>
      </trkpt>
      <trkpt lat="46.01439" lon="6.57858">
        <ele>1827</ele>
        <time>2017-12-29T15:10:37Z</time>
      </trkpt>
      <trkpt lat="46.01434" lon="6.57848">
        <ele>1828</ele>
        <time>2017-12-29T15:10:57Z</time>
      </trkpt>
      <trkpt lat="46.01426" lon="6.57844">
        <ele>1830</ele>
        <time>2017-12-29T15:11:25Z</time>
      </trkpt>
      <trkpt lat="46.01422" lon="6.57844">
        <ele>1831</ele>
        <time>2017-12-29T15:11:33Z</time>
      </trkpt>
      <trkpt lat="46.01417" lon="6.57837">
        <ele>1833</ele>
        <time>2017-12-29T15:11:49Z</time>
      </trkpt>
      <trkpt lat="46.01411" lon="6.57827">
        <ele>1838</ele>
        <time>2017-12-29T15:12:13Z</time>
      </trkpt>
      <trkpt lat="46.01411" lon="6.57827">
        <ele>1838</ele>
        <time>2017-12-29T15:12:23Z</time>
      </trkpt>
      <trkpt lat="46.01412" lon="6.57827">
        <ele>1838</ele>
        <time>2017-12-29T15:12:27Z</time>
      </trkpt>
      <trkpt lat="46.01406" lon="6.57822">
        <ele>1840</ele>
        <time>2017-12-29T15:12:44Z</time>
      </trkpt>
      <trkpt lat="46.01405" lon="6.57819">
        <ele>1841</ele>
        <time>2017-12-29T15:12:51Z</time>
      </trkpt>
      <trkpt lat="46.01392" lon="6.57816">
        <ele>1844</ele>
        <time>2017-12-29T15:13:21Z</time>
      </trkpt>
      <trkpt lat="46.01384" lon="6.57825">
        <ele>1846</ele>
        <time>2017-12-29T15:13:41Z</time>
      </trkpt>
      <trkpt lat="46.01382" lon="6.57835">
        <ele>1854</ele>
        <time>2017-12-29T15:14:01Z</time>
      </trkpt>
      <trkpt lat="46.01378" lon="6.5784">
        <ele>1856</ele>
        <time>2017-12-29T15:14:24Z</time>
      </trkpt>
      <trkpt lat="46.01369" lon="6.57834">
        <ele>1859</ele>
        <time>2017-12-29T15:14:49Z</time>
      </trkpt>
      <trkpt lat="46.01365" lon="6.57825">
        <ele>1852</ele>
        <time>2017-12-29T15:15:14Z</time>
      </trkpt>
      <trkpt lat="46.01359" lon="6.57822">
        <ele>1853</ele>
        <time>2017-12-29T15:15:33Z</time>
      </trkpt>
      <trkpt lat="46.01354" lon="6.57833">
        <ele>1857</ele>
        <time>2017-12-29T15:15:51Z</time>
      </trkpt>
      <trkpt lat="46.01349" lon="6.57846">
        <ele>1864</ele>
        <time>2017-12-29T15:16:15Z</time>
      </trkpt>
      <trkpt lat="46.01345" lon="6.57854">
        <ele>1864</ele>
        <time>2017-12-29T15:16:29Z</time>
      </trkpt>
      <trkpt lat="46.01336" lon="6.57873">
        <ele>1865</ele>
        <time>2017-12-29T15:16:59Z</time>
      </trkpt>
      <trkpt lat="46.01328" lon="6.57885">
        <ele>1885</ele>
        <time>2017-12-29T15:17:21Z</time>
      </trkpt>
      <trkpt lat="46.01324" lon="6.57888">
        <ele>1885</ele>
        <time>2017-12-29T15:17:28Z</time>
      </trkpt>
      <trkpt lat="46.01317" lon="6.57897">
        <ele>1886</ele>
        <time>2017-12-29T15:17:41Z</time>
      </trkpt>
      <trkpt lat="46.01311" lon="6.57905">
        <ele>1887</ele>
        <time>2017-12-29T15:17:59Z</time>
      </trkpt>
      <trkpt lat="46.01306" lon="6.57912">
        <ele>1888</ele>
        <time>2017-12-29T15:18:15Z</time>
      </trkpt>
      <trkpt lat="46.01297" lon="6.57922">
        <ele>1895</ele>
        <time>2017-12-29T15:18:39Z</time>
      </trkpt>
      <trkpt lat="46.01298" lon="6.5793">
        <ele>1895</ele>
        <time>2017-12-29T15:18:53Z</time>
      </trkpt>
      <trkpt lat="46.013" lon="6.57937">
        <ele>1895</ele>
        <time>2017-12-29T15:19:03Z</time>
      </trkpt>
      <trkpt lat="46.01304" lon="6.57959">
        <ele>1896</ele>
        <time>2017-12-29T15:19:28Z</time>
      </trkpt>
      <trkpt lat="46.01305" lon="6.57971">
        <ele>1896</ele>
        <time>2017-12-29T15:19:40Z</time>
      </trkpt>
      <trkpt lat="46.01305" lon="6.57974">
        <ele>1896</ele>
        <time>2017-12-29T15:19:42Z</time>
      </trkpt>
      <trkpt lat="46.01306" lon="6.57978">
        <ele>1896</ele>
        <time>2017-12-29T15:19:46Z</time>
      </trkpt>
      <trkpt lat="46.01305" lon="6.5798">
        <ele>1896</ele>
        <time>2017-12-29T15:19:48Z</time>
      </trkpt>
      <trkpt lat="46.01303" lon="6.57993">
        <ele>1896</ele>
        <time>2017-12-29T15:19:58Z</time>
      </trkpt>
      <trkpt lat="46.01304" lon="6.58002">
        <ele>1901</ele>
        <time>2017-12-29T15:20:05Z</time>
      </trkpt>
      <trkpt lat="46.01305" lon="6.58004">
        <ele>1901</ele>
        <time>2017-12-29T15:20:07Z</time>
      </trkpt>
      <trkpt lat="46.01306" lon="6.58011">
        <ele>1901</ele>
        <time>2017-12-29T15:20:14Z</time>
      </trkpt>
      <trkpt lat="46.01313" lon="6.58025">
        <ele>1901</ele>
        <time>2017-12-29T15:20:30Z</time>
      </trkpt>
      <trkpt lat="46.01313" lon="6.58026">
        <ele>1901</ele>
        <time>2017-12-29T15:20:32Z</time>
      </trkpt>
      <trkpt lat="46.01314" lon="6.58028">
        <ele>1901</ele>
        <time>2017-12-29T15:20:34Z</time>
      </trkpt>
      <trkpt lat="46.01317" lon="6.58034">
        <ele>1902</ele>
        <time>2017-12-29T15:20:41Z</time>
      </trkpt>
      <trkpt lat="46.01318" lon="6.58037">
        <ele>1902</ele>
        <time>2017-12-29T15:20:43Z</time>
      </trkpt>
      <trkpt lat="46.01318" lon="6.58039">
        <ele>1902</ele>
        <time>2017-12-29T15:20:45Z</time>
      </trkpt>
      <trkpt lat="46.01324" lon="6.58051">
        <ele>1903</ele>
        <time>2017-12-29T15:20:58Z</time>
      </trkpt>
      <trkpt lat="46.01336" lon="6.58069">
        <ele>1897</ele>
        <time>2017-12-29T15:21:18Z</time>
      </trkpt>
      <trkpt lat="46.01336" lon="6.5807">
        <ele>1897</ele>
        <time>2017-12-29T15:21:19Z</time>
      </trkpt>
      <trkpt lat="46.0134" lon="6.58076">
        <ele>1899</ele>
        <time>2017-12-29T15:21:27Z</time>
      </trkpt>
      <trkpt lat="46.01357" lon="6.58091">
        <ele>1898</ele>
        <time>2017-12-29T15:21:44Z</time>
      </trkpt>
      <trkpt lat="46.01362" lon="6.58094">
        <ele>1898</ele>
        <time>2017-12-29T15:21:49Z</time>
      </trkpt>
      <trkpt lat="46.01369" lon="6.58095">
        <ele>1897</ele>
        <time>2017-12-29T15:21:54Z</time>
      </trkpt>
      <trkpt lat="46.0137" lon="6.58095">
        <ele>1897</ele>
        <time>2017-12-29T15:21:55Z</time>
      </trkpt>
      <trkpt lat="46.01372" lon="6.58095">
        <ele>1897</ele>
        <time>2017-12-29T15:21:56Z</time>
      </trkpt>
      <trkpt lat="46.01391" lon="6.58098">
        <ele>1896</ele>
        <time>2017-12-29T15:22:07Z</time>
      </trkpt>
      <trkpt lat="46.01412" lon="6.58111">
        <ele>1896</ele>
        <time>2017-12-29T15:22:26Z</time>
      </trkpt>
      <trkpt lat="46.01426" lon="6.58122">
        <ele>1893</ele>
        <time>2017-12-29T15:22:40Z</time>
      </trkpt>
      <trkpt lat="46.01427" lon="6.58122">
        <ele>1893</ele>
        <time>2017-12-29T15:22:41Z</time>
      </trkpt>
      <trkpt lat="46.01428" lon="6.58123">
        <ele>1893</ele>
        <time>2017-12-29T15:22:42Z</time>
      </trkpt>
      <trkpt lat="46.01432" lon="6.58126">
        <ele>1893</ele>
        <time>2017-12-29T15:22:46Z</time>
      </trkpt>
      <trkpt lat="46.01433" lon="6.58127">
        <ele>1893</ele>
        <time>2017-12-29T15:22:47Z</time>
      </trkpt>
      <trkpt lat="46.01434" lon="6.58128">
        <ele>1893</ele>
        <time>2017-12-29T15:22:48Z</time>
      </trkpt>
      <trkpt lat="46.01436" lon="6.58128">
        <ele>1893</ele>
        <time>2017-12-29T15:22:49Z</time>
      </trkpt>
      <trkpt lat="46.01437" lon="6.58129">
        <ele>1893</ele>
        <time>2017-12-29T15:22:50Z</time>
      </trkpt>
      <trkpt lat="46.01438" lon="6.5813">
        <ele>1893</ele>
        <time>2017-12-29T15:22:51Z</time>
      </trkpt>
      <trkpt lat="46.01439" lon="6.5813">
        <ele>1892</ele>
        <time>2017-12-29T15:22:52Z</time>
      </trkpt>
      <trkpt lat="46.0144" lon="6.58131">
        <ele>1892</ele>
        <time>2017-12-29T15:22:53Z</time>
      </trkpt>
      <trkpt lat="46.01442" lon="6.58131">
        <ele>1892</ele>
        <time>2017-12-29T15:22:54Z</time>
      </trkpt>
      <trkpt lat="46.01443" lon="6.58132">
        <ele>1892</ele>
        <time>2017-12-29T15:22:55Z</time>
      </trkpt>
      <trkpt lat="46.01443" lon="6.58132">
        <ele>1892</ele>
        <time>2017-12-29T15:22:56Z</time>
      </trkpt>
      <trkpt lat="46.01444" lon="6.58133">
        <ele>1892</ele>
        <time>2017-12-29T15:22:57Z</time>
      </trkpt>
      <trkpt lat="46.01445" lon="6.58134">
        <ele>1892</ele>
        <time>2017-12-29T15:22:58Z</time>
      </trkpt>
      <trkpt lat="46.01448" lon="6.58135">
        <ele>1892</ele>
        <time>2017-12-29T15:23:03Z</time>
      </trkpt>
      <trkpt lat="46.01449" lon="6.58135">
        <ele>1892</ele>
        <time>2017-12-29T15:23:08Z</time>
      </trkpt>
      <trkpt lat="46.0145" lon="6.58136">
        <ele>1892</ele>
        <time>2017-12-29T15:23:16Z</time>
      </trkpt>
      <trkpt lat="46.0145" lon="6.58136">
        <ele>1892</ele>
        <time>2017-12-29T15:23:17Z</time>
      </trkpt>
      <trkpt lat="46.0145" lon="6.58136">
        <ele>1892</ele>
        <time>2017-12-29T15:23:22Z</time>
      </trkpt>
      <trkpt lat="46.0145" lon="6.58135">
        <ele>1892</ele>
        <time>2017-12-29T15:23:33Z</time>
      </trkpt>
      <trkpt lat="46.0145" lon="6.58135">
        <ele>1892</ele>
        <time>2017-12-29T15:23:37Z</time>
      </trkpt>
      <trkpt lat="46.0145" lon="6.58134">
        <ele>1892</ele>
        <time>2017-12-29T15:23:44Z</time>
      </trkpt>
      <trkpt lat="46.01449" lon="6.58135">
        <ele>1892</ele>
        <time>2017-12-29T15:23:52Z</time>
      </trkpt>
      <trkpt lat="46.0145" lon="6.58136">
        <ele>1892</ele>
        <time>2017-12-29T15:24:08Z</time>
      </trkpt>
      <trkpt lat="46.01449" lon="6.58135">
        <ele>1892</ele>
        <time>2017-12-29T15:24:09Z</time>
      </trkpt>
      <trkpt lat="46.0145" lon="6.58134">
        <ele>1892</ele>
        <time>2017-12-29T15:24:21Z</time>
      </trkpt>
      <trkpt lat="46.01449" lon="6.58135">
        <ele>1892</ele>
        <time>2017-12-29T15:24:32Z</time>
      </trkpt>
      <trkpt lat="46.01449" lon="6.58135">
        <ele>1892</ele>
        <time>2017-12-29T15:24:41Z</time>
      </trkpt>
      <trkpt lat="46.01448" lon="6.58135">
        <ele>1892</ele>
        <time>2017-12-29T15:24:47Z</time>
      </trkpt>
      <trkpt lat="46.01449" lon="6.58135">
        <ele>1892</ele>
        <time>2017-12-29T15:24:52Z</time>
      </trkpt>
      <trkpt lat="46.01449" lon="6.58135">
        <ele>1892</ele>
        <time>2017-12-29T15:25:03Z</time>
      </trkpt>
      <trkpt lat="46.01449" lon="6.58135">
        <ele>1892</ele>
        <time>2017-12-29T15:25:08Z</time>
      </trkpt>
      <trkpt lat="46.0145" lon="6.58136">
        <ele>1892</ele>
        <time>2017-12-29T15:25:14Z</time>
      </trkpt>
      <trkpt lat="46.0145" lon="6.58136">
        <ele>1892</ele>
        <time>2017-12-29T15:25:19Z</time>
      </trkpt>
      <trkpt lat="46.01449" lon="6.58136">
        <ele>1892</ele>
        <time>2017-12-29T15:25:26Z</time>
      </trkpt>
      <trkpt lat="46.0145" lon="6.58136">
        <ele>1892</ele>
        <time>2017-12-29T15:25:29Z</time>
      </trkpt>
      <trkpt lat="46.0145" lon="6.58135">
        <ele>1892</ele>
        <time>2017-12-29T15:25:36Z</time>
      </trkpt>
      <trkpt lat="46.0145" lon="6.58135">
        <ele>1892</ele>
        <time>2017-12-29T15:25:40Z</time>
      </trkpt>
      <trkpt lat="46.0145" lon="6.58135">
        <ele>1892</ele>
        <time>2017-12-29T15:25:50Z</time>
      </trkpt>
      <trkpt lat="46.0145" lon="6.58135">
        <ele>1892</ele>
        <time>2017-12-29T15:26:01Z</time>
      </trkpt>
      <trkpt lat="46.01451" lon="6.58135">
        <ele>1892</ele>
        <time>2017-12-29T15:26:02Z</time>
      </trkpt>
      <trkpt lat="46.01451" lon="6.58135">
        <ele>1892</ele>
        <time>2017-12-29T15:26:07Z</time>
      </trkpt>
      <trkpt lat="46.0145" lon="6.58135">
        <ele>1892</ele>
        <time>2017-12-29T15:26:12Z</time>
      </trkpt>
      <trkpt lat="46.0146" lon="6.58131">
        <ele>1892</ele>
        <time>2017-12-29T15:26:46Z</time>
      </trkpt>
      <trkpt lat="46.01469" lon="6.58125">
        <ele>1892</ele>
        <time>2017-12-29T15:26:50Z</time>
      </trkpt>
      <trkpt lat="46.01477" lon="6.58122">
        <ele>1891</ele>
        <time>2017-12-29T15:26:52Z</time>
      </trkpt>
      <trkpt lat="46.01482" lon="6.5812">
        <ele>1891</ele>
        <time>2017-12-29T15:26:53Z</time>
      </trkpt>
      <trkpt lat="46.01487" lon="6.5812">
        <ele>1891</ele>
        <time>2017-12-29T15:26:54Z</time>
      </trkpt>
      <trkpt lat="46.01493" lon="6.58122">
        <ele>1891</ele>
        <time>2017-12-29T15:26:55Z</time>
      </trkpt>
      <trkpt lat="46.01498" lon="6.58124">
        <ele>1891</ele>
        <time>2017-12-29T15:26:56Z</time>
      </trkpt>
      <trkpt lat="46.01503" lon="6.58122">
        <ele>1886</ele>
        <time>2017-12-29T15:26:57Z</time>
      </trkpt>
      <trkpt lat="46.01508" lon="6.58118">
        <ele>1885</ele>
        <time>2017-12-29T15:26:58Z</time>
      </trkpt>
      <trkpt lat="46.01512" lon="6.58116">
        <ele>1885</ele>
        <time>2017-12-29T15:26:59Z</time>
      </trkpt>
      <trkpt lat="46.01518" lon="6.58117">
        <ele>1884</ele>
        <time>2017-12-29T15:27:00Z</time>
      </trkpt>
      <trkpt lat="46.01522" lon="6.58116">
        <ele>1884</ele>
        <time>2017-12-29T15:27:01Z</time>
      </trkpt>
      <trkpt lat="46.01525" lon="6.58111">
        <ele>1883</ele>
        <time>2017-12-29T15:27:02Z</time>
      </trkpt>
      <trkpt lat="46.01528" lon="6.58105">
        <ele>1883</ele>
        <time>2017-12-29T15:27:03Z</time>
      </trkpt>
      <trkpt lat="46.01533" lon="6.58101">
        <ele>1882</ele>
        <time>2017-12-29T15:27:04Z</time>
      </trkpt>
      <trkpt lat="46.01538" lon="6.58097">
        <ele>1881</ele>
        <time>2017-12-29T15:27:05Z</time>
      </trkpt>
      <trkpt lat="46.01542" lon="6.58092">
        <ele>1880</ele>
        <time>2017-12-29T15:27:06Z</time>
      </trkpt>
      <trkpt lat="46.01548" lon="6.58089">
        <ele>1879</ele>
        <time>2017-12-29T15:27:07Z</time>
      </trkpt>
      <trkpt lat="46.01554" lon="6.5809">
        <ele>1878</ele>
        <time>2017-12-29T15:27:08Z</time>
      </trkpt>
      <trkpt lat="46.01561" lon="6.58091">
        <ele>1877</ele>
        <time>2017-12-29T15:27:09Z</time>
      </trkpt>
      <trkpt lat="46.01568" lon="6.5809">
        <ele>1875</ele>
        <time>2017-12-29T15:27:10Z</time>
      </trkpt>
      <trkpt lat="46.01575" lon="6.58088">
        <ele>1872</ele>
        <time>2017-12-29T15:27:11Z</time>
      </trkpt>
      <trkpt lat="46.01582" lon="6.58088">
        <ele>1869</ele>
        <time>2017-12-29T15:27:12Z</time>
      </trkpt>
      <trkpt lat="46.01589" lon="6.58088">
        <ele>1866</ele>
        <time>2017-12-29T15:27:13Z</time>
      </trkpt>
      <trkpt lat="46.01595" lon="6.58087">
        <ele>1866</ele>
        <time>2017-12-29T15:27:14Z</time>
      </trkpt>
      <trkpt lat="46.01607" lon="6.58086">
        <ele>1866</ele>
        <time>2017-12-29T15:27:16Z</time>
      </trkpt>
      <trkpt lat="46.01618" lon="6.58083">
        <ele>1847</ele>
        <time>2017-12-29T15:27:18Z</time>
      </trkpt>
      <trkpt lat="46.01623" lon="6.5808">
        <ele>1845</ele>
        <time>2017-12-29T15:27:19Z</time>
      </trkpt>
      <trkpt lat="46.01634" lon="6.58075">
        <ele>1843</ele>
        <time>2017-12-29T15:27:21Z</time>
      </trkpt>
      <trkpt lat="46.01646" lon="6.58071">
        <ele>1842</ele>
        <time>2017-12-29T15:27:23Z</time>
      </trkpt>
      <trkpt lat="46.01665" lon="6.58064">
        <ele>1841</ele>
        <time>2017-12-29T15:27:26Z</time>
      </trkpt>
      <trkpt lat="46.01671" lon="6.58062">
        <ele>1829</ele>
        <time>2017-12-29T15:27:27Z</time>
      </trkpt>
      <trkpt lat="46.01677" lon="6.5806">
        <ele>1828</ele>
        <time>2017-12-29T15:27:28Z</time>
      </trkpt>
      <trkpt lat="46.01681" lon="6.5806">
        <ele>1827</ele>
        <time>2017-12-29T15:27:29Z</time>
      </trkpt>
      <trkpt lat="46.01684" lon="6.58061">
        <ele>1827</ele>
        <time>2017-12-29T15:27:30Z</time>
      </trkpt>
      <trkpt lat="46.01686" lon="6.58062">
        <ele>1826</ele>
        <time>2017-12-29T15:27:31Z</time>
      </trkpt>
      <trkpt lat="46.01688" lon="6.58063">
        <ele>1826</ele>
        <time>2017-12-29T15:27:32Z</time>
      </trkpt>
      <trkpt lat="46.0169" lon="6.58064">
        <ele>1826</ele>
        <time>2017-12-29T15:27:33Z</time>
      </trkpt>
      <trkpt lat="46.01692" lon="6.58065">
        <ele>1826</ele>
        <time>2017-12-29T15:27:34Z</time>
      </trkpt>
      <trkpt lat="46.01695" lon="6.58066">
        <ele>1825</ele>
        <time>2017-12-29T15:27:35Z</time>
      </trkpt>
      <trkpt lat="46.01699" lon="6.58063">
        <ele>1824</ele>
        <time>2017-12-29T15:27:36Z</time>
      </trkpt>
      <trkpt lat="46.01703" lon="6.58058">
        <ele>1822</ele>
        <time>2017-12-29T15:27:37Z</time>
      </trkpt>
      <trkpt lat="46.01708" lon="6.58055">
        <ele>1820</ele>
        <time>2017-12-29T15:27:38Z</time>
      </trkpt>
      <trkpt lat="46.01714" lon="6.58051">
        <ele>1819</ele>
        <time>2017-12-29T15:27:39Z</time>
      </trkpt>
      <trkpt lat="46.01721" lon="6.58049">
        <ele>1818</ele>
        <time>2017-12-29T15:27:40Z</time>
      </trkpt>
      <trkpt lat="46.01728" lon="6.5805">
        <ele>1817</ele>
        <time>2017-12-29T15:27:41Z</time>
      </trkpt>
      <trkpt lat="46.01735" lon="6.58051">
        <ele>1817</ele>
        <time>2017-12-29T15:27:42Z</time>
      </trkpt>
      <trkpt lat="46.01747" lon="6.58052">
        <ele>1817</ele>
        <time>2017-12-29T15:27:44Z</time>
      </trkpt>
      <trkpt lat="46.01755" lon="6.58049">
        <ele>1802</ele>
        <time>2017-12-29T15:27:45Z</time>
      </trkpt>
      <trkpt lat="46.01761" lon="6.58049">
        <ele>1802</ele>
        <time>2017-12-29T15:27:46Z</time>
      </trkpt>
      <trkpt lat="46.01774" lon="6.58051">
        <ele>1800</ele>
        <time>2017-12-29T15:27:48Z</time>
      </trkpt>
      <trkpt lat="46.01791" lon="6.58053">
        <ele>1798</ele>
        <time>2017-12-29T15:27:50Z</time>
      </trkpt>
      <trkpt lat="46.01798" lon="6.58054">
        <ele>1797</ele>
        <time>2017-12-29T15:27:51Z</time>
      </trkpt>
      <trkpt lat="46.01806" lon="6.58055">
        <ele>1796</ele>
        <time>2017-12-29T15:27:52Z</time>
      </trkpt>
      <trkpt lat="46.01813" lon="6.58059">
        <ele>1795</ele>
        <time>2017-12-29T15:27:53Z</time>
      </trkpt>
      <trkpt lat="46.01826" lon="6.58066">
        <ele>1794</ele>
        <time>2017-12-29T15:27:55Z</time>
      </trkpt>
      <trkpt lat="46.01834" lon="6.58071">
        <ele>1785</ele>
        <time>2017-12-29T15:27:56Z</time>
      </trkpt>
      <trkpt lat="46.0184" lon="6.58078">
        <ele>1787</ele>
        <time>2017-12-29T15:27:57Z</time>
      </trkpt>
      <trkpt lat="46.01846" lon="6.58086">
        <ele>1790</ele>
        <time>2017-12-29T15:27:58Z</time>
      </trkpt>
      <trkpt lat="46.01852" lon="6.58094">
        <ele>1789</ele>
        <time>2017-12-29T15:27:59Z</time>
      </trkpt>
      <trkpt lat="46.01858" lon="6.581">
        <ele>1788</ele>
        <time>2017-12-29T15:28:00Z</time>
      </trkpt>
      <trkpt lat="46.01866" lon="6.58105">
        <ele>1787</ele>
        <time>2017-12-29T15:28:01Z</time>
      </trkpt>
      <trkpt lat="46.01875" lon="6.58103">
        <ele>1785</ele>
        <time>2017-12-29T15:28:02Z</time>
      </trkpt>
      <trkpt lat="46.01883" lon="6.58102">
        <ele>1784</ele>
        <time>2017-12-29T15:28:03Z</time>
      </trkpt>
      <trkpt lat="46.01891" lon="6.58099">
        <ele>1782</ele>
        <time>2017-12-29T15:28:04Z</time>
      </trkpt>
      <trkpt lat="46.019" lon="6.58099">
        <ele>1780</ele>
        <time>2017-12-29T15:28:05Z</time>
      </trkpt>
      <trkpt lat="46.01909" lon="6.581">
        <ele>1779</ele>
        <time>2017-12-29T15:28:06Z</time>
      </trkpt>
      <trkpt lat="46.01925" lon="6.58104">
        <ele>1766</ele>
        <time>2017-12-29T15:28:08Z</time>
      </trkpt>
      <trkpt lat="46.01938" lon="6.58107">
        <ele>1764</ele>
        <time>2017-12-29T15:28:10Z</time>
      </trkpt>
      <trkpt lat="46.01943" lon="6.58111">
        <ele>1764</ele>
        <time>2017-12-29T15:28:11Z</time>
      </trkpt>
      <trkpt lat="46.01947" lon="6.58116">
        <ele>1763</ele>
        <time>2017-12-29T15:28:12Z</time>
      </trkpt>
      <trkpt lat="46.01951" lon="6.58122">
        <ele>1762</ele>
        <time>2017-12-29T15:28:13Z</time>
      </trkpt>
      <trkpt lat="46.01956" lon="6.58129">
        <ele>1762</ele>
        <time>2017-12-29T15:28:14Z</time>
      </trkpt>
      <trkpt lat="46.0196" lon="6.58136">
        <ele>1761</ele>
        <time>2017-12-29T15:28:15Z</time>
      </trkpt>
      <trkpt lat="46.01961" lon="6.58144">
        <ele>1761</ele>
        <time>2017-12-29T15:28:16Z</time>
      </trkpt>
      <trkpt lat="46.0196" lon="6.5815">
        <ele>1761</ele>
        <time>2017-12-29T15:28:17Z</time>
      </trkpt>
      <trkpt lat="46.01958" lon="6.58154">
        <ele>1762</ele>
        <time>2017-12-29T15:28:18Z</time>
      </trkpt>
      <trkpt lat="46.01955" lon="6.58157">
        <ele>1762</ele>
        <time>2017-12-29T15:28:19Z</time>
      </trkpt>
      <trkpt lat="46.01953" lon="6.58158">
        <ele>1763</ele>
        <time>2017-12-29T15:28:20Z</time>
      </trkpt>
      <trkpt lat="46.01951" lon="6.5816">
        <ele>1763</ele>
        <time>2017-12-29T15:28:21Z</time>
      </trkpt>
      <trkpt lat="46.01931" lon="6.58184">
        <ele>1764</ele>
        <time>2017-12-29T15:28:29Z</time>
      </trkpt>
      <trkpt lat="46.0193" lon="6.58187">
        <ele>1763</ele>
        <time>2017-12-29T15:28:30Z</time>
      </trkpt>
      <trkpt lat="46.0193" lon="6.5819">
        <ele>1762</ele>
        <time>2017-12-29T15:28:31Z</time>
      </trkpt>
      <trkpt lat="46.0193" lon="6.58197">
        <ele>1761</ele>
        <time>2017-12-29T15:28:33Z</time>
      </trkpt>
      <trkpt lat="46.01932" lon="6.582">
        <ele>1760</ele>
        <time>2017-12-29T15:28:34Z</time>
      </trkpt>
      <trkpt lat="46.01936" lon="6.58197">
        <ele>1760</ele>
        <time>2017-12-29T15:28:35Z</time>
      </trkpt>
      <trkpt lat="46.0194" lon="6.58195">
        <ele>1760</ele>
        <time>2017-12-29T15:28:36Z</time>
      </trkpt>
      <trkpt lat="46.01943" lon="6.58192">
        <ele>1759</ele>
        <time>2017-12-29T15:28:37Z</time>
      </trkpt>
      <trkpt lat="46.01946" lon="6.5819">
        <ele>1759</ele>
        <time>2017-12-29T15:28:38Z</time>
      </trkpt>
      <trkpt lat="46.01949" lon="6.58188">
        <ele>1758</ele>
        <time>2017-12-29T15:28:39Z</time>
      </trkpt>
      <trkpt lat="46.01955" lon="6.58187">
        <ele>1757</ele>
        <time>2017-12-29T15:28:41Z</time>
      </trkpt>
      <trkpt lat="46.01956" lon="6.58189">
        <ele>1757</ele>
        <time>2017-12-29T15:28:42Z</time>
      </trkpt>
      <trkpt lat="46.01956" lon="6.58193">
        <ele>1756</ele>
        <time>2017-12-29T15:28:43Z</time>
      </trkpt>
      <trkpt lat="46.01954" lon="6.58197">
        <ele>1756</ele>
        <time>2017-12-29T15:28:44Z</time>
      </trkpt>
      <trkpt lat="46.01951" lon="6.58199">
        <ele>1757</ele>
        <time>2017-12-29T15:28:45Z</time>
      </trkpt>
      <trkpt lat="46.01948" lon="6.58201">
        <ele>1757</ele>
        <time>2017-12-29T15:28:46Z</time>
      </trkpt>
      <trkpt lat="46.01945" lon="6.58203">
        <ele>1758</ele>
        <time>2017-12-29T15:28:47Z</time>
      </trkpt>
      <trkpt lat="46.01943" lon="6.58205">
        <ele>1758</ele>
        <time>2017-12-29T15:28:48Z</time>
      </trkpt>
      <trkpt lat="46.01931" lon="6.58236">
        <ele>1759</ele>
        <time>2017-12-29T15:29:06Z</time>
      </trkpt>
      <trkpt lat="46.01931" lon="6.58243">
        <ele>1760</ele>
        <time>2017-12-29T15:29:13Z</time>
      </trkpt>
      <trkpt lat="46.01931" lon="6.58245">
        <ele>1760</ele>
        <time>2017-12-29T15:29:15Z</time>
      </trkpt>
      <trkpt lat="46.01931" lon="6.58264">
        <ele>1756</ele>
        <time>2017-12-29T15:29:23Z</time>
      </trkpt>
      <trkpt lat="46.01942" lon="6.58291">
        <ele>1752</ele>
        <time>2017-12-29T15:29:30Z</time>
      </trkpt>
      <trkpt lat="46.01954" lon="6.58314">
        <ele>1750</ele>
        <time>2017-12-29T15:29:37Z</time>
      </trkpt>
      <trkpt lat="46.01957" lon="6.58315">
        <ele>1750</ele>
        <time>2017-12-29T15:29:38Z</time>
      </trkpt>
      <trkpt lat="46.01985" lon="6.58327">
        <ele>1744</ele>
        <time>2017-12-29T15:29:48Z</time>
      </trkpt>
      <trkpt lat="46.01989" lon="6.58329">
        <ele>1742</ele>
        <time>2017-12-29T15:29:49Z</time>
      </trkpt>
      <trkpt lat="46.01992" lon="6.58332">
        <ele>1741</ele>
        <time>2017-12-29T15:29:50Z</time>
      </trkpt>
      <trkpt lat="46.01997" lon="6.58336">
        <ele>1741</ele>
        <time>2017-12-29T15:29:51Z</time>
      </trkpt>
      <trkpt lat="46.02001" lon="6.58336">
        <ele>1737</ele>
        <time>2017-12-29T15:29:52Z</time>
      </trkpt>
      <trkpt lat="46.02004" lon="6.58331">
        <ele>1734</ele>
        <time>2017-12-29T15:29:53Z</time>
      </trkpt>
      <trkpt lat="46.02006" lon="6.58325">
        <ele>1731</ele>
        <time>2017-12-29T15:29:54Z</time>
      </trkpt>
      <trkpt lat="46.02007" lon="6.5832">
        <ele>1729</ele>
        <time>2017-12-29T15:29:55Z</time>
      </trkpt>
      <trkpt lat="46.02005" lon="6.58316">
        <ele>1728</ele>
        <time>2017-12-29T15:29:56Z</time>
      </trkpt>
      <trkpt lat="46.02002" lon="6.58311">
        <ele>1726</ele>
        <time>2017-12-29T15:29:57Z</time>
      </trkpt>
      <trkpt lat="46.01997" lon="6.58307">
        <ele>1744</ele>
        <time>2017-12-29T15:29:58Z</time>
      </trkpt>
      <trkpt lat="46.01993" lon="6.58304">
        <ele>1744</ele>
        <time>2017-12-29T15:29:59Z</time>
      </trkpt>
      <trkpt lat="46.0199" lon="6.58302">
        <ele>1745</ele>
        <time>2017-12-29T15:30:00Z</time>
      </trkpt>
      <trkpt lat="46.01976" lon="6.58263">
        <ele>1744</ele>
        <time>2017-12-29T15:30:08Z</time>
      </trkpt>
      <trkpt lat="46.01977" lon="6.58259">
        <ele>1743</ele>
        <time>2017-12-29T15:30:09Z</time>
      </trkpt>
      <trkpt lat="46.01979" lon="6.58257">
        <ele>1742</ele>
        <time>2017-12-29T15:30:10Z</time>
      </trkpt>
      <trkpt lat="46.01983" lon="6.58255">
        <ele>1741</ele>
        <time>2017-12-29T15:30:11Z</time>
      </trkpt>
      <trkpt lat="46.01988" lon="6.58257">
        <ele>1739</ele>
        <time>2017-12-29T15:30:12Z</time>
      </trkpt>
      <trkpt lat="46.01993" lon="6.58262">
        <ele>1739</ele>
        <time>2017-12-29T15:30:13Z</time>
      </trkpt>
      <trkpt lat="46.01998" lon="6.58268">
        <ele>1740</ele>
        <time>2017-12-29T15:30:14Z</time>
      </trkpt>
      <trkpt lat="46.02014" lon="6.58289">
        <ele>1722</ele>
        <time>2017-12-29T15:30:17Z</time>
      </trkpt>
      <trkpt lat="46.0203" lon="6.58306">
        <ele>1720</ele>
        <time>2017-12-29T15:30:20Z</time>
      </trkpt>
      <trkpt lat="46.02051" lon="6.58325">
        <ele>1716</ele>
        <time>2017-12-29T15:30:24Z</time>
      </trkpt>
      <trkpt lat="46.02055" lon="6.58331">
        <ele>1714</ele>
        <time>2017-12-29T15:30:25Z</time>
      </trkpt>
      <trkpt lat="46.02066" lon="6.58352">
        <ele>1717</ele>
        <time>2017-12-29T15:30:28Z</time>
      </trkpt>
      <trkpt lat="46.02069" lon="6.58362">
        <ele>1718</ele>
        <time>2017-12-29T15:30:29Z</time>
      </trkpt>
      <trkpt lat="46.02069" lon="6.58371">
        <ele>1719</ele>
        <time>2017-12-29T15:30:30Z</time>
      </trkpt>
      <trkpt lat="46.02069" lon="6.58381">
        <ele>1719</ele>
        <time>2017-12-29T15:30:31Z</time>
      </trkpt>
      <trkpt lat="46.02068" lon="6.5839">
        <ele>1719</ele>
        <time>2017-12-29T15:30:32Z</time>
      </trkpt>
      <trkpt lat="46.02067" lon="6.58399">
        <ele>1718</ele>
        <time>2017-12-29T15:30:33Z</time>
      </trkpt>
      <trkpt lat="46.02066" lon="6.58407">
        <ele>1718</ele>
        <time>2017-12-29T15:30:34Z</time>
      </trkpt>
      <trkpt lat="46.02065" lon="6.58415">
        <ele>1717</ele>
        <time>2017-12-29T15:30:35Z</time>
      </trkpt>
      <trkpt lat="46.02065" lon="6.58423">
        <ele>1719</ele>
        <time>2017-12-29T15:30:36Z</time>
      </trkpt>
      <trkpt lat="46.02067" lon="6.5843">
        <ele>1719</ele>
        <time>2017-12-29T15:30:37Z</time>
      </trkpt>
      <trkpt lat="46.02068" lon="6.58436">
        <ele>1719</ele>
        <time>2017-12-29T15:30:38Z</time>
      </trkpt>
      <trkpt lat="46.0207" lon="6.58476">
        <ele>1719</ele>
        <time>2017-12-29T15:30:45Z</time>
      </trkpt>
      <trkpt lat="46.02063" lon="6.58512">
        <ele>1714</ele>
        <time>2017-12-29T15:30:54Z</time>
      </trkpt>
      <trkpt lat="46.0206" lon="6.58571">
        <ele>1710</ele>
        <time>2017-12-29T15:31:05Z</time>
      </trkpt>
      <trkpt lat="46.02061" lon="6.58583">
        <ele>1708</ele>
        <time>2017-12-29T15:31:07Z</time>
      </trkpt>
      <trkpt lat="46.02061" lon="6.58589">
        <ele>1702</ele>
        <time>2017-12-29T15:31:08Z</time>
      </trkpt>
      <trkpt lat="46.0206" lon="6.58595">
        <ele>1703</ele>
        <time>2017-12-29T15:31:09Z</time>
      </trkpt>
      <trkpt lat="46.02059" lon="6.58601">
        <ele>1703</ele>
        <time>2017-12-29T15:31:10Z</time>
      </trkpt>
      <trkpt lat="46.02056" lon="6.58607">
        <ele>1704</ele>
        <time>2017-12-29T15:31:11Z</time>
      </trkpt>
      <trkpt lat="46.02053" lon="6.58614">
        <ele>1705</ele>
        <time>2017-12-29T15:31:12Z</time>
      </trkpt>
      <trkpt lat="46.02051" lon="6.5862">
        <ele>1705</ele>
        <time>2017-12-29T15:31:13Z</time>
      </trkpt>
      <trkpt lat="46.02047" lon="6.58636">
        <ele>1705</ele>
        <time>2017-12-29T15:31:15Z</time>
      </trkpt>
      <trkpt lat="46.02046" lon="6.58645">
        <ele>1705</ele>
        <time>2017-12-29T15:31:16Z</time>
      </trkpt>
      <trkpt lat="46.02046" lon="6.58652">
        <ele>1704</ele>
        <time>2017-12-29T15:31:17Z</time>
      </trkpt>
      <trkpt lat="46.02046" lon="6.5866">
        <ele>1704</ele>
        <time>2017-12-29T15:31:18Z</time>
      </trkpt>
      <trkpt lat="46.02048" lon="6.58667">
        <ele>1701</ele>
        <time>2017-12-29T15:31:19Z</time>
      </trkpt>
      <trkpt lat="46.02051" lon="6.58673">
        <ele>1700</ele>
        <time>2017-12-29T15:31:20Z</time>
      </trkpt>
      <trkpt lat="46.02056" lon="6.58677">
        <ele>1699</ele>
        <time>2017-12-29T15:31:21Z</time>
      </trkpt>
      <trkpt lat="46.0206" lon="6.58681">
        <ele>1698</ele>
        <time>2017-12-29T15:31:22Z</time>
      </trkpt>
      <trkpt lat="46.02063" lon="6.58686">
        <ele>1698</ele>
        <time>2017-12-29T15:31:23Z</time>
      </trkpt>
      <trkpt lat="46.02065" lon="6.5869">
        <ele>1698</ele>
        <time>2017-12-29T15:31:24Z</time>
      </trkpt>
      <trkpt lat="46.02073" lon="6.58693">
        <ele>1697</ele>
        <time>2017-12-29T15:31:26Z</time>
      </trkpt>
      <trkpt lat="46.02079" lon="6.58692">
        <ele>1696</ele>
        <time>2017-12-29T15:31:27Z</time>
      </trkpt>
      <trkpt lat="46.02084" lon="6.58688">
        <ele>1683</ele>
        <time>2017-12-29T15:31:28Z</time>
      </trkpt>
      <trkpt lat="46.02089" lon="6.58683">
        <ele>1683</ele>
        <time>2017-12-29T15:31:29Z</time>
      </trkpt>
      <trkpt lat="46.02094" lon="6.58678">
        <ele>1683</ele>
        <time>2017-12-29T15:31:30Z</time>
      </trkpt>
      <trkpt lat="46.02098" lon="6.58673">
        <ele>1682</ele>
        <time>2017-12-29T15:31:31Z</time>
      </trkpt>
      <trkpt lat="46.02102" lon="6.58668">
        <ele>1682</ele>
        <time>2017-12-29T15:31:32Z</time>
      </trkpt>
      <trkpt lat="46.02107" lon="6.58661">
        <ele>1681</ele>
        <time>2017-12-29T15:31:33Z</time>
      </trkpt>
      <trkpt lat="46.02111" lon="6.58657">
        <ele>1680</ele>
        <time>2017-12-29T15:31:34Z</time>
      </trkpt>
      <trkpt lat="46.0212" lon="6.5865">
        <ele>1679</ele>
        <time>2017-12-29T15:31:36Z</time>
      </trkpt>
      <trkpt lat="46.02123" lon="6.58645">
        <ele>1679</ele>
        <time>2017-12-29T15:31:37Z</time>
      </trkpt>
      <trkpt lat="46.02127" lon="6.5864">
        <ele>1679</ele>
        <time>2017-12-29T15:31:38Z</time>
      </trkpt>
      <trkpt lat="46.02131" lon="6.58636">
        <ele>1678</ele>
        <time>2017-12-29T15:31:39Z</time>
      </trkpt>
      <trkpt lat="46.02136" lon="6.58632">
        <ele>1678</ele>
        <time>2017-12-29T15:31:40Z</time>
      </trkpt>
      <trkpt lat="46.0214" lon="6.58629">
        <ele>1678</ele>
        <time>2017-12-29T15:31:41Z</time>
      </trkpt>
      <trkpt lat="46.02144" lon="6.58627">
        <ele>1677</ele>
        <time>2017-12-29T15:31:42Z</time>
      </trkpt>
      <trkpt lat="46.02148" lon="6.58624">
        <ele>1677</ele>
        <time>2017-12-29T15:31:43Z</time>
      </trkpt>
      <trkpt lat="46.02185" lon="6.586">
        <ele>1666</ele>
        <time>2017-12-29T15:31:54Z</time>
      </trkpt>
      <trkpt lat="46.02207" lon="6.58585">
        <ele>1662</ele>
        <time>2017-12-29T15:31:59Z</time>
      </trkpt>
      <trkpt lat="46.02215" lon="6.58577">
        <ele>1659</ele>
        <time>2017-12-29T15:32:01Z</time>
      </trkpt>
      <trkpt lat="46.02218" lon="6.58572">
        <ele>1659</ele>
        <time>2017-12-29T15:32:02Z</time>
      </trkpt>
      <trkpt lat="46.02221" lon="6.58566">
        <ele>1658</ele>
        <time>2017-12-29T15:32:03Z</time>
      </trkpt>
      <trkpt lat="46.02223" lon="6.58559">
        <ele>1658</ele>
        <time>2017-12-29T15:32:04Z</time>
      </trkpt>
      <trkpt lat="46.02225" lon="6.58552">
        <ele>1658</ele>
        <time>2017-12-29T15:32:05Z</time>
      </trkpt>
      <trkpt lat="46.02236" lon="6.58522">
        <ele>1654</ele>
        <time>2017-12-29T15:32:09Z</time>
      </trkpt>
      <trkpt lat="46.02237" lon="6.58514">
        <ele>1652</ele>
        <time>2017-12-29T15:32:10Z</time>
      </trkpt>
      <trkpt lat="46.02238" lon="6.58506">
        <ele>1650</ele>
        <time>2017-12-29T15:32:11Z</time>
      </trkpt>
      <trkpt lat="46.02237" lon="6.58499">
        <ele>1648</ele>
        <time>2017-12-29T15:32:12Z</time>
      </trkpt>
      <trkpt lat="46.02235" lon="6.58485">
        <ele>1651</ele>
        <time>2017-12-29T15:32:14Z</time>
      </trkpt>
      <trkpt lat="46.02233" lon="6.58479">
        <ele>1653</ele>
        <time>2017-12-29T15:32:15Z</time>
      </trkpt>
      <trkpt lat="46.02232" lon="6.58472">
        <ele>1653</ele>
        <time>2017-12-29T15:32:16Z</time>
      </trkpt>
      <trkpt lat="46.02231" lon="6.58465">
        <ele>1654</ele>
        <time>2017-12-29T15:32:17Z</time>
      </trkpt>
      <trkpt lat="46.02231" lon="6.58459">
        <ele>1654</ele>
        <time>2017-12-29T15:32:18Z</time>
      </trkpt>
      <trkpt lat="46.02231" lon="6.58452">
        <ele>1653</ele>
        <time>2017-12-29T15:32:19Z</time>
      </trkpt>
      <trkpt lat="46.02231" lon="6.58445">
        <ele>1653</ele>
        <time>2017-12-29T15:32:20Z</time>
      </trkpt>
      <trkpt lat="46.02231" lon="6.58438">
        <ele>1652</ele>
        <time>2017-12-29T15:32:21Z</time>
      </trkpt>
      <trkpt lat="46.02231" lon="6.58432">
        <ele>1651</ele>
        <time>2017-12-29T15:32:22Z</time>
      </trkpt>
      <trkpt lat="46.0223" lon="6.58424">
        <ele>1650</ele>
        <time>2017-12-29T15:32:23Z</time>
      </trkpt>
      <trkpt lat="46.02228" lon="6.58417">
        <ele>1650</ele>
        <time>2017-12-29T15:32:24Z</time>
      </trkpt>
      <trkpt lat="46.02226" lon="6.58409">
        <ele>1646</ele>
        <time>2017-12-29T15:32:25Z</time>
      </trkpt>
      <trkpt lat="46.02225" lon="6.584">
        <ele>1647</ele>
        <time>2017-12-29T15:32:26Z</time>
      </trkpt>
      <trkpt lat="46.02223" lon="6.5839">
        <ele>1647</ele>
        <time>2017-12-29T15:32:27Z</time>
      </trkpt>
      <trkpt lat="46.02222" lon="6.58381">
        <ele>1647</ele>
        <time>2017-12-29T15:32:28Z</time>
      </trkpt>
      <trkpt lat="46.02219" lon="6.58361">
        <ele>1646</ele>
        <time>2017-12-29T15:32:30Z</time>
      </trkpt>
      <trkpt lat="46.02216" lon="6.58352">
        <ele>1646</ele>
        <time>2017-12-29T15:32:31Z</time>
      </trkpt>
      <trkpt lat="46.02209" lon="6.58333">
        <ele>1648</ele>
        <time>2017-12-29T15:32:33Z</time>
      </trkpt>
      <trkpt lat="46.02207" lon="6.58323">
        <ele>1638</ele>
        <time>2017-12-29T15:32:34Z</time>
      </trkpt>
      <trkpt lat="46.02206" lon="6.58311">
        <ele>1638</ele>
        <time>2017-12-29T15:32:35Z</time>
      </trkpt>
      <trkpt lat="46.02205" lon="6.58289">
        <ele>1636</ele>
        <time>2017-12-29T15:32:37Z</time>
      </trkpt>
      <trkpt lat="46.02204" lon="6.58269">
        <ele>1634</ele>
        <time>2017-12-29T15:32:39Z</time>
      </trkpt>
      <trkpt lat="46.02205" lon="6.58259">
        <ele>1633</ele>
        <time>2017-12-29T15:32:40Z</time>
      </trkpt>
      <trkpt lat="46.02208" lon="6.58249">
        <ele>1625</ele>
        <time>2017-12-29T15:32:41Z</time>
      </trkpt>
      <trkpt lat="46.0221" lon="6.58239">
        <ele>1624</ele>
        <time>2017-12-29T15:32:42Z</time>
      </trkpt>
      <trkpt lat="46.02211" lon="6.5823">
        <ele>1623</ele>
        <time>2017-12-29T15:32:43Z</time>
      </trkpt>
      <trkpt lat="46.02209" lon="6.58221">
        <ele>1623</ele>
        <time>2017-12-29T15:32:44Z</time>
      </trkpt>
      <trkpt lat="46.02207" lon="6.58214">
        <ele>1623</ele>
        <time>2017-12-29T15:32:45Z</time>
      </trkpt>
      <trkpt lat="46.02201" lon="6.58209">
        <ele>1624</ele>
        <time>2017-12-29T15:32:46Z</time>
      </trkpt>
      <trkpt lat="46.02197" lon="6.58203">
        <ele>1625</ele>
        <time>2017-12-29T15:32:47Z</time>
      </trkpt>
      <trkpt lat="46.02192" lon="6.58195">
        <ele>1626</ele>
        <time>2017-12-29T15:32:48Z</time>
      </trkpt>
      <trkpt lat="46.0219" lon="6.58185">
        <ele>1627</ele>
        <time>2017-12-29T15:32:49Z</time>
      </trkpt>
      <trkpt lat="46.02189" lon="6.58175">
        <ele>1627</ele>
        <time>2017-12-29T15:32:50Z</time>
      </trkpt>
      <trkpt lat="46.02189" lon="6.58165">
        <ele>1626</ele>
        <time>2017-12-29T15:32:51Z</time>
      </trkpt>
      <trkpt lat="46.0219" lon="6.58155">
        <ele>1625</ele>
        <time>2017-12-29T15:32:52Z</time>
      </trkpt>
      <trkpt lat="46.02192" lon="6.58146">
        <ele>1624</ele>
        <time>2017-12-29T15:32:53Z</time>
      </trkpt>
      <trkpt lat="46.02196" lon="6.58136">
        <ele>1622</ele>
        <time>2017-12-29T15:32:54Z</time>
      </trkpt>
      <trkpt lat="46.02201" lon="6.58127">
        <ele>1621</ele>
        <time>2017-12-29T15:32:55Z</time>
      </trkpt>
      <trkpt lat="46.02206" lon="6.58119">
        <ele>1620</ele>
        <time>2017-12-29T15:32:56Z</time>
      </trkpt>
      <trkpt lat="46.02212" lon="6.58111">
        <ele>1618</ele>
        <time>2017-12-29T15:32:57Z</time>
      </trkpt>
      <trkpt lat="46.02231" lon="6.5809">
        <ele>1609</ele>
        <time>2017-12-29T15:33:00Z</time>
      </trkpt>
      <trkpt lat="46.02238" lon="6.58086">
        <ele>1605</ele>
        <time>2017-12-29T15:33:01Z</time>
      </trkpt>
      <trkpt lat="46.02245" lon="6.58082">
        <ele>1600</ele>
        <time>2017-12-29T15:33:02Z</time>
      </trkpt>
      <trkpt lat="46.0225" lon="6.58075">
        <ele>1601</ele>
        <time>2017-12-29T15:33:03Z</time>
      </trkpt>
      <trkpt lat="46.02254" lon="6.58067">
        <ele>1583</ele>
        <time>2017-12-29T15:33:04Z</time>
      </trkpt>
      <trkpt lat="46.02257" lon="6.58058">
        <ele>1580</ele>
        <time>2017-12-29T15:33:05Z</time>
      </trkpt>
      <trkpt lat="46.02259" lon="6.58049">
        <ele>1578</ele>
        <time>2017-12-29T15:33:06Z</time>
      </trkpt>
      <trkpt lat="46.02261" lon="6.58038">
        <ele>1577</ele>
        <time>2017-12-29T15:33:07Z</time>
      </trkpt>
      <trkpt lat="46.02261" lon="6.58028">
        <ele>1577</ele>
        <time>2017-12-29T15:33:08Z</time>
      </trkpt>
      <trkpt lat="46.02261" lon="6.58018">
        <ele>1579</ele>
        <time>2017-12-29T15:33:09Z</time>
      </trkpt>
      <trkpt lat="46.02261" lon="6.58007">
        <ele>1582</ele>
        <time>2017-12-29T15:33:10Z</time>
      </trkpt>
      <trkpt lat="46.0226" lon="6.57996">
        <ele>1579</ele>
        <time>2017-12-29T15:33:11Z</time>
      </trkpt>
      <trkpt lat="46.02257" lon="6.57985">
        <ele>1575</ele>
        <time>2017-12-29T15:33:12Z</time>
      </trkpt>
      <trkpt lat="46.02255" lon="6.57974">
        <ele>1569</ele>
        <time>2017-12-29T15:33:13Z</time>
      </trkpt>
      <trkpt lat="46.02253" lon="6.57963">
        <ele>1566</ele>
        <time>2017-12-29T15:33:14Z</time>
      </trkpt>
      <trkpt lat="46.02248" lon="6.57941">
        <ele>1589</ele>
        <time>2017-12-29T15:33:16Z</time>
      </trkpt>
      <trkpt lat="46.02243" lon="6.57932">
        <ele>1585</ele>
        <time>2017-12-29T15:33:17Z</time>
      </trkpt>
      <trkpt lat="46.02238" lon="6.57923">
        <ele>1583</ele>
        <time>2017-12-29T15:33:18Z</time>
      </trkpt>
      <trkpt lat="46.02235" lon="6.57916">
        <ele>1573</ele>
        <time>2017-12-29T15:33:19Z</time>
      </trkpt>
      <trkpt lat="46.02235" lon="6.57913">
        <ele>1573</ele>
        <time>2017-12-29T15:33:20Z</time>
      </trkpt>
      <trkpt lat="46.02239" lon="6.57916">
        <ele>1572</ele>
        <time>2017-12-29T15:33:21Z</time>
      </trkpt>
      <trkpt lat="46.02244" lon="6.57919">
        <ele>1577</ele>
        <time>2017-12-29T15:33:22Z</time>
      </trkpt>
      <trkpt lat="46.02249" lon="6.57923">
        <ele>1577</ele>
        <time>2017-12-29T15:33:23Z</time>
      </trkpt>
      <trkpt lat="46.02266" lon="6.57939">
        <ele>1561</ele>
        <time>2017-12-29T15:33:26Z</time>
      </trkpt>
      <trkpt lat="46.02278" lon="6.57952">
        <ele>1559</ele>
        <time>2017-12-29T15:33:28Z</time>
      </trkpt>
      <trkpt lat="46.02284" lon="6.57957">
        <ele>1558</ele>
        <time>2017-12-29T15:33:29Z</time>
      </trkpt>
      <trkpt lat="46.02288" lon="6.57957">
        <ele>1557</ele>
        <time>2017-12-29T15:33:30Z</time>
      </trkpt>
      <trkpt lat="46.02289" lon="6.57955">
        <ele>1557</ele>
        <time>2017-12-29T15:33:31Z</time>
      </trkpt>
      <trkpt lat="46.02289" lon="6.57952">
        <ele>1556</ele>
        <time>2017-12-29T15:33:32Z</time>
      </trkpt>
      <trkpt lat="46.0229" lon="6.57949">
        <ele>1555</ele>
        <time>2017-12-29T15:33:33Z</time>
      </trkpt>
      <trkpt lat="46.02291" lon="6.57947">
        <ele>1555</ele>
        <time>2017-12-29T15:33:34Z</time>
      </trkpt>
      <trkpt lat="46.02292" lon="6.57943">
        <ele>1554</ele>
        <time>2017-12-29T15:33:35Z</time>
      </trkpt>
      <trkpt lat="46.02292" lon="6.57939">
        <ele>1554</ele>
        <time>2017-12-29T15:33:36Z</time>
      </trkpt>
      <trkpt lat="46.02294" lon="6.57935">
        <ele>1553</ele>
        <time>2017-12-29T15:33:37Z</time>
      </trkpt>
      <trkpt lat="46.02296" lon="6.57933">
        <ele>1552</ele>
        <time>2017-12-29T15:33:38Z</time>
      </trkpt>
      <trkpt lat="46.02298" lon="6.57929">
        <ele>1550</ele>
        <time>2017-12-29T15:33:39Z</time>
      </trkpt>
      <trkpt lat="46.023" lon="6.57926">
        <ele>1549</ele>
        <time>2017-12-29T15:33:40Z</time>
      </trkpt>
      <trkpt lat="46.02304" lon="6.57925">
        <ele>1547</ele>
        <time>2017-12-29T15:33:41Z</time>
      </trkpt>
      <trkpt lat="46.02306" lon="6.57922">
        <ele>1546</ele>
        <time>2017-12-29T15:33:42Z</time>
      </trkpt>
      <trkpt lat="46.02308" lon="6.57918">
        <ele>1544</ele>
        <time>2017-12-29T15:33:43Z</time>
      </trkpt>
      <trkpt lat="46.02312" lon="6.57916">
        <ele>1529</ele>
        <time>2017-12-29T15:33:44Z</time>
      </trkpt>
      <trkpt lat="46.02316" lon="6.57914">
        <ele>1528</ele>
        <time>2017-12-29T15:33:45Z</time>
      </trkpt>
      <trkpt lat="46.0232" lon="6.57911">
        <ele>1527</ele>
        <time>2017-12-29T15:33:46Z</time>
      </trkpt>
      <trkpt lat="46.02324" lon="6.57909">
        <ele>1526</ele>
        <time>2017-12-29T15:33:47Z</time>
      </trkpt>
      <trkpt lat="46.02327" lon="6.57906">
        <ele>1525</ele>
        <time>2017-12-29T15:33:48Z</time>
      </trkpt>
      <trkpt lat="46.02329" lon="6.57902">
        <ele>1525</ele>
        <time>2017-12-29T15:33:49Z</time>
      </trkpt>
      <trkpt lat="46.02331" lon="6.57897">
        <ele>1525</ele>
        <time>2017-12-29T15:33:50Z</time>
      </trkpt>
      <trkpt lat="46.02335" lon="6.57895">
        <ele>1502</ele>
        <time>2017-12-29T15:33:51Z</time>
      </trkpt>
      <trkpt lat="46.02337" lon="6.5789">
        <ele>1500</ele>
        <time>2017-12-29T15:33:52Z</time>
      </trkpt>
      <trkpt lat="46.0234" lon="6.57886">
        <ele>1498</ele>
        <time>2017-12-29T15:33:53Z</time>
      </trkpt>
      <trkpt lat="46.02345" lon="6.57884">
        <ele>1496</ele>
        <time>2017-12-29T15:33:54Z</time>
      </trkpt>
      <trkpt lat="46.02348" lon="6.57883">
        <ele>1495</ele>
        <time>2017-12-29T15:33:55Z</time>
      </trkpt>
      <trkpt lat="46.0235" lon="6.57878">
        <ele>1493</ele>
        <time>2017-12-29T15:33:56Z</time>
      </trkpt>
      <trkpt lat="46.02351" lon="6.57873">
        <ele>1492</ele>
        <time>2017-12-29T15:33:57Z</time>
      </trkpt>
      <trkpt lat="46.02356" lon="6.5787">
        <ele>1491</ele>
        <time>2017-12-29T15:33:58Z</time>
      </trkpt>
      <trkpt lat="46.02358" lon="6.57865">
        <ele>1489</ele>
        <time>2017-12-29T15:33:59Z</time>
      </trkpt>
      <trkpt lat="46.0236" lon="6.5786">
        <ele>1488</ele>
        <time>2017-12-29T15:34:00Z</time>
      </trkpt>
      <trkpt lat="46.02363" lon="6.57856">
        <ele>1487</ele>
        <time>2017-12-29T15:34:01Z</time>
      </trkpt>
      <trkpt lat="46.02368" lon="6.57855">
        <ele>1486</ele>
        <time>2017-12-29T15:34:02Z</time>
      </trkpt>
      <trkpt lat="46.02372" lon="6.57854">
        <ele>1485</ele>
        <time>2017-12-29T15:34:03Z</time>
      </trkpt>
      <trkpt lat="46.02374" lon="6.57848">
        <ele>1484</ele>
        <time>2017-12-29T15:34:04Z</time>
      </trkpt>
      <trkpt lat="46.02374" lon="6.57841">
        <ele>1484</ele>
        <time>2017-12-29T15:34:05Z</time>
      </trkpt>
      <trkpt lat="46.02377" lon="6.57838">
        <ele>1483</ele>
        <time>2017-12-29T15:34:06Z</time>
      </trkpt>
      <trkpt lat="46.02382" lon="6.57838">
        <ele>1481</ele>
        <time>2017-12-29T15:34:07Z</time>
      </trkpt>
      <trkpt lat="46.02386" lon="6.57838">
        <ele>1480</ele>
        <time>2017-12-29T15:34:08Z</time>
      </trkpt>
      <trkpt lat="46.02389" lon="6.57835">
        <ele>1478</ele>
        <time>2017-12-29T15:34:09Z</time>
      </trkpt>
      <trkpt lat="46.02391" lon="6.5783">
        <ele>1463</ele>
        <time>2017-12-29T15:34:10Z</time>
      </trkpt>
      <trkpt lat="46.02394" lon="6.57827">
        <ele>1462</ele>
        <time>2017-12-29T15:34:11Z</time>
      </trkpt>
      <trkpt lat="46.02398" lon="6.57825">
        <ele>1462</ele>
        <time>2017-12-29T15:34:12Z</time>
      </trkpt>
      <trkpt lat="46.024" lon="6.57821">
        <ele>1461</ele>
        <time>2017-12-29T15:34:13Z</time>
      </trkpt>
      <trkpt lat="46.02402" lon="6.57816">
        <ele>1461</ele>
        <time>2017-12-29T15:34:14Z</time>
      </trkpt>
      <trkpt lat="46.02407" lon="6.57814">
        <ele>1460</ele>
        <time>2017-12-29T15:34:15Z</time>
      </trkpt>
      <trkpt lat="46.02412" lon="6.57815">
        <ele>1460</ele>
        <time>2017-12-29T15:34:16Z</time>
      </trkpt>
      <trkpt lat="46.02416" lon="6.57816">
        <ele>1460</ele>
        <time>2017-12-29T15:34:17Z</time>
      </trkpt>
      <trkpt lat="46.0242" lon="6.57817">
        <ele>1447</ele>
        <time>2017-12-29T15:34:18Z</time>
      </trkpt>
      <trkpt lat="46.02423" lon="6.57815">
        <ele>1445</ele>
        <time>2017-12-29T15:34:19Z</time>
      </trkpt>
      <trkpt lat="46.02425" lon="6.57812">
        <ele>1443</ele>
        <time>2017-12-29T15:34:20Z</time>
      </trkpt>
      <trkpt lat="46.02428" lon="6.57809">
        <ele>1442</ele>
        <time>2017-12-29T15:34:21Z</time>
      </trkpt>
      <trkpt lat="46.02431" lon="6.57807">
        <ele>1440</ele>
        <time>2017-12-29T15:34:22Z</time>
      </trkpt>
      <trkpt lat="46.02433" lon="6.57803">
        <ele>1439</ele>
        <time>2017-12-29T15:34:23Z</time>
      </trkpt>
      <trkpt lat="46.02434" lon="6.57799">
        <ele>1437</ele>
        <time>2017-12-29T15:34:24Z</time>
      </trkpt>
      <trkpt lat="46.02438" lon="6.57797">
        <ele>1436</ele>
        <time>2017-12-29T15:34:25Z</time>
      </trkpt>
      <trkpt lat="46.02441" lon="6.57795">
        <ele>1435</ele>
        <time>2017-12-29T15:34:26Z</time>
      </trkpt>
      <trkpt lat="46.02444" lon="6.57791">
        <ele>1434</ele>
        <time>2017-12-29T15:34:27Z</time>
      </trkpt>
      <trkpt lat="46.02447" lon="6.57787">
        <ele>1433</ele>
        <time>2017-12-29T15:34:28Z</time>
      </trkpt>
      <trkpt lat="46.02452" lon="6.57785">
        <ele>1432</ele>
        <time>2017-12-29T15:34:29Z</time>
      </trkpt>
      <trkpt lat="46.02455" lon="6.57782">
        <ele>1431</ele>
        <time>2017-12-29T15:34:30Z</time>
      </trkpt>
      <trkpt lat="46.02458" lon="6.57777">
        <ele>1430</ele>
        <time>2017-12-29T15:34:31Z</time>
      </trkpt>
      <trkpt lat="46.02464" lon="6.57776">
        <ele>1429</ele>
        <time>2017-12-29T15:34:32Z</time>
      </trkpt>
      <trkpt lat="46.02469" lon="6.57777">
        <ele>1428</ele>
        <time>2017-12-29T15:34:33Z</time>
      </trkpt>
      <trkpt lat="46.02481" lon="6.57776">
        <ele>1425</ele>
        <time>2017-12-29T15:34:35Z</time>
      </trkpt>
      <trkpt lat="46.02488" lon="6.57774">
        <ele>1423</ele>
        <time>2017-12-29T15:34:36Z</time>
      </trkpt>
      <trkpt lat="46.02495" lon="6.5777">
        <ele>1421</ele>
        <time>2017-12-29T15:34:37Z</time>
      </trkpt>
      <trkpt lat="46.025" lon="6.57763">
        <ele>1418</ele>
        <time>2017-12-29T15:34:38Z</time>
      </trkpt>
      <trkpt lat="46.02505" lon="6.57758">
        <ele>1406</ele>
        <time>2017-12-29T15:34:39Z</time>
      </trkpt>
      <trkpt lat="46.02511" lon="6.57754">
        <ele>1405</ele>
        <time>2017-12-29T15:34:40Z</time>
      </trkpt>
      <trkpt lat="46.02516" lon="6.57749">
        <ele>1400</ele>
        <time>2017-12-29T15:34:41Z</time>
      </trkpt>
      <trkpt lat="46.02521" lon="6.57743">
        <ele>1397</ele>
        <time>2017-12-29T15:34:42Z</time>
      </trkpt>
      <trkpt lat="46.02527" lon="6.57739">
        <ele>1395</ele>
        <time>2017-12-29T15:34:43Z</time>
      </trkpt>
      <trkpt lat="46.02532" lon="6.57734">
        <ele>1393</ele>
        <time>2017-12-29T15:34:44Z</time>
      </trkpt>
      <trkpt lat="46.02537" lon="6.57728">
        <ele>1391</ele>
        <time>2017-12-29T15:34:45Z</time>
      </trkpt>
      <trkpt lat="46.02543" lon="6.57723">
        <ele>1390</ele>
        <time>2017-12-29T15:34:46Z</time>
      </trkpt>
      <trkpt lat="46.02548" lon="6.57717">
        <ele>1389</ele>
        <time>2017-12-29T15:34:47Z</time>
      </trkpt>
      <trkpt lat="46.02553" lon="6.57711">
        <ele>1387</ele>
        <time>2017-12-29T15:34:48Z</time>
      </trkpt>
      <trkpt lat="46.02558" lon="6.57705">
        <ele>1386</ele>
        <time>2017-12-29T15:34:49Z</time>
      </trkpt>
      <trkpt lat="46.02598" lon="6.57688">
        <ele>1368</ele>
        <time>2017-12-29T15:34:54Z</time>
      </trkpt>
      <trkpt lat="46.02607" lon="6.57686">
        <ele>1367</ele>
        <time>2017-12-29T15:34:55Z</time>
      </trkpt>
      <trkpt lat="46.02616" lon="6.5768">
        <ele>1366</ele>
        <time>2017-12-29T15:34:56Z</time>
      </trkpt>
      <trkpt lat="46.02625" lon="6.57674">
        <ele>1365</ele>
        <time>2017-12-29T15:34:57Z</time>
      </trkpt>
      <trkpt lat="46.02633" lon="6.57667">
        <ele>1363</ele>
        <time>2017-12-29T15:34:58Z</time>
      </trkpt>
      <trkpt lat="46.02641" lon="6.57659">
        <ele>1357</ele>
        <time>2017-12-29T15:34:59Z</time>
      </trkpt>
      <trkpt lat="46.02648" lon="6.57653">
        <ele>1356</ele>
        <time>2017-12-29T15:35:00Z</time>
      </trkpt>
      <trkpt lat="46.02655" lon="6.57646">
        <ele>1356</ele>
        <time>2017-12-29T15:35:01Z</time>
      </trkpt>
      <trkpt lat="46.02661" lon="6.5764">
        <ele>1355</ele>
        <time>2017-12-29T15:35:02Z</time>
      </trkpt>
      <trkpt lat="46.02669" lon="6.57635">
        <ele>1346</ele>
        <time>2017-12-29T15:35:03Z</time>
      </trkpt>
      <trkpt lat="46.02677" lon="6.57629">
        <ele>1345</ele>
        <time>2017-12-29T15:35:04Z</time>
      </trkpt>
      <trkpt lat="46.02684" lon="6.57621">
        <ele>1344</ele>
        <time>2017-12-29T15:35:05Z</time>
      </trkpt>
      <trkpt lat="46.0269" lon="6.57612">
        <ele>1343</ele>
        <time>2017-12-29T15:35:06Z</time>
      </trkpt>
      <trkpt lat="46.02698" lon="6.57606">
        <ele>1343</ele>
        <time>2017-12-29T15:35:07Z</time>
      </trkpt>
      <trkpt lat="46.02706" lon="6.57599">
        <ele>1342</ele>
        <time>2017-12-29T15:35:08Z</time>
      </trkpt>
      <trkpt lat="46.02721" lon="6.57584">
        <ele>1340</ele>
        <time>2017-12-29T15:35:10Z</time>
      </trkpt>
      <trkpt lat="46.02729" lon="6.57579">
        <ele>1335</ele>
        <time>2017-12-29T15:35:11Z</time>
      </trkpt>
      <trkpt lat="46.02736" lon="6.57571">
        <ele>1334</ele>
        <time>2017-12-29T15:35:12Z</time>
      </trkpt>
      <trkpt lat="46.02744" lon="6.57568">
        <ele>1334</ele>
        <time>2017-12-29T15:35:13Z</time>
      </trkpt>
      <trkpt lat="46.02751" lon="6.57565">
        <ele>1328</ele>
        <time>2017-12-29T15:35:14Z</time>
      </trkpt>
      <trkpt lat="46.02758" lon="6.57559">
        <ele>1327</ele>
        <time>2017-12-29T15:35:15Z</time>
      </trkpt>
      <trkpt lat="46.02766" lon="6.57556">
        <ele>1327</ele>
        <time>2017-12-29T15:35:16Z</time>
      </trkpt>
      <trkpt lat="46.02773" lon="6.57553">
        <ele>1326</ele>
        <time>2017-12-29T15:35:17Z</time>
      </trkpt>
      <trkpt lat="46.02786" lon="6.57545">
        <ele>1324</ele>
        <time>2017-12-29T15:35:19Z</time>
      </trkpt>
      <trkpt lat="46.02794" lon="6.57543">
        <ele>1324</ele>
        <time>2017-12-29T15:35:20Z</time>
      </trkpt>
      <trkpt lat="46.02801" lon="6.57539">
        <ele>1323</ele>
        <time>2017-12-29T15:35:21Z</time>
      </trkpt>
      <trkpt lat="46.02808" lon="6.57536">
        <ele>1323</ele>
        <time>2017-12-29T15:35:22Z</time>
      </trkpt>
      <trkpt lat="46.02814" lon="6.57533">
        <ele>1322</ele>
        <time>2017-12-29T15:35:23Z</time>
      </trkpt>
      <trkpt lat="46.0282" lon="6.57532">
        <ele>1322</ele>
        <time>2017-12-29T15:35:24Z</time>
      </trkpt>
      <trkpt lat="46.02825" lon="6.57533">
        <ele>1322</ele>
        <time>2017-12-29T15:35:25Z</time>
      </trkpt>
      <trkpt lat="46.0283" lon="6.57533">
        <ele>1322</ele>
        <time>2017-12-29T15:35:26Z</time>
      </trkpt>
      <trkpt lat="46.02835" lon="6.57533">
        <ele>1314</ele>
        <time>2017-12-29T15:35:27Z</time>
      </trkpt>
      <trkpt lat="46.0284" lon="6.57534">
        <ele>1314</ele>
        <time>2017-12-29T15:35:28Z</time>
      </trkpt>
      <trkpt lat="46.02844" lon="6.57534">
        <ele>1314</ele>
        <time>2017-12-29T15:35:29Z</time>
      </trkpt>
      <trkpt lat="46.02849" lon="6.57533">
        <ele>1314</ele>
        <time>2017-12-29T15:35:30Z</time>
      </trkpt>
      <trkpt lat="46.02855" lon="6.57532">
        <ele>1313</ele>
        <time>2017-12-29T15:35:31Z</time>
      </trkpt>
      <trkpt lat="46.02861" lon="6.57532">
        <ele>1313</ele>
        <time>2017-12-29T15:35:32Z</time>
      </trkpt>
      <trkpt lat="46.02867" lon="6.57531">
        <ele>1312</ele>
        <time>2017-12-29T15:35:33Z</time>
      </trkpt>
      <trkpt lat="46.02873" lon="6.5753">
        <ele>1312</ele>
        <time>2017-12-29T15:35:34Z</time>
      </trkpt>
      <trkpt lat="46.02879" lon="6.57529">
        <ele>1311</ele>
        <time>2017-12-29T15:35:35Z</time>
      </trkpt>
      <trkpt lat="46.02886" lon="6.57527">
        <ele>1311</ele>
        <time>2017-12-29T15:35:36Z</time>
      </trkpt>
      <trkpt lat="46.02892" lon="6.57526">
        <ele>1310</ele>
        <time>2017-12-29T15:35:37Z</time>
      </trkpt>
      <trkpt lat="46.02899" lon="6.57524">
        <ele>1309</ele>
        <time>2017-12-29T15:35:38Z</time>
      </trkpt>
      <trkpt lat="46.02904" lon="6.57522">
        <ele>1309</ele>
        <time>2017-12-29T15:35:39Z</time>
      </trkpt>
      <trkpt lat="46.02917" lon="6.57519">
        <ele>1308</ele>
        <time>2017-12-29T15:35:41Z</time>
      </trkpt>
      <trkpt lat="46.02922" lon="6.57517">
        <ele>1303</ele>
        <time>2017-12-29T15:35:42Z</time>
      </trkpt>
      <trkpt lat="46.02927" lon="6.57515">
        <ele>1303</ele>
        <time>2017-12-29T15:35:43Z</time>
      </trkpt>
      <trkpt lat="46.02929" lon="6.57513">
        <ele>1303</ele>
        <time>2017-12-29T15:35:44Z</time>
      </trkpt>
      <trkpt lat="46.0293" lon="6.57512">
        <ele>1303</ele>
        <time>2017-12-29T15:35:45Z</time>
      </trkpt>
      <trkpt lat="46.0293" lon="6.57509">
        <ele>1303</ele>
        <time>2017-12-29T15:35:47Z</time>
      </trkpt>
      <trkpt lat="46.0293" lon="6.57506">
        <ele>1303</ele>
        <time>2017-12-29T15:35:49Z</time>
      </trkpt>
      <trkpt lat="46.02931" lon="6.57503">
        <ele>1303</ele>
        <time>2017-12-29T15:35:50Z</time>
      </trkpt>
      <trkpt lat="46.02931" lon="6.57501">
        <ele>1303</ele>
        <time>2017-12-29T15:35:51Z</time>
      </trkpt>
      <trkpt lat="46.0293" lon="6.575">
        <ele>1303</ele>
        <time>2017-12-29T15:36:01Z</time>
      </trkpt>
      <trkpt lat="46.0293" lon="6.575">
        <ele>1303</ele>
        <time>2017-12-29T15:36:05Z</time>
      </trkpt>
      <trkpt lat="46.02929" lon="6.57501">
        <ele>1303</ele>
        <time>2017-12-29T15:36:09Z</time>
      </trkpt>
    </trkseg>
  </trk>
</gpx>